GFSSW_prec_precacc24_018.txt.gz
Total_Precipitation_Accumulation
0.05 0.06 0.06 0.08 0.07 0.07 0.07 0.06 0.05 0.06 0.06 0.04 0.01 0.02 0.04 0.06 0.04 0.05 0.02 0.00 0.00 0.00 0.00 0.00 0.00 0.00 0.00 0.00 0.00 0.00 0.00 0.00 0.00 0.00 0.00 0.00 0.00 0.00 0.00 0.00 0.00 0.00 0.00 0.00 0.00
0.03 0.04 0.05 0.08 0.07 0.05 0.05 0.04 0.04 0.04 0.05 0.06 0.02 0.02 0.11 0.11 0.04 0.03 0.00 0.00 0.00 0.00 0.00 0.00 0.00 0.00 0.00 0.00 0.00 0.00 0.00 0.00 0.00 0.00 0.00 0.00 0.00 0.00 0.00 0.00 0.00 0.00 0.00 0.00 0.00
0.02 0.04 0.06 0.08 0.10 0.07 0.06 0.05 0.04 0.05 0.06 0.08 0.06 0.01 0.12 0.16 0.14 0.02 0.00 0.00 0.02 0.04 0.00 0.00 0.00 0.00 0.00 0.00 0.00 0.00 0.00 0.00 0.00 0.00 0.00 0.00 0.00 0.00 0.00 0.00 0.00 0.00 0.00 0.00 0.00
0.05 0.04 0.06 0.08 0.07 0.08 0.07 0.07 0.06 0.09 0.11 0.09 0.11 0.02 0.07 0.23 0.10 0.01 0.00 0.00 0.06 0.11 0.00 0.00 0.00 0.00 0.00 0.00 0.00 0.00 0.00 0.00 0.00 0.00 0.00 0.00 0.00 0.00 0.00 0.00 0.00 0.00 0.00 0.00 0.00
0.10 0.11 0.08 0.08 0.07 0.09 0.09 0.06 0.07 0.10 0.13 0.16 0.12 0.06 0.05 0.19 0.06 0.00 0.03 0.05 0.11 0.20 0.01 0.00 0.00 0.00 0.00 0.00 0.00 0.00 0.00 0.00 0.00 0.00 0.00 0.00 0.00 0.00 0.00 0.00 0.00 0.00 0.00 0.00 0.00
0.17 0.14 0.07 0.08 0.09 0.08 0.08 0.06 0.06 0.13 0.15 0.15 0.30 0.18 0.01 0.05 0.01 0.00 0.01 0.06 0.07 0.24 0.06 0.01 0.00 0.00 0.00 0.00 0.00 0.00 0.00 0.00 0.00 0.00 0.00 0.00 0.00 0.00 0.00 0.00 0.00 0.00 0.00 0.00 0.00
0.14 0.09 0.07 0.09 0.10 0.09 0.08 0.05 0.07 0.14 0.15 0.18 0.26 0.16 0.02 0.00 0.00 0.00 0.01 0.03 0.02 0.17 0.12 0.03 0.00 0.00 0.00 0.00 0.00 0.00 0.00 0.00 0.00 0.00 0.00 0.00 0.00 0.00 0.00 0.00 0.00 0.00 0.00 0.00 0.00
0.07 0.06 0.05 0.06 0.10 0.11 0.11 0.06 0.07 0.13 0.21 0.19 0.37 0.11 0.00 0.00 0.00 0.00 0.00 0.00 0.01 0.08 0.18 0.10 0.03 0.01 0.00 0.00 0.00 0.00 0.00 0.00 0.00 0.00 0.00 0.00 0.00 0.00 0.00 0.00 0.00 0.00 0.00 0.00 0.00
0.07 0.06 0.05 0.06 0.10 0.15 0.19 0.25 0.23 0.21 0.22 0.36 0.40 0.11 0.00 0.00 0.00 0.00 0.00 0.00 0.07 0.20 0.18 0.09 0.06 0.01 0.00 0.00 0.00 0.00 0.00 0.00 0.00 0.00 0.00 0.00 0.00 0.00 0.00 0.00 0.00 0.00 0.00 0.00 0.00
0.07 0.05 0.09 0.07 0.09 0.22 0.35 0.49 0.54 0.40 0.39 0.51 0.40 0.12 0.00 0.00 0.00 0.00 0.00 0.01 0.05 0.16 0.12 0.14 0.09 0.05 0.00 0.00 0.00 0.00 0.00 0.00 0.00 0.00 0.00 0.00 0.00 0.00 0.00 0.00 0.00 0.00 0.00 0.00 0.00
0.06 0.06 0.11 0.12 0.16 0.46 0.65 0.85 0.97 0.78 0.63 0.42 0.23 0.02 0.00 0.00 0.00 0.00 0.00 0.01 0.06 0.09 0.04 0.05 0.07 0.03 0.00 0.00 0.00 0.00 0.00 0.00 0.00 0.00 0.00 0.00 0.00 0.00 0.00 0.00 0.00 0.00 0.00 0.00 0.00
0.07 0.14 0.22 0.21 0.24 0.48 0.78 0.73 0.59 0.41 0.40 0.30 0.11 0.01 0.00 0.00 0.00 0.00 0.00 0.00 0.02 0.03 0.01 0.00 0.02 0.00 0.00 0.00 0.00 0.00 0.00 0.00 0.00 0.00 0.00 0.00 0.00 0.00 0.00 0.00 0.00 0.00 0.00 0.00 0.00
0.20 0.20 0.22 0.16 0.15 0.50 0.54 0.48 0.51 0.55 0.47 0.45 0.18 0.02 0.00 0.00 0.00 0.00 0.00 0.00 0.00 0.00 0.00 0.00 0.00 0.00 0.00 0.00 0.00 0.00 0.00 0.00 0.00 0.00 0.00 0.00 0.00 0.00 0.00 0.00 0.00 0.00 0.00 0.00 0.00
0.23 0.17 0.19 0.17 0.29 0.43 0.44 0.42 0.71 0.96 0.82 0.60 0.31 0.05 0.00 0.00 0.00 0.00 0.00 0.00 0.00 0.00 0.00 0.00 0.00 0.00 0.00 0.00 0.00 0.00 0.00 0.00 0.00 0.00 0.00 0.00 0.00 0.00 0.00 0.00 0.00 0.00 0.00 0.00 0.00
0.12 0.09 0.15 0.35 0.54 0.50 0.47 0.50 0.84 1.37 1.21 0.54 0.19 0.03 0.01 0.00 0.00 0.01 0.00 0.00 0.00 0.00 0.00 0.00 0.00 0.00 0.00 0.00 0.00 0.00 0.00 0.00 0.00 0.01 0.01 0.00 0.01 0.00 0.00 0.00 0.00 0.00 0.00 0.00 0.00
0.07 0.10 0.22 0.34 0.66 0.50 0.44 0.95 1.03 1.38 1.04 0.58 0.20 0.07 0.04 0.02 0.01 0.00 0.01 0.01 0.00 0.00 0.00 0.00 0.00 0.00 0.00 0.00 0.00 0.00 0.00 0.00 0.00 0.02 0.04 0.00 0.00 0.00 0.00 0.00 0.00 0.00 0.00 0.00 0.00
0.13 0.18 0.44 0.42 0.43 0.37 0.78 1.41 1.32 0.85 0.53 0.21 0.08 0.05 0.03 0.02 0.03 0.01 0.02 0.02 0.01 0.01 0.03 0.00 0.00 0.00 0.00 0.00 0.00 0.00 0.04 0.06 0.06 0.09 0.02 0.00 0.00 0.00 0.00 0.00 0.00 0.00 0.00 0.00 0.00
0.44 0.35 0.28 0.25 0.27 0.73 1.28 1.05 0.99 0.38 0.27 0.07 0.02 0.03 0.02 0.01 0.03 0.02 0.01 0.03 0.01 0.00 0.00 0.00 0.00 0.00 0.00 0.00 0.00 0.00 0.02 0.05 0.02 0.00 0.00 0.00 0.00 0.00 0.00 0.00 0.00 0.00 0.00 0.00 0.00
0.49 0.18 0.21 0.13 0.26 0.98 1.08 0.90 0.72 0.43 0.11 0.05 0.10 0.11 0.08 0.01 0.02 0.02 0.02 0.01 0.00 0.00 0.01 0.00 0.00 0.00 0.00 0.00 0.01 0.07 0.11 0.04 0.15 0.10 0.12 0.02 0.00 0.00 0.00 0.00 0.00 0.00 0.00 0.00 0.00
0.45 0.20 0.30 0.20 0.36 0.93 0.76 0.66 0.40 0.32 0.05 0.00 0.06 0.02 0.02 0.01 0.01 0.01 0.01 0.00 0.00 0.00 0.00 0.00 0.00 0.00 0.00 0.00 0.00 0.01 0.02 0.09 0.24 0.15 0.06 0.00 0.00 0.00 0.00 0.00 0.00 0.00 0.00 0.00 0.00
0.45 0.23 0.35 0.31 0.58 0.93 0.66 0.59 0.31 0.14 0.03 0.00 0.00 0.00 0.00 0.00 0.00 0.00 0.00 0.00 0.00 0.00 0.00 0.00 0.02 0.01 0.01 0.00 0.00 0.01 0.08 0.11 0.16 0.14 0.08 0.03 0.00 0.00 0.00 0.00 0.00 0.00 0.00 0.00 0.00
0.59 0.47 0.21 0.32 0.64 0.70 0.55 0.50 0.43 0.15 0.02 0.00 0.00 0.00 0.00 0.00 0.00 0.00 0.00 0.00 0.00 0.00 0.00 0.00 0.04 0.02 0.01 0.00 0.00 0.00 0.00 0.03 0.21 0.08 0.13 0.06 0.03 0.00 0.00 0.00 0.00 0.00 0.00 0.00 0.00
0.48 0.46 0.27 0.26 0.29 0.27 0.37 0.30 0.13 0.08 0.04 0.00 0.00 0.00 0.00 0.00 0.00 0.00 0.00 0.00 0.00 0.00 0.00 0.00 0.04 0.03 0.01 0.03 0.03 0.04 0.01 0.10 0.20 0.39 0.23 0.12 0.03 0.00 0.00 0.00 0.00 0.00 0.00 0.00 0.00
0.69 0.72 0.54 0.31 0.15 0.08 0.28 0.21 0.12 0.09 0.02 0.00 0.00 0.00 0.00 0.00 0.00 0.00 0.00 0.00 0.00 0.00 0.00 0.01 0.03 0.02 0.03 0.06 0.19 0.18 0.03 0.10 0.38 0.50 0.08 0.04 0.00 0.00 0.00 0.00 0.01 0.01 0.01 0.01 0.00
0.52 0.20 0.14 0.16 0.10 0.10 0.15 0.17 0.11 0.04 0.01 0.00 0.01 0.00 0.00 0.01 0.00 0.00 0.00 0.00 0.00 0.00 0.00 0.04 0.05 0.02 0.02 0.06 0.22 0.20 0.08 0.07 0.31 0.16 0.21 0.06 0.00 0.00 0.00 0.00 0.01 0.01 0.00 0.00 0.01
0.36 0.08 0.01 0.01 0.05 0.05 0.04 0.07 0.03 0.00 0.00 0.00 0.00 0.00 0.01 0.01 0.00 0.00 0.00 0.00 0.00 0.00 0.01 0.05 0.09 0.06 0.06 0.05 0.10 0.16 0.04 0.06 0.05 0.02 0.02 0.00 0.00 0.01 0.00 0.01 0.06 0.03 0.01 0.01 0.00
0.33 0.11 0.03 0.05 0.04 0.01 0.01 0.00 0.01 0.00 0.00 0.01 0.00 0.01 0.02 0.01 0.00 0.00 0.00 0.00 0.00 0.00 0.02 0.06 0.08 0.15 0.07 0.04 0.11 0.13 0.04 0.02 0.01 0.00 0.01 0.01 0.01 0.01 0.07 0.18 0.16 0.03 0.01 0.00 0.00

GFSSW_prec_precacc24_021.txt.gz
Total_Precipitation_Accumulation
0.05 0.06 0.06 0.08 0.07 0.07 0.07 0.06 0.05 0.06 0.07 0.08 0.12 0.07 0.04 0.06 0.04 0.06 0.03 0.00 0.00 0.00 0.00 0.00 0.00 0.00 0.00 0.00 0.00 0.00 0.00 0.00 0.00 0.00 0.00 0.00 0.00 0.00 0.00 0.00 0.00 0.00 0.00 0.00 0.00
0.05 0.06 0.07 0.08 0.07 0.05 0.05 0.04 0.04 0.04 0.05 0.07 0.10 0.18 0.12 0.12 0.05 0.03 0.00 0.00 0.00 0.00 0.00 0.00 0.00 0.00 0.00 0.00 0.00 0.00 0.00 0.00 0.00 0.00 0.00 0.00 0.00 0.00 0.00 0.00 0.00 0.00 0.00 0.00 0.00
0.06 0.06 0.09 0.12 0.13 0.10 0.06 0.05 0.04 0.05 0.06 0.08 0.12 0.17 0.19 0.17 0.14 0.02 0.00 0.00 0.02 0.04 0.00 0.00 0.00 0.00 0.00 0.00 0.00 0.00 0.00 0.00 0.00 0.00 0.00 0.00 0.00 0.00 0.00 0.00 0.00 0.00 0.00 0.00 0.00
0.07 0.07 0.11 0.16 0.14 0.12 0.09 0.07 0.06 0.09 0.11 0.09 0.14 0.16 0.16 0.24 0.10 0.01 0.00 0.00 0.06 0.11 0.00 0.00 0.00 0.00 0.00 0.00 0.00 0.00 0.00 0.00 0.00 0.00 0.00 0.00 0.00 0.00 0.00 0.00 0.00 0.00 0.00 0.00 0.00
0.12 0.16 0.16 0.12 0.11 0.12 0.11 0.07 0.07 0.10 0.13 0.16 0.12 0.37 0.31 0.19 0.06 0.00 0.06 0.09 0.14 0.22 0.01 0.00 0.00 0.00 0.00 0.00 0.00 0.00 0.00 0.00 0.00 0.00 0.00 0.00 0.00 0.00 0.00 0.00 0.00 0.00 0.00 0.00 0.00
0.20 0.18 0.09 0.11 0.12 0.09 0.09 0.06 0.06 0.13 0.15 0.15 0.31 0.37 0.26 0.08 0.01 0.00 0.06 0.16 0.10 0.26 0.06 0.01 0.00 0.00 0.00 0.00 0.00 0.00 0.00 0.00 0.00 0.00 0.00 0.00 0.00 0.00 0.00 0.00 0.00 0.00 0.00 0.00 0.00
0.16 0.11 0.09 0.10 0.11 0.09 0.08 0.06 0.07 0.14 0.15 0.18 0.27 0.43 0.10 0.02 0.00 0.00 0.07 0.17 0.14 0.19 0.12 0.03 0.00 0.00 0.00 0.00 0.00 0.00 0.00 0.00 0.00 0.00 0.00 0.00 0.00 0.00 0.00 0.00 0.00 0.00 0.00 0.00 0.00
0.09 0.07 0.06 0.07 0.11 0.12 0.11 0.06 0.07 0.13 0.21 0.19 0.39 0.37 0.07 0.01 0.00 0.00 0.02 0.08 0.13 0.17 0.19 0.11 0.04 0.01 0.00 0.00 0.00 0.00 0.00 0.00 0.00 0.00 0.00 0.00 0.00 0.00 0.00 0.00 0.00 0.00 0.00 0.00 0.00
0.08 0.08 0.06 0.07 0.11 0.17 0.19 0.26 0.23 0.21 0.22 0.36 0.44 0.30 0.06 0.00 0.00 0.00 0.01 0.02 0.10 0.28 0.26 0.11 0.09 0.02 0.00 0.00 0.00 0.00 0.00 0.00 0.00 0.00 0.00 0.00 0.00 0.00 0.00 0.00 0.00 0.00 0.00 0.00 0.00
0.07 0.06 0.09 0.07 0.10 0.24 0.35 0.50 0.54 0.40 0.39 0.52 0.53 0.37 0.03 0.00 0.00 0.00 0.02 0.03 0.10 0.26 0.22 0.23 0.15 0.06 0.00 0.00 0.00 0.00 0.00 0.00 0.00 0.00 0.00 0.00 0.00 0.00 0.00 0.00 0.00 0.00 0.00 0.00 0.00
0.06 0.06 0.11 0.12 0.17 0.47 0.65 0.85 0.98 0.78 0.63 0.43 0.30 0.11 0.00 0.00 0.00 0.01 0.02 0.04 0.16 0.20 0.11 0.10 0.11 0.07 0.01 0.00 0.00 0.00 0.00 0.00 0.00 0.00 0.00 0.00 0.00 0.00 0.00 0.00 0.00 0.00 0.00 0.00 0.00
0.07 0.14 0.22 0.22 0.25 0.49 0.78 0.73 0.61 0.44 0.40 0.31 0.16 0.04 0.01 0.00 0.00 0.00 0.01 0.04 0.08 0.18 0.06 0.05 0.04 0.04 0.02 0.00 0.00 0.00 0.00 0.00 0.00 0.00 0.00 0.00 0.00 0.00 0.00 0.00 0.00 0.00 0.00 0.00 0.00
0.20 0.21 0.23 0.19 0.18 0.51 0.54 0.48 0.53 0.56 0.47 0.48 0.28 0.05 0.00 0.00 0.00 0.00 0.01 0.02 0.02 0.05 0.09 0.02 0.01 0.01 0.02 0.00 0.00 0.00 0.00 0.00 0.00 0.00 0.00 0.00 0.00 0.00 0.00 0.00 0.00 0.00 0.00 0.00 0.00
0.26 0.20 0.23 0.26 0.32 0.48 0.45 0.44 0.74 0.96 0.82 0.68 0.44 0.08 0.00 0.00 0.00 0.00 0.01 0.00 0.00 0.01 0.08 0.04 0.00 0.00 0.00 0.00 0.00 0.00 0.00 0.00 0.00 0.00 0.00 0.00 0.00 0.00 0.00 0.00 0.00 0.00 0.00 0.00 0.00
0.18 0.13 0.20 0.48 0.71 0.54 0.47 0.51 0.85 1.37 1.22 0.63 0.32 0.08 0.02 0.00 0.00 0.03 0.01 0.00 0.00 0.00 0.00 0.01 0.00 0.00 0.00 0.00 0.00 0.00 0.00 0.00 0.00 0.01 0.01 0.00 0.01 0.00 0.00 0.00 0.00 0.00 0.00 0.00 0.00
0.20 0.20 0.34 0.43 0.77 0.57 0.44 0.95 1.03 1.38 1.21 0.78 0.34 0.13 0.07 0.02 0.01 0.01 0.01 0.01 0.00 0.00 0.00 0.00 0.00 0.00 0.00 0.00 0.00 0.00 0.00 0.00 0.00 0.02 0.04 0.00 0.00 0.00 0.00 0.00 0.00 0.00 0.00 0.00 0.00
0.18 0.20 0.45 0.43 0.44 0.38 0.78 1.41 1.32 0.90 0.71 0.34 0.16 0.07 0.03 0.02 0.04 0.02 0.03 0.02 0.01 0.02 0.05 0.00 0.00 0.00 0.00 0.00 0.00 0.00 0.04 0.06 0.06 0.09 0.02 0.00 0.00 0.00 0.00 0.00 0.00 0.00 0.00 0.00 0.00
0.45 0.36 0.29 0.25 0.27 0.73 1.28 1.06 1.03 0.50 0.42 0.12 0.03 0.04 0.03 0.01 0.04 0.03 0.01 0.03 0.01 0.00 0.01 0.00 0.00 0.00 0.00 0.00 0.00 0.00 0.02 0.05 0.02 0.00 0.00 0.00 0.00 0.00 0.00 0.00 0.00 0.00 0.00 0.00 0.00
0.49 0.18 0.21 0.13 0.26 0.98 1.09 0.94 0.82 0.65 0.24 0.07 0.11 0.12 0.10 0.01 0.03 0.02 0.03 0.01 0.00 0.00 0.01 0.00 0.00 0.00 0.00 0.00 0.01 0.07 0.11 0.04 0.15 0.10 0.12 0.02 0.00 0.00 0.00 0.00 0.00 0.00 0.00 0.00 0.00
0.45 0.20 0.30 0.20 0.36 0.93 0.77 0.75 0.49 0.39 0.06 0.00 0.08 0.03 0.03 0.01 0.01 0.01 0.01 0.00 0.00 0.00 0.00 0.00 0.00 0.00 0.00 0.00 0.00 0.01 0.02 0.09 0.24 0.15 0.06 0.00 0.00 0.00 0.00 0.00 0.00 0.00 0.00 0.00 0.00
0.45 0.23 0.35 0.31 0.58 0.95 0.71 0.67 0.39 0.15 0.03 0.00 0.00 0.00 0.00 0.00 0.00 0.00 0.00 0.00 0.00 0.00 0.00 0.00 0.02 0.01 0.01 0.00 0.00 0.01 0.08 0.11 0.16 0.14 0.08 0.03 0.00 0.00 0.00 0.00 0.00 0.00 0.00 0.00 0.00
0.59 0.47 0.21 0.32 0.65 0.77 0.65 0.56 0.45 0.15 0.02 0.00 0.00 0.00 0.00 0.00 0.00 0.00 0.00 0.00 0.00 0.00 0.00 0.00 0.04 0.02 0.01 0.00 0.00 0.00 0.00 0.03 0.21 0.08 0.13 0.06 0.03 0.00 0.00 0.00 0.00 0.00 0.00 0.00 0.00
0.48 0.46 0.27 0.26 0.29 0.28 0.38 0.31 0.13 0.08 0.04 0.00 0.00 0.00 0.00 0.00 0.00 0.00 0.00 0.00 0.00 0.00 0.00 0.00 0.04 0.03 0.01 0.03 0.03 0.04 0.01 0.10 0.20 0.39 0.24 0.12 0.03 0.00 0.00 0.00 0.00 0.00 0.00 0.00 0.00
0.69 0.72 0.54 0.31 0.15 0.08 0.28 0.21 0.12 0.09 0.02 0.00 0.00 0.00 0.00 0.00 0.00 0.00 0.00 0.00 0.00 0.00 0.00 0.01 0.03 0.02 0.03 0.06 0.19 0.18 0.03 0.10 0.38 0.51 0.08 0.04 0.00 0.00 0.00 0.00 0.01 0.01 0.01 0.01 0.00
0.52 0.20 0.14 0.16 0.10 0.10 0.15 0.17 0.11 0.04 0.01 0.00 0.01 0.00 0.00 0.01 0.00 0.00 0.00 0.00 0.00 0.00 0.00 0.04 0.05 0.02 0.02 0.06 0.22 0.20 0.08 0.07 0.31 0.16 0.21 0.06 0.00 0.00 0.00 0.00 0.01 0.01 0.00 0.00 0.01
0.36 0.08 0.01 0.01 0.05 0.05 0.04 0.07 0.03 0.00 0.00 0.00 0.00 0.00 0.01 0.01 0.00 0.00 0.00 0.00 0.00 0.00 0.01 0.05 0.09 0.06 0.06 0.05 0.10 0.16 0.04 0.06 0.05 0.02 0.02 0.00 0.00 0.01 0.00 0.01 0.06 0.03 0.01 0.01 0.00
0.33 0.11 0.03 0.05 0.04 0.01 0.01 0.00 0.01 0.00 0.00 0.01 0.00 0.01 0.02 0.01 0.00 0.00 0.00 0.00 0.00 0.00 0.02 0.06 0.08 0.15 0.07 0.04 0.11 0.13 0.04 0.02 0.01 0.00 0.01 0.01 0.01 0.01 0.07 0.18 0.16 0.03 0.01 0.00 0.00

GFSSW_prec_precacc24_027.txt.gz
Total_Precipitation_Accumulation
0.05 0.07 0.09 0.12 0.11 0.12 0.11 0.09 0.07 0.06 0.07 0.08 0.13 0.23 0.22 0.24 0.13 0.07 0.03 0.00 0.00 0.00 0.00 0.00 0.00 0.00 0.00 0.00 0.00 0.00 0.00 0.00 0.00 0.00 0.00 0.00 0.00 0.00 0.00 0.00 0.00 0.00 0.00 0.00 0.00
0.05 0.06 0.07 0.12 0.13 0.13 0.16 0.14 0.11 0.05 0.05 0.07 0.09 0.24 0.35 0.27 0.13 0.04 0.00 0.00 0.00 0.00 0.01 0.00 0.00 0.00 0.00 0.00 0.00 0.00 0.00 0.00 0.00 0.00 0.00 0.00 0.00 0.00 0.00 0.00 0.00 0.00 0.00 0.00 0.00
0.06 0.06 0.07 0.14 0.21 0.23 0.20 0.15 0.10 0.07 0.07 0.08 0.12 0.17 0.31 0.34 0.25 0.02 0.00 0.00 0.02 0.02 0.01 0.00 0.00 0.00 0.00 0.00 0.00 0.00 0.00 0.00 0.00 0.00 0.00 0.00 0.00 0.00 0.00 0.00 0.00 0.00 0.00 0.00 0.00
0.07 0.08 0.12 0.16 0.20 0.19 0.17 0.18 0.16 0.14 0.15 0.10 0.14 0.16 0.27 0.46 0.21 0.05 0.02 0.00 0.06 0.09 0.02 0.01 0.00 0.00 0.00 0.00 0.00 0.00 0.00 0.00 0.00 0.00 0.00 0.00 0.00 0.00 0.00 0.00 0.00 0.00 0.00 0.00 0.00
0.10 0.18 0.18 0.11 0.12 0.17 0.15 0.12 0.11 0.14 0.16 0.17 0.12 0.37 0.43 0.40 0.13 0.05 0.07 0.11 0.14 0.24 0.03 0.02 0.00 0.00 0.00 0.00 0.00 0.00 0.00 0.00 0.00 0.00 0.00 0.00 0.00 0.00 0.00 0.00 0.00 0.00 0.00 0.00 0.00
0.17 0.20 0.10 0.08 0.10 0.10 0.12 0.10 0.08 0.14 0.15 0.15 0.31 0.38 0.36 0.20 0.03 0.02 0.07 0.27 0.12 0.27 0.07 0.02 0.00 0.00 0.00 0.00 0.00 0.00 0.00 0.00 0.00 0.00 0.00 0.00 0.00 0.00 0.00 0.00 0.00 0.00 0.00 0.00 0.00
0.16 0.11 0.08 0.07 0.07 0.08 0.09 0.07 0.09 0.15 0.16 0.19 0.28 0.45 0.20 0.10 0.03 0.04 0.11 0.34 0.25 0.21 0.13 0.03 0.00 0.00 0.00 0.00 0.00 0.00 0.00 0.00 0.00 0.00 0.00 0.00 0.00 0.00 0.00 0.00 0.00 0.00 0.00 0.00 0.00
0.15 0.09 0.06 0.07 0.07 0.09 0.11 0.08 0.08 0.13 0.22 0.19 0.40 0.42 0.12 0.02 0.06 0.03 0.06 0.23 0.44 0.38 0.23 0.12 0.04 0.01 0.00 0.00 0.00 0.00 0.00 0.00 0.00 0.00 0.00 0.00 0.00 0.00 0.00 0.00 0.00 0.00 0.00 0.00 0.00
0.18 0.12 0.07 0.06 0.07 0.11 0.15 0.25 0.23 0.21 0.23 0.34 0.45 0.37 0.12 0.01 0.02 0.04 0.04 0.20 0.38 0.58 0.46 0.20 0.11 0.03 0.00 0.00 0.00 0.00 0.00 0.00 0.00 0.00 0.00 0.00 0.00 0.00 0.00 0.00 0.00 0.00 0.00 0.00 0.00
0.13 0.07 0.08 0.06 0.07 0.14 0.24 0.47 0.54 0.40 0.40 0.53 0.53 0.52 0.12 0.02 0.01 0.04 0.10 0.18 0.33 0.71 0.52 0.39 0.24 0.07 0.01 0.00 0.00 0.00 0.00 0.00 0.00 0.00 0.00 0.00 0.00 0.00 0.00 0.00 0.00 0.00 0.00 0.00 0.00
0.09 0.09 0.12 0.11 0.17 0.28 0.44 0.78 0.98 0.78 0.63 0.43 0.31 0.19 0.04 0.05 0.01 0.03 0.17 0.24 0.59 1.01 0.44 0.18 0.17 0.09 0.01 0.00 0.00 0.00 0.00 0.00 0.00 0.00 0.00 0.00 0.00 0.00 0.00 0.00 0.00 0.00 0.00 0.00 0.00
0.12 0.23 0.31 0.27 0.26 0.25 0.62 0.70 0.62 0.51 0.40 0.31 0.19 0.14 0.05 0.08 0.01 0.02 0.18 0.33 0.55 0.74 0.35 0.17 0.10 0.05 0.02 0.00 0.00 0.00 0.00 0.00 0.00 0.00 0.00 0.00 0.00 0.00 0.00 0.00 0.00 0.00 0.00 0.00 0.00
0.26 0.36 0.34 0.31 0.17 0.16 0.43 0.44 0.53 0.58 0.48 0.50 0.34 0.17 0.13 0.08 0.00 0.01 0.30 0.40 0.31 0.43 0.35 0.15 0.08 0.05 0.08 0.01 0.00 0.00 0.00 0.00 0.00 0.00 0.00 0.00 0.00 0.00 0.00 0.00 0.00 0.00 0.00 0.00 0.00
0.32 0.35 0.30 0.31 0.15 0.20 0.25 0.39 0.73 0.97 0.82 0.69 0.53 0.29 0.09 0.03 0.00 0.01 0.34 0.21 0.21 0.22 0.61 0.20 0.09 0.07 0.06 0.07 0.00 0.00 0.00 0.00 0.00 0.00 0.00 0.00 0.00 0.00 0.00 0.00 0.00 0.00 0.00 0.00 0.00
0.24 0.21 0.25 0.48 0.47 0.27 0.25 0.45 0.84 1.37 1.23 0.66 0.51 0.33 0.10 0.01 0.01 0.04 0.30 0.21 0.10 0.10 0.39 0.16 0.12 0.10 0.09 0.04 0.01 0.00 0.00 0.00 0.00 0.00 0.00 0.00 0.01 0.00 0.00 0.00 0.00 0.00 0.00 0.00 0.00
0.18 0.18 0.32 0.38 0.54 0.23 0.20 0.84 0.99 1.38 1.26 0.91 0.58 0.24 0.07 0.03 0.01 0.08 0.29 0.13 0.07 0.08 0.12 0.05 0.08 0.07 0.08 0.01 0.02 0.00 0.00 0.00 0.00 0.01 0.02 0.00 0.00 0.00 0.00 0.00 0.00 0.00 0.00 0.00 0.00
0.14 0.19 0.40 0.31 0.11 0.07 0.48 1.12 1.24 0.94 0.86 0.54 0.36 0.09 0.03 0.04 0.05 0.06 0.09 0.03 0.03 0.04 0.09 0.01 0.00 0.02 0.01 0.00 0.00 0.00 0.01 0.01 0.03 0.05 0.01 0.00 0.00 0.00 0.00 0.00 0.00 0.00 0.00 0.00 0.00
0.34 0.31 0.23 0.17 0.05 0.14 0.97 0.87 1.00 0.58 0.64 0.25 0.05 0.04 0.03 0.03 0.06 0.04 0.01 0.02 0.00 0.00 0.01 0.01 0.00 0.00 0.00 0.00 0.00 0.00 0.01 0.01 0.00 0.00 0.00 0.00 0.00 0.00 0.00 0.00 0.00 0.00 0.00 0.00 0.00
0.35 0.12 0.15 0.11 0.05 0.36 0.80 0.74 0.86 0.84 0.52 0.14 0.12 0.12 0.10 0.02 0.04 0.04 0.02 0.00 0.00 0.00 0.00 0.00 0.00 0.00 0.00 0.00 0.00 0.01 0.01 0.01 0.07 0.06 0.10 0.02 0.00 0.00 0.00 0.00 0.00 0.00 0.00 0.00 0.00
0.27 0.17 0.27 0.16 0.10 0.47 0.54 0.74 0.53 0.42 0.08 0.00 0.09 0.04 0.03 0.01 0.02 0.01 0.01 0.00 0.00 0.00 0.00 0.00 0.00 0.00 0.00 0.00 0.00 0.00 0.00 0.03 0.10 0.07 0.05 0.00 0.00 0.00 0.00 0.00 0.00 0.00 0.00 0.00 0.00
0.29 0.21 0.32 0.21 0.17 0.47 0.47 0.66 0.40 0.15 0.03 0.00 0.00 0.00 0.00 0.00 0.00 0.00 0.00 0.00 0.00 0.00 0.00 0.00 0.01 0.00 0.00 0.00 0.00 0.00 0.03 0.03 0.06 0.06 0.07 0.03 0.00 0.00 0.00 0.00 0.00 0.00 0.00 0.00 0.00
0.30 0.42 0.18 0.13 0.26 0.42 0.56 0.56 0.45 0.16 0.02 0.00 0.00 0.00 0.00 0.00 0.00 0.00 0.00 0.00 0.00 0.00 0.00 0.00 0.02 0.01 0.00 0.00 0.00 0.00 0.00 0.03 0.20 0.07 0.13 0.06 0.03 0.00 0.00 0.00 0.00 0.00 0.00 0.00 0.00
0.31 0.34 0.15 0.17 0.18 0.19 0.35 0.31 0.13 0.08 0.04 0.00 0.00 0.00 0.00 0.00 0.00 0.00 0.00 0.00 0.00 0.00 0.00 0.00 0.02 0.01 0.00 0.01 0.02 0.01 0.00 0.08 0.19 0.36 0.22 0.12 0.03 0.00 0.00 0.00 0.00 0.00 0.00 0.00 0.00
0.54 0.47 0.17 0.17 0.09 0.08 0.28 0.21 0.12 0.09 0.02 0.00 0.00 0.00 0.00 0.00 0.00 0.00 0.00 0.00 0.00 0.00 0.00 0.00 0.01 0.00 0.00 0.00 0.06 0.11 0.01 0.08 0.34 0.46 0.08 0.04 0.00 0.00 0.00 0.00 0.01 0.00 0.01 0.01 0.00
0.38 0.10 0.04 0.07 0.06 0.10 0.15 0.17 0.11 0.04 0.01 0.00 0.00 0.00 0.00 0.00 0.00 0.00 0.00 0.00 0.00 0.00 0.00 0.01 0.02 0.00 0.00 0.00 0.03 0.07 0.04 0.06 0.26 0.14 0.21 0.06 0.00 0.00 0.00 0.00 0.00 0.00 0.00 0.00 0.01
0.18 0.04 0.01 0.01 0.04 0.05 0.04 0.07 0.03 0.00 0.00 0.00 0.00 0.00 0.00 0.00 0.00 0.00 0.00 0.00 0.00 0.00 0.00 0.01 0.02 0.01 0.01 0.00 0.02 0.06 0.02 0.04 0.04 0.02 0.02 0.00 0.00 0.00 0.00 0.00 0.00 0.01 0.00 0.01 0.00
0.15 0.02 0.03 0.04 0.04 0.01 0.01 0.00 0.01 0.00 0.00 0.00 0.00 0.00 0.01 0.00 0.00 0.00 0.00 0.00 0.00 0.00 0.00 0.02 0.02 0.05 0.03 0.00 0.04 0.06 0.02 0.02 0.01 0.00 0.01 0.01 0.00 0.00 0.00 0.11 0.09 0.02 0.00 0.00 0.00

GFSSW_prec_precacc24_030.txt.gz
Total_Precipitation_Accumulation
0.04 0.07 0.06 0.08 0.11 0.12 0.12 0.11 0.12 0.12 0.08 0.08 0.13 0.23 0.20 0.25 0.27 0.17 0.04 0.00 0.00 0.00 0.00 0.00 0.01 0.01 0.00 0.00 0.00 0.00 0.00 0.00 0.00 0.00 0.00 0.00 0.00 0.00 0.00 0.00 0.00 0.00 0.00 0.00 0.00
0.05 0.06 0.07 0.09 0.12 0.15 0.17 0.15 0.13 0.09 0.08 0.07 0.09 0.24 0.33 0.25 0.20 0.23 0.02 0.00 0.00 0.00 0.01 0.00 0.01 0.01 0.00 0.00 0.00 0.00 0.00 0.00 0.00 0.00 0.00 0.00 0.00 0.00 0.00 0.00 0.00 0.00 0.00 0.00 0.00
0.05 0.05 0.07 0.13 0.17 0.25 0.21 0.16 0.13 0.09 0.08 0.10 0.13 0.17 0.29 0.31 0.24 0.03 0.02 0.00 0.01 0.00 0.01 0.00 0.01 0.01 0.00 0.00 0.00 0.00 0.00 0.00 0.00 0.00 0.00 0.00 0.00 0.00 0.00 0.00 0.00 0.00 0.00 0.00 0.00
0.07 0.07 0.13 0.18 0.16 0.16 0.17 0.19 0.17 0.17 0.18 0.14 0.16 0.16 0.26 0.41 0.22 0.08 0.04 0.01 0.05 0.06 0.03 0.02 0.01 0.01 0.00 0.00 0.00 0.00 0.00 0.00 0.00 0.00 0.00 0.00 0.00 0.00 0.00 0.00 0.00 0.00 0.00 0.00 0.00
0.11 0.19 0.23 0.14 0.11 0.11 0.14 0.13 0.11 0.15 0.19 0.21 0.13 0.37 0.43 0.40 0.13 0.10 0.12 0.12 0.14 0.20 0.05 0.03 0.01 0.01 0.00 0.00 0.00 0.00 0.00 0.00 0.00 0.00 0.00 0.00 0.00 0.00 0.00 0.00 0.00 0.00 0.00 0.00 0.00
0.21 0.23 0.16 0.12 0.10 0.05 0.08 0.10 0.08 0.14 0.15 0.16 0.31 0.39 0.37 0.20 0.04 0.06 0.15 0.30 0.13 0.26 0.09 0.03 0.00 0.00 0.00 0.00 0.00 0.00 0.00 0.00 0.00 0.00 0.00 0.00 0.00 0.00 0.00 0.00 0.00 0.00 0.00 0.00 0.00
0.21 0.15 0.16 0.16 0.11 0.05 0.04 0.07 0.09 0.15 0.16 0.20 0.31 0.46 0.20 0.10 0.04 0.08 0.15 0.38 0.28 0.21 0.14 0.06 0.00 0.00 0.00 0.00 0.00 0.00 0.00 0.00 0.00 0.00 0.00 0.00 0.00 0.00 0.00 0.00 0.00 0.00 0.00 0.00 0.00
0.18 0.14 0.15 0.12 0.08 0.07 0.05 0.07 0.09 0.14 0.22 0.20 0.42 0.44 0.13 0.02 0.07 0.08 0.09 0.29 0.47 0.41 0.26 0.14 0.04 0.01 0.00 0.00 0.00 0.00 0.00 0.00 0.00 0.00 0.00 0.00 0.00 0.00 0.00 0.00 0.00 0.00 0.00 0.00 0.00
0.24 0.18 0.12 0.08 0.05 0.06 0.10 0.10 0.22 0.21 0.25 0.38 0.47 0.37 0.13 0.03 0.03 0.07 0.07 0.26 0.46 0.63 0.53 0.31 0.16 0.04 0.00 0.00 0.00 0.00 0.00 0.00 0.00 0.00 0.00 0.00 0.00 0.00 0.00 0.00 0.00 0.00 0.00 0.00 0.00
0.20 0.15 0.11 0.08 0.06 0.10 0.14 0.16 0.44 0.40 0.44 0.53 0.53 0.53 0.12 0.04 0.01 0.05 0.11 0.24 0.42 0.78 0.67 0.55 0.32 0.09 0.01 0.00 0.00 0.00 0.00 0.00 0.00 0.00 0.00 0.00 0.00 0.00 0.00 0.00 0.00 0.00 0.00 0.00 0.00
0.14 0.15 0.15 0.12 0.17 0.20 0.19 0.28 0.75 0.76 0.63 0.43 0.31 0.20 0.07 0.11 0.01 0.03 0.19 0.46 0.78 1.10 0.52 0.26 0.20 0.09 0.01 0.00 0.00 0.00 0.00 0.00 0.00 0.00 0.00 0.00 0.00 0.00 0.00 0.00 0.00 0.00 0.00 0.00 0.00
0.14 0.22 0.31 0.26 0.26 0.17 0.19 0.40 0.58 0.51 0.40 0.31 0.19 0.15 0.06 0.13 0.02 0.02 0.30 0.90 0.86 0.92 0.44 0.25 0.12 0.05 0.02 0.00 0.00 0.00 0.00 0.00 0.00 0.00 0.00 0.00 0.00 0.00 0.00 0.00 0.00 0.00 0.00 0.00 0.00
0.23 0.28 0.28 0.28 0.16 0.11 0.10 0.26 0.49 0.55 0.48 0.53 0.40 0.18 0.17 0.14 0.02 0.03 0.60 0.97 0.49 0.67 0.43 0.19 0.10 0.05 0.08 0.01 0.00 0.00 0.00 0.00 0.00 0.00 0.00 0.00 0.00 0.00 0.00 0.00 0.00 0.00 0.00 0.00 0.00
0.25 0.29 0.24 0.27 0.13 0.18 0.11 0.24 0.63 0.82 0.74 0.75 0.60 0.40 0.20 0.07 0.05 0.08 0.78 0.66 0.39 0.58 0.84 0.36 0.15 0.07 0.07 0.07 0.00 0.00 0.00 0.00 0.00 0.00 0.00 0.00 0.00 0.00 0.00 0.00 0.00 0.00 0.00 0.00 0.00
0.21 0.20 0.21 0.40 0.41 0.22 0.17 0.37 0.67 1.06 1.07 0.67 0.64 0.47 0.16 0.02 0.04 0.11 0.66 0.45 0.15 0.29 0.58 0.35 0.22 0.12 0.10 0.05 0.02 0.00 0.00 0.00 0.00 0.00 0.00 0.00 0.00 0.00 0.00 0.00 0.00 0.00 0.00 0.00 0.00
0.17 0.18 0.31 0.35 0.51 0.19 0.07 0.62 0.65 0.99 1.17 0.94 0.68 0.30 0.09 0.04 0.01 0.10 0.42 0.26 0.13 0.18 0.26 0.19 0.19 0.15 0.15 0.02 0.03 0.00 0.00 0.00 0.00 0.00 0.01 0.00 0.00 0.00 0.00 0.00 0.00 0.00 0.00 0.00 0.00
0.11 0.17 0.39 0.28 0.09 0.02 0.19 0.65 0.75 0.71 0.89 0.62 0.40 0.09 0.04 0.05 0.06 0.20 0.28 0.12 0.09 0.13 0.19 0.12 0.14 0.10 0.16 0.02 0.04 0.00 0.00 0.00 0.01 0.02 0.00 0.00 0.00 0.00 0.00 0.00 0.00 0.00 0.00 0.00 0.00
0.17 0.19 0.19 0.16 0.04 0.03 0.46 0.46 0.70 0.55 0.71 0.30 0.06 0.05 0.03 0.03 0.11 0.10 0.02 0.02 0.00 0.00 0.02 0.03 0.04 0.08 0.11 0.01 0.02 0.00 0.00 0.00 0.00 0.00 0.00 0.00 0.00 0.00 0.00 0.00 0.00 0.00 0.00 0.00 0.00
0.15 0.09 0.14 0.10 0.02 0.09 0.37 0.44 0.76 0.86 0.53 0.15 0.11 0.11 0.10 0.02 0.04 0.03 0.02 0.00 0.00 0.00 0.00 0.00 0.00 0.00 0.00 0.00 0.00 0.00 0.00 0.00 0.01 0.00 0.01 0.00 0.00 0.00 0.00 0.00 0.00 0.00 0.00 0.00 0.00
0.05 0.11 0.22 0.09 0.04 0.15 0.20 0.54 0.50 0.43 0.08 0.00 0.09 0.04 0.03 0.01 0.01 0.01 0.01 0.00 0.00 0.00 0.00 0.00 0.00 0.00 0.00 0.00 0.00 0.00 0.00 0.01 0.03 0.01 0.00 0.00 0.00 0.00 0.00 0.00 0.00 0.00 0.00 0.00 0.00
0.07 0.11 0.26 0.17 0.07 0.13 0.24 0.48 0.39 0.15 0.03 0.00 0.00 0.00 0.00 0.00 0.00 0.00 0.00 0.00 0.00 0.00 0.00 0.00 0.00 0.00 0.00 0.00 0.00 0.00 0.01 0.01 0.03 0.02 0.03 0.02 0.00 0.00 0.00 0.00 0.00 0.00 0.00 0.00 0.00
0.09 0.16 0.16 0.08 0.10 0.22 0.46 0.48 0.45 0.16 0.02 0.00 0.00 0.00 0.00 0.00 0.00 0.00 0.00 0.00 0.00 0.00 0.00 0.00 0.01 0.00 0.00 0.00 0.00 0.00 0.00 0.01 0.09 0.03 0.09 0.05 0.02 0.00 0.00 0.00 0.00 0.00 0.00 0.00 0.00
0.09 0.10 0.10 0.10 0.11 0.13 0.32 0.28 0.12 0.08 0.04 0.00 0.00 0.00 0.00 0.00 0.00 0.00 0.00 0.00 0.00 0.00 0.00 0.00 0.01 0.00 0.00 0.01 0.01 0.00 0.00 0.00 0.06 0.23 0.15 0.10 0.03 0.00 0.00 0.00 0.00 0.00 0.00 0.00 0.00
0.22 0.15 0.08 0.06 0.07 0.07 0.28 0.21 0.12 0.09 0.02 0.00 0.00 0.00 0.00 0.00 0.00 0.00 0.00 0.00 0.00 0.00 0.00 0.00 0.00 0.00 0.00 0.00 0.01 0.03 0.00 0.03 0.19 0.32 0.06 0.03 0.00 0.00 0.00 0.00 0.01 0.00 0.01 0.01 0.00
0.13 0.05 0.02 0.03 0.04 0.10 0.14 0.17 0.11 0.04 0.01 0.00 0.00 0.00 0.00 0.00 0.00 0.00 0.00 0.00 0.00 0.00 0.00 0.00 0.01 0.00 0.00 0.00 0.00 0.00 0.00 0.01 0.17 0.11 0.18 0.05 0.00 0.00 0.00 0.00 0.00 0.00 0.00 0.00 0.01
0.02 0.02 0.01 0.00 0.02 0.05 0.04 0.07 0.03 0.00 0.00 0.00 0.00 0.00 0.00 0.00 0.00 0.00 0.00 0.00 0.00 0.00 0.00 0.01 0.01 0.01 0.00 0.00 0.00 0.00 0.00 0.01 0.02 0.01 0.02 0.00 0.00 0.00 0.00 0.00 0.00 0.00 0.00 0.01 0.00
0.01 0.00 0.02 0.01 0.00 0.01 0.01 0.00 0.01 0.00 0.00 0.00 0.00 0.00 0.01 0.00 0.00 0.00 0.00 0.00 0.00 0.00 0.00 0.01 0.01 0.01 0.01 0.00 0.00 0.02 0.01 0.01 0.00 0.00 0.00 0.01 0.00 0.00 0.00 0.00 0.00 0.00 0.00 0.00 0.00

GFSSW_prec_precacc24_033.txt.gz
Total_Precipitation_Accumulation
0.04 0.06 0.06 0.06 0.07 0.11 0.15 0.13 0.13 0.15 0.14 0.10 0.13 0.22 0.19 0.23 0.26 0.21 0.09 0.00 0.00 0.00 0.01 0.00 0.01 0.02 0.00 0.00 0.00 0.00 0.01 0.00 0.00 0.00 0.00 0.00 0.00 0.00 0.00 0.00 0.00 0.00 0.00 0.00 0.00
0.06 0.07 0.07 0.08 0.10 0.16 0.22 0.19 0.17 0.12 0.14 0.12 0.09 0.24 0.30 0.23 0.20 0.23 0.07 0.02 0.00 0.00 0.02 0.00 0.02 0.03 0.00 0.00 0.00 0.00 0.00 0.00 0.00 0.00 0.00 0.00 0.00 0.00 0.00 0.00 0.00 0.00 0.00 0.00 0.00
0.07 0.07 0.09 0.16 0.20 0.24 0.20 0.16 0.16 0.15 0.14 0.14 0.14 0.17 0.26 0.28 0.22 0.03 0.03 0.01 0.00 0.00 0.02 0.00 0.02 0.04 0.00 0.00 0.00 0.00 0.00 0.00 0.00 0.00 0.00 0.00 0.00 0.00 0.00 0.00 0.00 0.00 0.00 0.00 0.00
0.09 0.10 0.16 0.24 0.18 0.14 0.13 0.17 0.17 0.18 0.22 0.20 0.19 0.16 0.23 0.34 0.19 0.10 0.05 0.07 0.08 0.04 0.04 0.02 0.02 0.04 0.00 0.00 0.00 0.00 0.00 0.00 0.00 0.00 0.00 0.00 0.00 0.00 0.00 0.00 0.00 0.00 0.00 0.00 0.00
0.14 0.21 0.26 0.20 0.14 0.14 0.10 0.10 0.11 0.15 0.19 0.22 0.16 0.38 0.40 0.32 0.11 0.13 0.14 0.17 0.27 0.18 0.05 0.03 0.01 0.03 0.00 0.00 0.00 0.00 0.00 0.00 0.00 0.00 0.00 0.00 0.00 0.00 0.00 0.00 0.00 0.00 0.00 0.00 0.00
0.24 0.26 0.19 0.18 0.19 0.16 0.11 0.10 0.07 0.14 0.15 0.16 0.31 0.39 0.37 0.18 0.03 0.07 0.17 0.31 0.24 0.26 0.08 0.03 0.00 0.01 0.00 0.00 0.00 0.00 0.00 0.00 0.00 0.00 0.00 0.00 0.00 0.00 0.00 0.00 0.00 0.00 0.00 0.00 0.00
0.26 0.22 0.23 0.19 0.15 0.10 0.09 0.09 0.06 0.15 0.16 0.21 0.32 0.46 0.21 0.10 0.05 0.11 0.18 0.43 0.34 0.24 0.12 0.06 0.00 0.01 0.00 0.00 0.00 0.00 0.00 0.00 0.00 0.00 0.00 0.00 0.00 0.00 0.00 0.00 0.00 0.00 0.00 0.00 0.00
0.25 0.22 0.24 0.14 0.09 0.07 0.05 0.06 0.04 0.12 0.24 0.23 0.44 0.44 0.13 0.02 0.07 0.11 0.13 0.45 0.53 0.44 0.26 0.15 0.02 0.01 0.00 0.00 0.00 0.00 0.00 0.00 0.00 0.00 0.00 0.00 0.00 0.00 0.00 0.00 0.00 0.00 0.00 0.00 0.00
0.28 0.25 0.21 0.12 0.06 0.04 0.04 0.02 0.01 0.15 0.28 0.38 0.49 0.38 0.14 0.03 0.04 0.13 0.14 0.48 0.56 0.68 0.58 0.37 0.16 0.04 0.00 0.00 0.00 0.00 0.00 0.00 0.00 0.00 0.00 0.00 0.00 0.00 0.00 0.00 0.00 0.00 0.00 0.00 0.00
0.24 0.16 0.15 0.08 0.06 0.09 0.07 0.01 0.01 0.18 0.42 0.53 0.56 0.54 0.12 0.04 0.06 0.19 0.21 0.49 0.64 0.83 0.76 0.66 0.41 0.12 0.01 0.00 0.00 0.00 0.00 0.00 0.00 0.00 0.00 0.00 0.00 0.00 0.00 0.00 0.00 0.00 0.00 0.00 0.00
0.16 0.15 0.15 0.11 0.15 0.19 0.10 0.04 0.16 0.35 0.56 0.44 0.31 0.21 0.11 0.19 0.14 0.15 0.32 0.71 0.92 1.14 0.57 0.32 0.24 0.11 0.01 0.00 0.00 0.00 0.00 0.00 0.00 0.00 0.00 0.00 0.00 0.00 0.00 0.00 0.00 0.00 0.00 0.00 0.00
0.14 0.20 0.26 0.18 0.20 0.15 0.09 0.06 0.32 0.44 0.37 0.31 0.19 0.15 0.07 0.16 0.12 0.11 0.42 1.22 1.06 0.94 0.46 0.28 0.14 0.05 0.02 0.00 0.00 0.00 0.00 0.00 0.00 0.00 0.00 0.00 0.00 0.00 0.00 0.00 0.00 0.00 0.00 0.00 0.00
0.18 0.24 0.18 0.23 0.15 0.10 0.05 0.04 0.26 0.45 0.45 0.55 0.41 0.19 0.18 0.19 0.12 0.13 0.77 1.29 0.76 0.69 0.47 0.21 0.10 0.05 0.08 0.01 0.00 0.00 0.00 0.00 0.00 0.00 0.00 0.00 0.00 0.00 0.00 0.00 0.00 0.00 0.00 0.00 0.00
0.20 0.24 0.19 0.25 0.11 0.16 0.09 0.10 0.28 0.58 0.59 0.79 0.66 0.43 0.24 0.13 0.18 0.18 0.92 1.05 0.73 0.66 0.91 0.43 0.18 0.07 0.07 0.07 0.00 0.00 0.00 0.00 0.00 0.00 0.00 0.00 0.00 0.00 0.00 0.00 0.00 0.00 0.00 0.00 0.00
0.19 0.18 0.21 0.39 0.37 0.21 0.12 0.24 0.36 0.70 0.66 0.70 0.71 0.54 0.24 0.08 0.09 0.15 0.81 0.75 0.26 0.48 0.70 0.47 0.30 0.13 0.10 0.05 0.02 0.00 0.00 0.00 0.00 0.00 0.00 0.00 0.00 0.00 0.00 0.00 0.00 0.00 0.00 0.00 0.00
0.17 0.17 0.30 0.34 0.50 0.19 0.04 0.37 0.41 0.54 0.95 1.01 0.75 0.35 0.14 0.08 0.02 0.17 0.64 0.45 0.30 0.39 0.41 0.28 0.27 0.22 0.17 0.02 0.03 0.00 0.00 0.00 0.00 0.00 0.00 0.00 0.00 0.00 0.00 0.00 0.00 0.00 0.00 0.00 0.00
0.11 0.09 0.25 0.25 0.09 0.02 0.09 0.34 0.41 0.47 0.87 0.68 0.42 0.10 0.05 0.05 0.08 0.23 0.46 0.32 0.30 0.33 0.42 0.36 0.26 0.20 0.19 0.02 0.04 0.00 0.00 0.00 0.00 0.01 0.00 0.00 0.00 0.00 0.00 0.00 0.00 0.00 0.00 0.00 0.00
0.09 0.09 0.11 0.12 0.04 0.00 0.09 0.21 0.48 0.52 0.71 0.30 0.07 0.05 0.04 0.05 0.16 0.15 0.09 0.05 0.02 0.02 0.11 0.17 0.21 0.19 0.24 0.03 0.03 0.00 0.00 0.00 0.00 0.00 0.00 0.00 0.00 0.00 0.00 0.00 0.00 0.00 0.00 0.00 0.00
0.07 0.06 0.09 0.09 0.02 0.00 0.06 0.19 0.64 0.85 0.53 0.15 0.11 0.10 0.10 0.02 0.04 0.04 0.02 0.00 0.00 0.00 0.02 0.01 0.03 0.04 0.12 0.03 0.00 0.01 0.00 0.00 0.00 0.00 0.00 0.00 0.00 0.00 0.00 0.00 0.00 0.00 0.00 0.00 0.00
0.02 0.07 0.12 0.05 0.01 0.01 0.08 0.41 0.43 0.43 0.08 0.00 0.08 0.03 0.02 0.01 0.01 0.01 0.01 0.00 0.00 0.00 0.00 0.00 0.00 0.01 0.02 0.01 0.01 0.00 0.00 0.00 0.00 0.00 0.00 0.00 0.00 0.00 0.00 0.00 0.00 0.00 0.00 0.00 0.00
0.01 0.05 0.14 0.07 0.02 0.06 0.19 0.39 0.37 0.15 0.03 0.00 0.00 0.00 0.00 0.00 0.00 0.00 0.00 0.00 0.00 0.00 0.00 0.00 0.00 0.00 0.00 0.00 0.00 0.00 0.00 0.00 0.00 0.00 0.00 0.00 0.00 0.00 0.00 0.00 0.00 0.00 0.00 0.00 0.00
0.00 0.04 0.09 0.04 0.05 0.18 0.38 0.42 0.43 0.15 0.02 0.00 0.00 0.00 0.00 0.00 0.00 0.00 0.00 0.00 0.00 0.00 0.00 0.00 0.00 0.00 0.00 0.00 0.00 0.00 0.00 0.00 0.01 0.00 0.01 0.02 0.01 0.00 0.00 0.00 0.00 0.00 0.00 0.00 0.00
0.01 0.03 0.05 0.03 0.04 0.09 0.22 0.21 0.11 0.07 0.02 0.00 0.00 0.00 0.00 0.00 0.00 0.00 0.00 0.00 0.00 0.00 0.00 0.00 0.00 0.00 0.00 0.00 0.00 0.00 0.00 0.00 0.01 0.11 0.07 0.04 0.01 0.00 0.00 0.00 0.00 0.00 0.00 0.00 0.00
0.00 0.01 0.02 0.00 0.01 0.06 0.21 0.13 0.09 0.06 0.02 0.00 0.00 0.00 0.00 0.00 0.00 0.00 0.00 0.00 0.00 0.00 0.00 0.00 0.00 0.00 0.00 0.00 0.00 0.00 0.00 0.01 0.09 0.21 0.04 0.01 0.00 0.00 0.00 0.00 0.01 0.00 0.01 0.01 0.00
0.00 0.01 0.01 0.02 0.02 0.08 0.12 0.15 0.09 0.04 0.01 0.00 0.00 0.00 0.00 0.00 0.00 0.00 0.00 0.00 0.00 0.00 0.00 0.00 0.00 0.00 0.00 0.00 0.00 0.00 0.00 0.00 0.07 0.06 0.13 0.04 0.00 0.00 0.00 0.00 0.00 0.00 0.00 0.00 0.01
0.00 0.01 0.00 0.00 0.02 0.04 0.04 0.06 0.03 0.00 0.00 0.00 0.00 0.00 0.00 0.00 0.00 0.00 0.00 0.00 0.00 0.00 0.00 0.00 0.00 0.00 0.00 0.00 0.00 0.00 0.00 0.00 0.01 0.00 0.00 0.00 0.00 0.00 0.00 0.00 0.00 0.00 0.00 0.01 0.00
0.00 0.00 0.01 0.00 0.00 0.01 0.01 0.00 0.01 0.00 0.00 0.00 0.00 0.00 0.01 0.00 0.00 0.00 0.00 0.00 0.00 0.00 0.00 0.01 0.00 0.00 0.00 0.00 0.00 0.00 0.00 0.00 0.00 0.00 0.00 0.00 0.00 0.00 0.00 0.00 0.00 0.00 0.00 0.00 0.00

GFSSW_prec_precacc24_036.txt.gz
Total_Precipitation_Accumulation
0.05 0.07 0.07 0.07 0.08 0.08 0.10 0.12 0.16 0.19 0.16 0.16 0.19 0.23 0.19 0.23 0.26 0.20 0.09 0.01 0.00 0.00 0.01 0.00 0.02 0.03 0.01 0.01 0.00 0.01 0.16 0.12 0.00 0.00 0.00 0.00 0.00 0.00 0.00 0.00 0.00 0.00 0.00 0.00 0.00
0.07 0.09 0.09 0.10 0.12 0.16 0.21 0.17 0.18 0.17 0.17 0.15 0.16 0.26 0.30 0.21 0.19 0.22 0.07 0.03 0.00 0.00 0.02 0.00 0.02 0.03 0.00 0.00 0.00 0.00 0.03 0.06 0.01 0.00 0.00 0.00 0.00 0.00 0.00 0.00 0.00 0.00 0.00 0.00 0.00
0.09 0.09 0.11 0.19 0.22 0.23 0.19 0.15 0.15 0.18 0.17 0.19 0.22 0.20 0.26 0.26 0.20 0.03 0.03 0.02 0.02 0.00 0.02 0.00 0.02 0.04 0.00 0.00 0.00 0.00 0.00 0.00 0.01 0.01 0.00 0.00 0.00 0.00 0.00 0.00 0.00 0.00 0.00 0.00 0.00
0.11 0.13 0.20 0.28 0.19 0.14 0.13 0.15 0.13 0.16 0.25 0.22 0.26 0.20 0.23 0.29 0.18 0.10 0.05 0.08 0.09 0.04 0.05 0.03 0.02 0.05 0.01 0.00 0.00 0.00 0.00 0.00 0.01 0.00 0.00 0.00 0.00 0.00 0.00 0.00 0.00 0.00 0.00 0.00 0.00
0.18 0.27 0.34 0.26 0.16 0.16 0.13 0.12 0.07 0.10 0.21 0.23 0.19 0.42 0.40 0.25 0.09 0.16 0.19 0.22 0.35 0.20 0.06 0.04 0.01 0.03 0.01 0.00 0.00 0.00 0.00 0.00 0.00 0.00 0.00 0.00 0.00 0.00 0.00 0.00 0.00 0.00 0.00 0.00 0.00
0.30 0.32 0.28 0.26 0.21 0.17 0.15 0.15 0.10 0.08 0.11 0.16 0.32 0.40 0.36 0.16 0.03 0.08 0.23 0.35 0.30 0.28 0.07 0.03 0.00 0.01 0.01 0.00 0.00 0.00 0.00 0.00 0.00 0.00 0.00 0.00 0.00 0.00 0.00 0.00 0.00 0.00 0.00 0.00 0.00
0.30 0.26 0.30 0.29 0.16 0.10 0.10 0.12 0.10 0.07 0.09 0.20 0.33 0.46 0.21 0.10 0.05 0.11 0.18 0.44 0.38 0.28 0.08 0.06 0.00 0.02 0.01 0.01 0.00 0.00 0.00 0.00 0.00 0.00 0.00 0.00 0.00 0.00 0.00 0.00 0.00 0.00 0.00 0.00 0.00
0.28 0.24 0.28 0.23 0.11 0.07 0.06 0.08 0.04 0.03 0.09 0.20 0.44 0.44 0.13 0.02 0.07 0.11 0.13 0.45 0.52 0.50 0.25 0.14 0.02 0.01 0.00 0.01 0.00 0.00 0.00 0.00 0.00 0.00 0.00 0.00 0.00 0.00 0.00 0.00 0.00 0.00 0.00 0.00 0.00
0.29 0.25 0.23 0.14 0.06 0.04 0.04 0.02 0.01 0.02 0.11 0.33 0.49 0.39 0.14 0.03 0.04 0.13 0.14 0.48 0.57 0.77 0.69 0.40 0.21 0.05 0.01 0.01 0.02 0.00 0.00 0.00 0.00 0.00 0.00 0.00 0.00 0.00 0.00 0.00 0.00 0.00 0.00 0.00 0.00
0.23 0.17 0.14 0.08 0.06 0.08 0.07 0.01 0.00 0.04 0.16 0.43 0.57 0.56 0.14 0.04 0.06 0.19 0.21 0.52 0.69 0.96 0.94 0.85 0.50 0.16 0.03 0.01 0.01 0.00 0.00 0.00 0.00 0.00 0.00 0.00 0.00 0.00 0.00 0.00 0.00 0.00 0.00 0.00 0.00
0.14 0.13 0.12 0.08 0.13 0.14 0.07 0.03 0.10 0.11 0.20 0.37 0.31 0.22 0.15 0.22 0.19 0.18 0.35 0.84 1.19 1.35 0.66 0.44 0.30 0.13 0.01 0.00 0.00 0.00 0.00 0.00 0.00 0.00 0.00 0.00 0.00 0.00 0.00 0.00 0.00 0.00 0.00 0.00 0.00
0.11 0.13 0.17 0.11 0.14 0.11 0.04 0.03 0.10 0.23 0.22 0.26 0.19 0.15 0.08 0.20 0.30 0.28 0.61 1.69 1.33 1.14 0.51 0.39 0.19 0.05 0.02 0.00 0.00 0.00 0.00 0.00 0.00 0.00 0.00 0.00 0.00 0.00 0.00 0.00 0.00 0.00 0.00 0.00 0.00
0.14 0.21 0.14 0.19 0.14 0.05 0.02 0.02 0.07 0.16 0.31 0.47 0.40 0.19 0.23 0.51 0.49 0.46 1.24 1.70 0.90 0.75 0.48 0.24 0.11 0.05 0.08 0.01 0.00 0.00 0.00 0.00 0.00 0.00 0.00 0.00 0.00 0.00 0.00 0.00 0.00 0.00 0.00 0.00 0.00
0.18 0.23 0.17 0.25 0.08 0.12 0.06 0.06 0.10 0.23 0.43 0.66 0.60 0.45 0.35 0.56 0.52 0.44 1.15 1.24 0.80 0.68 0.93 0.46 0.19 0.08 0.07 0.07 0.00 0.00 0.00 0.00 0.00 0.00 0.00 0.00 0.00 0.00 0.00 0.00 0.00 0.00 0.00 0.00 0.00
0.18 0.18 0.20 0.38 0.36 0.20 0.05 0.08 0.17 0.33 0.47 0.60 0.67 0.55 0.33 0.25 0.22 0.26 0.89 0.81 0.32 0.49 0.75 0.50 0.31 0.14 0.11 0.05 0.02 0.00 0.00 0.00 0.00 0.00 0.00 0.00 0.00 0.00 0.00 0.00 0.00 0.00 0.00 0.00 0.00
0.17 0.17 0.28 0.32 0.48 0.18 0.01 0.09 0.14 0.31 0.83 0.94 0.78 0.39 0.17 0.10 0.02 0.19 0.66 0.50 0.40 0.41 0.44 0.29 0.29 0.26 0.19 0.03 0.03 0.00 0.00 0.00 0.00 0.00 0.00 0.00 0.00 0.00 0.00 0.00 0.00 0.00 0.00 0.00 0.00
0.11 0.08 0.16 0.16 0.07 0.02 0.01 0.09 0.11 0.38 0.84 0.69 0.45 0.15 0.07 0.06 0.08 0.25 0.57 0.46 0.48 0.47 0.61 0.45 0.36 0.24 0.20 0.04 0.05 0.00 0.00 0.01 0.01 0.00 0.00 0.00 0.00 0.00 0.00 0.00 0.00 0.00 0.00 0.00 0.00
0.09 0.08 0.06 0.06 0.02 0.00 0.01 0.04 0.27 0.50 0.68 0.30 0.10 0.06 0.04 0.05 0.16 0.22 0.27 0.22 0.14 0.07 0.24 0.31 0.45 0.33 0.29 0.04 0.03 0.00 0.00 0.01 0.00 0.00 0.00 0.00 0.00 0.00 0.00 0.00 0.00 0.00 0.00 0.00 0.00
0.07 0.03 0.03 0.06 0.01 0.00 0.02 0.15 0.53 0.80 0.53 0.15 0.10 0.09 0.09 0.02 0.04 0.08 0.08 0.07 0.06 0.06 0.10 0.07 0.09 0.15 0.18 0.04 0.01 0.01 0.00 0.00 0.00 0.00 0.00 0.00 0.00 0.00 0.00 0.00 0.00 0.00 0.00 0.00 0.00
0.01 0.03 0.07 0.03 0.00 0.00 0.06 0.38 0.34 0.36 0.08 0.00 0.08 0.03 0.02 0.01 0.01 0.02 0.02 0.01 0.00 0.00 0.00 0.00 0.02 0.02 0.09 0.07 0.02 0.00 0.00 0.00 0.00 0.00 0.00 0.00 0.00 0.00 0.00 0.00 0.00 0.00 0.00 0.00 0.00
0.00 0.02 0.02 0.00 0.00 0.04 0.17 0.29 0.27 0.13 0.03 0.00 0.00 0.00 0.00 0.00 0.00 0.00 0.00 0.00 0.00 0.00 0.00 0.00 0.00 0.01 0.03 0.09 0.03 0.00 0.00 0.00 0.00 0.00 0.00 0.00 0.00 0.00 0.00 0.00 0.00 0.00 0.00 0.00 0.00
0.00 0.01 0.02 0.01 0.02 0.16 0.32 0.31 0.33 0.14 0.02 0.00 0.00 0.00 0.00 0.00 0.00 0.00 0.00 0.00 0.00 0.00 0.00 0.00 0.00 0.00 0.01 0.00 0.00 0.00 0.00 0.00 0.00 0.00 0.00 0.00 0.00 0.00 0.00 0.00 0.00 0.00 0.00 0.00 0.00
0.00 0.01 0.01 0.01 0.03 0.08 0.17 0.14 0.09 0.06 0.01 0.00 0.00 0.00 0.00 0.00 0.00 0.00 0.00 0.00 0.00 0.00 0.00 0.00 0.00 0.00 0.00 0.00 0.00 0.00 0.00 0.00 0.00 0.03 0.02 0.01 0.00 0.00 0.00 0.00 0.00 0.00 0.00 0.00 0.00
0.00 0.00 0.00 0.00 0.00 0.03 0.12 0.05 0.05 0.01 0.00 0.00 0.00 0.00 0.00 0.00 0.00 0.00 0.00 0.00 0.00 0.00 0.00 0.00 0.00 0.00 0.00 0.00 0.00 0.00 0.00 0.00 0.01 0.08 0.02 0.00 0.00 0.00 0.00 0.00 0.00 0.00 0.00 0.00 0.00
0.00 0.00 0.00 0.00 0.00 0.00 0.03 0.11 0.05 0.00 0.00 0.00 0.00 0.00 0.00 0.00 0.00 0.00 0.00 0.00 0.00 0.00 0.00 0.00 0.00 0.00 0.00 0.00 0.00 0.00 0.00 0.00 0.01 0.01 0.07 0.01 0.00 0.00 0.00 0.00 0.00 0.00 0.00 0.00 0.01
0.00 0.01 0.00 0.00 0.01 0.01 0.02 0.03 0.01 0.00 0.00 0.00 0.00 0.00 0.00 0.00 0.00 0.00 0.00 0.00 0.00 0.00 0.00 0.00 0.00 0.00 0.00 0.00 0.00 0.00 0.00 0.00 0.00 0.00 0.00 0.00 0.00 0.00 0.00 0.00 0.00 0.00 0.00 0.00 0.00
0.00 0.00 0.01 0.00 0.00 0.00 0.00 0.00 0.00 0.00 0.00 0.00 0.00 0.00 0.00 0.00 0.00 0.00 0.00 0.00 0.00 0.00 0.00 0.00 0.00 0.00 0.00 0.00 0.00 0.00 0.00 0.00 0.00 0.00 0.00 0.00 0.00 0.00 0.00 0.00 0.00 0.00 0.00 0.00 0.00

GFSSW_prec_precacc24_039.txt.gz
Total_Precipitation_Accumulation
0.06 0.09 0.10 0.09 0.10 0.10 0.10 0.12 0.13 0.19 0.17 0.16 0.20 0.29 0.20 0.23 0.26 0.19 0.08 0.01 0.01 0.00 0.01 0.00 0.02 0.03 0.03 0.14 0.03 0.04 0.24 0.19 0.01 0.00 0.00 0.00 0.00 0.00 0.00 0.00 0.00 0.00 0.00 0.01 0.01
0.09 0.12 0.13 0.14 0.16 0.16 0.25 0.21 0.21 0.18 0.17 0.16 0.17 0.32 0.31 0.21 0.18 0.22 0.07 0.04 0.06 0.02 0.02 0.00 0.02 0.04 0.02 0.06 0.06 0.06 0.12 0.07 0.01 0.00 0.01 0.00 0.00 0.00 0.00 0.00 0.00 0.00 0.00 0.00 0.01
0.12 0.13 0.16 0.28 0.28 0.24 0.20 0.15 0.16 0.17 0.15 0.18 0.24 0.30 0.28 0.26 0.19 0.03 0.03 0.02 0.09 0.05 0.03 0.00 0.02 0.06 0.01 0.01 0.02 0.01 0.01 0.00 0.01 0.02 0.04 0.00 0.00 0.00 0.00 0.00 0.00 0.00 0.00 0.00 0.00
0.14 0.16 0.26 0.37 0.28 0.16 0.15 0.19 0.16 0.14 0.19 0.23 0.28 0.29 0.26 0.28 0.17 0.09 0.05 0.08 0.10 0.09 0.08 0.04 0.02 0.06 0.01 0.00 0.00 0.00 0.00 0.00 0.01 0.06 0.06 0.01 0.00 0.00 0.00 0.00 0.00 0.00 0.00 0.00 0.00
0.20 0.30 0.37 0.31 0.26 0.18 0.14 0.15 0.13 0.11 0.15 0.20 0.23 0.48 0.44 0.26 0.08 0.16 0.19 0.21 0.40 0.32 0.06 0.05 0.01 0.03 0.01 0.00 0.00 0.00 0.00 0.00 0.00 0.01 0.01 0.02 0.00 0.00 0.00 0.00 0.00 0.00 0.00 0.00 0.00
0.31 0.34 0.29 0.27 0.25 0.17 0.15 0.16 0.14 0.08 0.05 0.09 0.34 0.44 0.39 0.17 0.03 0.09 0.25 0.40 0.41 0.39 0.08 0.03 0.00 0.01 0.01 0.01 0.00 0.00 0.00 0.00 0.00 0.00 0.00 0.02 0.00 0.00 0.00 0.00 0.00 0.00 0.00 0.00 0.00
0.30 0.27 0.30 0.30 0.16 0.09 0.10 0.13 0.10 0.07 0.05 0.06 0.27 0.46 0.21 0.10 0.06 0.14 0.20 0.51 0.49 0.36 0.10 0.05 0.00 0.02 0.01 0.02 0.00 0.00 0.00 0.00 0.00 0.00 0.00 0.00 0.00 0.00 0.00 0.00 0.00 0.00 0.00 0.00 0.00
0.28 0.24 0.28 0.23 0.11 0.07 0.06 0.09 0.05 0.03 0.06 0.08 0.33 0.44 0.13 0.02 0.07 0.11 0.15 0.48 0.54 0.53 0.21 0.13 0.04 0.01 0.02 0.01 0.01 0.01 0.00 0.00 0.00 0.00 0.00 0.00 0.00 0.00 0.00 0.00 0.00 0.00 0.00 0.00 0.00
0.26 0.24 0.22 0.14 0.06 0.04 0.04 0.02 0.01 0.02 0.09 0.16 0.37 0.38 0.14 0.03 0.04 0.13 0.14 0.49 0.54 0.71 0.65 0.39 0.23 0.05 0.03 0.02 0.04 0.03 0.00 0.00 0.00 0.00 0.00 0.00 0.00 0.00 0.00 0.00 0.00 0.00 0.00 0.00 0.00
0.19 0.15 0.11 0.06 0.05 0.07 0.06 0.01 0.00 0.03 0.10 0.15 0.44 0.55 0.14 0.04 0.06 0.19 0.21 0.54 0.73 0.98 0.97 0.86 0.57 0.17 0.05 0.02 0.02 0.00 0.00 0.00 0.00 0.00 0.00 0.00 0.00 0.00 0.00 0.00 0.00 0.00 0.00 0.00 0.00
0.13 0.11 0.08 0.06 0.09 0.07 0.03 0.03 0.10 0.09 0.06 0.20 0.25 0.22 0.15 0.22 0.19 0.18 0.35 0.89 1.26 1.41 0.72 0.56 0.41 0.15 0.01 0.00 0.00 0.00 0.00 0.00 0.00 0.00 0.00 0.00 0.00 0.00 0.00 0.00 0.00 0.00 0.00 0.00 0.00
0.12 0.13 0.15 0.10 0.11 0.07 0.02 0.02 0.08 0.15 0.03 0.14 0.15 0.15 0.08 0.20 0.31 0.30 0.65 1.72 1.37 1.24 0.61 0.55 0.25 0.05 0.02 0.00 0.00 0.00 0.00 0.00 0.00 0.00 0.00 0.00 0.00 0.00 0.00 0.00 0.00 0.00 0.00 0.00 0.00
0.14 0.21 0.14 0.19 0.14 0.03 0.01 0.02 0.04 0.06 0.10 0.27 0.34 0.19 0.29 0.55 0.52 0.49 1.25 1.71 0.92 0.91 0.59 0.31 0.13 0.05 0.08 0.01 0.00 0.00 0.00 0.00 0.00 0.00 0.00 0.00 0.00 0.00 0.00 0.00 0.00 0.00 0.00 0.00 0.00
0.18 0.23 0.17 0.25 0.08 0.12 0.03 0.04 0.05 0.02 0.27 0.51 0.55 0.50 0.59 0.79 0.69 0.57 1.22 1.29 0.86 0.87 0.99 0.48 0.20 0.08 0.07 0.07 0.00 0.00 0.00 0.00 0.00 0.00 0.00 0.00 0.00 0.00 0.00 0.00 0.00 0.00 0.00 0.00 0.00
0.18 0.17 0.17 0.32 0.32 0.20 0.02 0.01 0.06 0.02 0.32 0.51 0.63 0.66 0.78 0.60 0.47 0.59 1.10 0.87 0.35 0.69 0.82 0.52 0.31 0.15 0.12 0.05 0.02 0.00 0.00 0.00 0.00 0.00 0.00 0.00 0.00 0.00 0.00 0.00 0.00 0.00 0.00 0.00 0.00
0.17 0.16 0.22 0.21 0.33 0.16 0.00 0.00 0.01 0.08 0.72 0.91 0.78 0.65 0.42 0.26 0.21 0.42 0.78 0.52 0.41 0.46 0.46 0.29 0.29 0.28 0.21 0.04 0.03 0.00 0.00 0.00 0.00 0.00 0.00 0.00 0.00 0.00 0.00 0.00 0.00 0.00 0.00 0.00 0.00
0.10 0.06 0.08 0.07 0.02 0.01 0.00 0.00 0.01 0.22 0.72 0.69 0.47 0.17 0.08 0.06 0.09 0.26 0.58 0.46 0.49 0.48 0.62 0.46 0.36 0.24 0.20 0.04 0.05 0.00 0.00 0.01 0.01 0.00 0.00 0.00 0.00 0.00 0.00 0.00 0.00 0.00 0.00 0.00 0.00
0.08 0.02 0.02 0.00 0.00 0.00 0.00 0.01 0.17 0.40 0.62 0.30 0.11 0.06 0.03 0.05 0.19 0.24 0.31 0.25 0.16 0.07 0.28 0.35 0.47 0.34 0.29 0.04 0.03 0.00 0.00 0.01 0.00 0.00 0.00 0.00 0.00 0.00 0.00 0.00 0.00 0.00 0.00 0.00 0.00
0.04 0.00 0.02 0.02 0.00 0.00 0.02 0.13 0.35 0.63 0.52 0.14 0.06 0.04 0.06 0.01 0.08 0.15 0.18 0.15 0.11 0.07 0.14 0.10 0.12 0.17 0.19 0.05 0.02 0.02 0.00 0.00 0.00 0.00 0.00 0.00 0.00 0.00 0.00 0.00 0.00 0.00 0.00 0.00 0.00
0.00 0.01 0.04 0.01 0.00 0.00 0.06 0.32 0.25 0.21 0.07 0.00 0.06 0.02 0.01 0.00 0.01 0.02 0.06 0.05 0.02 0.02 0.00 0.00 0.04 0.09 0.14 0.10 0.05 0.00 0.00 0.01 0.00 0.00 0.00 0.00 0.00 0.00 0.00 0.00 0.00 0.00 0.00 0.00 0.00
0.00 0.00 0.00 0.00 0.00 0.04 0.15 0.24 0.20 0.08 0.02 0.00 0.00 0.00 0.00 0.00 0.00 0.00 0.00 0.00 0.01 0.01 0.00 0.00 0.01 0.05 0.12 0.17 0.06 0.01 0.00 0.00 0.00 0.00 0.00 0.00 0.00 0.00 0.00 0.00 0.00 0.00 0.00 0.00 0.00
0.00 0.00 0.00 0.00 0.01 0.13 0.25 0.24 0.16 0.02 0.00 0.00 0.00 0.00 0.00 0.00 0.00 0.00 0.00 0.00 0.00 0.00 0.00 0.00 0.00 0.01 0.04 0.01 0.00 0.01 0.00 0.00 0.00 0.00 0.00 0.00 0.00 0.00 0.00 0.00 0.00 0.00 0.00 0.00 0.00
0.00 0.00 0.00 0.00 0.02 0.03 0.08 0.07 0.05 0.02 0.00 0.00 0.00 0.00 0.00 0.00 0.00 0.00 0.00 0.00 0.00 0.00 0.00 0.00 0.00 0.00 0.01 0.02 0.00 0.00 0.00 0.01 0.01 0.00 0.01 0.00 0.00 0.00 0.00 0.00 0.00 0.00 0.00 0.00 0.00
0.00 0.00 0.00 0.00 0.00 0.01 0.01 0.00 0.01 0.00 0.00 0.00 0.00 0.00 0.00 0.00 0.00 0.00 0.00 0.00 0.00 0.00 0.00 0.00 0.00 0.00 0.00 0.00 0.00 0.00 0.00 0.00 0.03 0.04 0.00 0.00 0.00 0.00 0.00 0.00 0.00 0.00 0.00 0.00 0.00
0.00 0.00 0.00 0.00 0.00 0.00 0.00 0.00 0.00 0.00 0.00 0.00 0.00 0.00 0.00 0.00 0.00 0.00 0.00 0.00 0.00 0.00 0.00 0.00 0.00 0.00 0.00 0.00 0.00 0.00 0.00 0.00 0.00 0.00 0.02 0.00 0.00 0.00 0.00 0.00 0.00 0.00 0.00 0.00 0.00
0.00 0.01 0.00 0.00 0.00 0.00 0.00 0.00 0.00 0.00 0.00 0.00 0.00 0.00 0.00 0.00 0.00 0.00 0.00 0.00 0.00 0.00 0.00 0.00 0.00 0.00 0.00 0.00 0.00 0.00 0.00 0.00 0.00 0.00 0.00 0.00 0.00 0.00 0.00 0.00 0.00 0.00 0.00 0.00 0.00
0.00 0.00 0.01 0.00 0.00 0.00 0.00 0.00 0.00 0.00 0.00 0.00 0.00 0.00 0.00 0.00 0.00 0.00 0.00 0.00 0.00 0.00 0.00 0.00 0.00 0.00 0.00 0.00 0.00 0.00 0.00 0.00 0.00 0.00 0.00 0.00 0.00 0.00 0.00 0.00 0.00 0.00 0.00 0.00 0.00

GFSSW_prec_precacc24_042.txt.gz
Total_Precipitation_Accumulation
0.08 0.11 0.13 0.13 0.14 0.12 0.12 0.18 0.22 0.20 0.13 0.12 0.19 0.29 0.23 0.24 0.25 0.18 0.08 0.01 0.03 0.01 0.01 0.00 0.02 0.03 0.06 0.19 0.05 0.05 0.26 0.21 0.02 0.01 0.01 0.00 0.00 0.00 0.00 0.00 0.00 0.00 0.00 0.01 0.01
0.10 0.14 0.15 0.18 0.21 0.25 0.30 0.26 0.27 0.19 0.13 0.10 0.15 0.33 0.31 0.21 0.17 0.21 0.07 0.04 0.08 0.10 0.02 0.00 0.02 0.04 0.05 0.18 0.10 0.14 0.14 0.07 0.01 0.00 0.01 0.01 0.00 0.00 0.00 0.00 0.00 0.00 0.01 0.00 0.02
0.12 0.14 0.17 0.30 0.33 0.36 0.25 0.18 0.21 0.24 0.13 0.11 0.18 0.34 0.32 0.26 0.18 0.03 0.03 0.02 0.12 0.14 0.04 0.00 0.02 0.08 0.02 0.07 0.05 0.05 0.03 0.00 0.01 0.04 0.11 0.03 0.01 0.00 0.00 0.00 0.00 0.00 0.00 0.00 0.05
0.13 0.16 0.25 0.37 0.31 0.24 0.19 0.22 0.21 0.21 0.17 0.17 0.17 0.39 0.30 0.28 0.17 0.09 0.05 0.08 0.10 0.22 0.14 0.04 0.02 0.07 0.01 0.01 0.00 0.00 0.00 0.00 0.03 0.13 0.09 0.03 0.01 0.00 0.00 0.00 0.00 0.00 0.00 0.00 0.02
0.16 0.26 0.34 0.30 0.26 0.19 0.14 0.15 0.15 0.14 0.15 0.17 0.16 0.52 0.47 0.27 0.08 0.16 0.17 0.17 0.43 0.56 0.13 0.05 0.01 0.03 0.01 0.00 0.00 0.00 0.00 0.00 0.04 0.05 0.06 0.09 0.04 0.00 0.00 0.00 0.00 0.00 0.00 0.00 0.00
0.22 0.27 0.28 0.26 0.23 0.16 0.14 0.16 0.16 0.11 0.04 0.04 0.12 0.30 0.39 0.18 0.03 0.10 0.24 0.35 0.48 0.59 0.15 0.04 0.00 0.01 0.01 0.01 0.00 0.00 0.00 0.00 0.02 0.01 0.02 0.09 0.04 0.02 0.00 0.00 0.00 0.00 0.00 0.00 0.00
0.25 0.24 0.29 0.27 0.16 0.09 0.10 0.13 0.11 0.11 0.04 0.03 0.10 0.34 0.20 0.11 0.07 0.15 0.21 0.51 0.56 0.55 0.19 0.05 0.00 0.02 0.01 0.02 0.00 0.00 0.00 0.00 0.00 0.00 0.00 0.00 0.04 0.01 0.00 0.00 0.00 0.00 0.00 0.00 0.00
0.25 0.23 0.28 0.22 0.11 0.06 0.06 0.09 0.04 0.03 0.05 0.05 0.06 0.33 0.13 0.02 0.08 0.12 0.15 0.51 0.57 0.59 0.31 0.16 0.04 0.01 0.02 0.02 0.02 0.02 0.00 0.00 0.00 0.00 0.00 0.00 0.00 0.00 0.00 0.00 0.00 0.00 0.00 0.00 0.00
0.24 0.22 0.21 0.13 0.05 0.04 0.04 0.02 0.01 0.02 0.09 0.09 0.10 0.28 0.13 0.03 0.04 0.13 0.14 0.49 0.52 0.68 0.76 0.42 0.21 0.05 0.03 0.03 0.06 0.04 0.00 0.00 0.00 0.00 0.00 0.00 0.00 0.00 0.00 0.00 0.00 0.00 0.00 0.00 0.00
0.18 0.13 0.10 0.05 0.05 0.06 0.05 0.01 0.00 0.03 0.10 0.05 0.17 0.45 0.14 0.04 0.06 0.19 0.21 0.53 0.70 0.95 1.26 0.95 0.56 0.13 0.05 0.03 0.02 0.00 0.00 0.00 0.00 0.00 0.00 0.00 0.00 0.00 0.00 0.00 0.00 0.00 0.00 0.00 0.00
0.12 0.11 0.07 0.05 0.08 0.05 0.01 0.03 0.10 0.08 0.05 0.05 0.09 0.20 0.15 0.22 0.19 0.18 0.36 0.92 1.23 1.47 1.18 0.77 0.38 0.12 0.01 0.00 0.00 0.00 0.00 0.00 0.00 0.00 0.00 0.00 0.00 0.00 0.00 0.00 0.00 0.00 0.00 0.00 0.00
0.11 0.12 0.15 0.10 0.11 0.07 0.01 0.02 0.05 0.13 0.01 0.01 0.08 0.14 0.08 0.20 0.31 0.31 0.66 1.80 1.39 1.27 0.87 0.68 0.23 0.05 0.02 0.00 0.00 0.00 0.00 0.00 0.00 0.00 0.00 0.00 0.00 0.00 0.00 0.00 0.00 0.00 0.00 0.00 0.00
0.13 0.21 0.14 0.19 0.14 0.03 0.01 0.01 0.02 0.03 0.08 0.14 0.23 0.18 0.29 0.55 0.52 0.50 1.27 1.76 0.94 0.93 0.66 0.35 0.13 0.05 0.08 0.01 0.00 0.00 0.00 0.00 0.00 0.00 0.00 0.00 0.00 0.00 0.00 0.00 0.00 0.00 0.00 0.00 0.00
0.18 0.23 0.15 0.20 0.07 0.11 0.02 0.03 0.03 0.00 0.28 0.39 0.42 0.49 0.59 0.79 0.70 0.59 1.23 1.31 0.89 0.90 1.08 0.61 0.21 0.08 0.07 0.07 0.00 0.00 0.00 0.00 0.00 0.00 0.00 0.00 0.00 0.00 0.00 0.00 0.00 0.00 0.00 0.00 0.00
0.17 0.16 0.15 0.21 0.21 0.17 0.01 0.00 0.00 0.01 0.29 0.42 0.68 0.73 0.83 0.64 0.47 0.59 1.10 0.87 0.37 0.75 0.94 0.67 0.33 0.15 0.12 0.05 0.02 0.00 0.00 0.00 0.00 0.00 0.00 0.00 0.00 0.00 0.00 0.00 0.00 0.00 0.00 0.00 0.00
0.15 0.13 0.16 0.11 0.14 0.09 0.00 0.00 0.00 0.04 0.51 0.83 1.01 0.87 0.66 0.36 0.29 0.44 0.81 0.54 0.42 0.60 0.50 0.33 0.30 0.28 0.21 0.04 0.03 0.00 0.00 0.00 0.00 0.00 0.00 0.00 0.00 0.00 0.00 0.00 0.00 0.00 0.00 0.00 0.00
0.05 0.03 0.02 0.01 0.01 0.01 0.00 0.00 0.01 0.16 0.49 0.57 0.50 0.28 0.25 0.29 0.21 0.31 0.63 0.49 0.50 0.63 0.70 0.48 0.37 0.24 0.20 0.04 0.05 0.00 0.00 0.01 0.01 0.00 0.00 0.00 0.00 0.00 0.00 0.00 0.00 0.00 0.00 0.00 0.00
0.01 0.00 0.00 0.00 0.00 0.00 0.00 0.00 0.11 0.28 0.48 0.26 0.12 0.10 0.16 0.16 0.25 0.25 0.32 0.26 0.16 0.08 0.30 0.36 0.49 0.34 0.30 0.04 0.03 0.00 0.00 0.01 0.00 0.00 0.00 0.00 0.00 0.00 0.00 0.00 0.00 0.00 0.00 0.00 0.00
0.00 0.00 0.00 0.00 0.00 0.00 0.01 0.05 0.17 0.43 0.43 0.10 0.03 0.02 0.10 0.08 0.13 0.17 0.19 0.16 0.11 0.07 0.14 0.10 0.13 0.17 0.19 0.05 0.02 0.02 0.00 0.00 0.00 0.00 0.00 0.00 0.00 0.00 0.00 0.00 0.00 0.00 0.00 0.00 0.00
0.00 0.00 0.00 0.00 0.00 0.00 0.02 0.17 0.14 0.11 0.03 0.00 0.02 0.01 0.01 0.01 0.03 0.04 0.10 0.06 0.02 0.02 0.00 0.00 0.04 0.10 0.14 0.11 0.05 0.00 0.00 0.02 0.00 0.00 0.00 0.00 0.00 0.00 0.00 0.00 0.00 0.00 0.00 0.00 0.00
0.00 0.00 0.00 0.00 0.00 0.02 0.06 0.12 0.09 0.01 0.00 0.00 0.00 0.00 0.00 0.00 0.00 0.00 0.00 0.01 0.01 0.01 0.00 0.00 0.01 0.07 0.15 0.19 0.07 0.01 0.01 0.01 0.01 0.00 0.00 0.00 0.00 0.00 0.00 0.00 0.00 0.00 0.00 0.00 0.00
0.00 0.00 0.00 0.00 0.01 0.07 0.11 0.06 0.03 0.00 0.00 0.00 0.00 0.00 0.00 0.00 0.00 0.00 0.00 0.00 0.00 0.00 0.00 0.00 0.00 0.03 0.06 0.02 0.00 0.01 0.00 0.01 0.01 0.00 0.00 0.00 0.00 0.00 0.00 0.00 0.00 0.00 0.00 0.00 0.00
0.00 0.00 0.00 0.00 0.01 0.01 0.01 0.00 0.00 0.00 0.00 0.00 0.00 0.00 0.00 0.00 0.00 0.00 0.00 0.00 0.00 0.00 0.00 0.00 0.00 0.02 0.04 0.04 0.01 0.01 0.00 0.01 0.01 0.00 0.00 0.00 0.00 0.00 0.00 0.00 0.00 0.00 0.00 0.00 0.00
0.00 0.00 0.00 0.00 0.00 0.00 0.00 0.00 0.00 0.00 0.00 0.00 0.00 0.00 0.00 0.00 0.00 0.00 0.00 0.00 0.00 0.00 0.00 0.00 0.00 0.00 0.00 0.01 0.00 0.00 0.00 0.00 0.03 0.04 0.00 0.00 0.00 0.00 0.00 0.00 0.00 0.00 0.00 0.00 0.00
0.00 0.00 0.00 0.00 0.00 0.00 0.00 0.00 0.00 0.00 0.00 0.00 0.00 0.00 0.00 0.00 0.00 0.00 0.00 0.00 0.00 0.00 0.00 0.00 0.00 0.00 0.00 0.00 0.00 0.00 0.00 0.00 0.01 0.01 0.02 0.01 0.00 0.00 0.00 0.00 0.00 0.00 0.00 0.00 0.00
0.00 0.01 0.00 0.00 0.00 0.00 0.00 0.00 0.00 0.00 0.00 0.00 0.00 0.00 0.00 0.00 0.00 0.00 0.00 0.00 0.00 0.00 0.00 0.00 0.00 0.00 0.00 0.00 0.00 0.00 0.00 0.00 0.00 0.00 0.00 0.00 0.00 0.00 0.00 0.00 0.00 0.00 0.00 0.00 0.00
0.00 0.00 0.01 0.00 0.00 0.00 0.00 0.00 0.00 0.00 0.00 0.00 0.00 0.01 0.00 0.00 0.00 0.00 0.00 0.00 0.00 0.00 0.00 0.00 0.00 0.00 0.00 0.00 0.00 0.00 0.00 0.00 0.00 0.00 0.00 0.00 0.00 0.00 0.00 0.00 0.00 0.00 0.00 0.00 0.00

GFSSW_prec_precacc24_045.txt.gz
Total_Precipitation_Accumulation
0.08 0.11 0.13 0.14 0.16 0.14 0.21 0.27 0.29 0.28 0.19 0.11 0.08 0.24 0.25 0.30 0.29 0.19 0.07 0.01 0.03 0.04 0.03 0.00 0.02 0.04 0.09 0.23 0.10 0.08 0.27 0.21 0.02 0.02 0.02 0.00 0.00 0.00 0.00 0.00 0.00 0.00 0.00 0.01 0.01
0.09 0.12 0.14 0.18 0.22 0.28 0.37 0.35 0.32 0.25 0.18 0.09 0.08 0.18 0.31 0.21 0.18 0.21 0.07 0.04 0.09 0.16 0.04 0.00 0.02 0.05 0.08 0.19 0.17 0.28 0.22 0.08 0.01 0.00 0.02 0.01 0.00 0.00 0.00 0.00 0.01 0.02 0.01 0.00 0.02
0.09 0.11 0.15 0.28 0.31 0.35 0.31 0.24 0.24 0.25 0.14 0.11 0.13 0.19 0.32 0.26 0.18 0.03 0.03 0.02 0.12 0.17 0.10 0.00 0.02 0.09 0.05 0.09 0.09 0.09 0.06 0.00 0.01 0.06 0.15 0.03 0.01 0.00 0.00 0.00 0.00 0.03 0.01 0.04 0.09
0.11 0.14 0.21 0.30 0.24 0.21 0.20 0.24 0.21 0.24 0.18 0.17 0.15 0.32 0.28 0.29 0.17 0.10 0.07 0.09 0.10 0.26 0.24 0.04 0.02 0.08 0.02 0.02 0.01 0.01 0.00 0.00 0.03 0.14 0.10 0.04 0.03 0.00 0.00 0.00 0.00 0.02 0.05 0.03 0.02
0.15 0.22 0.28 0.27 0.22 0.16 0.12 0.14 0.15 0.15 0.15 0.17 0.18 0.32 0.26 0.29 0.08 0.16 0.14 0.14 0.40 0.64 0.22 0.05 0.01 0.04 0.01 0.00 0.02 0.02 0.00 0.01 0.05 0.07 0.07 0.11 0.09 0.01 0.00 0.00 0.00 0.01 0.03 0.02 0.00
0.19 0.22 0.27 0.24 0.21 0.15 0.13 0.16 0.16 0.16 0.04 0.04 0.17 0.14 0.16 0.22 0.03 0.10 0.19 0.25 0.45 0.62 0.28 0.05 0.00 0.02 0.01 0.01 0.01 0.01 0.01 0.02 0.05 0.03 0.05 0.11 0.07 0.12 0.00 0.00 0.00 0.01 0.01 0.01 0.01
0.22 0.22 0.28 0.26 0.14 0.09 0.10 0.13 0.11 0.12 0.04 0.03 0.09 0.08 0.13 0.09 0.07 0.15 0.16 0.37 0.46 0.60 0.31 0.10 0.01 0.03 0.01 0.02 0.00 0.01 0.03 0.04 0.02 0.03 0.03 0.03 0.13 0.18 0.01 0.00 0.00 0.03 0.02 0.00 0.00
0.23 0.22 0.28 0.22 0.10 0.05 0.06 0.08 0.04 0.03 0.05 0.05 0.04 0.08 0.06 0.01 0.08 0.12 0.13 0.45 0.48 0.74 0.57 0.22 0.05 0.03 0.02 0.02 0.03 0.02 0.02 0.01 0.00 0.01 0.01 0.02 0.03 0.02 0.01 0.00 0.00 0.00 0.00 0.00 0.00
0.23 0.22 0.20 0.12 0.04 0.01 0.04 0.01 0.01 0.02 0.09 0.09 0.05 0.09 0.08 0.02 0.04 0.13 0.13 0.48 0.52 0.78 1.12 0.56 0.19 0.05 0.04 0.03 0.07 0.04 0.00 0.00 0.00 0.00 0.00 0.00 0.00 0.01 0.00 0.00 0.00 0.00 0.00 0.00 0.00
0.18 0.13 0.10 0.05 0.04 0.04 0.04 0.00 0.00 0.03 0.09 0.04 0.04 0.20 0.11 0.04 0.06 0.19 0.19 0.52 0.69 1.06 1.67 1.00 0.52 0.12 0.05 0.03 0.03 0.00 0.00 0.00 0.00 0.00 0.00 0.00 0.00 0.01 0.01 0.00 0.00 0.00 0.00 0.00 0.00
0.12 0.11 0.07 0.05 0.07 0.04 0.01 0.03 0.09 0.08 0.04 0.04 0.02 0.12 0.15 0.22 0.19 0.18 0.34 0.89 1.15 1.48 1.53 0.90 0.35 0.08 0.00 0.00 0.00 0.00 0.00 0.00 0.00 0.00 0.00 0.00 0.00 0.00 0.01 0.00 0.00 0.00 0.00 0.00 0.00
0.11 0.12 0.15 0.10 0.10 0.05 0.00 0.02 0.03 0.10 0.01 0.01 0.03 0.11 0.07 0.20 0.32 0.31 0.64 1.77 1.37 1.26 1.11 0.94 0.23 0.01 0.00 0.00 0.00 0.00 0.00 0.00 0.00 0.00 0.00 0.00 0.00 0.00 0.00 0.00 0.00 0.00 0.00 0.00 0.00
0.13 0.20 0.14 0.16 0.11 0.02 0.01 0.00 0.00 0.02 0.08 0.12 0.13 0.14 0.29 0.55 0.53 0.51 1.27 1.77 1.01 0.94 0.73 0.57 0.14 0.04 0.06 0.01 0.00 0.00 0.00 0.00 0.00 0.00 0.00 0.00 0.00 0.00 0.00 0.00 0.00 0.00 0.00 0.00 0.00
0.15 0.20 0.11 0.12 0.03 0.07 0.01 0.00 0.01 0.00 0.30 0.32 0.29 0.47 0.59 0.79 0.71 0.61 1.26 1.38 1.03 0.95 1.14 0.80 0.22 0.08 0.07 0.08 0.00 0.00 0.00 0.00 0.00 0.00 0.00 0.00 0.00 0.00 0.00 0.00 0.00 0.00 0.00 0.00 0.00
0.11 0.11 0.10 0.08 0.04 0.14 0.00 0.00 0.00 0.01 0.34 0.37 0.57 0.68 0.82 0.64 0.47 0.59 1.12 0.95 0.46 0.81 0.99 0.75 0.33 0.15 0.12 0.05 0.02 0.00 0.00 0.00 0.00 0.00 0.00 0.00 0.00 0.00 0.00 0.00 0.00 0.00 0.00 0.00 0.00
0.03 0.02 0.03 0.02 0.04 0.02 0.00 0.00 0.00 0.04 0.38 0.79 0.96 0.82 0.63 0.37 0.30 0.45 0.83 0.60 0.47 0.62 0.53 0.37 0.31 0.28 0.21 0.04 0.03 0.00 0.00 0.00 0.00 0.00 0.00 0.00 0.00 0.00 0.00 0.00 0.00 0.00 0.00 0.00 0.00
0.00 0.01 0.01 0.00 0.00 0.00 0.00 0.00 0.01 0.11 0.30 0.51 0.57 0.32 0.27 0.28 0.21 0.31 0.63 0.51 0.54 0.68 0.72 0.56 0.40 0.24 0.20 0.04 0.05 0.00 0.00 0.01 0.01 0.00 0.00 0.00 0.00 0.00 0.00 0.00 0.00 0.00 0.00 0.00 0.00
0.00 0.00 0.00 0.00 0.00 0.00 0.00 0.00 0.07 0.16 0.33 0.24 0.26 0.30 0.28 0.19 0.25 0.24 0.32 0.27 0.16 0.12 0.32 0.42 0.56 0.34 0.30 0.04 0.03 0.00 0.00 0.01 0.00 0.00 0.00 0.00 0.00 0.00 0.00 0.00 0.00 0.00 0.00 0.00 0.00
0.00 0.00 0.00 0.00 0.00 0.00 0.00 0.01 0.07 0.22 0.30 0.09 0.06 0.19 0.23 0.12 0.13 0.18 0.20 0.16 0.11 0.08 0.15 0.11 0.14 0.18 0.19 0.05 0.02 0.02 0.00 0.00 0.00 0.00 0.00 0.00 0.00 0.00 0.00 0.00 0.00 0.00 0.00 0.00 0.00
0.00 0.00 0.00 0.00 0.00 0.00 0.01 0.08 0.04 0.04 0.01 0.00 0.01 0.02 0.06 0.06 0.06 0.04 0.10 0.06 0.02 0.02 0.00 0.00 0.04 0.11 0.14 0.11 0.05 0.00 0.00 0.02 0.00 0.00 0.00 0.00 0.00 0.00 0.00 0.00 0.00 0.00 0.00 0.00 0.00
0.00 0.00 0.00 0.00 0.00 0.01 0.01 0.03 0.01 0.00 0.00 0.00 0.00 0.00 0.00 0.01 0.00 0.00 0.00 0.01 0.01 0.01 0.00 0.00 0.01 0.07 0.16 0.19 0.07 0.01 0.01 0.01 0.01 0.00 0.00 0.00 0.00 0.00 0.00 0.00 0.00 0.00 0.00 0.00 0.00
0.00 0.00 0.00 0.00 0.00 0.00 0.00 0.00 0.00 0.00 0.00 0.00 0.00 0.00 0.00 0.00 0.00 0.00 0.00 0.00 0.00 0.00 0.00 0.00 0.00 0.03 0.06 0.02 0.00 0.01 0.00 0.01 0.01 0.00 0.00 0.00 0.00 0.00 0.00 0.00 0.00 0.00 0.00 0.00 0.00
0.00 0.00 0.00 0.00 0.01 0.00 0.00 0.00 0.00 0.00 0.00 0.00 0.00 0.00 0.00 0.00 0.00 0.00 0.00 0.00 0.00 0.00 0.00 0.00 0.00 0.04 0.08 0.07 0.02 0.01 0.00 0.01 0.01 0.00 0.00 0.00 0.00 0.00 0.00 0.00 0.00 0.00 0.00 0.00 0.00
0.00 0.00 0.00 0.00 0.00 0.00 0.00 0.00 0.00 0.00 0.00 0.00 0.00 0.00 0.00 0.00 0.00 0.00 0.00 0.00 0.00 0.00 0.00 0.00 0.00 0.00 0.01 0.01 0.01 0.00 0.00 0.00 0.03 0.04 0.01 0.00 0.00 0.00 0.00 0.00 0.00 0.00 0.00 0.00 0.00
0.00 0.00 0.00 0.00 0.00 0.00 0.00 0.00 0.00 0.00 0.00 0.00 0.00 0.00 0.00 0.00 0.00 0.00 0.00 0.00 0.00 0.00 0.00 0.00 0.00 0.00 0.00 0.00 0.00 0.00 0.00 0.00 0.01 0.01 0.02 0.01 0.00 0.00 0.00 0.00 0.00 0.00 0.00 0.00 0.00
0.00 0.01 0.00 0.00 0.00 0.00 0.00 0.01 0.01 0.00 0.00 0.00 0.00 0.00 0.00 0.00 0.00 0.00 0.00 0.00 0.00 0.00 0.00 0.00 0.00 0.00 0.00 0.00 0.00 0.00 0.00 0.00 0.00 0.00 0.00 0.00 0.00 0.00 0.00 0.00 0.00 0.00 0.00 0.00 0.00
0.00 0.00 0.01 0.00 0.00 0.00 0.00 0.00 0.00 0.00 0.00 0.00 0.01 0.01 0.00 0.00 0.00 0.00 0.00 0.00 0.00 0.00 0.00 0.00 0.00 0.00 0.00 0.00 0.00 0.00 0.00 0.00 0.00 0.00 0.00 0.00 0.00 0.00 0.00 0.00 0.00 0.00 0.00 0.00 0.00

GFSSW_prec_precacc24_048.txt.gz
Total_Precipitation_Accumulation
0.06 0.08 0.10 0.11 0.15 0.14 0.21 0.31 0.38 0.32 0.24 0.18 0.13 0.09 0.10 0.29 0.37 0.29 0.09 0.01 0.03 0.10 0.11 0.00 0.02 0.04 0.16 0.32 0.19 0.16 0.32 0.21 0.02 0.02 0.02 0.00 0.00 0.00 0.00 0.00 0.00 0.00 0.00 0.01 0.01
0.08 0.10 0.12 0.16 0.18 0.23 0.31 0.33 0.35 0.30 0.23 0.12 0.10 0.11 0.04 0.16 0.22 0.30 0.08 0.04 0.09 0.22 0.06 0.00 0.02 0.05 0.13 0.23 0.31 0.41 0.39 0.09 0.01 0.00 0.02 0.01 0.00 0.00 0.00 0.00 0.02 0.04 0.05 0.02 0.03
0.09 0.11 0.14 0.25 0.25 0.24 0.21 0.18 0.23 0.25 0.14 0.11 0.13 0.19 0.18 0.19 0.19 0.06 0.04 0.03 0.12 0.21 0.15 0.02 0.02 0.10 0.08 0.12 0.14 0.33 0.17 0.00 0.01 0.06 0.15 0.03 0.01 0.00 0.00 0.00 0.00 0.03 0.07 0.11 0.16
0.09 0.13 0.20 0.28 0.20 0.16 0.14 0.18 0.19 0.24 0.18 0.17 0.16 0.32 0.16 0.11 0.17 0.12 0.11 0.11 0.10 0.26 0.30 0.06 0.02 0.08 0.03 0.05 0.03 0.05 0.04 0.01 0.03 0.14 0.10 0.05 0.03 0.00 0.00 0.00 0.00 0.02 0.08 0.11 0.10
0.14 0.19 0.25 0.25 0.19 0.11 0.08 0.10 0.13 0.15 0.15 0.17 0.18 0.34 0.17 0.17 0.09 0.15 0.14 0.13 0.40 0.62 0.26 0.05 0.01 0.04 0.01 0.01 0.05 0.02 0.00 0.03 0.07 0.07 0.07 0.11 0.10 0.01 0.00 0.00 0.00 0.01 0.03 0.04 0.06
0.19 0.20 0.25 0.23 0.18 0.14 0.11 0.13 0.15 0.16 0.04 0.04 0.18 0.17 0.11 0.17 0.05 0.10 0.18 0.18 0.43 0.62 0.32 0.06 0.00 0.02 0.02 0.02 0.04 0.02 0.02 0.05 0.06 0.03 0.05 0.11 0.07 0.14 0.00 0.00 0.00 0.01 0.02 0.04 0.08
0.21 0.22 0.28 0.25 0.13 0.08 0.09 0.12 0.09 0.11 0.04 0.03 0.10 0.08 0.06 0.03 0.04 0.15 0.14 0.27 0.35 0.59 0.32 0.11 0.01 0.04 0.02 0.05 0.03 0.04 0.09 0.09 0.05 0.03 0.04 0.05 0.17 0.21 0.01 0.00 0.00 0.03 0.04 0.01 0.04
0.21 0.22 0.28 0.21 0.08 0.03 0.05 0.07 0.03 0.02 0.05 0.05 0.05 0.04 0.02 0.00 0.02 0.11 0.13 0.43 0.28 0.60 0.63 0.30 0.06 0.05 0.04 0.03 0.04 0.06 0.09 0.07 0.02 0.03 0.05 0.11 0.07 0.02 0.03 0.00 0.00 0.00 0.00 0.00 0.00
0.21 0.22 0.21 0.13 0.04 0.01 0.03 0.01 0.00 0.02 0.08 0.08 0.05 0.03 0.03 0.02 0.03 0.12 0.11 0.47 0.44 0.64 1.16 0.75 0.20 0.07 0.05 0.04 0.07 0.05 0.01 0.00 0.00 0.00 0.00 0.03 0.01 0.01 0.04 0.02 0.00 0.00 0.00 0.00 0.00
0.17 0.13 0.11 0.06 0.04 0.05 0.04 0.00 0.00 0.03 0.09 0.04 0.04 0.06 0.03 0.02 0.05 0.17 0.14 0.49 0.64 0.79 1.76 1.43 0.57 0.13 0.05 0.03 0.03 0.00 0.00 0.00 0.00 0.00 0.00 0.00 0.00 0.01 0.01 0.04 0.00 0.00 0.00 0.00 0.00
0.12 0.11 0.07 0.05 0.07 0.04 0.01 0.03 0.09 0.07 0.04 0.04 0.01 0.06 0.12 0.18 0.19 0.17 0.26 0.84 1.11 1.25 1.84 1.25 0.57 0.07 0.01 0.00 0.00 0.00 0.00 0.00 0.00 0.00 0.00 0.00 0.00 0.00 0.01 0.02 0.02 0.00 0.00 0.00 0.00
0.11 0.11 0.12 0.09 0.07 0.03 0.00 0.02 0.02 0.04 0.01 0.00 0.00 0.06 0.05 0.18 0.31 0.29 0.59 1.73 1.53 1.39 1.43 1.14 0.28 0.01 0.00 0.00 0.00 0.00 0.00 0.00 0.00 0.00 0.00 0.00 0.00 0.00 0.00 0.00 0.00 0.00 0.00 0.00 0.00
0.11 0.17 0.08 0.07 0.04 0.01 0.01 0.00 0.00 0.00 0.07 0.11 0.09 0.08 0.25 0.55 0.53 0.50 1.20 1.72 1.16 1.01 0.96 0.63 0.11 0.01 0.01 0.01 0.00 0.00 0.00 0.00 0.00 0.00 0.00 0.00 0.00 0.00 0.00 0.00 0.00 0.00 0.00 0.00 0.00
0.06 0.09 0.06 0.03 0.01 0.01 0.00 0.00 0.00 0.00 0.32 0.33 0.24 0.41 0.55 0.78 0.71 0.61 1.17 1.32 1.06 1.02 0.97 0.89 0.18 0.06 0.03 0.04 0.00 0.00 0.00 0.00 0.00 0.00 0.00 0.00 0.00 0.00 0.00 0.00 0.00 0.00 0.00 0.00 0.00
0.02 0.02 0.06 0.02 0.00 0.03 0.00 0.00 0.00 0.01 0.39 0.41 0.51 0.58 0.78 0.64 0.47 0.60 1.07 0.93 0.59 0.89 0.96 0.81 0.33 0.14 0.11 0.04 0.01 0.00 0.00 0.00 0.00 0.00 0.00 0.00 0.00 0.00 0.00 0.00 0.00 0.00 0.00 0.00 0.00
0.01 0.02 0.02 0.01 0.00 0.00 0.00 0.00 0.00 0.04 0.38 0.77 0.87 0.78 0.63 0.37 0.30 0.46 0.84 0.64 0.59 0.68 0.57 0.41 0.31 0.28 0.21 0.04 0.03 0.00 0.00 0.00 0.00 0.00 0.00 0.00 0.00 0.00 0.00 0.00 0.00 0.00 0.00 0.00 0.00
0.00 0.01 0.01 0.00 0.00 0.00 0.00 0.00 0.01 0.06 0.21 0.45 0.51 0.31 0.27 0.28 0.21 0.31 0.64 0.60 0.59 0.74 0.78 0.70 0.43 0.24 0.20 0.04 0.05 0.00 0.00 0.01 0.02 0.00 0.00 0.00 0.00 0.00 0.00 0.00 0.00 0.00 0.00 0.00 0.00
0.00 0.00 0.00 0.00 0.00 0.00 0.00 0.00 0.03 0.10 0.18 0.22 0.26 0.30 0.29 0.18 0.23 0.23 0.32 0.30 0.18 0.13 0.35 0.51 0.61 0.35 0.30 0.04 0.03 0.00 0.00 0.01 0.00 0.00 0.00 0.00 0.00 0.00 0.00 0.00 0.00 0.00 0.00 0.00 0.00
0.00 0.00 0.00 0.00 0.00 0.00 0.00 0.00 0.03 0.11 0.10 0.06 0.15 0.23 0.24 0.13 0.13 0.17 0.20 0.16 0.12 0.08 0.15 0.14 0.17 0.19 0.19 0.05 0.02 0.02 0.00 0.00 0.00 0.00 0.00 0.00 0.00 0.00 0.00 0.00 0.00 0.00 0.00 0.00 0.00
0.00 0.00 0.00 0.00 0.00 0.00 0.00 0.01 0.01 0.01 0.00 0.00 0.04 0.05 0.08 0.07 0.06 0.05 0.10 0.06 0.02 0.02 0.00 0.00 0.05 0.11 0.14 0.11 0.05 0.00 0.00 0.02 0.00 0.00 0.00 0.00 0.00 0.00 0.00 0.00 0.00 0.00 0.00 0.00 0.00
0.00 0.00 0.00 0.00 0.00 0.01 0.00 0.01 0.01 0.00 0.00 0.00 0.00 0.00 0.00 0.02 0.01 0.00 0.00 0.01 0.01 0.01 0.00 0.00 0.01 0.07 0.16 0.20 0.07 0.01 0.01 0.01 0.01 0.00 0.00 0.00 0.00 0.00 0.00 0.00 0.00 0.00 0.00 0.00 0.00
0.00 0.00 0.00 0.00 0.01 0.00 0.00 0.00 0.00 0.00 0.00 0.00 0.00 0.00 0.00 0.00 0.00 0.00 0.00 0.00 0.00 0.00 0.00 0.00 0.00 0.03 0.07 0.02 0.00 0.01 0.00 0.01 0.01 0.00 0.00 0.00 0.00 0.00 0.00 0.00 0.00 0.00 0.00 0.00 0.00
0.00 0.00 0.00 0.00 0.01 0.00 0.00 0.00 0.00 0.00 0.00 0.00 0.00 0.00 0.00 0.00 0.00 0.00 0.00 0.00 0.00 0.00 0.00 0.00 0.00 0.04 0.08 0.07 0.02 0.01 0.00 0.01 0.01 0.00 0.00 0.00 0.00 0.00 0.00 0.00 0.00 0.00 0.00 0.00 0.00
0.00 0.00 0.00 0.00 0.00 0.00 0.00 0.00 0.00 0.00 0.00 0.00 0.00 0.00 0.00 0.00 0.00 0.00 0.00 0.00 0.00 0.00 0.00 0.00 0.00 0.00 0.01 0.01 0.01 0.00 0.00 0.00 0.03 0.04 0.01 0.00 0.00 0.00 0.00 0.00 0.00 0.00 0.00 0.00 0.00
0.00 0.00 0.00 0.00 0.00 0.00 0.00 0.00 0.00 0.00 0.00 0.00 0.00 0.00 0.00 0.00 0.00 0.00 0.00 0.00 0.00 0.00 0.00 0.00 0.00 0.00 0.00 0.00 0.00 0.00 0.00 0.00 0.01 0.01 0.02 0.01 0.00 0.00 0.00 0.00 0.00 0.00 0.00 0.00 0.00
0.00 0.00 0.00 0.00 0.00 0.00 0.00 0.01 0.01 0.00 0.00 0.00 0.00 0.00 0.00 0.00 0.00 0.00 0.00 0.00 0.00 0.00 0.00 0.00 0.00 0.00 0.00 0.00 0.00 0.00 0.00 0.00 0.00 0.00 0.00 0.00 0.00 0.00 0.00 0.00 0.00 0.00 0.00 0.00 0.00
0.00 0.00 0.00 0.00 0.00 0.00 0.00 0.00 0.00 0.00 0.00 0.00 0.01 0.01 0.00 0.00 0.00 0.00 0.00 0.00 0.00 0.00 0.00 0.00 0.00 0.00 0.00 0.00 0.00 0.00 0.00 0.00 0.00 0.00 0.00 0.00 0.00 0.00 0.00 0.00 0.00 0.00 0.00 0.00 0.00

GFSSW_prec_precacc24_051.txt.gz
Total_Precipitation_Accumulation
0.06 0.08 0.10 0.11 0.13 0.10 0.17 0.28 0.38 0.33 0.24 0.22 0.16 0.12 0.09 0.13 0.30 0.37 0.19 0.02 0.03 0.15 0.20 0.02 0.02 0.05 0.19 0.36 0.25 0.26 0.40 0.21 0.02 0.02 0.02 0.00 0.00 0.00 0.00 0.00 0.00 0.00 0.00 0.01 0.02
0.07 0.10 0.11 0.15 0.17 0.21 0.26 0.26 0.29 0.29 0.23 0.16 0.11 0.12 0.05 0.05 0.15 0.33 0.16 0.07 0.09 0.28 0.10 0.02 0.02 0.06 0.14 0.27 0.43 0.61 0.63 0.13 0.01 0.00 0.02 0.01 0.00 0.00 0.00 0.00 0.02 0.04 0.05 0.03 0.10
0.09 0.10 0.12 0.23 0.22 0.23 0.17 0.15 0.18 0.23 0.13 0.11 0.13 0.19 0.18 0.09 0.04 0.05 0.06 0.12 0.19 0.26 0.23 0.05 0.02 0.10 0.09 0.17 0.22 0.56 0.33 0.02 0.01 0.06 0.15 0.03 0.01 0.00 0.00 0.00 0.00 0.03 0.07 0.11 0.22
0.10 0.12 0.18 0.27 0.18 0.15 0.13 0.13 0.12 0.18 0.15 0.16 0.15 0.34 0.17 0.05 0.06 0.10 0.11 0.16 0.19 0.29 0.33 0.08 0.03 0.09 0.04 0.06 0.06 0.09 0.11 0.04 0.05 0.15 0.10 0.05 0.03 0.00 0.00 0.00 0.00 0.02 0.08 0.11 0.11
0.14 0.18 0.23 0.24 0.18 0.11 0.08 0.09 0.11 0.11 0.12 0.16 0.18 0.35 0.16 0.13 0.04 0.12 0.14 0.14 0.42 0.63 0.26 0.05 0.01 0.04 0.01 0.02 0.07 0.04 0.01 0.07 0.09 0.09 0.08 0.11 0.10 0.01 0.00 0.00 0.00 0.01 0.03 0.04 0.07
0.17 0.17 0.24 0.22 0.18 0.13 0.11 0.12 0.15 0.16 0.04 0.04 0.18 0.16 0.10 0.15 0.04 0.09 0.18 0.16 0.43 0.61 0.32 0.08 0.01 0.02 0.02 0.03 0.05 0.04 0.05 0.07 0.07 0.07 0.08 0.11 0.07 0.14 0.00 0.00 0.00 0.01 0.02 0.04 0.08
0.18 0.18 0.26 0.26 0.13 0.07 0.09 0.12 0.09 0.11 0.03 0.02 0.10 0.07 0.04 0.02 0.04 0.11 0.13 0.22 0.34 0.59 0.32 0.12 0.02 0.04 0.02 0.05 0.04 0.07 0.14 0.16 0.10 0.07 0.09 0.08 0.18 0.21 0.01 0.00 0.00 0.03 0.04 0.01 0.04
0.16 0.18 0.25 0.20 0.09 0.03 0.05 0.07 0.02 0.02 0.03 0.04 0.04 0.03 0.01 0.00 0.02 0.10 0.11 0.37 0.18 0.54 0.65 0.35 0.08 0.05 0.05 0.04 0.05 0.10 0.18 0.14 0.08 0.05 0.07 0.13 0.08 0.02 0.03 0.00 0.00 0.00 0.00 0.00 0.00
0.14 0.16 0.18 0.12 0.04 0.02 0.03 0.01 0.00 0.01 0.05 0.07 0.04 0.02 0.01 0.02 0.04 0.13 0.11 0.45 0.35 0.52 1.10 0.79 0.22 0.07 0.05 0.05 0.08 0.07 0.03 0.05 0.04 0.02 0.00 0.03 0.01 0.01 0.04 0.05 0.00 0.00 0.00 0.00 0.00
0.14 0.12 0.09 0.05 0.04 0.04 0.04 0.00 0.00 0.03 0.08 0.03 0.04 0.04 0.03 0.02 0.05 0.15 0.11 0.47 0.63 0.67 1.67 1.55 0.55 0.13 0.05 0.04 0.03 0.00 0.00 0.00 0.02 0.01 0.00 0.00 0.00 0.01 0.01 0.04 0.00 0.00 0.00 0.00 0.00
0.10 0.08 0.05 0.03 0.03 0.02 0.01 0.03 0.09 0.07 0.04 0.04 0.01 0.03 0.11 0.17 0.19 0.16 0.20 0.86 1.01 0.86 1.74 1.58 0.63 0.07 0.01 0.00 0.00 0.00 0.00 0.00 0.00 0.00 0.00 0.00 0.00 0.00 0.01 0.03 0.03 0.00 0.00 0.00 0.00
0.06 0.04 0.06 0.02 0.02 0.01 0.00 0.02 0.02 0.03 0.01 0.00 0.00 0.01 0.03 0.12 0.31 0.29 0.48 1.71 1.32 0.94 1.29 1.31 0.37 0.01 0.00 0.00 0.00 0.00 0.00 0.00 0.00 0.00 0.01 0.00 0.00 0.00 0.00 0.00 0.01 0.00 0.00 0.00 0.00
0.06 0.03 0.02 0.01 0.01 0.00 0.00 0.00 0.00 0.00 0.07 0.10 0.07 0.03 0.16 0.48 0.53 0.50 0.98 1.50 1.07 0.72 0.84 0.64 0.10 0.01 0.02 0.01 0.00 0.00 0.00 0.00 0.00 0.00 0.00 0.00 0.00 0.00 0.00 0.00 0.00 0.00 0.00 0.00 0.00
0.03 0.03 0.02 0.01 0.00 0.00 0.00 0.00 0.00 0.00 0.34 0.35 0.21 0.26 0.50 0.76 0.71 0.60 0.93 1.23 1.13 0.94 0.94 0.89 0.15 0.03 0.04 0.04 0.00 0.00 0.00 0.00 0.00 0.00 0.00 0.00 0.00 0.00 0.00 0.00 0.00 0.00 0.00 0.00 0.00
0.02 0.01 0.02 0.01 0.00 0.00 0.00 0.00 0.00 0.01 0.42 0.46 0.43 0.44 0.74 0.64 0.47 0.59 0.86 0.78 0.54 0.86 0.88 0.88 0.27 0.06 0.04 0.03 0.00 0.00 0.00 0.00 0.00 0.00 0.00 0.00 0.00 0.00 0.00 0.00 0.00 0.00 0.00 0.00 0.00
0.01 0.02 0.02 0.01 0.00 0.00 0.00 0.00 0.00 0.04 0.40 0.77 0.73 0.70 0.62 0.37 0.30 0.40 0.58 0.53 0.62 0.71 0.59 0.49 0.25 0.22 0.13 0.04 0.01 0.00 0.00 0.00 0.00 0.00 0.00 0.00 0.00 0.00 0.00 0.00 0.00 0.00 0.00 0.00 0.00
0.01 0.01 0.01 0.00 0.00 0.00 0.00 0.00 0.01 0.06 0.22 0.42 0.40 0.30 0.26 0.27 0.21 0.28 0.60 0.61 0.63 0.80 0.91 0.81 0.45 0.23 0.19 0.05 0.04 0.00 0.00 0.02 0.02 0.00 0.00 0.00 0.00 0.00 0.00 0.00 0.00 0.00 0.00 0.00 0.00
0.00 0.00 0.00 0.00 0.00 0.00 0.00 0.00 0.02 0.09 0.19 0.19 0.25 0.30 0.28 0.17 0.23 0.23 0.32 0.31 0.18 0.13 0.43 0.66 0.69 0.35 0.30 0.04 0.03 0.00 0.00 0.01 0.00 0.00 0.00 0.00 0.00 0.00 0.00 0.00 0.00 0.00 0.00 0.00 0.00
0.00 0.00 0.00 0.00 0.00 0.00 0.00 0.00 0.01 0.02 0.03 0.05 0.15 0.25 0.24 0.13 0.12 0.16 0.20 0.16 0.12 0.09 0.18 0.17 0.19 0.19 0.19 0.05 0.02 0.02 0.00 0.00 0.00 0.00 0.00 0.00 0.00 0.00 0.00 0.00 0.00 0.00 0.00 0.00 0.00
0.00 0.00 0.00 0.00 0.00 0.00 0.00 0.01 0.00 0.00 0.00 0.01 0.08 0.10 0.08 0.07 0.06 0.05 0.10 0.06 0.02 0.02 0.00 0.00 0.07 0.12 0.14 0.11 0.05 0.00 0.00 0.02 0.00 0.00 0.00 0.00 0.00 0.00 0.00 0.00 0.00 0.00 0.00 0.00 0.00
0.00 0.00 0.00 0.00 0.00 0.01 0.00 0.01 0.01 0.00 0.00 0.00 0.00 0.01 0.00 0.02 0.01 0.00 0.00 0.01 0.01 0.01 0.00 0.00 0.01 0.09 0.17 0.20 0.07 0.01 0.01 0.01 0.01 0.00 0.00 0.00 0.00 0.00 0.00 0.00 0.00 0.00 0.00 0.00 0.00
0.00 0.00 0.00 0.00 0.01 0.00 0.00 0.00 0.00 0.00 0.00 0.00 0.00 0.00 0.00 0.00 0.00 0.00 0.00 0.00 0.00 0.00 0.00 0.00 0.00 0.03 0.08 0.02 0.00 0.01 0.00 0.01 0.01 0.00 0.00 0.00 0.00 0.00 0.00 0.00 0.00 0.00 0.00 0.00 0.00
0.00 0.00 0.00 0.01 0.01 0.00 0.00 0.00 0.00 0.00 0.00 0.00 0.00 0.00 0.00 0.01 0.00 0.00 0.00 0.00 0.00 0.00 0.00 0.00 0.00 0.05 0.10 0.08 0.02 0.01 0.00 0.01 0.01 0.00 0.00 0.00 0.00 0.00 0.00 0.00 0.00 0.00 0.00 0.00 0.00
0.00 0.00 0.00 0.00 0.00 0.00 0.00 0.00 0.00 0.00 0.00 0.00 0.00 0.00 0.00 0.00 0.00 0.00 0.00 0.00 0.00 0.00 0.00 0.00 0.00 0.00 0.01 0.02 0.01 0.00 0.00 0.00 0.03 0.04 0.01 0.00 0.00 0.00 0.00 0.00 0.00 0.00 0.00 0.00 0.00
0.00 0.00 0.00 0.00 0.00 0.00 0.00 0.00 0.00 0.00 0.00 0.00 0.00 0.00 0.00 0.00 0.00 0.00 0.00 0.00 0.00 0.00 0.00 0.00 0.00 0.00 0.00 0.00 0.00 0.00 0.00 0.00 0.01 0.01 0.02 0.01 0.00 0.00 0.00 0.00 0.00 0.00 0.00 0.00 0.00
0.00 0.00 0.00 0.00 0.00 0.00 0.00 0.01 0.01 0.00 0.00 0.00 0.00 0.00 0.00 0.00 0.00 0.00 0.00 0.00 0.00 0.00 0.01 0.00 0.00 0.00 0.00 0.00 0.00 0.00 0.00 0.00 0.00 0.00 0.00 0.00 0.00 0.00 0.00 0.00 0.00 0.00 0.00 0.00 0.00
0.00 0.00 0.00 0.00 0.00 0.00 0.00 0.00 0.00 0.00 0.00 0.00 0.01 0.01 0.00 0.00 0.00 0.00 0.00 0.00 0.00 0.00 0.00 0.00 0.00 0.00 0.00 0.00 0.00 0.00 0.00 0.00 0.00 0.00 0.00 0.00 0.00 0.00 0.00 0.00 0.00 0.00 0.00 0.00 0.00

GFSSW_prec_precacc24_054.txt.gz
Total_Precipitation_Accumulation
0.06 0.07 0.10 0.10 0.12 0.10 0.17 0.26 0.33 0.27 0.23 0.22 0.21 0.16 0.11 0.14 0.18 0.27 0.19 0.03 0.03 0.18 0.24 0.05 0.00 0.05 0.22 0.41 0.28 0.29 0.43 0.21 0.02 0.02 0.02 0.00 0.00 0.00 0.00 0.00 0.00 0.00 0.00 0.01 0.02
0.08 0.10 0.10 0.13 0.15 0.19 0.25 0.26 0.27 0.24 0.21 0.15 0.11 0.13 0.06 0.07 0.07 0.14 0.16 0.13 0.11 0.33 0.14 0.05 0.01 0.07 0.20 0.31 0.49 0.64 0.67 0.14 0.01 0.00 0.02 0.01 0.00 0.00 0.00 0.00 0.02 0.04 0.05 0.03 0.11
0.10 0.11 0.12 0.20 0.20 0.20 0.16 0.14 0.16 0.21 0.13 0.09 0.11 0.19 0.18 0.09 0.02 0.03 0.06 0.19 0.30 0.32 0.26 0.07 0.02 0.10 0.11 0.25 0.27 0.63 0.35 0.02 0.01 0.06 0.15 0.03 0.01 0.00 0.00 0.00 0.00 0.03 0.07 0.12 0.23
0.09 0.13 0.16 0.22 0.17 0.15 0.12 0.13 0.11 0.15 0.11 0.12 0.14 0.34 0.17 0.04 0.02 0.08 0.12 0.20 0.31 0.38 0.38 0.11 0.03 0.08 0.04 0.11 0.11 0.19 0.17 0.05 0.05 0.15 0.10 0.05 0.03 0.00 0.00 0.00 0.00 0.02 0.08 0.12 0.13
0.12 0.15 0.17 0.20 0.16 0.10 0.08 0.08 0.11 0.10 0.09 0.12 0.17 0.35 0.16 0.11 0.03 0.08 0.09 0.15 0.48 0.67 0.30 0.10 0.01 0.04 0.02 0.02 0.11 0.05 0.05 0.10 0.13 0.14 0.08 0.11 0.10 0.01 0.00 0.00 0.00 0.01 0.03 0.04 0.07
0.14 0.14 0.16 0.17 0.16 0.13 0.11 0.12 0.15 0.16 0.04 0.03 0.17 0.16 0.09 0.15 0.04 0.04 0.10 0.12 0.47 0.61 0.34 0.15 0.01 0.02 0.02 0.03 0.06 0.05 0.07 0.09 0.12 0.15 0.11 0.11 0.07 0.14 0.00 0.00 0.00 0.01 0.02 0.04 0.09
0.14 0.15 0.17 0.15 0.07 0.06 0.08 0.11 0.08 0.11 0.03 0.01 0.07 0.06 0.04 0.02 0.03 0.07 0.09 0.17 0.34 0.59 0.33 0.15 0.03 0.04 0.03 0.06 0.05 0.10 0.16 0.21 0.12 0.09 0.12 0.11 0.19 0.21 0.01 0.00 0.00 0.03 0.04 0.01 0.05
0.14 0.14 0.16 0.13 0.05 0.03 0.05 0.06 0.01 0.01 0.02 0.02 0.02 0.01 0.01 0.00 0.01 0.05 0.08 0.32 0.16 0.52 0.64 0.40 0.10 0.06 0.06 0.05 0.06 0.13 0.23 0.18 0.10 0.08 0.10 0.16 0.10 0.02 0.03 0.00 0.00 0.00 0.00 0.00 0.00
0.09 0.11 0.14 0.08 0.03 0.02 0.01 0.00 0.00 0.01 0.03 0.01 0.02 0.01 0.00 0.00 0.05 0.11 0.08 0.46 0.35 0.48 1.07 0.77 0.24 0.06 0.06 0.06 0.09 0.09 0.04 0.06 0.08 0.04 0.01 0.04 0.01 0.01 0.04 0.05 0.00 0.00 0.00 0.00 0.00
0.08 0.05 0.07 0.03 0.02 0.01 0.01 0.00 0.00 0.02 0.04 0.03 0.04 0.04 0.02 0.00 0.14 0.16 0.11 0.53 0.61 0.62 1.58 1.57 0.69 0.12 0.06 0.04 0.03 0.00 0.00 0.01 0.04 0.03 0.02 0.00 0.00 0.01 0.01 0.04 0.00 0.00 0.00 0.00 0.00
0.07 0.04 0.03 0.02 0.01 0.01 0.00 0.03 0.09 0.07 0.03 0.04 0.01 0.02 0.08 0.11 0.19 0.17 0.17 0.77 0.91 0.78 1.68 1.82 0.85 0.08 0.01 0.00 0.00 0.00 0.00 0.00 0.01 0.04 0.02 0.01 0.00 0.00 0.01 0.03 0.03 0.00 0.00 0.00 0.00
0.05 0.03 0.03 0.02 0.01 0.01 0.00 0.02 0.02 0.03 0.01 0.00 0.00 0.00 0.03 0.08 0.30 0.29 0.37 1.38 1.10 0.76 1.22 1.41 0.47 0.02 0.00 0.00 0.00 0.00 0.00 0.00 0.00 0.04 0.06 0.02 0.00 0.00 0.00 0.00 0.01 0.00 0.00 0.00 0.00
0.04 0.03 0.03 0.01 0.01 0.00 0.00 0.00 0.00 0.00 0.06 0.06 0.02 0.01 0.13 0.43 0.52 0.48 0.71 1.22 0.95 0.49 0.80 0.70 0.15 0.01 0.02 0.01 0.00 0.00 0.00 0.00 0.00 0.01 0.03 0.00 0.00 0.00 0.00 0.00 0.00 0.00 0.00 0.00 0.00
0.03 0.03 0.02 0.01 0.00 0.00 0.00 0.00 0.00 0.00 0.32 0.29 0.14 0.15 0.39 0.73 0.68 0.55 0.52 0.95 1.02 0.58 0.74 0.84 0.11 0.02 0.04 0.04 0.00 0.00 0.00 0.00 0.00 0.00 0.00 0.00 0.00 0.00 0.00 0.00 0.00 0.00 0.00 0.00 0.00
0.02 0.02 0.02 0.02 0.00 0.00 0.00 0.00 0.00 0.01 0.44 0.46 0.31 0.31 0.67 0.63 0.45 0.53 0.51 0.57 0.51 0.67 0.72 0.77 0.20 0.04 0.04 0.03 0.00 0.00 0.00 0.00 0.00 0.00 0.00 0.00 0.00 0.00 0.00 0.00 0.00 0.00 0.00 0.00 0.00
0.02 0.03 0.02 0.01 0.00 0.00 0.00 0.00 0.00 0.04 0.40 0.75 0.62 0.62 0.61 0.36 0.31 0.38 0.46 0.42 0.57 0.61 0.47 0.40 0.15 0.15 0.07 0.04 0.00 0.00 0.00 0.00 0.00 0.00 0.00 0.00 0.00 0.00 0.00 0.00 0.00 0.00 0.00 0.00 0.00
0.01 0.02 0.01 0.00 0.00 0.00 0.00 0.00 0.01 0.06 0.21 0.34 0.35 0.29 0.26 0.27 0.21 0.17 0.41 0.55 0.62 0.75 0.89 0.80 0.37 0.16 0.05 0.04 0.00 0.00 0.00 0.02 0.03 0.01 0.00 0.00 0.00 0.00 0.00 0.00 0.00 0.00 0.00 0.00 0.00
0.00 0.00 0.00 0.00 0.00 0.00 0.00 0.00 0.02 0.09 0.16 0.15 0.24 0.29 0.28 0.17 0.18 0.17 0.33 0.35 0.21 0.13 0.56 0.74 0.76 0.29 0.19 0.03 0.01 0.00 0.00 0.01 0.01 0.00 0.00 0.00 0.00 0.00 0.00 0.00 0.00 0.00 0.00 0.00 0.00
0.00 0.00 0.00 0.00 0.00 0.00 0.00 0.00 0.00 0.02 0.07 0.05 0.15 0.25 0.23 0.13 0.12 0.16 0.20 0.16 0.12 0.10 0.24 0.19 0.22 0.19 0.19 0.05 0.03 0.03 0.00 0.00 0.00 0.00 0.00 0.00 0.00 0.00 0.00 0.00 0.00 0.00 0.00 0.00 0.00
0.00 0.00 0.00 0.00 0.00 0.00 0.00 0.00 0.00 0.00 0.01 0.01 0.09 0.10 0.08 0.07 0.06 0.05 0.10 0.06 0.02 0.02 0.00 0.00 0.10 0.13 0.14 0.11 0.05 0.00 0.00 0.02 0.00 0.00 0.00 0.00 0.00 0.00 0.00 0.00 0.00 0.00 0.00 0.00 0.00
0.00 0.00 0.00 0.00 0.00 0.01 0.00 0.01 0.00 0.00 0.00 0.04 0.02 0.01 0.00 0.02 0.01 0.00 0.00 0.01 0.01 0.01 0.00 0.00 0.02 0.11 0.18 0.21 0.07 0.01 0.01 0.01 0.01 0.00 0.00 0.00 0.00 0.00 0.00 0.00 0.00 0.00 0.00 0.00 0.00
0.00 0.00 0.00 0.00 0.01 0.00 0.00 0.00 0.00 0.00 0.00 0.00 0.01 0.01 0.00 0.00 0.00 0.00 0.00 0.00 0.00 0.00 0.00 0.00 0.00 0.04 0.09 0.02 0.00 0.01 0.00 0.01 0.01 0.00 0.00 0.00 0.00 0.00 0.00 0.00 0.00 0.00 0.00 0.00 0.00
0.00 0.00 0.00 0.01 0.01 0.00 0.00 0.00 0.00 0.00 0.00 0.00 0.00 0.02 0.02 0.01 0.00 0.00 0.00 0.00 0.00 0.00 0.00 0.00 0.00 0.06 0.13 0.10 0.02 0.01 0.00 0.01 0.01 0.00 0.00 0.00 0.00 0.00 0.00 0.00 0.00 0.00 0.00 0.00 0.00
0.00 0.00 0.00 0.01 0.00 0.00 0.00 0.00 0.00 0.00 0.00 0.00 0.00 0.00 0.00 0.00 0.00 0.00 0.00 0.00 0.00 0.00 0.00 0.00 0.00 0.00 0.01 0.02 0.01 0.00 0.00 0.00 0.03 0.05 0.01 0.00 0.00 0.00 0.00 0.00 0.00 0.00 0.00 0.00 0.00
0.00 0.00 0.00 0.00 0.00 0.00 0.00 0.00 0.00 0.00 0.00 0.00 0.00 0.00 0.00 0.00 0.00 0.00 0.00 0.00 0.00 0.00 0.00 0.00 0.00 0.00 0.00 0.00 0.00 0.00 0.00 0.00 0.01 0.01 0.02 0.01 0.00 0.00 0.00 0.00 0.00 0.00 0.00 0.00 0.00
0.00 0.00 0.00 0.00 0.00 0.00 0.00 0.01 0.01 0.00 0.00 0.00 0.00 0.00 0.00 0.00 0.00 0.00 0.00 0.00 0.00 0.00 0.01 0.00 0.00 0.00 0.00 0.00 0.00 0.00 0.00 0.00 0.00 0.00 0.00 0.00 0.00 0.00 0.00 0.00 0.00 0.00 0.00 0.00 0.00
0.00 0.00 0.00 0.00 0.00 0.00 0.00 0.00 0.00 0.00 0.00 0.00 0.01 0.01 0.00 0.00 0.00 0.00 0.00 0.00 0.00 0.00 0.00 0.00 0.00 0.00 0.00 0.00 0.00 0.00 0.00 0.00 0.00 0.00 0.00 0.00 0.00 0.00 0.00 0.00 0.00 0.00 0.00 0.00 0.00

GFSSW_prec_precacc24_057.txt.gz
Total_Precipitation_Accumulation
0.06 0.07 0.09 0.10 0.11 0.08 0.15 0.25 0.33 0.24 0.18 0.20 0.21 0.16 0.12 0.16 0.21 0.26 0.16 0.03 0.04 0.20 0.25 0.10 0.01 0.04 0.24 0.50 0.34 0.31 0.45 0.24 0.03 0.02 0.02 0.00 0.00 0.00 0.00 0.00 0.00 0.00 0.00 0.02 0.03
0.07 0.09 0.11 0.12 0.13 0.15 0.19 0.22 0.23 0.21 0.15 0.11 0.11 0.13 0.06 0.08 0.08 0.14 0.13 0.14 0.19 0.38 0.15 0.10 0.01 0.07 0.25 0.39 0.59 0.68 0.69 0.15 0.02 0.00 0.02 0.01 0.00 0.00 0.00 0.00 0.02 0.04 0.05 0.03 0.14
0.08 0.09 0.11 0.17 0.15 0.16 0.14 0.13 0.14 0.16 0.07 0.05 0.10 0.19 0.18 0.09 0.03 0.04 0.06 0.21 0.41 0.38 0.29 0.12 0.04 0.08 0.14 0.37 0.36 0.67 0.37 0.04 0.02 0.07 0.15 0.03 0.01 0.00 0.00 0.00 0.00 0.03 0.07 0.12 0.25
0.08 0.11 0.13 0.17 0.15 0.13 0.11 0.12 0.11 0.15 0.07 0.05 0.10 0.34 0.17 0.04 0.05 0.11 0.13 0.16 0.31 0.42 0.41 0.14 0.05 0.07 0.05 0.24 0.25 0.24 0.18 0.06 0.08 0.16 0.10 0.05 0.03 0.00 0.00 0.00 0.00 0.02 0.08 0.12 0.16
0.10 0.13 0.14 0.14 0.14 0.07 0.05 0.06 0.11 0.10 0.09 0.11 0.14 0.34 0.16 0.12 0.04 0.05 0.08 0.09 0.37 0.66 0.34 0.12 0.02 0.03 0.01 0.05 0.28 0.13 0.07 0.11 0.17 0.16 0.09 0.11 0.10 0.01 0.00 0.00 0.00 0.01 0.03 0.04 0.08
0.13 0.13 0.13 0.12 0.08 0.03 0.06 0.07 0.14 0.16 0.04 0.03 0.17 0.16 0.11 0.15 0.04 0.04 0.08 0.12 0.40 0.60 0.42 0.20 0.02 0.02 0.02 0.05 0.15 0.14 0.11 0.12 0.12 0.16 0.11 0.12 0.08 0.14 0.00 0.00 0.00 0.01 0.02 0.04 0.09
0.11 0.09 0.11 0.13 0.03 0.02 0.03 0.05 0.07 0.11 0.03 0.00 0.05 0.06 0.06 0.04 0.02 0.05 0.06 0.13 0.28 0.54 0.41 0.29 0.05 0.04 0.02 0.07 0.06 0.16 0.23 0.27 0.14 0.09 0.12 0.13 0.20 0.21 0.01 0.00 0.00 0.03 0.04 0.01 0.05
0.08 0.06 0.07 0.11 0.04 0.02 0.03 0.04 0.01 0.00 0.00 0.00 0.00 0.01 0.01 0.00 0.01 0.02 0.04 0.16 0.11 0.49 0.73 0.65 0.14 0.08 0.06 0.05 0.06 0.18 0.36 0.25 0.11 0.08 0.10 0.18 0.12 0.02 0.03 0.00 0.00 0.00 0.00 0.00 0.00
0.05 0.05 0.05 0.04 0.02 0.02 0.00 0.00 0.00 0.00 0.00 0.00 0.00 0.00 0.00 0.00 0.04 0.05 0.01 0.25 0.26 0.44 1.13 1.22 0.36 0.09 0.09 0.07 0.11 0.11 0.08 0.10 0.10 0.05 0.02 0.04 0.02 0.01 0.04 0.05 0.00 0.00 0.00 0.00 0.00
0.05 0.04 0.04 0.02 0.02 0.01 0.01 0.00 0.00 0.00 0.00 0.00 0.01 0.03 0.02 0.00 0.20 0.03 0.01 0.33 0.42 0.60 1.65 1.97 0.83 0.12 0.07 0.05 0.04 0.00 0.00 0.02 0.05 0.05 0.04 0.02 0.01 0.01 0.01 0.04 0.00 0.00 0.00 0.00 0.00
0.05 0.04 0.03 0.02 0.02 0.01 0.00 0.02 0.06 0.04 0.01 0.03 0.01 0.01 0.04 0.04 0.07 0.08 0.06 0.70 0.85 0.78 1.77 2.11 1.05 0.08 0.01 0.00 0.00 0.00 0.00 0.01 0.04 0.07 0.05 0.03 0.02 0.00 0.01 0.03 0.03 0.00 0.00 0.00 0.00
0.05 0.04 0.04 0.02 0.01 0.01 0.00 0.00 0.01 0.02 0.01 0.00 0.00 0.00 0.02 0.07 0.22 0.24 0.28 1.43 1.06 0.77 1.23 1.52 0.58 0.03 0.00 0.00 0.00 0.00 0.00 0.00 0.02 0.05 0.09 0.06 0.02 0.00 0.00 0.00 0.01 0.00 0.00 0.00 0.00
0.05 0.04 0.03 0.01 0.01 0.00 0.00 0.00 0.00 0.00 0.05 0.03 0.00 0.01 0.11 0.41 0.44 0.41 0.57 1.06 0.76 0.48 0.78 0.76 0.24 0.03 0.03 0.02 0.00 0.00 0.00 0.00 0.01 0.03 0.05 0.02 0.02 0.00 0.00 0.00 0.00 0.00 0.00 0.00 0.00
0.04 0.03 0.02 0.01 0.00 0.00 0.00 0.00 0.00 0.00 0.26 0.21 0.08 0.12 0.37 0.67 0.56 0.47 0.40 0.68 0.74 0.51 0.69 0.83 0.18 0.05 0.05 0.04 0.00 0.00 0.00 0.00 0.00 0.00 0.00 0.00 0.00 0.00 0.00 0.00 0.00 0.00 0.00 0.00 0.00
0.03 0.02 0.03 0.02 0.00 0.00 0.00 0.00 0.00 0.01 0.37 0.36 0.23 0.24 0.61 0.60 0.40 0.52 0.37 0.34 0.41 0.49 0.61 0.71 0.18 0.06 0.05 0.03 0.00 0.00 0.00 0.00 0.00 0.00 0.00 0.00 0.00 0.00 0.00 0.00 0.00 0.00 0.00 0.00 0.00
0.02 0.03 0.03 0.01 0.00 0.00 0.00 0.00 0.00 0.04 0.31 0.65 0.55 0.57 0.57 0.33 0.30 0.31 0.31 0.28 0.40 0.40 0.39 0.37 0.14 0.13 0.06 0.04 0.00 0.00 0.00 0.00 0.00 0.00 0.00 0.00 0.00 0.00 0.00 0.00 0.00 0.00 0.00 0.00 0.00
0.01 0.02 0.01 0.00 0.00 0.00 0.00 0.00 0.01 0.05 0.16 0.28 0.32 0.26 0.24 0.27 0.20 0.15 0.26 0.37 0.42 0.55 0.76 0.70 0.40 0.10 0.03 0.04 0.00 0.00 0.00 0.02 0.03 0.01 0.00 0.00 0.00 0.00 0.00 0.00 0.00 0.00 0.00 0.00 0.00
0.00 0.00 0.00 0.00 0.00 0.00 0.00 0.00 0.01 0.07 0.15 0.15 0.23 0.28 0.27 0.16 0.13 0.13 0.32 0.36 0.20 0.13 0.50 0.71 0.74 0.20 0.06 0.02 0.00 0.00 0.00 0.01 0.00 0.00 0.00 0.00 0.00 0.00 0.00 0.00 0.00 0.00 0.00 0.00 0.00
0.00 0.00 0.00 0.00 0.00 0.00 0.00 0.01 0.01 0.02 0.07 0.05 0.15 0.24 0.23 0.13 0.11 0.16 0.26 0.20 0.13 0.10 0.25 0.19 0.24 0.17 0.08 0.03 0.02 0.02 0.00 0.00 0.00 0.00 0.00 0.00 0.00 0.00 0.00 0.00 0.00 0.00 0.00 0.00 0.00
0.00 0.00 0.00 0.00 0.00 0.00 0.01 0.00 0.00 0.00 0.01 0.01 0.09 0.10 0.08 0.07 0.06 0.05 0.12 0.08 0.03 0.03 0.01 0.01 0.12 0.15 0.12 0.10 0.04 0.00 0.00 0.02 0.00 0.00 0.00 0.00 0.00 0.00 0.00 0.00 0.00 0.00 0.00 0.00 0.00
0.00 0.00 0.00 0.00 0.00 0.01 0.00 0.00 0.00 0.00 0.00 0.04 0.03 0.01 0.00 0.02 0.01 0.00 0.01 0.02 0.02 0.01 0.00 0.00 0.02 0.12 0.19 0.22 0.08 0.01 0.01 0.01 0.01 0.00 0.00 0.00 0.00 0.00 0.00 0.00 0.00 0.00 0.00 0.00 0.00
0.00 0.00 0.00 0.00 0.01 0.01 0.00 0.00 0.00 0.00 0.00 0.00 0.01 0.01 0.00 0.00 0.00 0.00 0.00 0.00 0.00 0.00 0.00 0.00 0.00 0.05 0.11 0.03 0.00 0.01 0.01 0.01 0.01 0.01 0.00 0.00 0.00 0.00 0.00 0.00 0.00 0.00 0.00 0.00 0.00
0.00 0.00 0.00 0.01 0.02 0.00 0.00 0.00 0.00 0.00 0.00 0.00 0.01 0.02 0.02 0.01 0.00 0.00 0.00 0.00 0.00 0.00 0.00 0.00 0.00 0.07 0.15 0.10 0.02 0.01 0.00 0.01 0.01 0.00 0.00 0.00 0.00 0.00 0.00 0.00 0.00 0.00 0.00 0.00 0.00
0.00 0.00 0.00 0.01 0.00 0.00 0.00 0.00 0.00 0.00 0.00 0.00 0.00 0.00 0.00 0.00 0.00 0.00 0.00 0.00 0.00 0.00 0.00 0.00 0.00 0.00 0.02 0.02 0.01 0.00 0.00 0.00 0.03 0.05 0.01 0.00 0.00 0.00 0.00 0.00 0.00 0.00 0.00 0.00 0.00
0.00 0.00 0.00 0.00 0.00 0.00 0.00 0.00 0.00 0.00 0.00 0.00 0.00 0.00 0.00 0.00 0.00 0.00 0.00 0.00 0.00 0.00 0.00 0.00 0.00 0.00 0.00 0.00 0.00 0.00 0.00 0.00 0.01 0.01 0.02 0.01 0.00 0.00 0.00 0.00 0.00 0.00 0.00 0.00 0.00
0.00 0.00 0.00 0.00 0.00 0.00 0.00 0.01 0.01 0.00 0.00 0.00 0.00 0.00 0.00 0.00 0.00 0.00 0.00 0.00 0.00 0.00 0.01 0.00 0.00 0.00 0.00 0.00 0.00 0.00 0.00 0.00 0.00 0.00 0.00 0.00 0.00 0.00 0.00 0.00 0.00 0.00 0.00 0.00 0.00
0.00 0.00 0.00 0.00 0.00 0.00 0.00 0.00 0.00 0.00 0.00 0.00 0.01 0.01 0.00 0.00 0.00 0.00 0.00 0.00 0.00 0.00 0.00 0.00 0.00 0.00 0.00 0.00 0.00 0.00 0.00 0.00 0.00 0.00 0.00 0.00 0.00 0.00 0.00 0.00 0.00 0.00 0.00 0.00 0.00

GFSSW_prec_precacc24_060.txt.gz
Total_Precipitation_Accumulation
0.06 0.06 0.09 0.10 0.09 0.07 0.13 0.23 0.31 0.20 0.16 0.15 0.15 0.16 0.12 0.16 0.22 0.28 0.18 0.04 0.05 0.22 0.26 0.13 0.03 0.05 0.29 0.58 0.45 0.33 0.35 0.12 0.02 0.02 0.02 0.00 0.00 0.00 0.00 0.00 0.00 0.00 0.04 0.08 0.03
0.07 0.08 0.09 0.12 0.12 0.14 0.17 0.21 0.21 0.17 0.12 0.07 0.05 0.11 0.06 0.08 0.08 0.15 0.13 0.14 0.23 0.49 0.16 0.13 0.03 0.09 0.28 0.50 0.76 0.77 0.82 0.10 0.01 0.01 0.01 0.01 0.00 0.00 0.00 0.00 0.02 0.04 0.05 0.03 0.17
0.07 0.08 0.10 0.14 0.14 0.17 0.14 0.12 0.11 0.12 0.04 0.00 0.02 0.16 0.18 0.09 0.03 0.08 0.13 0.22 0.46 0.51 0.35 0.15 0.09 0.13 0.16 0.47 0.52 0.75 0.40 0.06 0.04 0.09 0.15 0.03 0.01 0.00 0.00 0.01 0.00 0.03 0.07 0.12 0.29
0.07 0.09 0.10 0.13 0.15 0.15 0.11 0.12 0.11 0.13 0.05 0.03 0.03 0.30 0.17 0.04 0.07 0.15 0.16 0.16 0.31 0.46 0.49 0.16 0.09 0.14 0.07 0.29 0.37 0.32 0.18 0.09 0.11 0.19 0.11 0.05 0.03 0.00 0.00 0.00 0.00 0.02 0.08 0.12 0.21
0.06 0.08 0.07 0.09 0.13 0.06 0.04 0.05 0.09 0.08 0.06 0.09 0.11 0.30 0.16 0.12 0.05 0.03 0.02 0.04 0.26 0.61 0.41 0.16 0.08 0.07 0.03 0.06 0.37 0.19 0.10 0.17 0.26 0.20 0.13 0.12 0.10 0.01 0.00 0.00 0.00 0.01 0.03 0.04 0.09
0.08 0.07 0.05 0.04 0.06 0.02 0.02 0.03 0.08 0.11 0.03 0.02 0.16 0.15 0.11 0.16 0.04 0.03 0.02 0.07 0.34 0.52 0.45 0.25 0.09 0.07 0.03 0.08 0.19 0.21 0.18 0.18 0.23 0.19 0.18 0.14 0.08 0.14 0.00 0.00 0.00 0.01 0.02 0.04 0.09
0.08 0.06 0.03 0.03 0.02 0.02 0.02 0.03 0.03 0.07 0.02 0.00 0.05 0.06 0.06 0.05 0.02 0.04 0.05 0.12 0.25 0.47 0.47 0.30 0.13 0.12 0.04 0.08 0.08 0.20 0.30 0.39 0.24 0.15 0.15 0.14 0.20 0.21 0.01 0.00 0.00 0.03 0.04 0.01 0.05
0.06 0.05 0.03 0.02 0.02 0.02 0.01 0.02 0.01 0.00 0.00 0.00 0.00 0.01 0.01 0.00 0.01 0.02 0.04 0.16 0.10 0.41 0.80 0.67 0.19 0.11 0.07 0.05 0.10 0.21 0.50 0.39 0.20 0.17 0.13 0.19 0.12 0.02 0.03 0.00 0.00 0.00 0.00 0.00 0.00
0.04 0.05 0.04 0.02 0.02 0.02 0.01 0.00 0.00 0.00 0.00 0.00 0.00 0.00 0.01 0.00 0.04 0.05 0.01 0.25 0.26 0.35 1.16 1.25 0.51 0.14 0.10 0.09 0.15 0.16 0.21 0.30 0.17 0.06 0.04 0.04 0.02 0.01 0.04 0.05 0.00 0.00 0.00 0.00 0.00
0.04 0.04 0.04 0.03 0.02 0.01 0.01 0.00 0.00 0.00 0.00 0.00 0.00 0.01 0.01 0.00 0.22 0.02 0.01 0.32 0.40 0.51 1.72 2.07 0.94 0.20 0.09 0.07 0.05 0.02 0.02 0.09 0.15 0.07 0.04 0.02 0.01 0.01 0.01 0.04 0.00 0.00 0.00 0.00 0.00
0.05 0.04 0.03 0.03 0.02 0.01 0.00 0.01 0.01 0.01 0.00 0.00 0.00 0.00 0.00 0.01 0.03 0.05 0.04 0.64 0.68 0.71 1.95 2.32 1.15 0.19 0.02 0.00 0.00 0.00 0.00 0.01 0.05 0.10 0.06 0.03 0.02 0.00 0.01 0.03 0.03 0.00 0.00 0.00 0.00
0.05 0.04 0.04 0.02 0.02 0.01 0.00 0.00 0.00 0.00 0.00 0.00 0.00 0.00 0.00 0.03 0.08 0.09 0.10 1.02 0.92 0.79 1.42 1.64 0.61 0.05 0.01 0.00 0.00 0.00 0.00 0.02 0.07 0.10 0.11 0.07 0.02 0.00 0.00 0.00 0.01 0.00 0.00 0.00 0.00
0.05 0.04 0.03 0.02 0.01 0.00 0.00 0.00 0.00 0.00 0.03 0.02 0.00 0.00 0.07 0.12 0.11 0.15 0.14 0.75 0.71 0.58 0.91 0.84 0.28 0.09 0.04 0.02 0.01 0.00 0.00 0.03 0.03 0.06 0.06 0.03 0.02 0.00 0.00 0.00 0.00 0.00 0.00 0.00 0.00
0.04 0.04 0.03 0.02 0.00 0.00 0.00 0.00 0.00 0.00 0.23 0.21 0.07 0.10 0.26 0.25 0.27 0.21 0.21 0.63 0.79 0.58 0.69 0.83 0.22 0.11 0.06 0.04 0.00 0.00 0.00 0.01 0.01 0.01 0.01 0.00 0.00 0.00 0.00 0.00 0.00 0.00 0.00 0.00 0.00
0.02 0.03 0.03 0.02 0.00 0.00 0.00 0.00 0.00 0.01 0.36 0.33 0.23 0.23 0.52 0.44 0.30 0.43 0.31 0.32 0.36 0.49 0.57 0.69 0.26 0.13 0.06 0.03 0.00 0.00 0.00 0.01 0.02 0.00 0.00 0.00 0.00 0.00 0.00 0.00 0.00 0.00 0.00 0.00 0.00
0.01 0.03 0.03 0.01 0.00 0.00 0.00 0.00 0.00 0.03 0.27 0.59 0.46 0.52 0.53 0.32 0.30 0.32 0.39 0.25 0.32 0.39 0.36 0.38 0.24 0.15 0.06 0.03 0.00 0.00 0.00 0.00 0.00 0.00 0.00 0.00 0.00 0.00 0.00 0.00 0.00 0.00 0.00 0.00 0.00
0.01 0.02 0.01 0.00 0.00 0.00 0.00 0.00 0.02 0.05 0.13 0.25 0.28 0.21 0.23 0.26 0.20 0.15 0.17 0.24 0.25 0.42 0.64 0.70 0.39 0.11 0.03 0.02 0.00 0.00 0.00 0.02 0.03 0.01 0.00 0.00 0.00 0.00 0.00 0.00 0.00 0.00 0.00 0.00 0.00
0.00 0.00 0.00 0.00 0.00 0.00 0.00 0.00 0.02 0.06 0.14 0.14 0.19 0.27 0.27 0.16 0.13 0.07 0.16 0.20 0.08 0.08 0.44 0.70 0.72 0.15 0.02 0.01 0.00 0.00 0.00 0.00 0.01 0.00 0.00 0.00 0.00 0.00 0.00 0.00 0.00 0.00 0.00 0.00 0.00
0.00 0.00 0.00 0.00 0.00 0.00 0.01 0.01 0.01 0.03 0.07 0.04 0.15 0.24 0.22 0.13 0.11 0.13 0.23 0.15 0.07 0.05 0.19 0.19 0.31 0.12 0.02 0.01 0.02 0.02 0.01 0.00 0.00 0.00 0.00 0.00 0.00 0.00 0.00 0.00 0.00 0.00 0.00 0.00 0.00
0.00 0.00 0.00 0.00 0.00 0.01 0.01 0.01 0.00 0.00 0.01 0.01 0.09 0.10 0.08 0.07 0.05 0.05 0.13 0.07 0.03 0.02 0.01 0.01 0.14 0.15 0.05 0.04 0.03 0.00 0.00 0.02 0.00 0.00 0.00 0.00 0.00 0.00 0.00 0.00 0.00 0.00 0.00 0.00 0.00
0.00 0.00 0.00 0.00 0.00 0.01 0.01 0.00 0.00 0.00 0.00 0.04 0.03 0.01 0.01 0.02 0.01 0.00 0.02 0.03 0.02 0.01 0.00 0.00 0.03 0.14 0.18 0.15 0.06 0.01 0.01 0.01 0.01 0.00 0.00 0.00 0.00 0.00 0.00 0.00 0.00 0.00 0.00 0.00 0.00
0.00 0.00 0.00 0.00 0.02 0.01 0.00 0.00 0.00 0.00 0.00 0.00 0.01 0.01 0.01 0.00 0.00 0.00 0.00 0.00 0.00 0.00 0.00 0.00 0.00 0.06 0.11 0.03 0.01 0.01 0.01 0.00 0.01 0.01 0.00 0.00 0.00 0.00 0.00 0.00 0.00 0.00 0.00 0.00 0.00
0.00 0.00 0.00 0.01 0.02 0.00 0.00 0.00 0.00 0.00 0.00 0.00 0.01 0.02 0.02 0.01 0.00 0.00 0.00 0.00 0.00 0.00 0.00 0.00 0.00 0.07 0.15 0.11 0.02 0.01 0.00 0.00 0.01 0.00 0.01 0.00 0.00 0.00 0.00 0.00 0.00 0.00 0.00 0.00 0.00
0.00 0.00 0.00 0.01 0.00 0.00 0.00 0.00 0.00 0.00 0.00 0.00 0.00 0.00 0.00 0.00 0.00 0.00 0.00 0.00 0.00 0.00 0.00 0.00 0.00 0.00 0.02 0.02 0.01 0.00 0.00 0.00 0.03 0.05 0.01 0.00 0.00 0.00 0.00 0.00 0.00 0.00 0.00 0.00 0.00
0.00 0.00 0.00 0.00 0.00 0.00 0.00 0.01 0.01 0.00 0.00 0.00 0.00 0.00 0.00 0.00 0.00 0.00 0.00 0.00 0.00 0.00 0.00 0.00 0.00 0.00 0.00 0.00 0.00 0.00 0.00 0.00 0.01 0.01 0.02 0.01 0.00 0.00 0.00 0.00 0.00 0.00 0.00 0.00 0.00
0.00 0.00 0.00 0.00 0.00 0.00 0.00 0.01 0.01 0.00 0.00 0.00 0.00 0.00 0.00 0.00 0.00 0.00 0.00 0.00 0.00 0.00 0.01 0.00 0.00 0.00 0.00 0.00 0.00 0.00 0.00 0.00 0.00 0.00 0.00 0.00 0.00 0.00 0.00 0.00 0.00 0.00 0.00 0.00 0.00
0.00 0.00 0.00 0.00 0.00 0.00 0.00 0.00 0.00 0.00 0.01 0.00 0.01 0.01 0.00 0.00 0.00 0.00 0.00 0.00 0.00 0.00 0.00 0.00 0.00 0.00 0.00 0.00 0.00 0.00 0.00 0.00 0.00 0.00 0.00 0.00 0.00 0.00 0.00 0.00 0.00 0.00 0.00 0.00 0.00

GFSSW_prec_precacc24_063.txt.gz
Total_Precipitation_Accumulation
0.05 0.05 0.07 0.08 0.08 0.06 0.13 0.21 0.30 0.18 0.14 0.14 0.14 0.10 0.11 0.16 0.22 0.28 0.17 0.04 0.09 0.30 0.32 0.20 0.10 0.07 0.30 0.49 0.47 0.42 0.33 0.05 0.02 0.02 0.02 0.00 0.00 0.00 0.00 0.00 0.00 0.00 0.06 0.07 0.03
0.05 0.05 0.06 0.08 0.09 0.14 0.13 0.17 0.17 0.14 0.11 0.07 0.04 0.05 0.05 0.08 0.08 0.15 0.14 0.14 0.20 0.64 0.28 0.16 0.09 0.13 0.29 0.48 0.84 0.85 0.80 0.09 0.01 0.02 0.01 0.00 0.00 0.00 0.00 0.00 0.02 0.04 0.05 0.03 0.17
0.04 0.06 0.06 0.06 0.08 0.16 0.15 0.12 0.09 0.10 0.03 0.00 0.00 0.07 0.16 0.09 0.03 0.09 0.19 0.31 0.44 0.58 0.49 0.17 0.15 0.21 0.17 0.50 0.62 0.91 0.49 0.08 0.07 0.09 0.11 0.02 0.01 0.00 0.00 0.02 0.00 0.03 0.07 0.13 0.32
0.04 0.07 0.06 0.05 0.06 0.12 0.10 0.08 0.09 0.12 0.03 0.00 0.01 0.21 0.14 0.04 0.08 0.19 0.18 0.17 0.34 0.46 0.59 0.19 0.14 0.21 0.09 0.32 0.43 0.52 0.26 0.13 0.13 0.15 0.05 0.03 0.03 0.00 0.01 0.00 0.00 0.02 0.08 0.13 0.25
0.05 0.06 0.05 0.03 0.03 0.03 0.03 0.03 0.05 0.06 0.02 0.02 0.06 0.23 0.12 0.11 0.06 0.03 0.02 0.04 0.18 0.47 0.47 0.20 0.15 0.13 0.05 0.07 0.45 0.33 0.31 0.27 0.35 0.22 0.13 0.10 0.09 0.01 0.00 0.00 0.00 0.01 0.03 0.04 0.10
0.07 0.06 0.04 0.02 0.02 0.02 0.02 0.03 0.06 0.10 0.01 0.01 0.12 0.11 0.08 0.15 0.04 0.02 0.00 0.02 0.21 0.39 0.47 0.28 0.15 0.22 0.08 0.09 0.25 0.28 0.40 0.33 0.43 0.32 0.21 0.13 0.08 0.14 0.00 0.00 0.00 0.01 0.02 0.04 0.10
0.07 0.05 0.03 0.02 0.02 0.02 0.02 0.02 0.02 0.06 0.00 0.00 0.04 0.05 0.05 0.05 0.01 0.01 0.03 0.04 0.14 0.39 0.45 0.35 0.20 0.21 0.10 0.10 0.10 0.26 0.39 0.52 0.49 0.33 0.25 0.16 0.21 0.21 0.01 0.00 0.00 0.03 0.04 0.01 0.05
0.05 0.04 0.04 0.02 0.02 0.03 0.02 0.01 0.01 0.00 0.00 0.00 0.00 0.01 0.01 0.00 0.01 0.02 0.02 0.13 0.08 0.36 0.78 0.69 0.24 0.23 0.08 0.09 0.13 0.25 0.64 0.59 0.31 0.47 0.17 0.20 0.13 0.02 0.03 0.00 0.00 0.00 0.00 0.00 0.00
0.03 0.05 0.04 0.02 0.03 0.02 0.01 0.00 0.00 0.00 0.00 0.00 0.00 0.00 0.01 0.00 0.04 0.05 0.01 0.24 0.25 0.32 1.13 1.24 0.54 0.29 0.13 0.12 0.16 0.16 0.29 0.36 0.29 0.27 0.24 0.05 0.02 0.01 0.04 0.05 0.00 0.00 0.00 0.00 0.00
0.04 0.05 0.04 0.03 0.03 0.02 0.01 0.00 0.00 0.00 0.00 0.00 0.00 0.01 0.01 0.00 0.22 0.02 0.02 0.30 0.35 0.49 1.72 2.01 1.06 0.31 0.10 0.09 0.06 0.03 0.02 0.10 0.19 0.16 0.10 0.05 0.01 0.01 0.01 0.04 0.00 0.00 0.00 0.00 0.00
0.05 0.05 0.04 0.03 0.02 0.02 0.00 0.00 0.00 0.00 0.00 0.00 0.00 0.00 0.00 0.01 0.04 0.06 0.07 0.61 0.63 0.69 1.94 2.23 1.27 0.28 0.03 0.00 0.00 0.00 0.00 0.01 0.05 0.14 0.13 0.04 0.02 0.00 0.01 0.03 0.03 0.00 0.00 0.00 0.00
0.04 0.04 0.04 0.02 0.02 0.01 0.00 0.00 0.00 0.00 0.00 0.00 0.00 0.00 0.00 0.04 0.14 0.08 0.07 1.01 0.98 0.76 1.37 1.53 0.64 0.08 0.02 0.00 0.00 0.01 0.00 0.03 0.07 0.12 0.13 0.07 0.02 0.00 0.00 0.00 0.01 0.00 0.00 0.00 0.00
0.04 0.04 0.03 0.02 0.01 0.00 0.00 0.00 0.00 0.00 0.01 0.00 0.00 0.00 0.01 0.12 0.13 0.17 0.14 0.76 0.79 0.52 0.88 0.82 0.29 0.18 0.12 0.04 0.03 0.01 0.00 0.05 0.06 0.13 0.10 0.04 0.02 0.00 0.00 0.00 0.00 0.00 0.00 0.00 0.00
0.03 0.03 0.02 0.02 0.00 0.00 0.00 0.00 0.00 0.00 0.18 0.15 0.05 0.04 0.02 0.08 0.16 0.10 0.15 0.62 0.85 0.65 0.77 0.89 0.22 0.16 0.14 0.06 0.01 0.00 0.00 0.02 0.09 0.06 0.03 0.01 0.00 0.00 0.00 0.00 0.00 0.00 0.00 0.00 0.00
0.02 0.02 0.03 0.02 0.00 0.00 0.00 0.00 0.00 0.00 0.33 0.32 0.21 0.11 0.08 0.10 0.09 0.13 0.19 0.37 0.44 0.41 0.53 0.73 0.27 0.18 0.09 0.04 0.01 0.02 0.00 0.04 0.08 0.02 0.01 0.00 0.00 0.00 0.00 0.00 0.00 0.00 0.00 0.00 0.00
0.01 0.02 0.04 0.01 0.00 0.00 0.00 0.00 0.00 0.04 0.19 0.48 0.38 0.26 0.27 0.16 0.15 0.16 0.32 0.24 0.33 0.33 0.37 0.41 0.32 0.17 0.08 0.04 0.01 0.01 0.00 0.08 0.04 0.01 0.00 0.00 0.00 0.00 0.00 0.00 0.00 0.00 0.00 0.00 0.00
0.01 0.02 0.01 0.00 0.00 0.00 0.00 0.00 0.02 0.05 0.12 0.21 0.23 0.18 0.22 0.25 0.19 0.13 0.17 0.24 0.24 0.41 0.67 0.77 0.56 0.12 0.03 0.02 0.00 0.00 0.00 0.08 0.06 0.01 0.00 0.00 0.00 0.00 0.00 0.00 0.00 0.00 0.00 0.00 0.00
0.00 0.00 0.00 0.00 0.00 0.00 0.00 0.00 0.02 0.05 0.13 0.13 0.17 0.26 0.27 0.16 0.09 0.05 0.11 0.16 0.06 0.08 0.41 0.77 0.81 0.16 0.02 0.01 0.00 0.00 0.00 0.00 0.01 0.00 0.00 0.00 0.00 0.00 0.00 0.00 0.00 0.00 0.00 0.00 0.00
0.00 0.00 0.00 0.00 0.00 0.00 0.01 0.01 0.01 0.03 0.07 0.04 0.14 0.24 0.22 0.13 0.07 0.05 0.13 0.07 0.03 0.04 0.16 0.20 0.31 0.11 0.01 0.00 0.00 0.01 0.01 0.00 0.00 0.00 0.00 0.00 0.00 0.00 0.00 0.00 0.00 0.00 0.00 0.00 0.00
0.00 0.00 0.00 0.00 0.00 0.01 0.01 0.01 0.00 0.00 0.01 0.01 0.09 0.10 0.08 0.07 0.05 0.04 0.08 0.03 0.01 0.01 0.00 0.00 0.19 0.13 0.01 0.01 0.01 0.00 0.00 0.01 0.00 0.00 0.00 0.00 0.00 0.00 0.00 0.00 0.00 0.00 0.00 0.00 0.00
0.00 0.00 0.00 0.00 0.00 0.01 0.01 0.01 0.00 0.00 0.00 0.04 0.03 0.01 0.01 0.02 0.01 0.01 0.02 0.02 0.01 0.00 0.00 0.00 0.05 0.13 0.08 0.08 0.03 0.00 0.01 0.01 0.01 0.00 0.00 0.00 0.00 0.00 0.00 0.00 0.00 0.00 0.00 0.00 0.00
0.00 0.00 0.00 0.00 0.02 0.01 0.00 0.00 0.00 0.00 0.00 0.00 0.01 0.01 0.01 0.00 0.00 0.00 0.01 0.01 0.00 0.00 0.00 0.00 0.00 0.05 0.09 0.02 0.01 0.01 0.00 0.00 0.01 0.01 0.00 0.00 0.00 0.00 0.00 0.00 0.00 0.00 0.00 0.00 0.00
0.00 0.00 0.00 0.01 0.02 0.00 0.00 0.00 0.00 0.00 0.00 0.00 0.01 0.02 0.02 0.01 0.00 0.00 0.00 0.00 0.00 0.00 0.00 0.00 0.00 0.07 0.15 0.11 0.02 0.01 0.00 0.00 0.00 0.00 0.01 0.00 0.00 0.00 0.00 0.00 0.00 0.00 0.00 0.00 0.00
0.00 0.00 0.01 0.02 0.00 0.00 0.00 0.00 0.00 0.00 0.00 0.00 0.00 0.00 0.00 0.00 0.00 0.00 0.00 0.00 0.00 0.00 0.00 0.00 0.00 0.00 0.02 0.03 0.01 0.00 0.00 0.00 0.01 0.02 0.01 0.00 0.00 0.00 0.00 0.00 0.00 0.00 0.00 0.00 0.00
0.00 0.00 0.00 0.00 0.00 0.00 0.01 0.00 0.00 0.00 0.00 0.00 0.00 0.00 0.00 0.00 0.00 0.00 0.00 0.00 0.00 0.00 0.00 0.00 0.00 0.00 0.00 0.00 0.00 0.00 0.00 0.00 0.01 0.01 0.02 0.01 0.00 0.00 0.00 0.00 0.00 0.00 0.00 0.00 0.00
0.00 0.00 0.00 0.00 0.00 0.00 0.00 0.01 0.01 0.00 0.00 0.00 0.00 0.00 0.00 0.00 0.00 0.00 0.00 0.00 0.00 0.00 0.01 0.00 0.00 0.00 0.00 0.00 0.00 0.00 0.00 0.00 0.00 0.00 0.00 0.00 0.00 0.00 0.00 0.00 0.00 0.00 0.00 0.00 0.00
0.00 0.00 0.00 0.00 0.00 0.00 0.00 0.00 0.00 0.00 0.01 0.00 0.01 0.01 0.00 0.00 0.00 0.00 0.00 0.00 0.00 0.00 0.00 0.00 0.00 0.00 0.00 0.00 0.00 0.00 0.00 0.00 0.00 0.00 0.00 0.00 0.00 0.00 0.00 0.00 0.00 0.00 0.00 0.00 0.00

GFSSW_prec_precacc24_066.txt.gz
Total_Precipitation_Accumulation
0.03 0.03 0.05 0.04 0.04 0.04 0.11 0.15 0.21 0.14 0.14 0.14 0.15 0.09 0.08 0.14 0.22 0.28 0.17 0.04 0.07 0.35 0.38 0.30 0.22 0.19 0.35 0.50 0.54 0.49 0.47 0.06 0.00 0.01 0.00 0.00 0.00 0.00 0.00 0.00 0.00 0.00 0.06 0.07 0.04
0.04 0.04 0.05 0.04 0.04 0.05 0.09 0.13 0.12 0.12 0.11 0.07 0.04 0.03 0.04 0.08 0.08 0.15 0.14 0.18 0.30 0.65 0.35 0.25 0.25 0.25 0.31 0.42 0.98 0.91 1.00 0.14 0.01 0.02 0.01 0.00 0.00 0.00 0.00 0.00 0.03 0.05 0.04 0.03 0.17
0.04 0.05 0.05 0.05 0.04 0.04 0.10 0.10 0.06 0.04 0.02 0.01 0.00 0.02 0.12 0.08 0.03 0.09 0.21 0.36 0.58 0.70 0.57 0.20 0.24 0.32 0.21 0.55 0.76 0.98 0.63 0.11 0.07 0.07 0.05 0.00 0.00 0.00 0.00 0.02 0.01 0.03 0.07 0.12 0.27
0.04 0.06 0.06 0.04 0.03 0.04 0.05 0.05 0.04 0.07 0.03 0.01 0.01 0.09 0.09 0.04 0.08 0.19 0.20 0.18 0.37 0.46 0.68 0.21 0.22 0.30 0.14 0.36 0.63 0.57 0.31 0.18 0.14 0.10 0.04 0.01 0.02 0.00 0.01 0.00 0.00 0.02 0.09 0.13 0.23
0.05 0.06 0.05 0.03 0.02 0.02 0.03 0.03 0.04 0.05 0.02 0.00 0.03 0.13 0.08 0.08 0.06 0.03 0.02 0.04 0.15 0.28 0.52 0.25 0.20 0.22 0.09 0.08 0.72 0.39 0.35 0.32 0.36 0.24 0.12 0.03 0.06 0.01 0.00 0.00 0.00 0.01 0.03 0.08 0.14
0.06 0.06 0.04 0.02 0.02 0.03 0.03 0.03 0.04 0.08 0.01 0.00 0.07 0.07 0.07 0.14 0.04 0.01 0.00 0.02 0.11 0.22 0.48 0.36 0.20 0.28 0.12 0.11 0.44 0.40 0.44 0.43 0.49 0.39 0.24 0.07 0.04 0.12 0.01 0.00 0.00 0.01 0.02 0.12 0.20
0.07 0.06 0.03 0.02 0.03 0.03 0.03 0.02 0.02 0.02 0.00 0.00 0.02 0.01 0.04 0.05 0.00 0.00 0.02 0.02 0.05 0.20 0.40 0.42 0.22 0.24 0.14 0.15 0.16 0.39 0.45 0.73 0.68 0.48 0.40 0.18 0.17 0.21 0.01 0.00 0.00 0.03 0.04 0.03 0.12
0.05 0.04 0.03 0.02 0.03 0.03 0.02 0.01 0.01 0.00 0.00 0.00 0.00 0.01 0.00 0.00 0.00 0.02 0.02 0.10 0.05 0.33 0.70 0.72 0.25 0.23 0.10 0.13 0.17 0.35 0.78 0.80 0.67 0.67 0.47 0.34 0.15 0.03 0.03 0.00 0.00 0.00 0.00 0.00 0.00
0.03 0.04 0.04 0.03 0.03 0.02 0.01 0.00 0.00 0.00 0.00 0.00 0.00 0.00 0.01 0.00 0.04 0.05 0.01 0.24 0.25 0.30 0.93 1.19 0.56 0.32 0.21 0.15 0.17 0.31 0.50 0.56 0.59 0.44 0.52 0.36 0.10 0.01 0.04 0.05 0.00 0.00 0.00 0.00 0.00
0.04 0.05 0.04 0.03 0.03 0.02 0.01 0.00 0.00 0.00 0.00 0.00 0.00 0.01 0.01 0.00 0.22 0.02 0.02 0.30 0.35 0.42 1.35 1.88 1.10 0.46 0.28 0.13 0.09 0.08 0.12 0.24 0.37 0.30 0.35 0.24 0.12 0.02 0.02 0.04 0.00 0.00 0.00 0.00 0.00
0.05 0.04 0.04 0.03 0.02 0.02 0.00 0.00 0.00 0.00 0.00 0.00 0.00 0.00 0.00 0.02 0.08 0.09 0.10 0.59 0.61 0.57 1.46 1.99 1.31 0.41 0.19 0.04 0.00 0.00 0.01 0.04 0.10 0.21 0.24 0.16 0.05 0.02 0.01 0.03 0.03 0.00 0.00 0.00 0.00
0.04 0.04 0.04 0.02 0.02 0.01 0.00 0.00 0.00 0.00 0.00 0.00 0.00 0.00 0.00 0.06 0.27 0.14 0.08 0.94 0.96 0.71 1.10 1.40 0.65 0.20 0.18 0.04 0.02 0.02 0.01 0.03 0.09 0.13 0.18 0.15 0.03 0.00 0.00 0.00 0.01 0.00 0.00 0.00 0.00
0.04 0.04 0.03 0.02 0.01 0.00 0.00 0.00 0.00 0.00 0.00 0.00 0.00 0.00 0.01 0.16 0.20 0.20 0.13 0.72 0.83 0.50 0.81 0.78 0.29 0.26 0.22 0.05 0.05 0.02 0.00 0.05 0.06 0.13 0.12 0.09 0.07 0.00 0.00 0.00 0.00 0.00 0.00 0.00 0.00
0.03 0.03 0.02 0.02 0.00 0.00 0.00 0.00 0.00 0.00 0.10 0.06 0.01 0.01 0.02 0.09 0.18 0.09 0.14 0.61 0.86 0.66 0.70 0.77 0.21 0.19 0.18 0.06 0.01 0.00 0.00 0.03 0.10 0.09 0.08 0.03 0.00 0.00 0.00 0.00 0.00 0.00 0.00 0.00 0.00
0.02 0.02 0.03 0.02 0.00 0.00 0.00 0.00 0.00 0.00 0.25 0.19 0.08 0.02 0.02 0.11 0.12 0.19 0.21 0.44 0.50 0.40 0.44 0.61 0.26 0.25 0.14 0.04 0.01 0.02 0.00 0.07 0.11 0.07 0.04 0.03 0.00 0.00 0.00 0.00 0.00 0.00 0.00 0.00 0.00
0.01 0.02 0.03 0.01 0.00 0.00 0.00 0.00 0.00 0.04 0.14 0.29 0.11 0.01 0.02 0.08 0.17 0.31 0.40 0.32 0.36 0.22 0.36 0.38 0.36 0.41 0.16 0.05 0.01 0.01 0.00 0.11 0.08 0.05 0.03 0.00 0.00 0.00 0.00 0.00 0.00 0.00 0.00 0.00 0.00
0.01 0.01 0.01 0.00 0.00 0.00 0.00 0.00 0.02 0.05 0.11 0.20 0.18 0.07 0.03 0.03 0.07 0.10 0.12 0.21 0.23 0.28 0.63 0.78 0.67 0.31 0.07 0.03 0.00 0.00 0.00 0.22 0.19 0.12 0.01 0.00 0.00 0.00 0.00 0.00 0.00 0.00 0.00 0.00 0.00
0.00 0.00 0.00 0.00 0.00 0.00 0.00 0.00 0.02 0.04 0.12 0.12 0.16 0.21 0.15 0.04 0.03 0.04 0.10 0.15 0.06 0.08 0.42 0.83 0.88 0.25 0.05 0.02 0.01 0.00 0.00 0.05 0.05 0.01 0.00 0.00 0.00 0.00 0.00 0.00 0.00 0.00 0.00 0.00 0.00
0.00 0.00 0.00 0.00 0.00 0.00 0.01 0.01 0.01 0.03 0.07 0.04 0.14 0.23 0.17 0.06 0.01 0.02 0.11 0.06 0.02 0.04 0.17 0.22 0.33 0.11 0.01 0.00 0.01 0.01 0.01 0.00 0.00 0.00 0.00 0.00 0.00 0.00 0.00 0.00 0.00 0.00 0.00 0.00 0.00
0.00 0.00 0.00 0.00 0.00 0.01 0.01 0.01 0.00 0.00 0.01 0.01 0.09 0.10 0.08 0.06 0.03 0.02 0.04 0.03 0.01 0.01 0.00 0.00 0.19 0.13 0.01 0.01 0.00 0.00 0.00 0.00 0.00 0.00 0.00 0.00 0.00 0.00 0.00 0.00 0.00 0.00 0.00 0.00 0.00
0.00 0.01 0.00 0.00 0.00 0.02 0.01 0.01 0.00 0.00 0.00 0.04 0.03 0.01 0.01 0.02 0.01 0.01 0.02 0.02 0.01 0.00 0.00 0.00 0.05 0.13 0.05 0.05 0.03 0.00 0.00 0.00 0.00 0.00 0.00 0.00 0.00 0.00 0.00 0.00 0.00 0.00 0.00 0.00 0.00
0.01 0.00 0.00 0.00 0.02 0.01 0.00 0.01 0.00 0.00 0.00 0.00 0.01 0.01 0.01 0.00 0.00 0.00 0.01 0.01 0.00 0.00 0.00 0.00 0.01 0.04 0.06 0.02 0.00 0.00 0.00 0.00 0.00 0.00 0.00 0.00 0.00 0.00 0.00 0.00 0.00 0.00 0.00 0.00 0.00
0.01 0.00 0.01 0.01 0.02 0.00 0.00 0.00 0.00 0.00 0.00 0.00 0.01 0.02 0.02 0.01 0.00 0.00 0.00 0.00 0.00 0.00 0.00 0.00 0.00 0.05 0.12 0.09 0.01 0.00 0.00 0.00 0.00 0.00 0.01 0.00 0.00 0.00 0.00 0.00 0.00 0.00 0.00 0.00 0.00
0.00 0.00 0.01 0.02 0.00 0.00 0.00 0.01 0.00 0.00 0.00 0.00 0.00 0.00 0.00 0.00 0.00 0.00 0.00 0.00 0.00 0.00 0.00 0.00 0.00 0.00 0.02 0.02 0.01 0.00 0.00 0.00 0.00 0.01 0.00 0.00 0.00 0.00 0.00 0.00 0.00 0.00 0.00 0.00 0.00
0.00 0.00 0.00 0.00 0.00 0.00 0.01 0.00 0.00 0.00 0.00 0.00 0.00 0.00 0.00 0.00 0.00 0.00 0.00 0.00 0.00 0.00 0.00 0.00 0.00 0.00 0.00 0.00 0.00 0.00 0.00 0.00 0.00 0.00 0.00 0.00 0.00 0.00 0.00 0.00 0.00 0.00 0.00 0.00 0.00
0.00 0.00 0.00 0.00 0.00 0.00 0.00 0.01 0.01 0.00 0.00 0.00 0.00 0.00 0.00 0.00 0.00 0.00 0.00 0.00 0.00 0.00 0.01 0.00 0.00 0.00 0.00 0.00 0.00 0.00 0.00 0.00 0.00 0.00 0.00 0.00 0.00 0.00 0.00 0.00 0.00 0.00 0.00 0.00 0.00
0.00 0.00 0.00 0.00 0.00 0.00 0.00 0.00 0.00 0.00 0.00 0.00 0.00 0.00 0.00 0.00 0.00 0.00 0.00 0.00 0.00 0.00 0.00 0.00 0.00 0.00 0.00 0.00 0.00 0.00 0.00 0.00 0.00 0.00 0.00 0.00 0.00 0.00 0.00 0.00 0.00 0.00 0.00 0.00 0.00

GFSSW_prec_precacc24_069.txt.gz
Total_Precipitation_Accumulation
0.03 0.03 0.05 0.04 0.04 0.02 0.02 0.06 0.14 0.07 0.06 0.12 0.14 0.09 0.07 0.09 0.18 0.25 0.17 0.04 0.07 0.33 0.37 0.30 0.22 0.20 0.42 0.50 0.51 0.56 0.64 0.22 0.02 0.00 0.00 0.00 0.00 0.00 0.01 0.00 0.00 0.00 0.06 0.07 0.06
0.03 0.04 0.05 0.04 0.04 0.02 0.02 0.04 0.08 0.08 0.07 0.07 0.04 0.03 0.04 0.07 0.07 0.14 0.14 0.18 0.35 0.73 0.35 0.25 0.27 0.33 0.41 0.49 0.98 0.89 1.06 0.24 0.03 0.02 0.01 0.00 0.00 0.00 0.00 0.01 0.07 0.06 0.05 0.03 0.17
0.04 0.05 0.05 0.05 0.04 0.03 0.04 0.03 0.03 0.03 0.02 0.01 0.00 0.00 0.04 0.08 0.03 0.09 0.21 0.38 0.61 0.74 0.56 0.23 0.57 0.44 0.31 0.65 0.83 1.09 0.73 0.13 0.08 0.07 0.01 0.00 0.00 0.00 0.00 0.04 0.02 0.05 0.07 0.09 0.24
0.05 0.06 0.06 0.04 0.03 0.03 0.03 0.04 0.04 0.04 0.04 0.01 0.01 0.02 0.03 0.02 0.07 0.19 0.18 0.18 0.39 0.43 0.63 0.26 0.46 0.55 0.33 0.42 0.69 0.86 0.40 0.22 0.16 0.13 0.05 0.01 0.00 0.00 0.01 0.00 0.00 0.07 0.07 0.10 0.22
0.07 0.07 0.05 0.03 0.02 0.03 0.04 0.04 0.04 0.05 0.03 0.00 0.00 0.03 0.03 0.06 0.06 0.03 0.02 0.04 0.15 0.20 0.46 0.28 0.27 0.51 0.33 0.13 0.74 0.61 0.50 0.37 0.38 0.26 0.14 0.02 0.01 0.00 0.00 0.00 0.00 0.00 0.06 0.11 0.17
0.11 0.09 0.05 0.02 0.02 0.03 0.04 0.03 0.03 0.03 0.02 0.01 0.01 0.04 0.05 0.08 0.04 0.01 0.00 0.02 0.11 0.18 0.35 0.39 0.24 0.47 0.28 0.18 0.47 0.59 0.68 0.47 0.54 0.42 0.27 0.08 0.02 0.02 0.00 0.00 0.00 0.01 0.08 0.20 0.21
0.14 0.09 0.04 0.02 0.03 0.03 0.03 0.03 0.02 0.01 0.00 0.00 0.01 0.01 0.04 0.04 0.00 0.00 0.01 0.02 0.04 0.13 0.30 0.42 0.26 0.39 0.38 0.20 0.18 0.63 0.70 0.86 0.74 0.53 0.43 0.20 0.11 0.06 0.00 0.00 0.00 0.00 0.02 0.15 0.18
0.14 0.07 0.04 0.02 0.03 0.03 0.02 0.01 0.01 0.00 0.00 0.00 0.00 0.00 0.00 0.00 0.00 0.02 0.02 0.09 0.03 0.09 0.46 0.71 0.26 0.31 0.21 0.19 0.21 0.58 1.10 0.92 0.75 0.92 0.70 0.36 0.14 0.01 0.02 0.00 0.00 0.00 0.01 0.08 0.11
0.12 0.06 0.05 0.03 0.03 0.03 0.01 0.00 0.00 0.00 0.00 0.00 0.00 0.00 0.01 0.00 0.04 0.05 0.01 0.22 0.24 0.13 0.51 1.10 0.56 0.37 0.28 0.22 0.22 0.46 0.91 0.64 0.66 0.64 1.01 0.52 0.12 0.01 0.04 0.05 0.00 0.00 0.00 0.00 0.02
0.11 0.07 0.04 0.03 0.03 0.02 0.01 0.00 0.00 0.00 0.00 0.00 0.00 0.01 0.01 0.00 0.22 0.02 0.02 0.30 0.33 0.26 0.85 1.78 1.09 0.46 0.31 0.19 0.12 0.11 0.33 0.29 0.41 0.42 0.57 0.50 0.22 0.02 0.01 0.04 0.00 0.00 0.00 0.00 0.00
0.10 0.07 0.04 0.03 0.02 0.02 0.00 0.00 0.00 0.00 0.00 0.00 0.00 0.00 0.00 0.02 0.09 0.09 0.12 0.59 0.60 0.46 1.05 1.84 1.32 0.41 0.21 0.08 0.01 0.01 0.07 0.13 0.17 0.34 0.33 0.36 0.22 0.14 0.01 0.03 0.03 0.00 0.00 0.00 0.00
0.09 0.07 0.04 0.02 0.02 0.01 0.00 0.00 0.00 0.00 0.00 0.00 0.00 0.00 0.00 0.06 0.31 0.16 0.09 0.95 0.92 0.59 0.82 1.12 0.66 0.20 0.21 0.11 0.03 0.03 0.03 0.22 0.29 0.25 0.29 0.26 0.14 0.15 0.09 0.01 0.01 0.00 0.00 0.00 0.00
0.07 0.06 0.03 0.01 0.01 0.00 0.00 0.00 0.00 0.00 0.00 0.00 0.00 0.00 0.01 0.16 0.20 0.23 0.14 0.69 0.76 0.45 0.66 0.53 0.28 0.27 0.30 0.23 0.08 0.03 0.01 0.11 0.16 0.21 0.20 0.16 0.09 0.07 0.12 0.02 0.00 0.00 0.00 0.00 0.00
0.08 0.06 0.02 0.02 0.00 0.00 0.00 0.00 0.00 0.00 0.07 0.04 0.01 0.00 0.01 0.10 0.18 0.09 0.11 0.59 0.75 0.61 0.56 0.55 0.20 0.21 0.32 0.32 0.04 0.00 0.00 0.03 0.11 0.11 0.11 0.06 0.02 0.00 0.01 0.00 0.00 0.00 0.00 0.00 0.00
0.08 0.04 0.03 0.02 0.00 0.00 0.00 0.00 0.00 0.00 0.18 0.14 0.06 0.01 0.02 0.13 0.14 0.22 0.19 0.39 0.43 0.35 0.38 0.53 0.27 0.26 0.28 0.14 0.02 0.03 0.00 0.11 0.12 0.08 0.05 0.04 0.00 0.00 0.00 0.00 0.00 0.00 0.00 0.00 0.00
0.07 0.04 0.03 0.01 0.00 0.00 0.00 0.00 0.00 0.04 0.10 0.12 0.01 0.00 0.03 0.13 0.27 0.44 0.47 0.33 0.39 0.21 0.34 0.36 0.36 0.42 0.21 0.06 0.01 0.01 0.01 0.21 0.11 0.11 0.06 0.00 0.00 0.00 0.00 0.00 0.00 0.00 0.00 0.00 0.00
0.07 0.03 0.01 0.00 0.00 0.00 0.00 0.00 0.02 0.05 0.11 0.12 0.02 0.00 0.02 0.04 0.08 0.12 0.13 0.21 0.22 0.24 0.60 0.71 0.66 0.36 0.08 0.03 0.00 0.00 0.00 0.29 0.24 0.23 0.07 0.00 0.00 0.00 0.00 0.00 0.00 0.00 0.00 0.00 0.00
0.05 0.01 0.00 0.00 0.00 0.00 0.00 0.00 0.02 0.04 0.12 0.10 0.01 0.00 0.02 0.01 0.02 0.03 0.09 0.15 0.06 0.03 0.41 0.86 1.02 0.43 0.06 0.02 0.01 0.01 0.00 0.05 0.05 0.04 0.01 0.00 0.00 0.00 0.00 0.00 0.00 0.00 0.00 0.00 0.00
0.06 0.01 0.00 0.00 0.00 0.00 0.00 0.01 0.01 0.03 0.07 0.04 0.10 0.06 0.02 0.02 0.00 0.02 0.10 0.06 0.03 0.03 0.18 0.27 0.58 0.17 0.01 0.00 0.01 0.02 0.01 0.00 0.00 0.00 0.00 0.00 0.00 0.00 0.00 0.00 0.00 0.00 0.00 0.00 0.00
0.06 0.01 0.00 0.00 0.00 0.01 0.01 0.01 0.00 0.00 0.01 0.01 0.09 0.08 0.02 0.01 0.00 0.02 0.04 0.02 0.01 0.01 0.00 0.01 0.24 0.13 0.02 0.01 0.00 0.00 0.00 0.00 0.00 0.00 0.00 0.00 0.00 0.00 0.00 0.00 0.00 0.00 0.00 0.00 0.00
0.05 0.02 0.00 0.00 0.00 0.01 0.01 0.01 0.00 0.00 0.00 0.04 0.03 0.01 0.01 0.00 0.00 0.01 0.02 0.02 0.01 0.00 0.00 0.00 0.05 0.13 0.05 0.05 0.03 0.00 0.00 0.00 0.00 0.00 0.00 0.00 0.00 0.00 0.00 0.00 0.00 0.00 0.00 0.00 0.00
0.05 0.01 0.00 0.00 0.01 0.01 0.00 0.01 0.00 0.00 0.00 0.00 0.01 0.01 0.01 0.00 0.00 0.00 0.01 0.01 0.00 0.00 0.00 0.00 0.01 0.03 0.06 0.02 0.00 0.00 0.00 0.00 0.00 0.00 0.00 0.00 0.00 0.00 0.00 0.00 0.00 0.00 0.00 0.00 0.00
0.06 0.02 0.01 0.01 0.02 0.00 0.00 0.00 0.00 0.00 0.00 0.00 0.01 0.02 0.02 0.01 0.00 0.00 0.00 0.00 0.00 0.00 0.00 0.00 0.00 0.04 0.09 0.06 0.00 0.00 0.00 0.00 0.00 0.00 0.01 0.00 0.00 0.00 0.00 0.00 0.00 0.00 0.00 0.00 0.00
0.06 0.01 0.02 0.03 0.00 0.00 0.00 0.01 0.01 0.00 0.00 0.00 0.00 0.00 0.00 0.00 0.00 0.00 0.00 0.00 0.00 0.00 0.00 0.00 0.00 0.00 0.02 0.02 0.00 0.00 0.00 0.00 0.00 0.01 0.00 0.00 0.00 0.00 0.00 0.00 0.00 0.00 0.00 0.00 0.00
0.01 0.00 0.00 0.01 0.00 0.00 0.01 0.00 0.01 0.00 0.00 0.00 0.00 0.00 0.00 0.00 0.00 0.00 0.00 0.00 0.00 0.00 0.00 0.00 0.00 0.00 0.00 0.00 0.00 0.00 0.00 0.00 0.00 0.00 0.00 0.00 0.00 0.00 0.00 0.00 0.00 0.00 0.00 0.00 0.00
0.03 0.00 0.00 0.00 0.00 0.00 0.00 0.01 0.00 0.00 0.00 0.00 0.00 0.00 0.00 0.00 0.00 0.00 0.00 0.00 0.00 0.00 0.01 0.00 0.00 0.00 0.00 0.00 0.00 0.00 0.00 0.00 0.00 0.00 0.00 0.00 0.00 0.00 0.00 0.00 0.00 0.00 0.00 0.00 0.00
0.03 0.00 0.00 0.00 0.00 0.00 0.00 0.00 0.00 0.00 0.00 0.00 0.00 0.00 0.00 0.00 0.00 0.00 0.00 0.00 0.00 0.00 0.00 0.00 0.00 0.00 0.00 0.00 0.00 0.00 0.00 0.00 0.00 0.00 0.00 0.00 0.00 0.00 0.00 0.00 0.00 0.00 0.00 0.00 0.00

GFSSW_prec_precacc24_072.txt.gz
Total_Precipitation_Accumulation
0.03 0.03 0.05 0.03 0.03 0.02 0.02 0.02 0.05 0.03 0.03 0.06 0.09 0.08 0.07 0.08 0.10 0.15 0.16 0.04 0.07 0.28 0.30 0.30 0.22 0.20 0.35 0.43 0.44 0.54 0.68 0.27 0.04 0.00 0.00 0.00 0.00 0.00 0.01 0.00 0.00 0.00 0.06 0.08 0.08
0.07 0.06 0.06 0.04 0.03 0.02 0.02 0.04 0.04 0.03 0.02 0.06 0.03 0.03 0.03 0.04 0.02 0.06 0.12 0.19 0.37 0.69 0.36 0.25 0.27 0.32 0.37 0.47 0.88 0.79 0.95 0.24 0.03 0.02 0.01 0.00 0.00 0.00 0.01 0.01 0.06 0.03 0.01 0.02 0.19
0.08 0.11 0.07 0.05 0.04 0.03 0.04 0.04 0.03 0.03 0.02 0.03 0.01 0.01 0.00 0.00 0.01 0.06 0.20 0.38 0.62 0.71 0.49 0.22 0.57 0.44 0.28 0.65 0.84 0.88 0.64 0.13 0.08 0.07 0.01 0.00 0.00 0.00 0.03 0.08 0.02 0.04 0.01 0.02 0.17
0.13 0.13 0.09 0.05 0.04 0.03 0.03 0.04 0.04 0.04 0.04 0.03 0.00 0.02 0.02 0.00 0.07 0.16 0.14 0.16 0.39 0.43 0.57 0.25 0.48 0.57 0.33 0.44 0.73 0.87 0.36 0.22 0.16 0.16 0.09 0.02 0.01 0.00 0.01 0.01 0.00 0.08 0.04 0.01 0.15
0.17 0.13 0.10 0.07 0.03 0.03 0.04 0.04 0.04 0.05 0.04 0.02 0.01 0.00 0.00 0.01 0.03 0.02 0.01 0.04 0.15 0.20 0.41 0.28 0.32 0.60 0.38 0.16 0.79 0.68 0.51 0.39 0.39 0.30 0.20 0.05 0.02 0.01 0.00 0.00 0.01 0.08 0.08 0.09 0.12
0.17 0.16 0.10 0.07 0.04 0.04 0.04 0.03 0.04 0.03 0.02 0.02 0.01 0.00 0.02 0.03 0.01 0.00 0.00 0.02 0.11 0.18 0.32 0.39 0.27 0.78 0.46 0.39 0.51 0.63 0.69 0.49 0.66 0.50 0.34 0.14 0.05 0.03 0.02 0.02 0.07 0.16 0.22 0.25 0.15
0.21 0.15 0.09 0.08 0.04 0.04 0.03 0.03 0.02 0.01 0.00 0.01 0.01 0.00 0.03 0.04 0.00 0.00 0.00 0.01 0.04 0.13 0.29 0.42 0.28 0.57 0.65 0.51 0.22 0.65 0.68 0.86 0.85 0.68 0.55 0.26 0.12 0.06 0.04 0.04 0.05 0.10 0.07 0.22 0.20
0.22 0.16 0.09 0.07 0.04 0.03 0.02 0.01 0.01 0.00 0.00 0.00 0.01 0.00 0.00 0.00 0.00 0.01 0.00 0.03 0.02 0.08 0.40 0.67 0.31 0.37 0.37 0.54 0.34 0.59 1.10 1.12 0.92 1.18 0.85 0.34 0.17 0.04 0.06 0.07 0.02 0.08 0.13 0.18 0.28
0.21 0.13 0.10 0.05 0.03 0.03 0.01 0.00 0.00 0.00 0.00 0.01 0.00 0.00 0.01 0.00 0.04 0.04 0.00 0.16 0.16 0.11 0.44 0.91 0.60 0.39 0.36 0.57 0.35 0.47 0.95 0.93 0.85 0.95 1.19 0.59 0.16 0.05 0.04 0.08 0.02 0.03 0.05 0.06 0.08
0.21 0.17 0.09 0.05 0.04 0.02 0.01 0.00 0.00 0.00 0.00 0.00 0.00 0.01 0.01 0.00 0.22 0.02 0.02 0.27 0.26 0.23 0.65 1.30 1.04 0.49 0.52 0.45 0.21 0.11 0.41 0.61 0.59 0.60 0.69 0.75 0.26 0.04 0.02 0.02 0.02 0.01 0.01 0.04 0.05
0.21 0.16 0.11 0.05 0.03 0.01 0.00 0.00 0.00 0.00 0.00 0.00 0.00 0.00 0.00 0.02 0.09 0.09 0.12 0.59 0.52 0.32 0.60 1.46 1.10 0.43 0.38 0.31 0.03 0.01 0.08 0.48 0.40 0.43 0.40 0.52 0.40 0.16 0.02 0.01 0.02 0.01 0.00 0.01 0.04
0.24 0.16 0.13 0.04 0.02 0.01 0.00 0.00 0.00 0.00 0.00 0.00 0.00 0.00 0.00 0.06 0.31 0.16 0.09 0.93 0.69 0.38 0.44 0.89 0.60 0.20 0.26 0.19 0.05 0.04 0.05 0.41 0.52 0.36 0.33 0.34 0.45 0.28 0.11 0.01 0.01 0.01 0.00 0.00 0.00
0.21 0.17 0.12 0.05 0.02 0.00 0.00 0.00 0.00 0.00 0.00 0.00 0.00 0.00 0.01 0.16 0.20 0.24 0.14 0.67 0.54 0.32 0.35 0.45 0.28 0.27 0.30 0.24 0.10 0.04 0.01 0.16 0.47 0.39 0.26 0.23 0.25 0.33 0.17 0.04 0.00 0.00 0.00 0.00 0.00
0.24 0.19 0.09 0.04 0.01 0.00 0.00 0.00 0.00 0.00 0.05 0.03 0.00 0.00 0.01 0.10 0.18 0.11 0.16 0.64 0.65 0.47 0.36 0.43 0.19 0.21 0.31 0.35 0.06 0.01 0.00 0.03 0.17 0.14 0.18 0.09 0.08 0.08 0.11 0.08 0.01 0.00 0.00 0.00 0.00
0.21 0.19 0.08 0.03 0.01 0.00 0.00 0.00 0.00 0.00 0.13 0.09 0.02 0.00 0.02 0.14 0.17 0.24 0.21 0.43 0.32 0.27 0.27 0.41 0.23 0.26 0.29 0.38 0.14 0.04 0.01 0.11 0.12 0.08 0.06 0.05 0.02 0.00 0.01 0.02 0.02 0.00 0.00 0.00 0.00
0.19 0.16 0.09 0.05 0.02 0.00 0.00 0.00 0.00 0.04 0.07 0.06 0.01 0.00 0.03 0.14 0.31 0.46 0.50 0.37 0.31 0.17 0.32 0.31 0.35 0.42 0.39 0.30 0.04 0.01 0.01 0.22 0.11 0.11 0.07 0.01 0.00 0.00 0.00 0.00 0.00 0.00 0.00 0.00 0.00
0.27 0.17 0.08 0.04 0.02 0.00 0.00 0.00 0.02 0.05 0.10 0.05 0.01 0.00 0.02 0.04 0.09 0.12 0.14 0.18 0.20 0.19 0.52 0.58 0.63 0.39 0.21 0.08 0.01 0.01 0.02 0.41 0.32 0.33 0.09 0.00 0.00 0.00 0.00 0.00 0.00 0.00 0.00 0.00 0.00
0.29 0.16 0.09 0.05 0.01 0.00 0.00 0.00 0.02 0.04 0.10 0.02 0.00 0.00 0.01 0.01 0.03 0.04 0.09 0.13 0.05 0.03 0.38 0.76 0.98 0.44 0.07 0.04 0.02 0.01 0.01 0.06 0.06 0.07 0.05 0.01 0.00 0.00 0.00 0.00 0.00 0.00 0.00 0.00 0.00
0.27 0.16 0.06 0.03 0.00 0.00 0.00 0.01 0.01 0.03 0.07 0.01 0.01 0.01 0.00 0.00 0.00 0.02 0.10 0.07 0.03 0.03 0.18 0.26 0.64 0.20 0.01 0.00 0.01 0.02 0.01 0.00 0.00 0.00 0.01 0.01 0.00 0.00 0.00 0.00 0.00 0.00 0.00 0.00 0.00
0.23 0.14 0.08 0.01 0.00 0.00 0.01 0.01 0.00 0.00 0.01 0.01 0.05 0.05 0.00 0.00 0.00 0.01 0.04 0.02 0.01 0.01 0.01 0.03 0.27 0.13 0.01 0.01 0.00 0.00 0.00 0.00 0.00 0.00 0.00 0.00 0.00 0.00 0.00 0.00 0.00 0.00 0.00 0.00 0.00
0.23 0.20 0.09 0.00 0.00 0.01 0.01 0.01 0.00 0.00 0.00 0.04 0.03 0.01 0.00 0.00 0.00 0.00 0.02 0.01 0.01 0.00 0.00 0.00 0.06 0.17 0.05 0.05 0.02 0.00 0.00 0.00 0.00 0.00 0.00 0.00 0.00 0.00 0.00 0.00 0.00 0.00 0.00 0.00 0.00
0.23 0.16 0.07 0.00 0.02 0.01 0.00 0.01 0.00 0.00 0.00 0.00 0.01 0.01 0.01 0.00 0.00 0.00 0.01 0.01 0.00 0.00 0.00 0.00 0.01 0.04 0.06 0.02 0.00 0.00 0.00 0.00 0.00 0.00 0.00 0.00 0.00 0.00 0.00 0.00 0.00 0.00 0.00 0.00 0.00
0.24 0.17 0.05 0.01 0.02 0.00 0.00 0.00 0.00 0.00 0.00 0.00 0.01 0.02 0.02 0.01 0.00 0.00 0.00 0.00 0.00 0.00 0.00 0.00 0.00 0.03 0.08 0.05 0.00 0.00 0.00 0.00 0.00 0.00 0.01 0.00 0.00 0.00 0.00 0.00 0.00 0.00 0.00 0.00 0.00
0.26 0.15 0.06 0.04 0.01 0.00 0.00 0.01 0.01 0.00 0.00 0.00 0.00 0.00 0.00 0.00 0.00 0.00 0.00 0.00 0.00 0.00 0.00 0.00 0.00 0.00 0.02 0.01 0.00 0.00 0.00 0.00 0.00 0.00 0.00 0.00 0.00 0.00 0.00 0.00 0.00 0.00 0.00 0.00 0.00
0.21 0.08 0.02 0.02 0.00 0.00 0.01 0.00 0.00 0.00 0.00 0.00 0.00 0.00 0.00 0.00 0.00 0.00 0.00 0.00 0.00 0.00 0.00 0.00 0.00 0.00 0.00 0.00 0.00 0.00 0.00 0.00 0.00 0.00 0.00 0.00 0.00 0.00 0.00 0.00 0.00 0.00 0.00 0.00 0.00
0.17 0.04 0.00 0.00 0.00 0.00 0.00 0.01 0.00 0.00 0.00 0.00 0.00 0.00 0.00 0.00 0.00 0.00 0.00 0.00 0.00 0.00 0.01 0.00 0.00 0.00 0.00 0.00 0.00 0.00 0.00 0.00 0.00 0.00 0.00 0.00 0.00 0.00 0.00 0.00 0.00 0.00 0.00 0.00 0.00
0.20 0.02 0.00 0.00 0.00 0.00 0.00 0.00 0.00 0.00 0.00 0.00 0.00 0.00 0.00 0.00 0.00 0.00 0.00 0.00 0.00 0.00 0.00 0.00 0.00 0.00 0.00 0.00 0.00 0.00 0.00 0.00 0.00 0.00 0.00 0.00 0.00 0.00 0.00 0.00 0.00 0.00 0.00 0.00 0.00

GFSSW_prec_precacc24_075.txt.gz
Total_Precipitation_Accumulation
0.06 0.05 0.06 0.05 0.03 0.02 0.02 0.02 0.03 0.03 0.03 0.03 0.07 0.05 0.04 0.05 0.07 0.06 0.05 0.03 0.07 0.23 0.22 0.28 0.22 0.19 0.32 0.39 0.39 0.47 0.62 0.27 0.04 0.00 0.00 0.00 0.01 0.00 0.01 0.00 0.00 0.00 0.06 0.08 0.09
0.10 0.08 0.09 0.06 0.04 0.02 0.02 0.04 0.04 0.03 0.02 0.02 0.03 0.03 0.01 0.04 0.01 0.02 0.04 0.16 0.37 0.64 0.32 0.24 0.27 0.32 0.36 0.44 0.77 0.62 0.71 0.20 0.03 0.02 0.01 0.00 0.01 0.01 0.03 0.01 0.07 0.03 0.00 0.02 0.15
0.14 0.16 0.11 0.07 0.04 0.03 0.04 0.03 0.03 0.03 0.02 0.04 0.03 0.01 0.00 0.00 0.01 0.06 0.17 0.29 0.56 0.66 0.41 0.19 0.57 0.45 0.27 0.61 0.76 0.66 0.48 0.12 0.08 0.07 0.01 0.01 0.02 0.01 0.08 0.10 0.02 0.04 0.01 0.01 0.11
0.16 0.20 0.15 0.08 0.06 0.04 0.04 0.03 0.04 0.05 0.04 0.04 0.02 0.00 0.00 0.00 0.06 0.15 0.12 0.11 0.30 0.40 0.52 0.21 0.48 0.57 0.33 0.43 0.70 0.83 0.30 0.19 0.15 0.15 0.09 0.02 0.02 0.01 0.04 0.02 0.00 0.08 0.04 0.01 0.14
0.18 0.17 0.13 0.10 0.06 0.07 0.04 0.04 0.04 0.05 0.04 0.02 0.03 0.01 0.00 0.01 0.03 0.02 0.00 0.01 0.13 0.20 0.40 0.26 0.31 0.61 0.40 0.16 0.77 0.68 0.51 0.34 0.37 0.29 0.21 0.10 0.04 0.02 0.01 0.02 0.03 0.11 0.08 0.09 0.11
0.18 0.18 0.12 0.10 0.09 0.06 0.04 0.03 0.04 0.04 0.02 0.02 0.03 0.00 0.02 0.02 0.00 0.00 0.00 0.00 0.11 0.18 0.31 0.36 0.26 0.82 0.55 0.40 0.51 0.62 0.69 0.48 0.65 0.47 0.35 0.17 0.08 0.04 0.03 0.06 0.15 0.23 0.28 0.26 0.14
0.21 0.19 0.12 0.11 0.06 0.04 0.03 0.03 0.02 0.02 0.00 0.01 0.03 0.00 0.02 0.03 0.00 0.00 0.00 0.00 0.04 0.13 0.28 0.41 0.28 0.60 0.78 0.61 0.23 0.63 0.67 0.84 0.81 0.68 0.57 0.31 0.17 0.09 0.05 0.10 0.17 0.21 0.17 0.31 0.26
0.21 0.21 0.13 0.10 0.07 0.04 0.03 0.01 0.01 0.00 0.00 0.01 0.02 0.00 0.00 0.00 0.00 0.00 0.00 0.01 0.01 0.08 0.36 0.63 0.31 0.39 0.49 0.75 0.48 0.59 1.10 1.15 0.88 1.20 0.93 0.44 0.19 0.06 0.08 0.13 0.11 0.18 0.27 0.38 0.46
0.20 0.19 0.22 0.12 0.06 0.04 0.01 0.00 0.00 0.00 0.00 0.02 0.01 0.00 0.01 0.00 0.01 0.00 0.00 0.09 0.12 0.10 0.37 0.83 0.59 0.41 0.41 0.79 0.76 0.55 1.05 0.94 0.84 0.99 1.37 0.68 0.20 0.08 0.08 0.12 0.08 0.10 0.20 0.28 0.29
0.21 0.22 0.17 0.10 0.07 0.03 0.01 0.00 0.00 0.00 0.00 0.00 0.00 0.01 0.01 0.00 0.22 0.02 0.02 0.20 0.17 0.20 0.57 1.11 1.03 0.55 0.56 0.55 0.60 0.17 0.45 0.62 0.60 0.63 0.94 0.99 0.31 0.08 0.06 0.10 0.06 0.03 0.07 0.19 0.28
0.21 0.18 0.18 0.15 0.07 0.02 0.00 0.00 0.00 0.00 0.00 0.00 0.00 0.00 0.00 0.02 0.09 0.09 0.12 0.43 0.31 0.30 0.52 1.10 1.04 0.46 0.39 0.51 0.24 0.05 0.09 0.49 0.45 0.45 0.49 0.81 0.60 0.19 0.05 0.06 0.03 0.03 0.02 0.06 0.14
0.23 0.20 0.24 0.16 0.08 0.03 0.01 0.00 0.00 0.00 0.00 0.00 0.00 0.00 0.00 0.06 0.31 0.16 0.09 0.73 0.50 0.38 0.36 0.65 0.51 0.20 0.30 0.61 0.17 0.04 0.06 0.44 0.61 0.54 0.52 0.50 0.72 0.34 0.12 0.04 0.03 0.02 0.02 0.01 0.02
0.20 0.21 0.23 0.15 0.07 0.02 0.01 0.01 0.00 0.00 0.00 0.00 0.00 0.00 0.01 0.16 0.20 0.24 0.14 0.59 0.40 0.35 0.32 0.39 0.26 0.27 0.34 0.59 0.17 0.04 0.01 0.18 0.65 0.63 0.46 0.35 0.43 0.44 0.20 0.06 0.03 0.02 0.02 0.01 0.01
0.23 0.21 0.24 0.18 0.04 0.01 0.02 0.01 0.00 0.00 0.03 0.01 0.00 0.00 0.01 0.10 0.18 0.11 0.21 0.61 0.46 0.43 0.24 0.32 0.19 0.21 0.30 0.36 0.09 0.02 0.00 0.03 0.24 0.23 0.30 0.20 0.22 0.14 0.15 0.13 0.03 0.03 0.02 0.01 0.00
0.21 0.21 0.20 0.13 0.02 0.03 0.03 0.00 0.00 0.00 0.10 0.03 0.01 0.00 0.02 0.14 0.17 0.26 0.23 0.45 0.29 0.21 0.18 0.28 0.23 0.26 0.28 0.36 0.14 0.05 0.01 0.11 0.12 0.09 0.10 0.10 0.06 0.02 0.05 0.09 0.07 0.02 0.03 0.02 0.01
0.19 0.19 0.24 0.18 0.05 0.05 0.04 0.00 0.00 0.04 0.04 0.01 0.00 0.00 0.03 0.14 0.32 0.47 0.52 0.39 0.23 0.15 0.22 0.21 0.34 0.42 0.43 0.41 0.04 0.02 0.01 0.23 0.12 0.13 0.11 0.06 0.01 0.00 0.00 0.03 0.08 0.05 0.01 0.00 0.00
0.28 0.27 0.24 0.11 0.09 0.09 0.04 0.00 0.02 0.04 0.05 0.01 0.00 0.00 0.02 0.04 0.09 0.13 0.21 0.18 0.16 0.15 0.39 0.46 0.62 0.45 0.47 0.16 0.03 0.01 0.02 0.44 0.36 0.36 0.16 0.03 0.00 0.00 0.00 0.00 0.03 0.04 0.02 0.00 0.00
0.41 0.36 0.19 0.08 0.09 0.06 0.01 0.01 0.02 0.03 0.03 0.01 0.00 0.00 0.01 0.01 0.04 0.04 0.10 0.13 0.05 0.03 0.30 0.62 0.93 0.51 0.16 0.08 0.06 0.04 0.01 0.06 0.07 0.09 0.13 0.02 0.00 0.00 0.00 0.00 0.00 0.00 0.01 0.01 0.00
0.43 0.55 0.14 0.11 0.12 0.04 0.01 0.02 0.01 0.03 0.05 0.00 0.00 0.00 0.00 0.00 0.01 0.06 0.14 0.08 0.03 0.02 0.15 0.24 0.65 0.20 0.02 0.01 0.01 0.02 0.01 0.00 0.01 0.02 0.05 0.04 0.00 0.00 0.00 0.00 0.00 0.00 0.00 0.00 0.00
0.30 0.25 0.18 0.16 0.11 0.03 0.02 0.01 0.00 0.00 0.01 0.00 0.01 0.00 0.00 0.00 0.00 0.02 0.04 0.03 0.04 0.01 0.01 0.03 0.27 0.13 0.01 0.01 0.00 0.00 0.00 0.00 0.00 0.00 0.01 0.00 0.00 0.00 0.00 0.00 0.00 0.00 0.00 0.00 0.00
0.31 0.35 0.29 0.16 0.07 0.04 0.02 0.01 0.00 0.00 0.00 0.04 0.02 0.00 0.00 0.00 0.00 0.00 0.02 0.02 0.01 0.00 0.00 0.00 0.06 0.16 0.04 0.05 0.02 0.00 0.00 0.00 0.00 0.00 0.00 0.00 0.00 0.00 0.00 0.00 0.00 0.00 0.00 0.00 0.00
0.33 0.31 0.30 0.09 0.05 0.02 0.00 0.01 0.00 0.00 0.00 0.00 0.01 0.01 0.00 0.00 0.00 0.00 0.01 0.01 0.00 0.00 0.00 0.00 0.01 0.03 0.04 0.01 0.00 0.00 0.00 0.00 0.00 0.00 0.00 0.00 0.00 0.00 0.00 0.00 0.00 0.00 0.00 0.00 0.00
0.37 0.39 0.30 0.06 0.06 0.01 0.00 0.00 0.00 0.00 0.00 0.00 0.01 0.02 0.01 0.00 0.00 0.00 0.00 0.00 0.00 0.00 0.00 0.00 0.00 0.03 0.07 0.04 0.00 0.00 0.00 0.00 0.00 0.00 0.01 0.00 0.00 0.00 0.00 0.00 0.00 0.00 0.00 0.00 0.00
0.40 0.32 0.26 0.13 0.03 0.00 0.01 0.01 0.01 0.00 0.00 0.00 0.00 0.00 0.00 0.00 0.00 0.00 0.00 0.00 0.00 0.00 0.00 0.00 0.00 0.00 0.01 0.01 0.00 0.00 0.00 0.00 0.00 0.00 0.00 0.00 0.00 0.00 0.00 0.00 0.00 0.00 0.00 0.00 0.00
0.34 0.16 0.09 0.06 0.00 0.00 0.01 0.00 0.00 0.00 0.00 0.00 0.00 0.00 0.00 0.00 0.00 0.00 0.00 0.00 0.00 0.00 0.00 0.00 0.00 0.00 0.00 0.00 0.00 0.00 0.00 0.00 0.00 0.00 0.00 0.00 0.00 0.00 0.00 0.00 0.00 0.00 0.00 0.00 0.00
0.26 0.14 0.09 0.00 0.00 0.00 0.00 0.01 0.00 0.00 0.00 0.00 0.00 0.00 0.00 0.00 0.00 0.00 0.00 0.00 0.00 0.00 0.00 0.00 0.00 0.00 0.00 0.00 0.00 0.00 0.00 0.00 0.00 0.00 0.00 0.00 0.00 0.00 0.00 0.00 0.00 0.00 0.00 0.00 0.00
0.24 0.06 0.02 0.00 0.00 0.00 0.00 0.00 0.00 0.00 0.00 0.00 0.00 0.00 0.00 0.00 0.00 0.00 0.00 0.00 0.00 0.00 0.00 0.00 0.00 0.00 0.00 0.00 0.00 0.00 0.00 0.00 0.00 0.00 0.00 0.00 0.00 0.00 0.00 0.00 0.00 0.00 0.00 0.00 0.00

GFSSW_prec_precacc24_078.txt.gz
Total_Precipitation_Accumulation
0.08 0.08 0.08 0.07 0.04 0.02 0.02 0.02 0.03 0.03 0.03 0.02 0.03 0.02 0.02 0.02 0.04 0.06 0.04 0.02 0.07 0.20 0.18 0.25 0.22 0.18 0.29 0.34 0.37 0.45 0.62 0.27 0.04 0.00 0.00 0.00 0.01 0.01 0.01 0.00 0.00 0.00 0.06 0.08 0.09
0.11 0.11 0.14 0.10 0.05 0.03 0.03 0.03 0.04 0.03 0.02 0.02 0.03 0.03 0.01 0.01 0.01 0.02 0.02 0.10 0.35 0.60 0.28 0.20 0.27 0.30 0.30 0.40 0.71 0.60 0.68 0.19 0.03 0.02 0.01 0.00 0.01 0.01 0.03 0.01 0.07 0.03 0.00 0.02 0.14
0.13 0.16 0.14 0.10 0.08 0.06 0.04 0.03 0.03 0.03 0.02 0.04 0.03 0.02 0.00 0.00 0.01 0.06 0.16 0.22 0.45 0.59 0.38 0.17 0.56 0.44 0.26 0.53 0.71 0.59 0.46 0.11 0.08 0.07 0.01 0.01 0.02 0.01 0.08 0.11 0.02 0.04 0.01 0.01 0.10
0.16 0.18 0.15 0.11 0.10 0.05 0.04 0.03 0.04 0.05 0.05 0.04 0.03 0.01 0.00 0.00 0.06 0.13 0.09 0.05 0.17 0.31 0.47 0.18 0.47 0.57 0.33 0.38 0.65 0.74 0.24 0.18 0.14 0.15 0.10 0.02 0.02 0.02 0.04 0.02 0.00 0.08 0.05 0.03 0.12
0.18 0.17 0.12 0.09 0.09 0.09 0.06 0.04 0.04 0.05 0.04 0.02 0.03 0.01 0.00 0.01 0.03 0.01 0.00 0.00 0.06 0.16 0.34 0.21 0.31 0.61 0.40 0.16 0.74 0.67 0.47 0.32 0.33 0.24 0.21 0.11 0.05 0.03 0.01 0.02 0.03 0.11 0.08 0.11 0.12
0.17 0.18 0.12 0.10 0.11 0.07 0.05 0.03 0.04 0.04 0.02 0.02 0.04 0.01 0.02 0.02 0.00 0.00 0.00 0.00 0.05 0.17 0.27 0.29 0.26 0.82 0.55 0.40 0.50 0.61 0.67 0.47 0.61 0.39 0.32 0.18 0.10 0.08 0.03 0.06 0.15 0.25 0.28 0.26 0.15
0.20 0.18 0.12 0.12 0.09 0.09 0.08 0.03 0.02 0.02 0.00 0.01 0.04 0.00 0.02 0.03 0.00 0.00 0.00 0.00 0.02 0.12 0.26 0.36 0.27 0.61 0.79 0.61 0.23 0.61 0.66 0.79 0.79 0.65 0.53 0.32 0.18 0.10 0.05 0.10 0.18 0.25 0.24 0.41 0.26
0.20 0.20 0.14 0.14 0.12 0.08 0.06 0.02 0.01 0.00 0.00 0.01 0.03 0.00 0.00 0.00 0.00 0.00 0.00 0.00 0.00 0.08 0.33 0.54 0.31 0.41 0.49 0.76 0.53 0.60 1.09 1.12 0.86 1.18 0.90 0.46 0.19 0.07 0.08 0.13 0.11 0.20 0.38 0.55 0.52
0.20 0.18 0.22 0.20 0.14 0.09 0.04 0.01 0.00 0.00 0.00 0.02 0.01 0.00 0.01 0.00 0.00 0.00 0.00 0.02 0.05 0.09 0.34 0.76 0.56 0.42 0.42 0.84 0.94 0.64 1.08 0.94 0.82 0.97 1.38 0.72 0.22 0.09 0.08 0.12 0.09 0.11 0.31 0.46 0.52
0.20 0.22 0.16 0.13 0.12 0.07 0.03 0.01 0.00 0.00 0.00 0.01 0.00 0.01 0.01 0.00 0.14 0.00 0.02 0.08 0.10 0.18 0.52 0.95 0.84 0.56 0.56 0.61 0.75 0.38 0.46 0.63 0.63 0.62 0.94 1.04 0.35 0.12 0.06 0.10 0.07 0.04 0.11 0.36 0.50
0.19 0.17 0.17 0.23 0.15 0.07 0.02 0.01 0.01 0.00 0.00 0.00 0.00 0.00 0.00 0.01 0.08 0.09 0.12 0.29 0.23 0.29 0.51 0.82 0.81 0.46 0.42 0.56 0.32 0.28 0.17 0.51 0.49 0.47 0.49 0.88 0.65 0.22 0.06 0.07 0.04 0.03 0.05 0.18 0.36
0.22 0.19 0.23 0.25 0.19 0.06 0.02 0.02 0.01 0.00 0.00 0.00 0.00 0.00 0.00 0.06 0.31 0.16 0.08 0.49 0.41 0.37 0.36 0.51 0.40 0.20 0.31 0.64 0.27 0.17 0.11 0.51 0.65 0.56 0.51 0.51 0.82 0.41 0.13 0.07 0.05 0.03 0.04 0.08 0.16
0.20 0.20 0.22 0.22 0.21 0.04 0.01 0.02 0.00 0.00 0.00 0.00 0.00 0.00 0.01 0.15 0.19 0.24 0.12 0.31 0.34 0.35 0.29 0.30 0.20 0.29 0.41 0.79 0.24 0.11 0.03 0.20 0.73 0.72 0.45 0.38 0.51 0.64 0.24 0.10 0.06 0.06 0.03 0.04 0.08
0.25 0.21 0.24 0.28 0.16 0.01 0.03 0.01 0.00 0.00 0.03 0.01 0.00 0.00 0.01 0.09 0.17 0.10 0.18 0.44 0.38 0.43 0.21 0.21 0.18 0.23 0.36 0.66 0.14 0.04 0.01 0.10 0.43 0.36 0.34 0.26 0.37 0.39 0.28 0.19 0.10 0.07 0.03 0.03 0.05
0.23 0.21 0.21 0.19 0.06 0.03 0.03 0.01 0.00 0.00 0.09 0.02 0.00 0.00 0.02 0.13 0.17 0.26 0.22 0.42 0.28 0.22 0.23 0.24 0.22 0.27 0.28 0.47 0.17 0.07 0.03 0.15 0.17 0.10 0.11 0.19 0.18 0.15 0.17 0.17 0.16 0.04 0.05 0.05 0.03
0.20 0.21 0.26 0.23 0.09 0.06 0.04 0.01 0.00 0.05 0.04 0.00 0.00 0.00 0.03 0.14 0.31 0.47 0.52 0.38 0.24 0.21 0.22 0.18 0.33 0.41 0.43 0.41 0.07 0.06 0.02 0.24 0.12 0.13 0.15 0.16 0.05 0.05 0.06 0.05 0.10 0.06 0.03 0.05 0.02
0.29 0.28 0.28 0.18 0.12 0.11 0.10 0.02 0.04 0.05 0.01 0.00 0.00 0.00 0.02 0.04 0.07 0.10 0.20 0.14 0.13 0.13 0.32 0.37 0.59 0.60 0.55 0.19 0.09 0.03 0.03 0.45 0.36 0.37 0.25 0.09 0.01 0.02 0.00 0.00 0.04 0.07 0.06 0.04 0.02
0.50 0.40 0.26 0.15 0.11 0.14 0.08 0.02 0.06 0.02 0.01 0.00 0.00 0.00 0.01 0.01 0.04 0.04 0.09 0.08 0.02 0.02 0.16 0.53 0.94 0.72 0.24 0.10 0.07 0.04 0.01 0.07 0.07 0.12 0.23 0.06 0.02 0.02 0.00 0.00 0.00 0.04 0.09 0.04 0.02
0.46 0.65 0.27 0.13 0.16 0.17 0.04 0.05 0.03 0.01 0.00 0.00 0.00 0.00 0.00 0.00 0.01 0.08 0.14 0.08 0.03 0.01 0.10 0.24 0.72 0.33 0.08 0.02 0.01 0.02 0.00 0.00 0.01 0.04 0.07 0.05 0.00 0.00 0.00 0.00 0.00 0.01 0.07 0.07 0.02
0.30 0.41 0.34 0.22 0.25 0.15 0.08 0.04 0.00 0.00 0.00 0.00 0.00 0.00 0.00 0.00 0.00 0.03 0.05 0.05 0.06 0.02 0.01 0.04 0.25 0.13 0.01 0.01 0.00 0.00 0.00 0.00 0.00 0.00 0.02 0.02 0.00 0.00 0.00 0.00 0.00 0.00 0.01 0.03 0.01
0.32 0.47 0.57 0.41 0.29 0.16 0.10 0.02 0.00 0.00 0.00 0.00 0.00 0.00 0.00 0.00 0.00 0.00 0.05 0.09 0.02 0.00 0.00 0.00 0.05 0.14 0.03 0.04 0.02 0.00 0.00 0.00 0.00 0.00 0.00 0.00 0.00 0.00 0.00 0.00 0.00 0.00 0.00 0.00 0.00
0.37 0.41 0.57 0.31 0.23 0.11 0.02 0.01 0.00 0.00 0.00 0.00 0.00 0.00 0.00 0.00 0.00 0.00 0.01 0.01 0.00 0.00 0.00 0.00 0.01 0.02 0.03 0.01 0.00 0.00 0.00 0.00 0.00 0.00 0.00 0.00 0.00 0.00 0.00 0.00 0.00 0.00 0.00 0.00 0.00
0.45 0.54 0.57 0.22 0.18 0.03 0.01 0.00 0.00 0.00 0.00 0.00 0.01 0.00 0.00 0.00 0.00 0.00 0.00 0.00 0.00 0.00 0.00 0.00 0.00 0.02 0.03 0.03 0.00 0.00 0.00 0.00 0.00 0.00 0.01 0.00 0.00 0.00 0.00 0.00 0.00 0.00 0.00 0.00 0.00
0.46 0.47 0.47 0.34 0.10 0.00 0.01 0.01 0.01 0.00 0.00 0.00 0.00 0.00 0.00 0.00 0.00 0.00 0.00 0.00 0.00 0.00 0.00 0.00 0.00 0.00 0.01 0.01 0.00 0.00 0.00 0.00 0.00 0.00 0.00 0.00 0.00 0.00 0.00 0.00 0.00 0.00 0.00 0.00 0.00
0.41 0.27 0.16 0.13 0.01 0.01 0.02 0.00 0.00 0.00 0.00 0.00 0.00 0.00 0.00 0.00 0.00 0.00 0.00 0.00 0.00 0.00 0.00 0.00 0.00 0.00 0.00 0.00 0.00 0.00 0.00 0.00 0.00 0.00 0.00 0.00 0.00 0.00 0.00 0.00 0.00 0.00 0.00 0.00 0.00
0.29 0.20 0.14 0.01 0.00 0.04 0.01 0.01 0.00 0.00 0.00 0.00 0.00 0.00 0.00 0.00 0.00 0.00 0.00 0.00 0.00 0.00 0.00 0.00 0.00 0.00 0.00 0.00 0.00 0.00 0.00 0.00 0.00 0.00 0.00 0.00 0.00 0.00 0.00 0.00 0.00 0.00 0.00 0.00 0.00
0.25 0.07 0.02 0.00 0.00 0.01 0.01 0.00 0.00 0.00 0.00 0.00 0.00 0.00 0.00 0.00 0.00 0.00 0.00 0.00 0.00 0.00 0.00 0.00 0.00 0.00 0.00 0.00 0.00 0.00 0.00 0.00 0.00 0.00 0.00 0.00 0.00 0.00 0.00 0.00 0.00 0.00 0.00 0.00 0.00

GFSSW_prec_precacc24_081.txt.gz
Total_Precipitation_Accumulation
0.07 0.09 0.10 0.10 0.07 0.04 0.02 0.01 0.03 0.03 0.03 0.02 0.02 0.02 0.02 0.00 0.01 0.02 0.02 0.02 0.07 0.18 0.17 0.20 0.21 0.18 0.28 0.25 0.30 0.44 0.59 0.25 0.04 0.00 0.00 0.00 0.01 0.01 0.01 0.00 0.00 0.00 0.06 0.07 0.09
0.10 0.11 0.14 0.11 0.07 0.05 0.03 0.03 0.04 0.03 0.02 0.02 0.03 0.03 0.01 0.00 0.00 0.01 0.01 0.07 0.27 0.55 0.26 0.15 0.25 0.28 0.25 0.32 0.61 0.56 0.65 0.18 0.02 0.02 0.01 0.00 0.01 0.01 0.03 0.01 0.07 0.03 0.00 0.02 0.11
0.13 0.16 0.12 0.09 0.09 0.08 0.06 0.02 0.02 0.03 0.02 0.04 0.03 0.02 0.00 0.00 0.01 0.05 0.15 0.19 0.35 0.54 0.35 0.11 0.54 0.43 0.23 0.41 0.62 0.55 0.45 0.09 0.07 0.07 0.01 0.01 0.02 0.01 0.08 0.11 0.02 0.04 0.02 0.02 0.08
0.16 0.18 0.14 0.10 0.09 0.08 0.07 0.04 0.04 0.05 0.05 0.04 0.03 0.01 0.00 0.00 0.03 0.09 0.07 0.04 0.14 0.26 0.43 0.15 0.44 0.55 0.32 0.25 0.52 0.69 0.23 0.17 0.11 0.14 0.10 0.02 0.02 0.02 0.04 0.02 0.00 0.08 0.06 0.05 0.10
0.18 0.16 0.12 0.09 0.08 0.09 0.08 0.06 0.04 0.05 0.04 0.02 0.03 0.01 0.00 0.01 0.02 0.01 0.00 0.00 0.02 0.11 0.30 0.19 0.30 0.60 0.39 0.13 0.57 0.59 0.45 0.30 0.30 0.22 0.20 0.11 0.05 0.03 0.01 0.02 0.03 0.12 0.10 0.14 0.24
0.16 0.17 0.12 0.11 0.11 0.08 0.09 0.08 0.04 0.04 0.02 0.02 0.04 0.01 0.00 0.02 0.00 0.00 0.00 0.00 0.01 0.11 0.19 0.23 0.25 0.81 0.55 0.39 0.42 0.52 0.62 0.43 0.60 0.39 0.32 0.17 0.09 0.08 0.03 0.06 0.15 0.25 0.28 0.27 0.22
0.18 0.17 0.12 0.12 0.12 0.16 0.12 0.06 0.04 0.02 0.00 0.01 0.04 0.00 0.00 0.01 0.00 0.00 0.00 0.00 0.01 0.09 0.18 0.22 0.25 0.60 0.79 0.60 0.23 0.56 0.60 0.74 0.78 0.65 0.53 0.31 0.17 0.10 0.05 0.10 0.18 0.25 0.24 0.42 0.33
0.19 0.19 0.14 0.14 0.17 0.18 0.08 0.05 0.03 0.00 0.00 0.01 0.03 0.00 0.00 0.00 0.00 0.00 0.00 0.00 0.00 0.07 0.24 0.26 0.28 0.39 0.50 0.77 0.54 0.58 0.99 1.07 0.85 1.17 0.90 0.45 0.17 0.07 0.08 0.13 0.11 0.20 0.38 0.55 0.60
0.19 0.17 0.21 0.20 0.21 0.22 0.10 0.06 0.02 0.01 0.00 0.02 0.02 0.00 0.00 0.00 0.00 0.00 0.00 0.00 0.03 0.08 0.22 0.25 0.44 0.42 0.42 0.86 0.94 0.64 1.05 0.90 0.81 0.97 1.37 0.72 0.22 0.09 0.08 0.12 0.09 0.11 0.31 0.46 0.63
0.19 0.21 0.15 0.12 0.17 0.16 0.08 0.03 0.01 0.01 0.01 0.01 0.00 0.01 0.01 0.00 0.03 0.00 0.02 0.02 0.07 0.17 0.39 0.47 0.65 0.56 0.56 0.63 0.78 0.45 0.55 0.64 0.62 0.61 0.92 1.03 0.35 0.17 0.11 0.12 0.07 0.04 0.11 0.37 0.57
0.19 0.17 0.17 0.24 0.38 0.20 0.04 0.04 0.03 0.02 0.01 0.00 0.00 0.00 0.00 0.01 0.07 0.06 0.10 0.12 0.16 0.28 0.39 0.52 0.59 0.45 0.42 0.56 0.34 0.34 0.28 0.57 0.50 0.45 0.46 0.87 0.65 0.23 0.07 0.07 0.05 0.03 0.05 0.19 0.45
0.22 0.19 0.22 0.25 0.32 0.28 0.04 0.03 0.03 0.01 0.00 0.00 0.00 0.00 0.00 0.04 0.29 0.13 0.05 0.13 0.25 0.35 0.35 0.38 0.28 0.19 0.31 0.64 0.28 0.20 0.16 0.60 0.79 0.63 0.49 0.49 0.83 0.42 0.14 0.07 0.06 0.05 0.05 0.14 0.24
0.21 0.20 0.23 0.22 0.28 0.14 0.01 0.02 0.01 0.00 0.00 0.00 0.00 0.00 0.00 0.12 0.17 0.21 0.08 0.16 0.27 0.34 0.28 0.23 0.11 0.27 0.43 0.85 0.28 0.12 0.05 0.37 0.97 0.79 0.51 0.39 0.53 0.64 0.24 0.11 0.07 0.06 0.04 0.08 0.15
0.26 0.22 0.26 0.28 0.25 0.06 0.04 0.02 0.02 0.00 0.02 0.01 0.00 0.00 0.00 0.08 0.16 0.09 0.17 0.33 0.33 0.42 0.21 0.16 0.08 0.22 0.41 0.80 0.20 0.13 0.08 0.17 0.55 0.42 0.38 0.28 0.40 0.41 0.30 0.20 0.12 0.14 0.07 0.07 0.10
0.25 0.22 0.21 0.20 0.10 0.17 0.05 0.01 0.02 0.00 0.07 0.01 0.00 0.00 0.00 0.11 0.17 0.23 0.20 0.36 0.28 0.23 0.24 0.20 0.16 0.27 0.39 0.58 0.24 0.21 0.08 0.21 0.25 0.16 0.13 0.19 0.22 0.20 0.23 0.22 0.25 0.22 0.13 0.10 0.05
0.25 0.23 0.27 0.26 0.11 0.06 0.05 0.05 0.01 0.05 0.03 0.00 0.00 0.00 0.01 0.13 0.31 0.47 0.44 0.33 0.24 0.23 0.17 0.13 0.26 0.38 0.45 0.42 0.08 0.10 0.05 0.27 0.16 0.18 0.23 0.20 0.08 0.13 0.19 0.17 0.31 0.22 0.12 0.08 0.02
0.38 0.31 0.31 0.22 0.15 0.12 0.12 0.14 0.08 0.05 0.01 0.00 0.00 0.00 0.01 0.03 0.07 0.10 0.17 0.13 0.12 0.15 0.23 0.24 0.45 0.56 0.54 0.28 0.15 0.05 0.07 0.49 0.42 0.47 0.38 0.17 0.04 0.07 0.09 0.03 0.19 0.25 0.11 0.05 0.06
0.69 0.46 0.27 0.17 0.14 0.16 0.19 0.16 0.11 0.01 0.01 0.00 0.00 0.00 0.01 0.01 0.03 0.04 0.03 0.03 0.02 0.01 0.14 0.48 0.87 0.72 0.26 0.17 0.09 0.07 0.04 0.10 0.13 0.17 0.28 0.07 0.07 0.08 0.06 0.04 0.10 0.12 0.10 0.06 0.12
0.49 0.69 0.30 0.15 0.21 0.21 0.17 0.16 0.06 0.01 0.00 0.00 0.00 0.00 0.01 0.00 0.01 0.07 0.09 0.05 0.03 0.01 0.11 0.33 0.83 0.36 0.07 0.02 0.02 0.02 0.00 0.00 0.02 0.04 0.08 0.07 0.02 0.01 0.01 0.02 0.02 0.02 0.08 0.08 0.07
0.31 0.44 0.40 0.24 0.31 0.27 0.24 0.14 0.02 0.00 0.00 0.00 0.00 0.00 0.00 0.00 0.00 0.03 0.04 0.03 0.05 0.02 0.03 0.13 0.37 0.13 0.01 0.00 0.00 0.00 0.00 0.00 0.01 0.01 0.03 0.02 0.00 0.00 0.00 0.01 0.03 0.03 0.07 0.07 0.06
0.32 0.58 0.77 0.49 0.48 0.35 0.27 0.11 0.01 0.00 0.00 0.00 0.00 0.00 0.00 0.00 0.00 0.00 0.06 0.09 0.02 0.00 0.00 0.00 0.07 0.14 0.01 0.02 0.01 0.00 0.00 0.00 0.00 0.00 0.00 0.00 0.00 0.00 0.00 0.00 0.00 0.01 0.03 0.02 0.02
0.37 0.62 0.94 0.52 0.42 0.27 0.14 0.02 0.00 0.00 0.00 0.00 0.00 0.00 0.00 0.00 0.00 0.00 0.01 0.01 0.00 0.00 0.00 0.00 0.00 0.02 0.02 0.01 0.00 0.00 0.00 0.00 0.00 0.00 0.00 0.00 0.00 0.00 0.00 0.00 0.00 0.00 0.00 0.00 0.00
0.46 0.71 0.84 0.36 0.28 0.11 0.03 0.00 0.00 0.00 0.00 0.00 0.00 0.00 0.00 0.00 0.00 0.00 0.00 0.00 0.00 0.00 0.00 0.00 0.00 0.01 0.02 0.02 0.00 0.00 0.00 0.00 0.00 0.00 0.00 0.00 0.00 0.00 0.00 0.00 0.00 0.00 0.00 0.00 0.00
0.47 0.53 0.59 0.45 0.14 0.01 0.02 0.01 0.01 0.00 0.00 0.00 0.00 0.00 0.00 0.00 0.00 0.00 0.00 0.00 0.00 0.00 0.00 0.00 0.00 0.00 0.01 0.01 0.00 0.00 0.00 0.00 0.00 0.00 0.00 0.00 0.00 0.00 0.00 0.00 0.00 0.00 0.00 0.00 0.00
0.43 0.29 0.20 0.18 0.02 0.01 0.02 0.00 0.00 0.00 0.00 0.00 0.00 0.00 0.00 0.00 0.00 0.00 0.00 0.00 0.00 0.00 0.00 0.00 0.00 0.00 0.00 0.00 0.00 0.00 0.00 0.00 0.00 0.00 0.00 0.00 0.00 0.00 0.00 0.00 0.00 0.00 0.00 0.00 0.00
0.29 0.21 0.15 0.01 0.00 0.04 0.01 0.00 0.00 0.00 0.00 0.00 0.00 0.00 0.00 0.00 0.00 0.00 0.00 0.00 0.00 0.00 0.00 0.00 0.00 0.00 0.00 0.00 0.00 0.00 0.00 0.00 0.00 0.00 0.00 0.00 0.00 0.00 0.00 0.00 0.00 0.00 0.00 0.00 0.00
0.25 0.07 0.02 0.00 0.00 0.01 0.01 0.00 0.00 0.00 0.00 0.00 0.00 0.00 0.00 0.00 0.00 0.00 0.00 0.00 0.00 0.00 0.00 0.00 0.00 0.00 0.00 0.00 0.00 0.00 0.00 0.00 0.00 0.00 0.00 0.00 0.00 0.00 0.00 0.00 0.00 0.00 0.00 0.00 0.00

GFSSW_prec_precacc24_084.txt.gz
Total_Precipitation_Accumulation
0.07 0.08 0.07 0.09 0.07 0.06 0.06 0.05 0.03 0.02 0.03 0.02 0.02 0.02 0.02 0.00 0.00 0.00 0.00 0.00 0.05 0.16 0.16 0.18 0.20 0.17 0.22 0.16 0.19 0.41 0.55 0.25 0.04 0.00 0.00 0.00 0.01 0.01 0.01 0.00 0.00 0.00 0.02 0.01 0.09
0.10 0.10 0.13 0.09 0.06 0.06 0.06 0.07 0.06 0.03 0.02 0.02 0.03 0.03 0.01 0.00 0.00 0.00 0.00 0.06 0.23 0.44 0.25 0.13 0.23 0.26 0.21 0.21 0.44 0.46 0.50 0.17 0.02 0.01 0.01 0.00 0.01 0.01 0.03 0.01 0.07 0.03 0.00 0.01 0.09
0.13 0.15 0.12 0.09 0.07 0.08 0.08 0.07 0.06 0.03 0.02 0.03 0.03 0.02 0.00 0.00 0.00 0.01 0.08 0.17 0.28 0.40 0.28 0.08 0.49 0.37 0.20 0.31 0.46 0.47 0.41 0.08 0.05 0.04 0.01 0.01 0.02 0.01 0.08 0.10 0.02 0.04 0.02 0.02 0.05
0.16 0.17 0.14 0.10 0.10 0.07 0.08 0.11 0.09 0.05 0.04 0.04 0.03 0.01 0.00 0.00 0.00 0.04 0.04 0.03 0.12 0.21 0.33 0.12 0.40 0.47 0.29 0.20 0.39 0.62 0.22 0.15 0.07 0.10 0.08 0.02 0.02 0.02 0.03 0.02 0.00 0.08 0.06 0.04 0.09
0.17 0.16 0.12 0.10 0.09 0.09 0.08 0.11 0.10 0.05 0.04 0.02 0.03 0.01 0.00 0.00 0.01 0.00 0.00 0.00 0.02 0.09 0.22 0.14 0.24 0.56 0.37 0.12 0.48 0.53 0.42 0.24 0.21 0.17 0.16 0.11 0.05 0.03 0.01 0.02 0.03 0.12 0.11 0.15 0.25
0.15 0.16 0.12 0.11 0.11 0.09 0.11 0.12 0.07 0.05 0.04 0.03 0.04 0.01 0.00 0.00 0.00 0.00 0.00 0.00 0.01 0.09 0.15 0.18 0.18 0.77 0.54 0.35 0.37 0.45 0.55 0.37 0.49 0.36 0.26 0.16 0.09 0.08 0.03 0.06 0.15 0.25 0.28 0.28 0.23
0.18 0.16 0.12 0.12 0.12 0.16 0.17 0.12 0.04 0.03 0.02 0.01 0.04 0.00 0.00 0.00 0.00 0.00 0.00 0.00 0.00 0.06 0.11 0.20 0.17 0.52 0.77 0.58 0.21 0.51 0.53 0.62 0.67 0.59 0.51 0.30 0.17 0.10 0.05 0.10 0.18 0.25 0.24 0.42 0.33
0.20 0.19 0.13 0.14 0.16 0.19 0.19 0.11 0.05 0.03 0.02 0.01 0.03 0.00 0.00 0.00 0.00 0.00 0.00 0.00 0.00 0.06 0.13 0.24 0.22 0.36 0.49 0.76 0.50 0.55 0.86 0.94 0.76 1.08 0.87 0.46 0.18 0.07 0.08 0.13 0.11 0.20 0.38 0.55 0.60
0.20 0.17 0.21 0.20 0.21 0.26 0.22 0.22 0.06 0.02 0.01 0.03 0.02 0.00 0.00 0.00 0.00 0.00 0.00 0.00 0.03 0.07 0.08 0.18 0.26 0.36 0.40 0.85 0.90 0.59 0.93 0.71 0.73 0.95 1.36 0.73 0.22 0.09 0.08 0.12 0.09 0.11 0.31 0.46 0.63
0.19 0.21 0.15 0.12 0.17 0.29 0.32 0.15 0.03 0.01 0.01 0.01 0.00 0.00 0.00 0.00 0.00 0.00 0.02 0.01 0.04 0.12 0.14 0.19 0.48 0.45 0.53 0.62 0.78 0.43 0.56 0.59 0.55 0.60 0.93 1.03 0.35 0.18 0.13 0.13 0.07 0.04 0.11 0.37 0.57
0.18 0.17 0.17 0.24 0.39 0.49 0.21 0.18 0.10 0.07 0.02 0.00 0.00 0.00 0.00 0.00 0.06 0.05 0.09 0.04 0.07 0.16 0.13 0.22 0.45 0.33 0.41 0.56 0.34 0.35 0.29 0.58 0.49 0.44 0.53 0.88 0.65 0.24 0.14 0.13 0.10 0.04 0.05 0.20 0.48
0.22 0.19 0.22 0.24 0.31 0.50 0.29 0.07 0.13 0.07 0.03 0.00 0.00 0.00 0.00 0.03 0.25 0.11 0.04 0.07 0.13 0.14 0.13 0.18 0.21 0.16 0.31 0.65 0.29 0.20 0.17 0.60 0.76 0.60 0.55 0.50 0.83 0.43 0.17 0.14 0.08 0.09 0.09 0.18 0.35
0.22 0.20 0.23 0.22 0.28 0.16 0.13 0.12 0.04 0.03 0.07 0.01 0.00 0.00 0.00 0.09 0.14 0.15 0.04 0.05 0.19 0.19 0.14 0.12 0.08 0.25 0.44 0.87 0.31 0.13 0.07 0.35 1.15 0.82 0.52 0.43 0.55 0.69 0.26 0.11 0.07 0.09 0.08 0.16 0.29
0.28 0.22 0.27 0.28 0.26 0.07 0.08 0.08 0.04 0.01 0.04 0.00 0.00 0.00 0.00 0.08 0.12 0.08 0.13 0.20 0.21 0.33 0.19 0.14 0.04 0.16 0.42 0.86 0.30 0.16 0.09 0.35 0.71 0.43 0.43 0.31 0.43 0.41 0.30 0.20 0.12 0.16 0.07 0.08 0.18
0.28 0.23 0.23 0.22 0.12 0.19 0.15 0.04 0.07 0.03 0.06 0.01 0.00 0.00 0.00 0.10 0.15 0.22 0.18 0.32 0.26 0.23 0.25 0.20 0.08 0.24 0.42 0.60 0.36 0.34 0.08 0.26 0.31 0.19 0.16 0.20 0.28 0.21 0.23 0.22 0.28 0.26 0.14 0.13 0.09
0.31 0.28 0.30 0.28 0.11 0.08 0.14 0.07 0.12 0.13 0.05 0.00 0.00 0.00 0.01 0.11 0.31 0.45 0.35 0.32 0.23 0.23 0.18 0.11 0.16 0.35 0.43 0.42 0.16 0.13 0.06 0.31 0.26 0.28 0.28 0.21 0.11 0.14 0.20 0.20 0.39 0.30 0.14 0.24 0.14
0.51 0.34 0.33 0.25 0.17 0.15 0.17 0.20 0.20 0.09 0.01 0.00 0.00 0.00 0.01 0.03 0.07 0.09 0.14 0.12 0.13 0.16 0.16 0.15 0.36 0.51 0.53 0.28 0.15 0.06 0.16 0.62 0.58 0.70 0.46 0.19 0.05 0.09 0.11 0.09 0.21 0.29 0.20 0.19 0.20
0.86 0.52 0.29 0.19 0.17 0.20 0.20 0.25 0.18 0.02 0.00 0.00 0.00 0.00 0.01 0.00 0.03 0.03 0.02 0.03 0.02 0.02 0.11 0.37 0.69 0.64 0.31 0.22 0.13 0.13 0.14 0.29 0.32 0.21 0.33 0.11 0.11 0.14 0.15 0.11 0.15 0.23 0.27 0.19 0.28
0.52 0.76 0.32 0.17 0.22 0.22 0.20 0.32 0.18 0.00 0.00 0.00 0.00 0.00 0.01 0.00 0.02 0.07 0.06 0.05 0.03 0.04 0.17 0.32 0.72 0.31 0.08 0.02 0.03 0.03 0.01 0.04 0.06 0.04 0.11 0.16 0.11 0.16 0.14 0.16 0.15 0.21 0.30 0.17 0.12
0.34 0.50 0.42 0.25 0.32 0.29 0.32 0.31 0.04 0.00 0.00 0.00 0.00 0.00 0.00 0.00 0.01 0.03 0.03 0.03 0.05 0.04 0.09 0.16 0.39 0.11 0.01 0.01 0.00 0.00 0.00 0.01 0.02 0.03 0.04 0.05 0.02 0.07 0.10 0.10 0.10 0.09 0.14 0.13 0.10
0.33 0.62 0.84 0.51 0.51 0.42 0.39 0.22 0.01 0.00 0.00 0.00 0.00 0.00 0.00 0.00 0.02 0.01 0.05 0.09 0.02 0.03 0.02 0.00 0.08 0.11 0.01 0.00 0.00 0.00 0.00 0.00 0.00 0.00 0.00 0.01 0.02 0.00 0.01 0.03 0.03 0.04 0.08 0.05 0.04
0.37 0.74 1.06 0.54 0.47 0.36 0.29 0.05 0.00 0.00 0.00 0.00 0.00 0.00 0.00 0.00 0.00 0.01 0.01 0.01 0.00 0.00 0.00 0.00 0.00 0.01 0.00 0.00 0.00 0.00 0.00 0.00 0.00 0.00 0.00 0.00 0.00 0.00 0.00 0.00 0.00 0.00 0.01 0.00 0.00
0.46 0.81 0.92 0.40 0.32 0.25 0.06 0.01 0.00 0.00 0.00 0.00 0.00 0.00 0.00 0.00 0.01 0.01 0.00 0.00 0.00 0.00 0.00 0.00 0.00 0.01 0.01 0.02 0.00 0.00 0.00 0.00 0.00 0.00 0.00 0.00 0.00 0.00 0.00 0.00 0.00 0.00 0.00 0.00 0.00
0.47 0.56 0.62 0.46 0.17 0.07 0.02 0.01 0.00 0.00 0.00 0.00 0.00 0.00 0.00 0.00 0.00 0.00 0.00 0.00 0.00 0.00 0.00 0.00 0.00 0.00 0.01 0.01 0.00 0.00 0.00 0.00 0.00 0.00 0.00 0.00 0.00 0.00 0.00 0.00 0.00 0.00 0.00 0.00 0.00
0.43 0.29 0.21 0.19 0.03 0.02 0.02 0.00 0.00 0.00 0.00 0.00 0.00 0.00 0.00 0.00 0.00 0.00 0.00 0.00 0.00 0.00 0.00 0.00 0.00 0.00 0.00 0.00 0.00 0.00 0.00 0.00 0.00 0.00 0.00 0.00 0.00 0.00 0.00 0.00 0.00 0.00 0.00 0.00 0.00
0.29 0.21 0.15 0.01 0.00 0.04 0.00 0.00 0.00 0.00 0.00 0.00 0.00 0.00 0.00 0.00 0.00 0.00 0.00 0.00 0.00 0.00 0.00 0.00 0.00 0.00 0.00 0.00 0.00 0.00 0.00 0.00 0.00 0.00 0.00 0.00 0.00 0.00 0.00 0.00 0.00 0.00 0.00 0.00 0.00
0.25 0.07 0.02 0.00 0.00 0.01 0.00 0.00 0.00 0.00 0.00 0.00 0.00 0.00 0.00 0.00 0.00 0.00 0.00 0.00 0.00 0.00 0.00 0.00 0.00 0.00 0.00 0.00 0.00 0.00 0.00 0.00 0.00 0.00 0.00 0.00 0.00 0.00 0.00 0.00 0.00 0.00 0.00 0.00 0.00

GFSSW_prec_precacc24_087.txt.gz
Total_Precipitation_Accumulation
0.07 0.08 0.07 0.09 0.05 0.06 0.07 0.09 0.11 0.11 0.03 0.02 0.02 0.02 0.02 0.00 0.00 0.00 0.00 0.00 0.01 0.08 0.11 0.10 0.12 0.14 0.18 0.12 0.14 0.28 0.48 0.25 0.04 0.00 0.00 0.00 0.01 0.01 0.01 0.00 0.00 0.00 0.00 0.00 0.09
0.10 0.10 0.13 0.10 0.05 0.05 0.06 0.08 0.10 0.12 0.05 0.02 0.03 0.03 0.01 0.00 0.00 0.00 0.00 0.05 0.20 0.27 0.13 0.10 0.17 0.21 0.20 0.16 0.31 0.33 0.43 0.16 0.02 0.00 0.00 0.00 0.01 0.01 0.03 0.01 0.07 0.03 0.00 0.01 0.08
0.13 0.15 0.12 0.10 0.08 0.08 0.07 0.06 0.08 0.08 0.03 0.04 0.03 0.02 0.00 0.00 0.00 0.00 0.02 0.08 0.23 0.28 0.13 0.07 0.43 0.28 0.19 0.27 0.34 0.31 0.32 0.06 0.01 0.02 0.01 0.01 0.02 0.01 0.08 0.09 0.02 0.04 0.02 0.01 0.03
0.17 0.17 0.13 0.10 0.10 0.07 0.08 0.09 0.11 0.14 0.08 0.05 0.03 0.01 0.00 0.00 0.00 0.00 0.02 0.02 0.08 0.16 0.20 0.08 0.35 0.39 0.27 0.17 0.34 0.41 0.15 0.10 0.05 0.09 0.08 0.02 0.02 0.01 0.03 0.02 0.00 0.08 0.06 0.04 0.06
0.17 0.16 0.12 0.10 0.09 0.09 0.08 0.11 0.10 0.10 0.09 0.05 0.03 0.01 0.00 0.00 0.00 0.00 0.00 0.00 0.02 0.08 0.15 0.08 0.17 0.49 0.35 0.11 0.40 0.39 0.20 0.15 0.11 0.14 0.14 0.11 0.05 0.03 0.01 0.02 0.03 0.12 0.11 0.15 0.24
0.16 0.16 0.12 0.11 0.11 0.09 0.12 0.12 0.09 0.10 0.05 0.04 0.05 0.01 0.00 0.00 0.00 0.00 0.00 0.00 0.01 0.06 0.09 0.14 0.12 0.62 0.49 0.34 0.31 0.38 0.34 0.22 0.30 0.23 0.22 0.15 0.08 0.08 0.03 0.06 0.15 0.25 0.28 0.28 0.22
0.20 0.17 0.12 0.11 0.12 0.16 0.17 0.13 0.10 0.09 0.04 0.02 0.05 0.00 0.00 0.00 0.00 0.00 0.00 0.00 0.00 0.02 0.06 0.15 0.10 0.43 0.71 0.54 0.18 0.45 0.43 0.48 0.42 0.42 0.41 0.27 0.17 0.10 0.05 0.10 0.18 0.25 0.24 0.42 0.33
0.21 0.21 0.13 0.14 0.16 0.18 0.19 0.17 0.12 0.07 0.05 0.02 0.04 0.00 0.00 0.00 0.00 0.00 0.00 0.00 0.00 0.04 0.10 0.19 0.15 0.24 0.46 0.72 0.46 0.51 0.72 0.73 0.64 0.78 0.83 0.45 0.17 0.07 0.08 0.13 0.11 0.20 0.38 0.55 0.60
0.20 0.19 0.22 0.20 0.20 0.26 0.36 0.30 0.23 0.11 0.03 0.05 0.03 0.01 0.00 0.00 0.00 0.00 0.00 0.00 0.02 0.05 0.07 0.16 0.19 0.21 0.36 0.82 0.87 0.57 0.85 0.64 0.62 0.75 1.16 0.72 0.22 0.09 0.08 0.12 0.09 0.11 0.31 0.46 0.63
0.20 0.20 0.16 0.12 0.17 0.29 0.81 0.27 0.24 0.15 0.03 0.02 0.02 0.01 0.00 0.00 0.00 0.00 0.01 0.01 0.03 0.08 0.09 0.17 0.26 0.32 0.50 0.60 0.77 0.42 0.56 0.59 0.51 0.50 0.93 1.05 0.35 0.18 0.14 0.14 0.07 0.04 0.11 0.37 0.57
0.21 0.17 0.17 0.23 0.38 0.53 0.53 0.35 0.30 0.28 0.07 0.02 0.00 0.00 0.00 0.00 0.05 0.04 0.06 0.03 0.04 0.10 0.08 0.19 0.21 0.23 0.40 0.56 0.34 0.35 0.29 0.58 0.49 0.40 0.48 0.89 0.65 0.24 0.16 0.17 0.14 0.07 0.05 0.21 0.49
0.26 0.21 0.23 0.24 0.32 0.50 0.37 0.25 0.33 0.23 0.15 0.04 0.00 0.00 0.00 0.02 0.18 0.09 0.04 0.05 0.02 0.07 0.08 0.13 0.13 0.14 0.30 0.66 0.30 0.21 0.19 0.60 0.76 0.59 0.55 0.55 0.84 0.43 0.17 0.16 0.14 0.16 0.12 0.20 0.43
0.23 0.22 0.24 0.22 0.28 0.17 0.16 0.30 0.21 0.16 0.21 0.08 0.01 0.00 0.00 0.05 0.09 0.09 0.03 0.03 0.09 0.09 0.06 0.08 0.04 0.16 0.36 0.86 0.31 0.13 0.08 0.33 1.13 0.78 0.49 0.45 0.56 0.69 0.27 0.15 0.12 0.13 0.12 0.22 0.41
0.30 0.29 0.29 0.28 0.28 0.08 0.14 0.35 0.14 0.05 0.14 0.09 0.01 0.00 0.00 0.02 0.05 0.08 0.12 0.16 0.11 0.09 0.06 0.05 0.03 0.11 0.35 0.86 0.36 0.22 0.09 0.35 0.64 0.42 0.43 0.30 0.43 0.41 0.31 0.21 0.14 0.20 0.13 0.16 0.29
0.29 0.25 0.24 0.24 0.14 0.20 0.16 0.09 0.14 0.03 0.11 0.06 0.00 0.00 0.00 0.09 0.12 0.20 0.10 0.21 0.15 0.11 0.22 0.14 0.07 0.19 0.43 0.62 0.41 0.38 0.09 0.25 0.26 0.19 0.19 0.20 0.41 0.21 0.23 0.22 0.28 0.28 0.16 0.14 0.10
0.33 0.28 0.30 0.29 0.12 0.08 0.15 0.09 0.13 0.12 0.08 0.02 0.00 0.00 0.01 0.11 0.29 0.39 0.30 0.30 0.20 0.23 0.15 0.09 0.07 0.32 0.42 0.40 0.18 0.16 0.09 0.29 0.25 0.31 0.32 0.21 0.20 0.17 0.20 0.20 0.39 0.31 0.15 0.25 0.20
0.69 0.37 0.33 0.25 0.19 0.15 0.18 0.20 0.23 0.14 0.02 0.00 0.00 0.00 0.01 0.04 0.07 0.08 0.14 0.11 0.12 0.17 0.13 0.08 0.20 0.50 0.52 0.28 0.16 0.16 0.33 0.83 0.80 0.95 0.55 0.20 0.05 0.10 0.11 0.09 0.22 0.34 0.23 0.33 0.46
0.96 0.57 0.29 0.21 0.20 0.20 0.20 0.26 0.22 0.07 0.01 0.00 0.00 0.01 0.01 0.01 0.03 0.02 0.02 0.03 0.02 0.02 0.11 0.28 0.58 0.62 0.31 0.23 0.25 0.19 0.28 0.51 0.51 0.25 0.37 0.12 0.12 0.15 0.16 0.15 0.16 0.29 0.33 0.49 0.66
0.58 0.79 0.33 0.19 0.24 0.22 0.20 0.37 0.28 0.03 0.00 0.00 0.01 0.01 0.01 0.00 0.02 0.07 0.06 0.05 0.03 0.04 0.19 0.29 0.69 0.30 0.08 0.02 0.04 0.05 0.12 0.12 0.16 0.06 0.14 0.26 0.20 0.28 0.23 0.28 0.20 0.24 0.38 0.30 0.30
0.36 0.51 0.45 0.26 0.32 0.29 0.32 0.45 0.07 0.00 0.00 0.00 0.00 0.00 0.00 0.00 0.01 0.03 0.04 0.03 0.06 0.05 0.09 0.16 0.33 0.07 0.01 0.01 0.00 0.00 0.00 0.01 0.07 0.07 0.10 0.15 0.07 0.24 0.30 0.28 0.24 0.23 0.30 0.31 0.19
0.33 0.63 0.85 0.52 0.51 0.42 0.41 0.31 0.04 0.01 0.02 0.00 0.00 0.00 0.00 0.00 0.02 0.02 0.05 0.09 0.03 0.04 0.02 0.00 0.08 0.09 0.01 0.00 0.00 0.00 0.00 0.00 0.00 0.00 0.00 0.01 0.07 0.09 0.10 0.10 0.12 0.11 0.15 0.12 0.14
0.37 0.75 1.08 0.54 0.47 0.38 0.35 0.10 0.05 0.01 0.00 0.00 0.00 0.00 0.00 0.00 0.00 0.01 0.01 0.01 0.00 0.00 0.00 0.00 0.00 0.01 0.00 0.00 0.00 0.00 0.00 0.00 0.00 0.00 0.00 0.00 0.02 0.00 0.00 0.01 0.02 0.02 0.02 0.00 0.00
0.47 0.82 0.92 0.41 0.35 0.30 0.07 0.01 0.00 0.00 0.00 0.00 0.00 0.00 0.00 0.00 0.01 0.01 0.00 0.00 0.00 0.00 0.00 0.00 0.00 0.01 0.01 0.00 0.00 0.00 0.00 0.00 0.00 0.00 0.00 0.00 0.00 0.00 0.00 0.00 0.01 0.01 0.00 0.00 0.00
0.47 0.56 0.62 0.46 0.18 0.07 0.02 0.01 0.00 0.00 0.00 0.00 0.00 0.00 0.00 0.00 0.00 0.00 0.00 0.00 0.00 0.00 0.00 0.00 0.00 0.00 0.00 0.00 0.00 0.00 0.00 0.00 0.00 0.00 0.00 0.00 0.00 0.00 0.00 0.00 0.00 0.00 0.00 0.00 0.00
0.43 0.29 0.21 0.19 0.03 0.02 0.02 0.00 0.00 0.00 0.00 0.00 0.00 0.00 0.00 0.00 0.00 0.00 0.00 0.00 0.00 0.00 0.00 0.00 0.00 0.00 0.00 0.00 0.00 0.00 0.00 0.00 0.00 0.00 0.00 0.00 0.00 0.00 0.00 0.00 0.00 0.00 0.00 0.00 0.00
0.29 0.21 0.15 0.01 0.00 0.04 0.00 0.00 0.00 0.00 0.00 0.00 0.00 0.00 0.00 0.00 0.00 0.00 0.00 0.00 0.00 0.00 0.00 0.00 0.00 0.00 0.00 0.00 0.00 0.00 0.00 0.00 0.00 0.00 0.00 0.00 0.00 0.00 0.00 0.00 0.00 0.00 0.00 0.00 0.00
0.25 0.07 0.02 0.00 0.00 0.01 0.00 0.00 0.00 0.00 0.00 0.00 0.00 0.00 0.00 0.00 0.00 0.00 0.00 0.00 0.00 0.00 0.00 0.00 0.00 0.00 0.00 0.00 0.00 0.00 0.00 0.00 0.00 0.00 0.00 0.00 0.00 0.00 0.00 0.00 0.00 0.00 0.00 0.00 0.00

GFSSW_prec_precacc24_090.txt.gz
Total_Precipitation_Accumulation
0.07 0.08 0.07 0.09 0.06 0.06 0.06 0.09 0.14 0.16 0.14 0.05 0.02 0.02 0.02 0.00 0.00 0.00 0.00 0.00 0.00 0.02 0.04 0.01 0.00 0.02 0.10 0.06 0.05 0.20 0.33 0.22 0.04 0.00 0.00 0.00 0.01 0.01 0.01 0.00 0.00 0.00 0.00 0.00 0.08
0.11 0.11 0.13 0.09 0.06 0.06 0.06 0.07 0.11 0.13 0.14 0.08 0.03 0.03 0.01 0.00 0.00 0.00 0.00 0.01 0.08 0.18 0.05 0.01 0.02 0.09 0.14 0.11 0.12 0.20 0.21 0.12 0.02 0.00 0.00 0.00 0.01 0.01 0.02 0.00 0.05 0.03 0.00 0.02 0.08
0.15 0.17 0.12 0.09 0.08 0.08 0.07 0.06 0.07 0.07 0.06 0.09 0.05 0.02 0.00 0.00 0.00 0.00 0.00 0.02 0.06 0.08 0.04 0.03 0.33 0.15 0.14 0.16 0.17 0.20 0.15 0.03 0.01 0.02 0.01 0.01 0.02 0.01 0.08 0.09 0.02 0.04 0.02 0.02 0.05
0.18 0.19 0.14 0.11 0.10 0.07 0.08 0.09 0.11 0.12 0.15 0.09 0.05 0.02 0.00 0.00 0.00 0.00 0.00 0.01 0.04 0.02 0.05 0.06 0.27 0.29 0.22 0.12 0.14 0.36 0.10 0.04 0.02 0.07 0.06 0.02 0.02 0.01 0.03 0.02 0.00 0.08 0.05 0.04 0.07
0.19 0.18 0.14 0.11 0.08 0.09 0.08 0.11 0.10 0.10 0.13 0.19 0.07 0.02 0.00 0.00 0.00 0.00 0.00 0.00 0.01 0.02 0.03 0.04 0.12 0.40 0.32 0.10 0.13 0.33 0.17 0.09 0.07 0.08 0.11 0.10 0.05 0.02 0.01 0.02 0.03 0.12 0.11 0.12 0.20
0.20 0.19 0.12 0.11 0.11 0.08 0.11 0.12 0.09 0.11 0.08 0.10 0.11 0.02 0.00 0.00 0.00 0.00 0.00 0.00 0.00 0.01 0.01 0.05 0.07 0.55 0.44 0.32 0.13 0.26 0.29 0.12 0.22 0.15 0.17 0.14 0.08 0.07 0.02 0.06 0.15 0.25 0.28 0.20 0.12
0.23 0.20 0.12 0.12 0.12 0.15 0.16 0.13 0.10 0.14 0.14 0.08 0.06 0.01 0.00 0.00 0.00 0.00 0.00 0.00 0.00 0.00 0.02 0.06 0.08 0.40 0.67 0.50 0.13 0.32 0.38 0.27 0.23 0.26 0.26 0.25 0.16 0.09 0.05 0.10 0.18 0.25 0.24 0.39 0.27
0.22 0.21 0.14 0.14 0.16 0.17 0.19 0.18 0.13 0.12 0.20 0.08 0.05 0.00 0.00 0.00 0.00 0.00 0.00 0.00 0.00 0.01 0.05 0.11 0.14 0.23 0.44 0.67 0.41 0.40 0.58 0.53 0.29 0.59 0.54 0.31 0.15 0.06 0.08 0.13 0.11 0.20 0.38 0.55 0.60
0.23 0.21 0.24 0.19 0.20 0.26 0.39 0.40 0.33 0.30 0.22 0.16 0.08 0.02 0.01 0.00 0.00 0.00 0.00 0.00 0.01 0.02 0.06 0.14 0.16 0.17 0.28 0.77 0.84 0.40 0.64 0.44 0.31 0.58 0.88 0.41 0.13 0.08 0.08 0.12 0.09 0.11 0.31 0.46 0.63
0.24 0.22 0.19 0.13 0.16 0.30 1.29 0.56 0.41 0.45 0.22 0.16 0.04 0.08 0.02 0.00 0.00 0.00 0.00 0.00 0.02 0.06 0.08 0.14 0.17 0.18 0.32 0.56 0.74 0.37 0.46 0.44 0.33 0.37 0.67 0.87 0.24 0.17 0.14 0.14 0.07 0.04 0.11 0.37 0.57
0.27 0.20 0.23 0.24 0.39 0.53 0.90 0.71 0.33 0.44 0.31 0.14 0.02 0.04 0.01 0.00 0.01 0.01 0.02 0.02 0.03 0.09 0.07 0.18 0.16 0.09 0.24 0.53 0.33 0.34 0.28 0.55 0.44 0.32 0.38 0.78 0.62 0.22 0.16 0.17 0.14 0.07 0.05 0.21 0.49
0.31 0.26 0.28 0.25 0.32 0.51 0.46 0.63 0.40 0.42 0.42 0.12 0.01 0.00 0.00 0.01 0.05 0.02 0.02 0.04 0.01 0.06 0.08 0.13 0.12 0.01 0.15 0.62 0.29 0.21 0.20 0.60 0.74 0.57 0.51 0.48 0.83 0.43 0.17 0.16 0.14 0.17 0.13 0.21 0.45
0.30 0.29 0.28 0.22 0.28 0.18 0.17 0.42 0.28 0.38 0.36 0.14 0.04 0.00 0.00 0.00 0.01 0.04 0.02 0.02 0.02 0.08 0.05 0.08 0.04 0.08 0.26 0.84 0.29 0.12 0.08 0.34 1.15 0.78 0.48 0.40 0.51 0.69 0.27 0.15 0.12 0.15 0.18 0.28 0.45
0.32 0.33 0.30 0.28 0.28 0.08 0.14 0.36 0.20 0.18 0.29 0.23 0.04 0.01 0.00 0.01 0.03 0.06 0.12 0.15 0.05 0.04 0.04 0.04 0.02 0.07 0.31 0.85 0.36 0.23 0.09 0.36 0.66 0.42 0.39 0.28 0.43 0.41 0.31 0.21 0.15 0.22 0.20 0.22 0.33
0.31 0.27 0.24 0.23 0.14 0.20 0.17 0.10 0.17 0.11 0.24 0.24 0.03 0.00 0.00 0.04 0.09 0.13 0.07 0.14 0.07 0.06 0.20 0.12 0.06 0.11 0.38 0.62 0.41 0.40 0.10 0.23 0.24 0.15 0.17 0.18 0.47 0.21 0.23 0.22 0.28 0.28 0.16 0.15 0.10
0.36 0.28 0.31 0.29 0.12 0.08 0.15 0.09 0.16 0.16 0.16 0.11 0.02 0.01 0.01 0.09 0.18 0.20 0.19 0.20 0.16 0.21 0.11 0.07 0.02 0.07 0.34 0.39 0.18 0.16 0.11 0.32 0.25 0.29 0.34 0.21 0.25 0.18 0.20 0.20 0.39 0.31 0.15 0.26 0.21
0.75 0.39 0.33 0.26 0.19 0.15 0.18 0.21 0.23 0.15 0.05 0.02 0.01 0.00 0.01 0.04 0.06 0.07 0.13 0.11 0.12 0.15 0.07 0.04 0.07 0.30 0.48 0.27 0.17 0.21 0.47 0.85 0.79 0.87 0.59 0.20 0.06 0.11 0.11 0.10 0.22 0.35 0.24 0.34 0.47
1.01 0.59 0.30 0.21 0.21 0.20 0.20 0.26 0.23 0.10 0.01 0.00 0.00 0.01 0.02 0.01 0.03 0.02 0.02 0.03 0.01 0.01 0.08 0.21 0.50 0.52 0.28 0.22 0.28 0.26 0.44 0.65 0.57 0.29 0.39 0.13 0.13 0.15 0.17 0.16 0.17 0.32 0.43 0.68 0.94
0.58 0.79 0.33 0.19 0.24 0.22 0.20 0.38 0.30 0.04 0.00 0.00 0.02 0.02 0.01 0.00 0.02 0.07 0.06 0.04 0.03 0.05 0.18 0.27 0.67 0.29 0.08 0.02 0.08 0.13 0.20 0.18 0.18 0.06 0.15 0.30 0.25 0.31 0.25 0.30 0.22 0.29 0.51 0.67 0.73
0.35 0.51 0.45 0.26 0.32 0.29 0.32 0.47 0.08 0.00 0.00 0.00 0.00 0.00 0.00 0.00 0.01 0.03 0.04 0.03 0.06 0.06 0.09 0.16 0.33 0.07 0.01 0.01 0.00 0.00 0.00 0.03 0.11 0.11 0.15 0.21 0.15 0.36 0.39 0.40 0.38 0.35 0.43 0.48 0.40
0.32 0.62 0.85 0.52 0.51 0.42 0.42 0.37 0.08 0.03 0.02 0.00 0.00 0.00 0.00 0.00 0.02 0.02 0.05 0.09 0.03 0.04 0.02 0.01 0.08 0.07 0.01 0.00 0.00 0.00 0.00 0.00 0.00 0.01 0.03 0.02 0.10 0.22 0.23 0.22 0.28 0.25 0.28 0.29 0.36
0.36 0.75 1.08 0.54 0.47 0.39 0.40 0.20 0.10 0.01 0.00 0.00 0.00 0.00 0.00 0.00 0.00 0.01 0.01 0.01 0.00 0.00 0.00 0.00 0.00 0.01 0.00 0.00 0.00 0.00 0.00 0.00 0.00 0.00 0.00 0.00 0.03 0.04 0.06 0.06 0.09 0.06 0.05 0.03 0.06
0.46 0.82 0.92 0.41 0.35 0.30 0.07 0.01 0.00 0.00 0.00 0.00 0.00 0.00 0.00 0.00 0.01 0.00 0.00 0.00 0.00 0.00 0.00 0.00 0.00 0.01 0.00 0.00 0.00 0.00 0.00 0.00 0.00 0.00 0.00 0.00 0.00 0.00 0.01 0.01 0.03 0.01 0.01 0.00 0.00
0.47 0.56 0.62 0.45 0.18 0.07 0.02 0.00 0.00 0.00 0.00 0.00 0.00 0.00 0.00 0.00 0.00 0.00 0.00 0.00 0.00 0.00 0.00 0.00 0.00 0.00 0.00 0.00 0.00 0.00 0.00 0.00 0.00 0.00 0.00 0.00 0.00 0.00 0.00 0.00 0.00 0.00 0.00 0.00 0.00
0.43 0.29 0.21 0.19 0.03 0.02 0.02 0.00 0.00 0.00 0.00 0.00 0.00 0.00 0.00 0.00 0.00 0.00 0.00 0.00 0.00 0.00 0.00 0.00 0.00 0.00 0.00 0.00 0.00 0.00 0.00 0.00 0.00 0.00 0.00 0.00 0.00 0.00 0.00 0.00 0.00 0.00 0.00 0.00 0.00
0.29 0.21 0.15 0.01 0.00 0.04 0.00 0.00 0.00 0.00 0.00 0.00 0.00 0.00 0.00 0.00 0.00 0.00 0.00 0.00 0.00 0.00 0.00 0.00 0.00 0.00 0.00 0.00 0.00 0.00 0.00 0.00 0.00 0.00 0.00 0.00 0.00 0.00 0.00 0.00 0.00 0.00 0.00 0.00 0.00
0.25 0.07 0.02 0.00 0.00 0.01 0.00 0.00 0.00 0.00 0.00 0.00 0.00 0.00 0.00 0.00 0.00 0.00 0.00 0.00 0.00 0.00 0.00 0.00 0.00 0.00 0.00 0.00 0.00 0.00 0.00 0.00 0.00 0.00 0.00 0.00 0.00 0.00 0.00 0.00 0.00 0.00 0.00 0.00 0.00

GFSSW_prec_precacc24_093.txt.gz
Total_Precipitation_Accumulation
0.09 0.09 0.09 0.10 0.06 0.07 0.07 0.09 0.14 0.18 0.17 0.14 0.10 0.02 0.01 0.00 0.00 0.00 0.00 0.00 0.00 0.01 0.03 0.01 0.00 0.00 0.00 0.02 0.03 0.11 0.14 0.06 0.02 0.00 0.00 0.00 0.01 0.01 0.00 0.00 0.00 0.00 0.00 0.00 0.05
0.11 0.13 0.16 0.11 0.06 0.06 0.06 0.07 0.11 0.13 0.15 0.11 0.11 0.05 0.01 0.00 0.00 0.00 0.00 0.00 0.02 0.05 0.04 0.01 0.00 0.00 0.01 0.02 0.05 0.07 0.07 0.01 0.00 0.00 0.00 0.00 0.01 0.01 0.02 0.00 0.01 0.00 0.00 0.01 0.07
0.16 0.18 0.15 0.12 0.10 0.11 0.07 0.06 0.07 0.06 0.06 0.10 0.12 0.11 0.00 0.00 0.00 0.00 0.00 0.01 0.03 0.00 0.00 0.00 0.00 0.01 0.01 0.05 0.06 0.04 0.02 0.00 0.01 0.01 0.01 0.01 0.02 0.01 0.08 0.06 0.00 0.00 0.00 0.02 0.05
0.18 0.20 0.17 0.15 0.12 0.08 0.08 0.09 0.11 0.12 0.14 0.15 0.11 0.06 0.02 0.00 0.00 0.00 0.00 0.00 0.02 0.00 0.00 0.01 0.02 0.03 0.02 0.04 0.07 0.06 0.01 0.01 0.00 0.02 0.04 0.02 0.01 0.01 0.03 0.02 0.00 0.01 0.02 0.04 0.07
0.17 0.19 0.20 0.17 0.13 0.10 0.08 0.11 0.11 0.10 0.12 0.27 0.24 0.03 0.01 0.00 0.00 0.00 0.00 0.00 0.00 0.00 0.00 0.00 0.05 0.10 0.07 0.05 0.09 0.09 0.02 0.03 0.03 0.05 0.07 0.09 0.05 0.02 0.01 0.02 0.03 0.12 0.04 0.06 0.17
0.18 0.20 0.20 0.16 0.13 0.09 0.11 0.12 0.10 0.11 0.07 0.14 0.34 0.06 0.00 0.00 0.00 0.00 0.00 0.00 0.00 0.00 0.00 0.00 0.03 0.35 0.28 0.24 0.08 0.06 0.05 0.06 0.14 0.10 0.12 0.11 0.08 0.07 0.02 0.06 0.15 0.23 0.21 0.11 0.10
0.17 0.21 0.17 0.14 0.13 0.16 0.16 0.13 0.10 0.15 0.14 0.16 0.16 0.11 0.04 0.00 0.00 0.00 0.00 0.00 0.00 0.00 0.01 0.01 0.03 0.23 0.43 0.44 0.10 0.07 0.10 0.11 0.16 0.18 0.20 0.21 0.13 0.08 0.05 0.10 0.18 0.25 0.23 0.28 0.20
0.15 0.21 0.15 0.15 0.16 0.17 0.19 0.18 0.13 0.12 0.23 0.24 0.16 0.04 0.14 0.02 0.00 0.00 0.00 0.00 0.00 0.00 0.03 0.05 0.11 0.14 0.33 0.61 0.37 0.16 0.24 0.40 0.21 0.32 0.29 0.26 0.14 0.06 0.08 0.13 0.11 0.20 0.37 0.48 0.49
0.23 0.28 0.28 0.22 0.21 0.26 0.40 0.49 0.39 0.35 0.41 0.49 0.16 0.04 0.07 0.01 0.00 0.00 0.00 0.00 0.00 0.00 0.03 0.07 0.14 0.12 0.20 0.70 0.78 0.25 0.23 0.36 0.24 0.37 0.39 0.25 0.11 0.08 0.08 0.12 0.09 0.11 0.31 0.46 0.61
0.21 0.29 0.28 0.17 0.17 0.30 1.39 1.08 0.71 0.57 0.49 0.51 0.22 0.15 0.04 0.00 0.00 0.00 0.00 0.00 0.01 0.02 0.07 0.11 0.15 0.17 0.29 0.50 0.71 0.34 0.25 0.40 0.29 0.25 0.46 0.61 0.14 0.16 0.13 0.14 0.07 0.04 0.10 0.37 0.57
0.23 0.21 0.27 0.26 0.39 0.54 1.07 1.00 0.55 0.54 0.53 0.43 0.16 0.18 0.02 0.01 0.00 0.00 0.00 0.01 0.02 0.06 0.06 0.16 0.14 0.09 0.22 0.48 0.32 0.34 0.22 0.47 0.37 0.19 0.29 0.57 0.45 0.10 0.15 0.17 0.14 0.07 0.05 0.21 0.49
0.28 0.25 0.28 0.25 0.32 0.52 0.60 0.98 0.72 0.60 0.69 0.27 0.05 0.03 0.01 0.00 0.00 0.01 0.00 0.01 0.01 0.04 0.07 0.11 0.09 0.01 0.12 0.55 0.27 0.19 0.17 0.41 0.54 0.45 0.41 0.36 0.72 0.28 0.09 0.15 0.14 0.17 0.13 0.21 0.45
0.28 0.28 0.28 0.22 0.28 0.19 0.23 0.61 0.47 0.56 0.57 0.31 0.07 0.01 0.01 0.00 0.00 0.01 0.00 0.02 0.01 0.07 0.05 0.08 0.03 0.07 0.18 0.66 0.26 0.12 0.08 0.28 1.06 0.70 0.41 0.32 0.48 0.62 0.15 0.13 0.12 0.18 0.21 0.30 0.48
0.29 0.30 0.30 0.28 0.28 0.08 0.17 0.42 0.30 0.31 0.41 0.43 0.10 0.02 0.00 0.00 0.02 0.04 0.11 0.09 0.02 0.03 0.04 0.04 0.02 0.06 0.17 0.59 0.33 0.23 0.09 0.36 0.68 0.43 0.36 0.25 0.41 0.41 0.30 0.20 0.15 0.24 0.25 0.27 0.39
0.25 0.25 0.24 0.23 0.14 0.20 0.18 0.12 0.30 0.16 0.32 0.39 0.07 0.01 0.00 0.02 0.06 0.08 0.06 0.10 0.05 0.05 0.19 0.11 0.05 0.10 0.25 0.52 0.40 0.39 0.10 0.20 0.23 0.15 0.17 0.17 0.47 0.21 0.23 0.22 0.28 0.28 0.16 0.15 0.12
0.31 0.27 0.30 0.29 0.12 0.08 0.15 0.09 0.23 0.17 0.22 0.17 0.03 0.01 0.01 0.04 0.08 0.06 0.09 0.13 0.08 0.19 0.10 0.06 0.01 0.06 0.28 0.38 0.18 0.16 0.11 0.22 0.25 0.28 0.32 0.21 0.25 0.18 0.20 0.20 0.39 0.31 0.15 0.27 0.22
0.69 0.37 0.33 0.26 0.19 0.15 0.18 0.21 0.25 0.17 0.11 0.06 0.02 0.00 0.01 0.02 0.04 0.04 0.12 0.10 0.09 0.13 0.06 0.03 0.05 0.26 0.47 0.27 0.17 0.21 0.48 0.81 0.78 0.78 0.55 0.22 0.06 0.11 0.11 0.10 0.22 0.35 0.24 0.35 0.48
0.96 0.58 0.29 0.21 0.21 0.20 0.20 0.26 0.25 0.15 0.04 0.01 0.00 0.01 0.02 0.01 0.03 0.02 0.02 0.03 0.01 0.01 0.08 0.12 0.29 0.35 0.28 0.22 0.28 0.28 0.50 0.71 0.63 0.28 0.39 0.15 0.16 0.15 0.17 0.16 0.17 0.33 0.44 0.70 0.96
0.52 0.78 0.33 0.19 0.24 0.22 0.20 0.38 0.31 0.05 0.01 0.00 0.02 0.02 0.02 0.01 0.02 0.07 0.05 0.04 0.02 0.05 0.17 0.23 0.41 0.22 0.07 0.02 0.08 0.15 0.24 0.23 0.22 0.06 0.15 0.31 0.27 0.32 0.25 0.31 0.23 0.32 0.63 0.84 0.92
0.30 0.49 0.45 0.26 0.32 0.29 0.32 0.47 0.08 0.00 0.00 0.00 0.00 0.00 0.00 0.00 0.01 0.03 0.04 0.03 0.06 0.06 0.09 0.15 0.28 0.06 0.00 0.01 0.00 0.02 0.05 0.07 0.15 0.17 0.17 0.23 0.18 0.42 0.45 0.46 0.45 0.48 0.61 0.70 0.60
0.28 0.62 0.85 0.52 0.51 0.42 0.42 0.37 0.08 0.03 0.02 0.00 0.00 0.00 0.00 0.00 0.02 0.02 0.05 0.09 0.03 0.04 0.02 0.01 0.08 0.07 0.00 0.00 0.00 0.02 0.03 0.02 0.01 0.02 0.06 0.03 0.11 0.26 0.32 0.33 0.39 0.39 0.47 0.50 0.56
0.32 0.75 1.08 0.54 0.47 0.39 0.40 0.20 0.10 0.01 0.00 0.00 0.00 0.00 0.00 0.00 0.00 0.01 0.01 0.01 0.00 0.00 0.00 0.00 0.00 0.01 0.00 0.00 0.00 0.00 0.00 0.00 0.00 0.00 0.00 0.00 0.03 0.05 0.08 0.11 0.16 0.15 0.19 0.15 0.19
0.41 0.81 0.91 0.41 0.35 0.30 0.07 0.01 0.00 0.00 0.00 0.00 0.00 0.00 0.00 0.00 0.01 0.00 0.00 0.00 0.00 0.00 0.00 0.00 0.00 0.01 0.00 0.00 0.00 0.00 0.00 0.00 0.00 0.00 0.00 0.00 0.00 0.00 0.01 0.02 0.04 0.03 0.03 0.01 0.01
0.41 0.56 0.61 0.45 0.18 0.07 0.02 0.00 0.00 0.00 0.00 0.00 0.00 0.00 0.00 0.00 0.00 0.00 0.00 0.00 0.00 0.00 0.00 0.00 0.00 0.00 0.00 0.00 0.00 0.00 0.00 0.00 0.00 0.00 0.00 0.00 0.00 0.00 0.00 0.00 0.00 0.00 0.00 0.00 0.00
0.41 0.29 0.21 0.18 0.03 0.02 0.02 0.00 0.00 0.00 0.00 0.00 0.00 0.00 0.00 0.00 0.00 0.00 0.00 0.00 0.00 0.00 0.00 0.00 0.00 0.00 0.00 0.00 0.00 0.00 0.00 0.00 0.00 0.00 0.00 0.00 0.00 0.00 0.00 0.00 0.00 0.00 0.00 0.00 0.00
0.26 0.21 0.15 0.01 0.00 0.04 0.00 0.00 0.00 0.00 0.00 0.00 0.00 0.00 0.00 0.00 0.00 0.00 0.00 0.00 0.00 0.00 0.00 0.00 0.00 0.00 0.00 0.00 0.00 0.00 0.00 0.00 0.00 0.00 0.00 0.00 0.00 0.00 0.00 0.00 0.00 0.00 0.00 0.00 0.00
0.22 0.07 0.02 0.00 0.00 0.01 0.00 0.00 0.00 0.00 0.00 0.00 0.00 0.00 0.00 0.00 0.00 0.00 0.00 0.00 0.00 0.00 0.00 0.00 0.00 0.00 0.00 0.00 0.00 0.00 0.00 0.00 0.00 0.00 0.00 0.00 0.00 0.00 0.00 0.00 0.00 0.00 0.00 0.00 0.00

GFSSW_prec_precacc24_096.txt.gz
Total_Precipitation_Accumulation
0.08 0.09 0.11 0.13 0.08 0.06 0.07 0.09 0.13 0.17 0.16 0.14 0.17 0.22 0.03 0.00 0.00 0.00 0.00 0.00 0.00 0.00 0.02 0.01 0.00 0.00 0.00 0.00 0.01 0.05 0.06 0.01 0.00 0.00 0.00 0.00 0.01 0.01 0.00 0.00 0.00 0.00 0.00 0.00 0.03
0.08 0.12 0.16 0.14 0.10 0.08 0.07 0.07 0.11 0.13 0.15 0.11 0.11 0.23 0.07 0.00 0.00 0.00 0.00 0.00 0.01 0.02 0.01 0.00 0.00 0.00 0.00 0.00 0.01 0.03 0.01 0.00 0.00 0.00 0.00 0.00 0.01 0.01 0.01 0.00 0.00 0.00 0.00 0.00 0.05
0.12 0.12 0.12 0.12 0.14 0.18 0.12 0.07 0.07 0.06 0.06 0.09 0.14 0.22 0.11 0.00 0.00 0.00 0.00 0.00 0.02 0.00 0.00 0.00 0.00 0.00 0.00 0.01 0.01 0.01 0.00 0.00 0.00 0.00 0.00 0.00 0.01 0.01 0.05 0.02 0.00 0.00 0.00 0.02 0.04
0.11 0.13 0.14 0.16 0.17 0.18 0.15 0.11 0.11 0.12 0.14 0.14 0.19 0.21 0.06 0.00 0.00 0.00 0.00 0.00 0.02 0.00 0.00 0.00 0.00 0.01 0.01 0.00 0.00 0.02 0.00 0.00 0.00 0.00 0.01 0.00 0.00 0.01 0.02 0.01 0.00 0.00 0.01 0.04 0.07
0.08 0.13 0.16 0.17 0.18 0.18 0.12 0.13 0.10 0.10 0.12 0.28 0.37 0.21 0.03 0.03 0.00 0.00 0.00 0.00 0.00 0.00 0.00 0.00 0.00 0.01 0.01 0.00 0.01 0.02 0.00 0.00 0.00 0.00 0.01 0.06 0.03 0.01 0.01 0.02 0.02 0.05 0.03 0.06 0.16
0.11 0.14 0.16 0.15 0.19 0.17 0.16 0.14 0.10 0.11 0.08 0.14 0.45 0.24 0.02 0.03 0.01 0.00 0.00 0.00 0.00 0.00 0.00 0.00 0.00 0.04 0.09 0.02 0.02 0.01 0.01 0.01 0.01 0.02 0.03 0.05 0.05 0.05 0.01 0.04 0.08 0.09 0.06 0.03 0.09
0.10 0.15 0.13 0.11 0.14 0.18 0.19 0.14 0.10 0.15 0.15 0.16 0.46 0.20 0.17 0.01 0.01 0.00 0.00 0.00 0.00 0.00 0.00 0.00 0.01 0.05 0.15 0.11 0.03 0.02 0.05 0.05 0.01 0.03 0.07 0.13 0.08 0.04 0.01 0.07 0.13 0.15 0.18 0.20 0.14
0.08 0.12 0.11 0.12 0.17 0.18 0.19 0.18 0.13 0.13 0.23 0.26 0.46 0.15 0.36 0.07 0.01 0.00 0.00 0.00 0.00 0.00 0.00 0.01 0.05 0.06 0.16 0.25 0.22 0.11 0.17 0.13 0.02 0.05 0.10 0.20 0.06 0.03 0.02 0.06 0.09 0.12 0.25 0.37 0.32
0.14 0.20 0.23 0.24 0.23 0.26 0.40 0.50 0.43 0.37 0.42 0.61 0.41 0.14 0.19 0.15 0.06 0.00 0.00 0.00 0.00 0.00 0.00 0.05 0.08 0.07 0.11 0.35 0.64 0.24 0.18 0.07 0.05 0.06 0.21 0.16 0.06 0.04 0.04 0.07 0.07 0.08 0.27 0.40 0.55
0.10 0.20 0.25 0.17 0.18 0.30 1.39 1.20 0.98 0.62 0.57 0.73 0.42 0.23 0.15 0.17 0.07 0.00 0.00 0.00 0.00 0.02 0.04 0.09 0.10 0.13 0.08 0.23 0.61 0.34 0.17 0.08 0.11 0.07 0.33 0.36 0.10 0.14 0.12 0.11 0.05 0.03 0.09 0.33 0.52
0.13 0.13 0.21 0.24 0.40 0.54 1.09 1.45 0.86 0.58 0.63 0.70 0.42 0.25 0.04 0.04 0.01 0.00 0.00 0.00 0.02 0.05 0.05 0.13 0.10 0.07 0.04 0.25 0.31 0.34 0.20 0.12 0.15 0.11 0.22 0.41 0.27 0.08 0.14 0.16 0.14 0.06 0.05 0.19 0.45
0.15 0.15 0.20 0.23 0.32 0.52 0.64 1.39 1.05 0.83 1.07 0.61 0.15 0.08 0.02 0.02 0.00 0.00 0.00 0.01 0.01 0.02 0.06 0.09 0.06 0.01 0.07 0.47 0.26 0.19 0.16 0.22 0.31 0.34 0.36 0.29 0.40 0.15 0.06 0.15 0.13 0.16 0.13 0.21 0.45
0.14 0.15 0.18 0.18 0.28 0.20 0.28 0.77 0.77 0.77 0.80 0.64 0.21 0.10 0.05 0.04 0.01 0.00 0.00 0.01 0.01 0.04 0.04 0.06 0.02 0.07 0.17 0.64 0.24 0.11 0.08 0.23 0.75 0.53 0.34 0.26 0.33 0.36 0.10 0.10 0.12 0.17 0.22 0.34 0.53
0.12 0.17 0.22 0.26 0.27 0.09 0.22 0.59 0.52 0.40 0.50 0.63 0.19 0.05 0.00 0.00 0.02 0.01 0.05 0.03 0.02 0.02 0.04 0.03 0.01 0.06 0.17 0.54 0.32 0.23 0.09 0.36 0.62 0.43 0.31 0.23 0.35 0.33 0.20 0.13 0.14 0.24 0.27 0.31 0.41
0.12 0.09 0.18 0.21 0.13 0.21 0.24 0.22 0.41 0.19 0.40 0.60 0.16 0.02 0.00 0.01 0.04 0.05 0.03 0.05 0.03 0.05 0.17 0.09 0.05 0.10 0.23 0.28 0.29 0.39 0.10 0.21 0.24 0.17 0.20 0.16 0.46 0.21 0.22 0.20 0.26 0.28 0.17 0.16 0.16
0.19 0.14 0.24 0.25 0.09 0.08 0.16 0.12 0.25 0.17 0.30 0.26 0.05 0.01 0.01 0.03 0.04 0.03 0.05 0.04 0.04 0.17 0.08 0.04 0.01 0.06 0.10 0.14 0.15 0.16 0.11 0.21 0.26 0.31 0.35 0.20 0.25 0.18 0.20 0.20 0.39 0.30 0.15 0.27 0.23
0.49 0.23 0.26 0.21 0.16 0.15 0.18 0.22 0.25 0.18 0.13 0.08 0.03 0.00 0.01 0.02 0.03 0.03 0.08 0.03 0.06 0.11 0.05 0.02 0.05 0.22 0.34 0.23 0.16 0.21 0.49 0.70 0.71 0.70 0.53 0.21 0.07 0.11 0.11 0.10 0.23 0.36 0.24 0.35 0.48
0.72 0.43 0.20 0.16 0.19 0.20 0.20 0.26 0.27 0.17 0.05 0.01 0.00 0.01 0.02 0.01 0.03 0.01 0.02 0.02 0.01 0.01 0.08 0.12 0.28 0.33 0.27 0.20 0.28 0.29 0.51 0.73 0.64 0.27 0.35 0.15 0.19 0.16 0.17 0.16 0.18 0.34 0.45 0.71 0.96
0.31 0.63 0.27 0.16 0.23 0.22 0.20 0.38 0.32 0.06 0.01 0.00 0.02 0.02 0.02 0.01 0.01 0.06 0.05 0.03 0.02 0.05 0.17 0.20 0.31 0.19 0.07 0.02 0.09 0.17 0.28 0.25 0.27 0.10 0.17 0.31 0.28 0.33 0.26 0.31 0.23 0.33 0.64 0.88 0.97
0.13 0.37 0.37 0.25 0.32 0.29 0.32 0.48 0.08 0.00 0.00 0.00 0.00 0.00 0.00 0.00 0.01 0.03 0.04 0.03 0.06 0.05 0.09 0.14 0.24 0.05 0.00 0.01 0.01 0.05 0.09 0.12 0.22 0.22 0.19 0.24 0.20 0.49 0.51 0.50 0.51 0.57 0.75 0.82 0.69
0.09 0.43 0.77 0.51 0.51 0.42 0.42 0.37 0.08 0.03 0.02 0.00 0.00 0.00 0.00 0.00 0.02 0.02 0.05 0.09 0.03 0.04 0.02 0.01 0.07 0.03 0.00 0.00 0.00 0.02 0.04 0.03 0.04 0.05 0.10 0.04 0.13 0.31 0.36 0.36 0.44 0.48 0.59 0.62 0.68
0.14 0.60 1.01 0.54 0.47 0.39 0.40 0.20 0.10 0.01 0.00 0.00 0.00 0.00 0.00 0.00 0.00 0.01 0.01 0.01 0.00 0.00 0.00 0.00 0.00 0.00 0.00 0.00 0.00 0.00 0.00 0.00 0.00 0.00 0.00 0.00 0.04 0.05 0.09 0.12 0.19 0.23 0.25 0.24 0.31
0.22 0.66 0.87 0.41 0.35 0.30 0.07 0.01 0.00 0.00 0.00 0.00 0.00 0.00 0.00 0.00 0.01 0.00 0.00 0.00 0.00 0.00 0.00 0.00 0.00 0.01 0.00 0.00 0.00 0.00 0.00 0.00 0.00 0.00 0.00 0.00 0.00 0.01 0.01 0.02 0.05 0.05 0.05 0.03 0.01
0.22 0.41 0.57 0.44 0.17 0.07 0.02 0.00 0.00 0.00 0.00 0.00 0.00 0.00 0.00 0.00 0.00 0.00 0.00 0.00 0.00 0.00 0.00 0.00 0.00 0.00 0.00 0.00 0.00 0.00 0.00 0.00 0.00 0.00 0.00 0.00 0.00 0.00 0.00 0.00 0.00 0.00 0.00 0.00 0.00
0.22 0.21 0.19 0.18 0.03 0.02 0.02 0.00 0.00 0.00 0.00 0.00 0.00 0.00 0.00 0.00 0.00 0.00 0.00 0.00 0.00 0.00 0.00 0.00 0.00 0.00 0.00 0.00 0.00 0.00 0.00 0.00 0.00 0.00 0.00 0.00 0.00 0.00 0.00 0.00 0.00 0.00 0.00 0.00 0.00
0.12 0.17 0.14 0.01 0.00 0.04 0.00 0.00 0.00 0.00 0.00 0.00 0.00 0.00 0.00 0.00 0.00 0.00 0.00 0.00 0.00 0.00 0.00 0.00 0.00 0.00 0.00 0.00 0.00 0.00 0.00 0.00 0.00 0.00 0.00 0.00 0.00 0.00 0.00 0.00 0.00 0.00 0.00 0.00 0.00
0.05 0.05 0.02 0.00 0.00 0.01 0.00 0.00 0.00 0.00 0.00 0.00 0.00 0.00 0.00 0.00 0.00 0.00 0.00 0.00 0.00 0.00 0.00 0.00 0.00 0.00 0.00 0.00 0.00 0.00 0.00 0.00 0.00 0.00 0.00 0.00 0.00 0.00 0.00 0.00 0.00 0.00 0.00 0.00 0.00

GFSSW_prec_precacc24_099.txt.gz
Total_Precipitation_Accumulation
0.06 0.07 0.09 0.13 0.09 0.08 0.08 0.09 0.13 0.17 0.16 0.13 0.16 0.30 0.31 0.04 0.00 0.00 0.00 0.00 0.00 0.00 0.01 0.01 0.00 0.00 0.00 0.00 0.00 0.02 0.03 0.01 0.00 0.00 0.00 0.00 0.00 0.00 0.00 0.00 0.00 0.00 0.00 0.00 0.01
0.06 0.10 0.14 0.12 0.10 0.10 0.10 0.09 0.11 0.13 0.15 0.11 0.09 0.24 0.35 0.08 0.00 0.00 0.00 0.00 0.00 0.01 0.00 0.00 0.00 0.00 0.00 0.00 0.00 0.01 0.01 0.00 0.00 0.00 0.00 0.00 0.00 0.00 0.00 0.00 0.00 0.00 0.00 0.00 0.02
0.08 0.08 0.10 0.10 0.13 0.20 0.17 0.09 0.10 0.06 0.06 0.09 0.12 0.23 0.18 0.12 0.01 0.00 0.00 0.00 0.01 0.00 0.00 0.00 0.00 0.00 0.00 0.01 0.00 0.00 0.00 0.00 0.00 0.00 0.00 0.00 0.00 0.00 0.00 0.00 0.00 0.00 0.00 0.02 0.04
0.07 0.08 0.10 0.14 0.15 0.17 0.18 0.14 0.12 0.12 0.14 0.14 0.19 0.28 0.09 0.04 0.03 0.00 0.00 0.00 0.02 0.00 0.00 0.00 0.00 0.00 0.00 0.00 0.00 0.01 0.00 0.00 0.00 0.00 0.00 0.00 0.00 0.00 0.00 0.00 0.00 0.00 0.01 0.04 0.07
0.06 0.08 0.13 0.15 0.16 0.16 0.15 0.21 0.18 0.13 0.12 0.28 0.36 0.33 0.07 0.06 0.01 0.00 0.00 0.00 0.00 0.00 0.00 0.00 0.00 0.00 0.00 0.00 0.00 0.00 0.00 0.00 0.00 0.00 0.00 0.02 0.01 0.00 0.00 0.00 0.01 0.02 0.02 0.06 0.16
0.11 0.11 0.14 0.12 0.16 0.21 0.19 0.22 0.25 0.16 0.09 0.15 0.44 0.45 0.20 0.07 0.04 0.00 0.00 0.00 0.00 0.00 0.00 0.00 0.00 0.00 0.00 0.00 0.01 0.00 0.00 0.00 0.00 0.00 0.00 0.01 0.02 0.04 0.00 0.00 0.00 0.01 0.00 0.02 0.09
0.12 0.13 0.10 0.09 0.14 0.26 0.23 0.19 0.18 0.16 0.16 0.17 0.48 0.28 0.36 0.11 0.05 0.03 0.00 0.00 0.00 0.00 0.00 0.00 0.00 0.01 0.02 0.01 0.02 0.01 0.01 0.01 0.00 0.00 0.00 0.04 0.03 0.01 0.00 0.00 0.00 0.04 0.07 0.10 0.08
0.13 0.09 0.08 0.14 0.18 0.20 0.18 0.18 0.13 0.13 0.23 0.25 0.61 0.32 0.55 0.16 0.01 0.01 0.00 0.00 0.00 0.00 0.00 0.00 0.02 0.03 0.02 0.03 0.08 0.08 0.08 0.04 0.00 0.00 0.00 0.08 0.02 0.00 0.00 0.00 0.00 0.01 0.11 0.17 0.14
0.25 0.16 0.12 0.21 0.24 0.27 0.40 0.50 0.44 0.39 0.42 0.60 0.62 0.55 0.31 0.32 0.10 0.01 0.00 0.00 0.00 0.00 0.00 0.02 0.06 0.05 0.06 0.11 0.23 0.13 0.06 0.02 0.02 0.00 0.02 0.06 0.02 0.00 0.00 0.00 0.00 0.01 0.12 0.18 0.34
0.34 0.14 0.16 0.14 0.15 0.29 1.39 1.20 1.08 0.74 0.58 0.76 0.64 0.65 0.26 0.40 0.13 0.00 0.00 0.00 0.00 0.02 0.04 0.06 0.09 0.07 0.04 0.13 0.22 0.28 0.13 0.06 0.08 0.03 0.09 0.11 0.05 0.10 0.08 0.04 0.01 0.01 0.03 0.18 0.29
0.15 0.09 0.13 0.14 0.35 0.52 1.09 1.55 1.05 0.64 0.70 0.85 0.63 0.49 0.09 0.10 0.03 0.00 0.00 0.00 0.02 0.05 0.04 0.12 0.08 0.03 0.03 0.05 0.10 0.30 0.19 0.11 0.10 0.08 0.12 0.13 0.07 0.05 0.10 0.11 0.11 0.04 0.03 0.15 0.35
0.15 0.10 0.08 0.11 0.26 0.50 0.64 1.54 1.22 0.92 1.38 0.86 0.29 0.21 0.05 0.03 0.01 0.00 0.00 0.01 0.01 0.02 0.05 0.08 0.04 0.00 0.02 0.05 0.14 0.18 0.15 0.19 0.23 0.16 0.17 0.13 0.14 0.09 0.05 0.12 0.11 0.14 0.11 0.20 0.42
0.13 0.11 0.07 0.08 0.23 0.18 0.30 0.96 0.89 0.84 1.02 1.10 0.54 0.26 0.09 0.05 0.01 0.00 0.00 0.01 0.01 0.01 0.02 0.04 0.01 0.06 0.12 0.29 0.17 0.10 0.08 0.21 0.57 0.28 0.14 0.14 0.15 0.26 0.07 0.08 0.09 0.16 0.20 0.34 0.53
0.12 0.13 0.07 0.11 0.25 0.10 0.28 0.76 0.60 0.44 0.59 0.95 0.36 0.14 0.02 0.01 0.02 0.01 0.01 0.02 0.01 0.01 0.03 0.02 0.01 0.05 0.16 0.53 0.29 0.22 0.09 0.36 0.55 0.35 0.19 0.12 0.23 0.27 0.15 0.08 0.12 0.22 0.25 0.30 0.42
0.12 0.07 0.06 0.11 0.13 0.26 0.36 0.34 0.46 0.20 0.46 0.76 0.23 0.04 0.00 0.01 0.03 0.04 0.01 0.01 0.02 0.04 0.11 0.07 0.03 0.09 0.23 0.28 0.29 0.38 0.10 0.21 0.24 0.17 0.19 0.12 0.44 0.19 0.18 0.13 0.21 0.26 0.14 0.14 0.16
0.19 0.10 0.08 0.12 0.07 0.08 0.15 0.14 0.26 0.18 0.38 0.35 0.09 0.03 0.02 0.03 0.03 0.02 0.02 0.01 0.03 0.10 0.05 0.03 0.01 0.05 0.06 0.01 0.15 0.15 0.11 0.21 0.26 0.33 0.34 0.15 0.25 0.18 0.20 0.17 0.31 0.26 0.14 0.26 0.23
0.48 0.13 0.10 0.15 0.10 0.06 0.14 0.22 0.25 0.20 0.20 0.13 0.05 0.01 0.01 0.02 0.02 0.02 0.01 0.01 0.04 0.08 0.03 0.02 0.04 0.17 0.09 0.14 0.15 0.21 0.51 0.68 0.67 0.67 0.47 0.19 0.08 0.10 0.11 0.09 0.21 0.33 0.23 0.35 0.49
0.61 0.23 0.10 0.13 0.11 0.14 0.20 0.25 0.28 0.20 0.06 0.01 0.00 0.01 0.02 0.01 0.01 0.01 0.01 0.01 0.00 0.01 0.07 0.12 0.24 0.25 0.17 0.16 0.24 0.29 0.52 0.74 0.63 0.25 0.28 0.15 0.21 0.17 0.18 0.16 0.18 0.34 0.44 0.70 0.97
0.15 0.24 0.19 0.09 0.12 0.18 0.20 0.38 0.33 0.06 0.01 0.00 0.02 0.02 0.02 0.01 0.00 0.02 0.01 0.02 0.02 0.05 0.17 0.19 0.29 0.18 0.07 0.02 0.09 0.19 0.30 0.27 0.28 0.09 0.16 0.30 0.30 0.36 0.34 0.36 0.26 0.35 0.67 0.93 1.02
0.06 0.25 0.27 0.10 0.21 0.27 0.31 0.48 0.08 0.00 0.00 0.00 0.00 0.00 0.00 0.00 0.01 0.02 0.03 0.03 0.03 0.05 0.09 0.13 0.23 0.05 0.00 0.01 0.01 0.05 0.09 0.14 0.26 0.25 0.19 0.24 0.23 0.57 0.59 0.56 0.57 0.64 0.84 0.92 0.83
0.02 0.28 0.56 0.36 0.45 0.39 0.41 0.37 0.08 0.03 0.02 0.00 0.00 0.00 0.00 0.00 0.02 0.02 0.05 0.08 0.02 0.04 0.02 0.01 0.07 0.02 0.00 0.00 0.00 0.02 0.04 0.03 0.05 0.07 0.12 0.05 0.14 0.36 0.45 0.41 0.46 0.52 0.65 0.71 0.79
0.05 0.45 0.78 0.46 0.43 0.37 0.40 0.20 0.10 0.01 0.00 0.00 0.00 0.00 0.00 0.00 0.00 0.01 0.01 0.01 0.00 0.00 0.00 0.00 0.00 0.00 0.00 0.00 0.00 0.00 0.00 0.00 0.00 0.00 0.00 0.00 0.04 0.05 0.11 0.14 0.20 0.25 0.28 0.29 0.38
0.10 0.44 0.63 0.35 0.31 0.29 0.07 0.01 0.00 0.00 0.00 0.00 0.00 0.00 0.00 0.00 0.01 0.00 0.00 0.00 0.00 0.00 0.00 0.00 0.00 0.01 0.00 0.00 0.00 0.00 0.00 0.00 0.00 0.00 0.00 0.00 0.00 0.01 0.01 0.02 0.05 0.05 0.05 0.03 0.01
0.07 0.24 0.37 0.34 0.15 0.07 0.02 0.00 0.00 0.00 0.00 0.00 0.00 0.00 0.00 0.00 0.00 0.00 0.00 0.00 0.00 0.00 0.00 0.00 0.00 0.00 0.00 0.00 0.00 0.00 0.00 0.00 0.00 0.00 0.00 0.00 0.00 0.00 0.00 0.00 0.00 0.00 0.00 0.00 0.00
0.08 0.13 0.12 0.14 0.02 0.02 0.01 0.00 0.00 0.00 0.00 0.00 0.00 0.00 0.00 0.00 0.00 0.00 0.00 0.00 0.00 0.00 0.00 0.00 0.00 0.00 0.00 0.00 0.00 0.00 0.00 0.00 0.00 0.00 0.00 0.00 0.00 0.00 0.00 0.00 0.00 0.00 0.00 0.00 0.00
0.04 0.07 0.06 0.01 0.00 0.04 0.00 0.00 0.00 0.00 0.00 0.00 0.00 0.00 0.00 0.00 0.00 0.00 0.00 0.00 0.00 0.00 0.00 0.00 0.00 0.00 0.00 0.00 0.00 0.00 0.00 0.00 0.00 0.00 0.00 0.00 0.00 0.00 0.00 0.00 0.00 0.00 0.00 0.00 0.00
0.01 0.01 0.01 0.00 0.00 0.01 0.00 0.00 0.00 0.00 0.00 0.00 0.00 0.00 0.00 0.00 0.00 0.00 0.00 0.00 0.00 0.00 0.00 0.00 0.00 0.00 0.00 0.00 0.00 0.00 0.00 0.00 0.00 0.00 0.00 0.00 0.00 0.00 0.00 0.00 0.00 0.00 0.00 0.00 0.00

GFSSW_prec_precacc24_102.txt.gz
Total_Precipitation_Accumulation
0.05 0.06 0.09 0.12 0.09 0.09 0.09 0.10 0.13 0.17 0.16 0.13 0.16 0.29 0.36 0.17 0.00 0.00 0.00 0.00 0.00 0.00 0.00 0.00 0.00 0.00 0.00 0.00 0.00 0.00 0.01 0.00 0.00 0.00 0.00 0.00 0.00 0.00 0.00 0.00 0.00 0.00 0.00 0.00 0.01
0.06 0.09 0.15 0.15 0.13 0.10 0.11 0.14 0.14 0.13 0.14 0.11 0.09 0.23 0.35 0.13 0.01 0.00 0.00 0.00 0.00 0.00 0.00 0.00 0.00 0.00 0.00 0.00 0.00 0.00 0.00 0.00 0.00 0.00 0.00 0.00 0.00 0.00 0.00 0.00 0.00 0.00 0.00 0.00 0.02
0.09 0.09 0.09 0.09 0.11 0.18 0.17 0.09 0.12 0.08 0.06 0.09 0.12 0.23 0.20 0.16 0.06 0.00 0.00 0.00 0.01 0.00 0.00 0.00 0.00 0.00 0.00 0.00 0.00 0.00 0.00 0.00 0.00 0.00 0.00 0.00 0.00 0.00 0.00 0.00 0.00 0.00 0.00 0.02 0.04
0.10 0.08 0.09 0.12 0.13 0.17 0.19 0.16 0.15 0.14 0.15 0.14 0.18 0.29 0.11 0.09 0.13 0.00 0.00 0.00 0.01 0.00 0.00 0.00 0.00 0.00 0.00 0.00 0.00 0.00 0.00 0.00 0.00 0.00 0.00 0.00 0.00 0.00 0.00 0.00 0.00 0.00 0.01 0.02 0.07
0.08 0.11 0.14 0.15 0.14 0.15 0.18 0.26 0.25 0.19 0.16 0.28 0.36 0.37 0.08 0.09 0.08 0.00 0.03 0.01 0.00 0.00 0.00 0.00 0.00 0.00 0.00 0.00 0.00 0.00 0.00 0.00 0.00 0.00 0.00 0.00 0.00 0.00 0.00 0.00 0.00 0.01 0.02 0.04 0.16
0.12 0.11 0.14 0.11 0.13 0.21 0.20 0.23 0.29 0.25 0.15 0.16 0.44 0.51 0.22 0.11 0.05 0.01 0.00 0.00 0.00 0.00 0.00 0.00 0.00 0.00 0.00 0.00 0.00 0.00 0.00 0.00 0.00 0.00 0.00 0.00 0.00 0.00 0.00 0.00 0.00 0.00 0.00 0.01 0.09
0.17 0.17 0.11 0.08 0.13 0.22 0.23 0.20 0.19 0.23 0.22 0.22 0.48 0.37 0.46 0.22 0.05 0.03 0.00 0.00 0.00 0.00 0.00 0.00 0.00 0.00 0.00 0.00 0.00 0.00 0.01 0.00 0.00 0.00 0.00 0.00 0.00 0.00 0.00 0.00 0.00 0.00 0.00 0.01 0.08
0.35 0.18 0.07 0.12 0.14 0.16 0.18 0.19 0.13 0.13 0.23 0.26 0.62 0.47 0.73 0.43 0.02 0.01 0.00 0.00 0.00 0.00 0.00 0.00 0.00 0.01 0.01 0.01 0.02 0.03 0.03 0.02 0.00 0.00 0.00 0.03 0.01 0.00 0.00 0.00 0.00 0.00 0.00 0.00 0.08
0.57 0.29 0.11 0.13 0.15 0.23 0.37 0.49 0.44 0.41 0.43 0.62 0.74 0.78 0.59 0.60 0.11 0.01 0.00 0.00 0.00 0.00 0.00 0.00 0.03 0.03 0.04 0.05 0.05 0.02 0.02 0.01 0.00 0.00 0.01 0.02 0.00 0.00 0.00 0.00 0.00 0.00 0.00 0.00 0.10
0.54 0.24 0.17 0.11 0.10 0.24 1.37 1.20 1.19 0.84 0.65 0.79 0.95 0.96 0.60 0.59 0.14 0.00 0.00 0.00 0.00 0.01 0.03 0.03 0.05 0.04 0.02 0.07 0.07 0.07 0.11 0.05 0.03 0.01 0.06 0.06 0.01 0.06 0.07 0.04 0.00 0.00 0.00 0.01 0.07
0.16 0.09 0.14 0.05 0.27 0.47 1.07 1.55 1.09 0.69 0.73 0.95 0.90 0.74 0.31 0.16 0.03 0.00 0.00 0.00 0.01 0.04 0.03 0.09 0.06 0.03 0.01 0.01 0.01 0.07 0.11 0.08 0.04 0.02 0.10 0.04 0.01 0.02 0.09 0.11 0.10 0.03 0.00 0.03 0.13
0.16 0.11 0.09 0.01 0.15 0.47 0.62 1.52 1.24 0.95 1.46 1.13 0.48 0.47 0.15 0.04 0.01 0.00 0.00 0.01 0.01 0.02 0.04 0.06 0.03 0.00 0.01 0.02 0.04 0.05 0.10 0.12 0.18 0.11 0.13 0.10 0.04 0.01 0.05 0.09 0.09 0.14 0.09 0.13 0.29
0.12 0.12 0.08 0.01 0.08 0.16 0.30 0.97 0.93 0.87 1.21 1.40 0.87 0.52 0.22 0.07 0.01 0.00 0.00 0.01 0.01 0.01 0.01 0.02 0.01 0.05 0.05 0.09 0.10 0.03 0.06 0.19 0.49 0.19 0.13 0.11 0.07 0.06 0.03 0.04 0.06 0.12 0.19 0.30 0.47
0.10 0.13 0.08 0.03 0.12 0.10 0.30 0.80 0.63 0.46 0.72 1.26 0.60 0.34 0.11 0.01 0.02 0.01 0.00 0.02 0.01 0.01 0.02 0.01 0.00 0.03 0.09 0.22 0.24 0.20 0.08 0.30 0.36 0.22 0.16 0.06 0.08 0.02 0.02 0.02 0.05 0.18 0.25 0.28 0.38
0.10 0.06 0.05 0.06 0.10 0.30 0.41 0.37 0.48 0.20 0.50 0.92 0.32 0.08 0.03 0.01 0.02 0.03 0.01 0.01 0.01 0.02 0.05 0.03 0.01 0.08 0.22 0.16 0.25 0.36 0.07 0.16 0.19 0.16 0.19 0.03 0.33 0.07 0.06 0.05 0.12 0.24 0.12 0.11 0.14
0.17 0.08 0.06 0.07 0.05 0.09 0.16 0.14 0.26 0.17 0.43 0.47 0.19 0.06 0.02 0.03 0.03 0.02 0.01 0.01 0.01 0.02 0.02 0.02 0.01 0.05 0.06 0.01 0.12 0.11 0.10 0.20 0.26 0.33 0.32 0.05 0.22 0.14 0.14 0.15 0.29 0.26 0.11 0.22 0.21
0.47 0.11 0.05 0.07 0.06 0.04 0.08 0.20 0.23 0.20 0.24 0.16 0.07 0.01 0.01 0.02 0.02 0.01 0.00 0.01 0.02 0.06 0.02 0.01 0.02 0.00 0.00 0.09 0.09 0.20 0.51 0.67 0.66 0.67 0.37 0.13 0.06 0.09 0.11 0.10 0.21 0.31 0.18 0.32 0.47
0.51 0.19 0.03 0.07 0.09 0.06 0.12 0.24 0.24 0.20 0.07 0.02 0.00 0.01 0.02 0.01 0.01 0.01 0.01 0.01 0.00 0.01 0.07 0.11 0.13 0.03 0.09 0.13 0.24 0.30 0.54 0.75 0.63 0.23 0.18 0.12 0.19 0.16 0.20 0.19 0.18 0.30 0.36 0.67 0.95
0.12 0.14 0.06 0.06 0.07 0.06 0.17 0.35 0.32 0.06 0.01 0.00 0.02 0.02 0.02 0.01 0.00 0.00 0.00 0.02 0.01 0.04 0.16 0.17 0.18 0.05 0.01 0.01 0.10 0.21 0.32 0.28 0.29 0.08 0.15 0.29 0.30 0.37 0.38 0.39 0.27 0.35 0.61 0.88 1.02
0.06 0.10 0.11 0.04 0.07 0.15 0.26 0.45 0.08 0.00 0.00 0.00 0.00 0.00 0.00 0.00 0.01 0.01 0.03 0.01 0.01 0.04 0.08 0.13 0.22 0.04 0.00 0.01 0.01 0.05 0.10 0.15 0.27 0.25 0.18 0.23 0.24 0.60 0.64 0.59 0.58 0.65 0.86 0.95 0.89
0.01 0.16 0.28 0.11 0.23 0.27 0.33 0.36 0.08 0.03 0.02 0.00 0.00 0.00 0.00 0.00 0.02 0.02 0.02 0.01 0.01 0.04 0.02 0.01 0.07 0.02 0.00 0.00 0.00 0.02 0.04 0.03 0.05 0.07 0.13 0.05 0.14 0.38 0.49 0.43 0.47 0.54 0.68 0.76 0.85
0.00 0.34 0.51 0.24 0.25 0.29 0.38 0.20 0.10 0.01 0.00 0.00 0.00 0.00 0.00 0.00 0.00 0.01 0.01 0.01 0.00 0.00 0.00 0.00 0.00 0.00 0.00 0.00 0.00 0.00 0.00 0.00 0.00 0.00 0.00 0.01 0.04 0.05 0.11 0.14 0.20 0.25 0.28 0.30 0.39
0.02 0.29 0.35 0.19 0.18 0.27 0.07 0.01 0.00 0.00 0.00 0.00 0.00 0.00 0.00 0.00 0.01 0.00 0.00 0.00 0.00 0.00 0.00 0.00 0.00 0.01 0.00 0.00 0.00 0.00 0.00 0.00 0.00 0.00 0.00 0.00 0.00 0.01 0.01 0.02 0.06 0.06 0.05 0.03 0.01
0.01 0.10 0.16 0.13 0.08 0.07 0.01 0.00 0.00 0.00 0.00 0.00 0.00 0.00 0.00 0.00 0.00 0.00 0.00 0.00 0.00 0.00 0.00 0.00 0.00 0.00 0.00 0.00 0.00 0.00 0.00 0.00 0.00 0.00 0.00 0.00 0.00 0.00 0.00 0.00 0.00 0.00 0.00 0.00 0.00
0.02 0.03 0.05 0.07 0.01 0.01 0.00 0.00 0.00 0.00 0.00 0.00 0.00 0.00 0.00 0.00 0.00 0.00 0.00 0.00 0.00 0.00 0.00 0.00 0.00 0.00 0.00 0.00 0.00 0.00 0.00 0.00 0.00 0.00 0.00 0.00 0.00 0.00 0.00 0.00 0.00 0.00 0.00 0.00 0.00
0.00 0.01 0.00 0.00 0.00 0.00 0.00 0.00 0.00 0.00 0.00 0.00 0.00 0.00 0.00 0.00 0.00 0.00 0.00 0.00 0.00 0.00 0.00 0.00 0.00 0.00 0.00 0.00 0.00 0.00 0.00 0.00 0.00 0.00 0.00 0.00 0.00 0.00 0.00 0.00 0.00 0.00 0.00 0.00 0.00
0.00 0.00 0.00 0.00 0.00 0.00 0.00 0.00 0.00 0.00 0.00 0.00 0.00 0.00 0.00 0.00 0.00 0.00 0.00 0.00 0.00 0.00 0.00 0.00 0.00 0.00 0.00 0.00 0.00 0.00 0.00 0.00 0.00 0.00 0.00 0.00 0.00 0.00 0.00 0.00 0.00 0.00 0.00 0.00 0.00

GFSSW_prec_precacc24_105.txt.gz
Total_Precipitation_Accumulation
0.08 0.05 0.07 0.11 0.09 0.07 0.09 0.11 0.16 0.17 0.16 0.13 0.16 0.29 0.37 0.20 0.00 0.00 0.00 0.00 0.00 0.00 0.00 0.00 0.00 0.00 0.00 0.00 0.00 0.00 0.00 0.00 0.00 0.00 0.00 0.00 0.00 0.00 0.00 0.00 0.00 0.00 0.00 0.00 0.01
0.06 0.08 0.14 0.19 0.16 0.14 0.11 0.14 0.16 0.15 0.14 0.11 0.09 0.23 0.36 0.13 0.01 0.00 0.00 0.00 0.00 0.00 0.00 0.00 0.00 0.00 0.00 0.00 0.00 0.00 0.00 0.00 0.00 0.00 0.00 0.00 0.00 0.00 0.00 0.00 0.00 0.00 0.00 0.00 0.02
0.09 0.09 0.09 0.10 0.13 0.18 0.15 0.09 0.13 0.11 0.07 0.09 0.12 0.24 0.22 0.16 0.06 0.00 0.00 0.00 0.00 0.00 0.00 0.00 0.00 0.00 0.00 0.00 0.00 0.00 0.00 0.00 0.00 0.00 0.00 0.00 0.00 0.00 0.00 0.00 0.00 0.00 0.00 0.01 0.04
0.11 0.10 0.10 0.11 0.12 0.15 0.17 0.16 0.17 0.15 0.16 0.14 0.18 0.31 0.15 0.12 0.15 0.00 0.00 0.00 0.00 0.00 0.00 0.00 0.00 0.00 0.00 0.00 0.00 0.00 0.00 0.00 0.00 0.00 0.00 0.00 0.00 0.00 0.00 0.00 0.00 0.00 0.00 0.00 0.05
0.11 0.13 0.17 0.16 0.13 0.13 0.16 0.24 0.26 0.25 0.19 0.28 0.36 0.40 0.11 0.14 0.09 0.00 0.03 0.01 0.00 0.00 0.00 0.00 0.00 0.00 0.00 0.00 0.00 0.00 0.00 0.00 0.00 0.00 0.00 0.00 0.00 0.00 0.00 0.00 0.00 0.00 0.01 0.01 0.02
0.19 0.16 0.15 0.10 0.13 0.18 0.15 0.18 0.29 0.26 0.17 0.17 0.45 0.56 0.24 0.15 0.06 0.01 0.00 0.00 0.00 0.00 0.00 0.00 0.00 0.00 0.00 0.00 0.00 0.00 0.00 0.00 0.00 0.00 0.00 0.00 0.00 0.00 0.00 0.00 0.00 0.00 0.00 0.00 0.01
0.31 0.27 0.17 0.09 0.09 0.14 0.18 0.18 0.17 0.22 0.23 0.23 0.49 0.40 0.50 0.27 0.07 0.06 0.00 0.00 0.00 0.00 0.00 0.00 0.00 0.00 0.00 0.00 0.00 0.00 0.00 0.00 0.00 0.00 0.00 0.00 0.00 0.00 0.00 0.00 0.00 0.00 0.00 0.00 0.00
0.53 0.27 0.09 0.12 0.09 0.06 0.15 0.16 0.11 0.13 0.25 0.27 0.65 0.52 0.78 0.59 0.08 0.05 0.00 0.00 0.00 0.00 0.00 0.00 0.00 0.00 0.00 0.00 0.00 0.00 0.00 0.00 0.00 0.00 0.00 0.02 0.01 0.00 0.00 0.00 0.00 0.00 0.00 0.00 0.00
0.71 0.33 0.11 0.13 0.08 0.10 0.31 0.44 0.42 0.40 0.46 0.64 0.78 0.98 0.70 0.95 0.17 0.01 0.00 0.00 0.00 0.00 0.00 0.00 0.00 0.00 0.01 0.02 0.03 0.01 0.01 0.00 0.00 0.00 0.01 0.01 0.00 0.00 0.00 0.00 0.00 0.00 0.00 0.00 0.00
0.55 0.25 0.17 0.11 0.05 0.15 1.32 1.20 1.25 0.90 0.71 0.80 1.01 1.20 0.85 0.92 0.18 0.00 0.00 0.00 0.00 0.00 0.00 0.01 0.02 0.02 0.01 0.03 0.03 0.00 0.03 0.02 0.02 0.01 0.06 0.06 0.00 0.01 0.03 0.01 0.00 0.00 0.00 0.00 0.00
0.17 0.10 0.14 0.03 0.03 0.33 1.06 1.55 1.10 0.71 0.74 0.97 1.05 0.91 0.51 0.38 0.05 0.00 0.00 0.00 0.00 0.00 0.00 0.03 0.03 0.02 0.00 0.00 0.00 0.00 0.01 0.01 0.00 0.01 0.10 0.03 0.00 0.01 0.08 0.10 0.09 0.03 0.00 0.01 0.05
0.17 0.11 0.08 0.01 0.02 0.24 0.61 1.51 1.22 0.95 1.53 1.41 0.65 0.57 0.31 0.12 0.04 0.00 0.00 0.00 0.00 0.00 0.01 0.04 0.02 0.00 0.00 0.02 0.03 0.03 0.05 0.02 0.02 0.02 0.11 0.08 0.01 0.00 0.04 0.09 0.08 0.12 0.07 0.07 0.22
0.13 0.16 0.08 0.02 0.02 0.06 0.29 0.98 0.93 0.87 1.36 1.63 1.02 0.64 0.32 0.10 0.02 0.00 0.00 0.00 0.00 0.00 0.01 0.01 0.01 0.04 0.02 0.02 0.06 0.03 0.04 0.02 0.24 0.09 0.04 0.07 0.03 0.05 0.03 0.04 0.05 0.11 0.18 0.26 0.41
0.08 0.14 0.07 0.03 0.04 0.05 0.31 0.83 0.63 0.48 0.81 1.57 0.79 0.47 0.16 0.02 0.02 0.00 0.00 0.00 0.00 0.00 0.01 0.01 0.00 0.01 0.03 0.07 0.18 0.11 0.01 0.22 0.24 0.17 0.12 0.04 0.05 0.01 0.01 0.01 0.02 0.11 0.21 0.25 0.32
0.07 0.05 0.04 0.04 0.06 0.16 0.39 0.38 0.48 0.20 0.57 1.10 0.46 0.18 0.06 0.02 0.02 0.02 0.00 0.00 0.00 0.01 0.02 0.01 0.00 0.05 0.10 0.06 0.18 0.21 0.03 0.10 0.12 0.10 0.17 0.03 0.30 0.01 0.00 0.00 0.03 0.06 0.04 0.07 0.11
0.12 0.05 0.05 0.04 0.03 0.08 0.16 0.10 0.25 0.16 0.51 0.59 0.25 0.09 0.02 0.02 0.02 0.01 0.00 0.00 0.00 0.01 0.01 0.00 0.00 0.03 0.03 0.00 0.11 0.07 0.07 0.17 0.22 0.28 0.24 0.01 0.18 0.06 0.01 0.03 0.08 0.10 0.02 0.19 0.21
0.37 0.07 0.03 0.04 0.04 0.03 0.06 0.08 0.18 0.20 0.26 0.18 0.10 0.01 0.01 0.02 0.01 0.00 0.00 0.00 0.01 0.04 0.01 0.00 0.00 0.00 0.00 0.00 0.03 0.18 0.46 0.62 0.60 0.57 0.24 0.04 0.04 0.04 0.02 0.07 0.06 0.13 0.14 0.31 0.43
0.31 0.13 0.02 0.04 0.06 0.03 0.01 0.10 0.19 0.21 0.07 0.02 0.01 0.01 0.01 0.01 0.00 0.00 0.00 0.00 0.00 0.01 0.06 0.05 0.05 0.01 0.07 0.06 0.22 0.27 0.51 0.71 0.58 0.17 0.13 0.10 0.15 0.11 0.14 0.15 0.08 0.23 0.36 0.65 0.85
0.09 0.10 0.03 0.04 0.03 0.01 0.03 0.24 0.30 0.06 0.01 0.00 0.02 0.02 0.01 0.00 0.00 0.00 0.00 0.01 0.01 0.04 0.13 0.06 0.03 0.01 0.01 0.01 0.09 0.21 0.32 0.29 0.30 0.08 0.15 0.27 0.28 0.36 0.37 0.37 0.25 0.34 0.60 0.86 0.98
0.05 0.06 0.05 0.02 0.02 0.02 0.10 0.35 0.06 0.00 0.00 0.00 0.00 0.00 0.00 0.00 0.01 0.01 0.02 0.01 0.01 0.04 0.06 0.03 0.08 0.01 0.00 0.01 0.01 0.05 0.10 0.15 0.28 0.25 0.18 0.22 0.24 0.60 0.64 0.58 0.55 0.62 0.80 0.91 0.84
0.00 0.05 0.08 0.03 0.03 0.07 0.16 0.27 0.08 0.03 0.02 0.00 0.00 0.00 0.00 0.00 0.02 0.02 0.01 0.00 0.01 0.04 0.01 0.00 0.06 0.01 0.00 0.00 0.00 0.02 0.04 0.03 0.05 0.07 0.13 0.05 0.14 0.38 0.49 0.43 0.47 0.53 0.65 0.75 0.83
0.00 0.13 0.14 0.03 0.05 0.13 0.26 0.18 0.10 0.01 0.00 0.00 0.00 0.00 0.00 0.00 0.00 0.01 0.00 0.00 0.00 0.00 0.00 0.00 0.00 0.00 0.00 0.00 0.00 0.00 0.00 0.00 0.00 0.00 0.00 0.01 0.04 0.05 0.11 0.14 0.20 0.25 0.28 0.30 0.39
0.01 0.12 0.09 0.05 0.08 0.18 0.04 0.01 0.00 0.00 0.00 0.00 0.00 0.00 0.00 0.00 0.01 0.00 0.00 0.00 0.00 0.00 0.00 0.00 0.00 0.00 0.00 0.00 0.00 0.00 0.00 0.00 0.00 0.00 0.00 0.00 0.00 0.01 0.01 0.02 0.06 0.06 0.05 0.03 0.01
0.00 0.03 0.04 0.01 0.04 0.06 0.00 0.00 0.00 0.00 0.00 0.00 0.00 0.00 0.00 0.00 0.00 0.00 0.00 0.00 0.00 0.00 0.00 0.00 0.00 0.00 0.00 0.00 0.00 0.00 0.00 0.00 0.00 0.00 0.00 0.00 0.00 0.00 0.00 0.00 0.00 0.00 0.00 0.00 0.00
0.00 0.00 0.01 0.02 0.01 0.00 0.00 0.00 0.00 0.00 0.00 0.00 0.00 0.00 0.00 0.00 0.00 0.00 0.00 0.00 0.00 0.00 0.00 0.00 0.00 0.00 0.00 0.00 0.00 0.00 0.00 0.00 0.00 0.00 0.00 0.00 0.00 0.00 0.00 0.00 0.00 0.00 0.00 0.00 0.00
0.00 0.00 0.00 0.00 0.00 0.00 0.00 0.00 0.00 0.00 0.00 0.00 0.00 0.00 0.00 0.00 0.00 0.00 0.00 0.00 0.00 0.00 0.00 0.00 0.00 0.00 0.00 0.00 0.00 0.00 0.00 0.00 0.00 0.00 0.00 0.00 0.00 0.00 0.00 0.00 0.00 0.00 0.00 0.00 0.00
0.00 0.00 0.00 0.00 0.00 0.00 0.00 0.00 0.00 0.00 0.00 0.00 0.00 0.00 0.00 0.00 0.00 0.00 0.00 0.00 0.00 0.00 0.00 0.00 0.00 0.00 0.00 0.00 0.00 0.00 0.00 0.00 0.00 0.00 0.00 0.00 0.00 0.00 0.00 0.00 0.00 0.00 0.00 0.00 0.00

GFSSW_prec_precacc24_108.txt.gz
Total_Precipitation_Accumulation
0.19 0.22 0.24 0.16 0.10 0.06 0.05 0.06 0.16 0.17 0.16 0.13 0.16 0.29 0.37 0.23 0.00 0.00 0.00 0.00 0.00 0.00 0.00 0.00 0.00 0.00 0.00 0.00 0.00 0.00 0.00 0.00 0.00 0.00 0.00 0.00 0.00 0.00 0.00 0.00 0.00 0.00 0.00 0.00 0.00
0.06 0.08 0.16 0.21 0.16 0.13 0.08 0.09 0.13 0.15 0.14 0.11 0.09 0.23 0.37 0.16 0.02 0.00 0.00 0.00 0.00 0.00 0.00 0.00 0.00 0.00 0.00 0.00 0.00 0.00 0.00 0.00 0.00 0.00 0.00 0.00 0.00 0.00 0.00 0.00 0.00 0.00 0.00 0.00 0.01
0.09 0.09 0.09 0.10 0.14 0.19 0.15 0.05 0.09 0.11 0.07 0.09 0.12 0.24 0.24 0.18 0.13 0.01 0.00 0.00 0.00 0.00 0.00 0.00 0.00 0.00 0.00 0.00 0.00 0.00 0.00 0.00 0.00 0.00 0.00 0.00 0.00 0.00 0.00 0.00 0.00 0.00 0.00 0.00 0.02
0.15 0.10 0.09 0.12 0.14 0.16 0.16 0.09 0.12 0.15 0.16 0.14 0.18 0.32 0.18 0.13 0.19 0.01 0.00 0.00 0.00 0.00 0.00 0.00 0.00 0.00 0.00 0.00 0.00 0.00 0.00 0.00 0.00 0.00 0.00 0.00 0.00 0.00 0.00 0.00 0.00 0.00 0.00 0.00 0.01
0.15 0.13 0.16 0.16 0.13 0.13 0.14 0.18 0.22 0.25 0.19 0.28 0.36 0.41 0.12 0.16 0.10 0.00 0.03 0.01 0.00 0.00 0.00 0.00 0.00 0.00 0.00 0.00 0.00 0.00 0.00 0.00 0.00 0.00 0.00 0.00 0.00 0.00 0.00 0.00 0.00 0.00 0.00 0.00 0.00
0.30 0.20 0.15 0.10 0.13 0.18 0.13 0.16 0.31 0.29 0.17 0.16 0.45 0.59 0.25 0.18 0.07 0.02 0.01 0.00 0.00 0.00 0.00 0.00 0.00 0.00 0.00 0.00 0.00 0.00 0.00 0.00 0.00 0.00 0.00 0.00 0.00 0.00 0.00 0.00 0.00 0.00 0.00 0.00 0.00
0.38 0.30 0.17 0.10 0.09 0.14 0.12 0.11 0.17 0.24 0.22 0.23 0.49 0.42 0.52 0.31 0.11 0.06 0.01 0.00 0.00 0.00 0.00 0.00 0.00 0.00 0.00 0.00 0.00 0.00 0.00 0.00 0.00 0.00 0.00 0.00 0.00 0.00 0.00 0.00 0.00 0.00 0.00 0.00 0.00
0.56 0.28 0.09 0.12 0.09 0.05 0.06 0.12 0.09 0.10 0.23 0.27 0.65 0.58 0.86 0.61 0.14 0.07 0.02 0.00 0.00 0.00 0.00 0.00 0.00 0.00 0.00 0.00 0.00 0.00 0.00 0.00 0.00 0.00 0.00 0.00 0.00 0.00 0.00 0.00 0.00 0.00 0.00 0.00 0.00
0.76 0.33 0.11 0.13 0.09 0.07 0.20 0.29 0.39 0.40 0.47 0.64 0.78 1.05 0.82 0.98 0.35 0.04 0.01 0.00 0.00 0.00 0.00 0.00 0.00 0.00 0.00 0.00 0.01 0.00 0.00 0.00 0.00 0.00 0.00 0.00 0.00 0.00 0.00 0.00 0.00 0.00 0.00 0.00 0.00
0.58 0.26 0.18 0.12 0.04 0.02 1.09 1.10 1.24 0.93 0.76 0.81 1.06 1.25 0.97 0.99 0.36 0.00 0.00 0.00 0.00 0.00 0.00 0.00 0.00 0.00 0.00 0.01 0.01 0.00 0.00 0.00 0.01 0.00 0.05 0.05 0.00 0.00 0.01 0.00 0.00 0.00 0.00 0.00 0.00
0.17 0.10 0.14 0.03 0.02 0.06 0.93 1.45 1.04 0.68 0.74 1.00 1.18 1.00 0.59 0.43 0.06 0.00 0.00 0.00 0.00 0.00 0.00 0.00 0.01 0.00 0.00 0.00 0.00 0.00 0.00 0.00 0.00 0.00 0.03 0.02 0.00 0.00 0.01 0.04 0.04 0.02 0.00 0.00 0.01
0.17 0.11 0.08 0.01 0.01 0.02 0.36 1.49 1.12 0.89 1.51 1.49 0.72 0.67 0.41 0.18 0.05 0.01 0.00 0.00 0.00 0.00 0.00 0.01 0.01 0.00 0.00 0.00 0.02 0.02 0.03 0.01 0.00 0.00 0.05 0.06 0.01 0.00 0.00 0.02 0.05 0.08 0.04 0.03 0.10
0.14 0.17 0.08 0.02 0.01 0.03 0.18 0.88 0.90 0.84 1.35 1.74 1.17 0.83 0.43 0.16 0.04 0.00 0.00 0.00 0.00 0.00 0.00 0.00 0.00 0.00 0.00 0.00 0.02 0.01 0.02 0.01 0.04 0.03 0.02 0.02 0.01 0.00 0.01 0.03 0.05 0.09 0.14 0.18 0.26
0.08 0.14 0.07 0.03 0.03 0.05 0.27 0.78 0.62 0.48 0.84 1.74 0.91 0.59 0.21 0.04 0.03 0.00 0.00 0.00 0.00 0.00 0.00 0.00 0.00 0.00 0.01 0.01 0.08 0.08 0.01 0.04 0.07 0.15 0.05 0.01 0.02 0.00 0.00 0.01 0.02 0.08 0.21 0.24 0.24
0.04 0.04 0.02 0.02 0.04 0.15 0.30 0.35 0.44 0.18 0.58 1.22 0.53 0.26 0.12 0.04 0.03 0.02 0.00 0.00 0.00 0.00 0.00 0.00 0.00 0.00 0.04 0.03 0.07 0.09 0.02 0.04 0.03 0.07 0.15 0.02 0.23 0.00 0.00 0.00 0.00 0.02 0.03 0.04 0.08
0.06 0.01 0.01 0.01 0.02 0.06 0.07 0.08 0.14 0.07 0.56 0.67 0.31 0.15 0.03 0.02 0.02 0.01 0.00 0.00 0.00 0.00 0.00 0.00 0.00 0.01 0.01 0.00 0.03 0.04 0.06 0.12 0.12 0.19 0.19 0.00 0.16 0.05 0.00 0.00 0.00 0.02 0.01 0.03 0.09
0.24 0.05 0.00 0.01 0.02 0.00 0.00 0.01 0.05 0.18 0.30 0.22 0.14 0.03 0.01 0.01 0.00 0.00 0.00 0.00 0.00 0.01 0.00 0.00 0.00 0.00 0.00 0.00 0.03 0.16 0.37 0.49 0.43 0.33 0.16 0.02 0.03 0.02 0.00 0.01 0.04 0.08 0.05 0.17 0.29
0.15 0.06 0.01 0.02 0.04 0.00 0.00 0.00 0.13 0.23 0.09 0.03 0.01 0.01 0.01 0.01 0.00 0.00 0.00 0.00 0.00 0.00 0.02 0.02 0.01 0.00 0.01 0.01 0.18 0.21 0.41 0.53 0.39 0.13 0.09 0.07 0.11 0.05 0.05 0.08 0.04 0.11 0.19 0.53 0.70
0.06 0.03 0.01 0.02 0.01 0.00 0.00 0.07 0.19 0.06 0.01 0.00 0.02 0.02 0.01 0.00 0.00 0.00 0.00 0.00 0.00 0.01 0.04 0.02 0.01 0.00 0.00 0.00 0.08 0.20 0.32 0.25 0.26 0.07 0.12 0.17 0.19 0.21 0.25 0.24 0.12 0.15 0.39 0.78 0.93
0.02 0.01 0.02 0.01 0.01 0.00 0.01 0.17 0.04 0.00 0.00 0.00 0.00 0.00 0.00 0.00 0.00 0.00 0.00 0.00 0.01 0.01 0.00 0.01 0.03 0.00 0.00 0.00 0.00 0.06 0.10 0.15 0.27 0.24 0.17 0.19 0.22 0.52 0.54 0.48 0.48 0.56 0.73 0.85 0.81
0.00 0.00 0.01 0.01 0.00 0.00 0.04 0.16 0.07 0.03 0.02 0.00 0.00 0.00 0.00 0.00 0.00 0.00 0.00 0.00 0.01 0.01 0.00 0.00 0.03 0.01 0.00 0.00 0.00 0.02 0.04 0.03 0.05 0.08 0.13 0.04 0.12 0.38 0.47 0.40 0.45 0.50 0.60 0.72 0.81
0.00 0.02 0.02 0.00 0.00 0.02 0.11 0.16 0.10 0.01 0.00 0.00 0.00 0.00 0.00 0.00 0.00 0.00 0.00 0.00 0.00 0.00 0.00 0.00 0.00 0.00 0.00 0.00 0.00 0.00 0.00 0.00 0.00 0.00 0.00 0.01 0.04 0.05 0.11 0.14 0.20 0.25 0.28 0.30 0.39
0.00 0.02 0.00 0.01 0.03 0.05 0.01 0.00 0.00 0.00 0.00 0.00 0.00 0.00 0.00 0.00 0.00 0.00 0.00 0.00 0.00 0.00 0.00 0.00 0.00 0.00 0.00 0.00 0.00 0.00 0.00 0.00 0.00 0.00 0.00 0.00 0.00 0.01 0.01 0.02 0.06 0.06 0.05 0.03 0.01
0.00 0.00 0.00 0.00 0.01 0.00 0.00 0.00 0.00 0.00 0.00 0.00 0.00 0.00 0.00 0.00 0.00 0.00 0.00 0.00 0.00 0.00 0.00 0.00 0.00 0.00 0.00 0.00 0.00 0.00 0.00 0.00 0.00 0.00 0.00 0.00 0.00 0.00 0.00 0.00 0.00 0.00 0.00 0.00 0.00
0.00 0.00 0.00 0.00 0.00 0.00 0.00 0.00 0.00 0.00 0.00 0.00 0.00 0.00 0.00 0.00 0.00 0.00 0.00 0.00 0.00 0.00 0.00 0.00 0.00 0.00 0.00 0.00 0.00 0.00 0.00 0.00 0.00 0.00 0.00 0.00 0.00 0.00 0.00 0.00 0.00 0.00 0.00 0.00 0.00
0.00 0.00 0.00 0.00 0.00 0.00 0.00 0.00 0.00 0.00 0.00 0.00 0.00 0.00 0.00 0.00 0.00 0.00 0.00 0.00 0.00 0.00 0.00 0.00 0.00 0.00 0.00 0.00 0.00 0.00 0.00 0.00 0.00 0.00 0.00 0.00 0.00 0.00 0.00 0.00 0.00 0.00 0.00 0.00 0.00
0.00 0.00 0.00 0.00 0.00 0.00 0.00 0.00 0.00 0.00 0.00 0.00 0.00 0.00 0.00 0.00 0.00 0.00 0.00 0.00 0.00 0.00 0.00 0.00 0.00 0.00 0.00 0.00 0.00 0.00 0.00 0.00 0.00 0.00 0.00 0.00 0.00 0.00 0.00 0.00 0.00 0.00 0.00 0.00 0.00

GFSSW_prec_precacc24_111.txt.gz
Total_Precipitation_Accumulation
0.22 0.27 0.33 0.35 0.31 0.20 0.09 0.03 0.08 0.09 0.15 0.13 0.16 0.29 0.39 0.31 0.01 0.00 0.00 0.00 0.00 0.00 0.00 0.00 0.00 0.00 0.00 0.00 0.00 0.00 0.00 0.00 0.00 0.00 0.00 0.00 0.00 0.00 0.00 0.00 0.00 0.00 0.00 0.00 0.00
0.10 0.09 0.20 0.32 0.35 0.25 0.11 0.09 0.10 0.07 0.11 0.11 0.09 0.23 0.40 0.20 0.03 0.00 0.00 0.00 0.00 0.00 0.00 0.00 0.00 0.00 0.00 0.00 0.00 0.00 0.00 0.00 0.00 0.00 0.00 0.00 0.00 0.00 0.00 0.00 0.00 0.00 0.00 0.00 0.01
0.13 0.09 0.08 0.10 0.16 0.23 0.17 0.08 0.10 0.08 0.05 0.08 0.12 0.24 0.25 0.19 0.15 0.03 0.00 0.00 0.00 0.00 0.00 0.00 0.00 0.00 0.00 0.00 0.00 0.00 0.00 0.00 0.00 0.00 0.00 0.00 0.00 0.00 0.00 0.00 0.00 0.00 0.00 0.00 0.02
0.25 0.13 0.09 0.11 0.14 0.17 0.18 0.10 0.11 0.08 0.12 0.13 0.18 0.33 0.19 0.14 0.22 0.03 0.00 0.00 0.00 0.00 0.00 0.00 0.00 0.00 0.00 0.00 0.00 0.00 0.00 0.00 0.00 0.00 0.00 0.00 0.00 0.00 0.00 0.00 0.00 0.00 0.00 0.00 0.01
0.21 0.18 0.15 0.16 0.15 0.14 0.14 0.18 0.22 0.20 0.13 0.26 0.36 0.45 0.12 0.17 0.11 0.03 0.04 0.01 0.00 0.00 0.00 0.00 0.00 0.00 0.00 0.00 0.00 0.00 0.00 0.00 0.00 0.00 0.00 0.00 0.00 0.00 0.00 0.00 0.00 0.00 0.00 0.00 0.00
0.37 0.24 0.15 0.10 0.12 0.18 0.15 0.20 0.36 0.31 0.18 0.15 0.44 0.61 0.26 0.20 0.07 0.07 0.04 0.00 0.00 0.00 0.00 0.00 0.00 0.00 0.00 0.00 0.00 0.00 0.00 0.00 0.00 0.00 0.00 0.00 0.00 0.00 0.00 0.00 0.00 0.00 0.00 0.00 0.00
0.41 0.32 0.18 0.10 0.09 0.14 0.13 0.13 0.22 0.27 0.21 0.22 0.49 0.44 0.54 0.34 0.11 0.12 0.04 0.00 0.00 0.00 0.00 0.00 0.00 0.00 0.00 0.00 0.00 0.00 0.00 0.00 0.00 0.00 0.00 0.00 0.00 0.00 0.00 0.00 0.00 0.00 0.00 0.00 0.00
0.60 0.28 0.09 0.12 0.09 0.06 0.06 0.07 0.03 0.07 0.20 0.26 0.65 0.60 0.88 0.67 0.14 0.10 0.05 0.00 0.00 0.00 0.00 0.00 0.00 0.00 0.00 0.00 0.00 0.00 0.00 0.00 0.00 0.00 0.00 0.00 0.00 0.00 0.00 0.00 0.00 0.00 0.00 0.00 0.00
0.85 0.32 0.10 0.13 0.09 0.06 0.06 0.21 0.23 0.31 0.45 0.62 0.77 1.12 0.86 1.08 0.39 0.08 0.02 0.00 0.00 0.00 0.00 0.00 0.00 0.00 0.00 0.00 0.00 0.00 0.00 0.00 0.00 0.00 0.00 0.00 0.00 0.00 0.00 0.00 0.00 0.00 0.00 0.00 0.00
0.57 0.26 0.17 0.12 0.04 0.01 0.62 0.97 1.03 0.80 0.75 0.81 1.06 1.37 1.05 1.16 0.51 0.02 0.00 0.00 0.00 0.00 0.00 0.00 0.00 0.00 0.00 0.00 0.00 0.00 0.00 0.00 0.00 0.00 0.00 0.00 0.00 0.00 0.00 0.00 0.00 0.00 0.00 0.00 0.00
0.14 0.09 0.13 0.03 0.02 0.02 0.63 1.29 0.86 0.49 0.70 1.01 1.21 1.05 0.67 0.52 0.16 0.01 0.00 0.00 0.00 0.00 0.00 0.00 0.00 0.00 0.00 0.00 0.00 0.00 0.00 0.00 0.00 0.00 0.00 0.00 0.00 0.00 0.00 0.00 0.00 0.00 0.00 0.00 0.00
0.14 0.09 0.07 0.01 0.01 0.02 0.28 1.31 0.93 0.74 1.41 1.49 0.75 0.72 0.46 0.24 0.11 0.02 0.00 0.00 0.00 0.00 0.00 0.00 0.00 0.00 0.00 0.00 0.00 0.00 0.01 0.00 0.00 0.00 0.01 0.00 0.00 0.00 0.00 0.00 0.00 0.00 0.01 0.01 0.03
0.13 0.15 0.06 0.02 0.01 0.02 0.14 0.70 0.72 0.71 1.25 1.74 1.25 0.91 0.47 0.16 0.04 0.01 0.00 0.00 0.00 0.00 0.00 0.00 0.00 0.00 0.00 0.00 0.00 0.00 0.01 0.00 0.03 0.01 0.01 0.00 0.00 0.00 0.00 0.00 0.00 0.05 0.10 0.13 0.14
0.06 0.08 0.05 0.03 0.02 0.04 0.21 0.50 0.52 0.43 0.77 1.79 0.96 0.63 0.23 0.04 0.03 0.00 0.00 0.00 0.00 0.00 0.00 0.00 0.00 0.00 0.00 0.00 0.01 0.01 0.00 0.02 0.05 0.11 0.04 0.01 0.02 0.00 0.00 0.00 0.00 0.05 0.15 0.15 0.14
0.02 0.02 0.01 0.00 0.03 0.14 0.28 0.31 0.37 0.17 0.53 1.26 0.63 0.34 0.15 0.04 0.03 0.01 0.00 0.00 0.00 0.00 0.00 0.00 0.00 0.00 0.00 0.00 0.00 0.01 0.01 0.02 0.02 0.05 0.10 0.01 0.11 0.00 0.00 0.00 0.00 0.00 0.01 0.03 0.07
0.04 0.01 0.00 0.00 0.02 0.06 0.06 0.06 0.14 0.06 0.60 0.74 0.38 0.22 0.04 0.03 0.01 0.00 0.00 0.00 0.00 0.00 0.00 0.00 0.00 0.00 0.00 0.00 0.00 0.00 0.03 0.06 0.09 0.15 0.15 0.00 0.07 0.02 0.00 0.00 0.00 0.01 0.00 0.02 0.03
0.06 0.01 0.00 0.00 0.00 0.00 0.00 0.01 0.02 0.14 0.34 0.27 0.17 0.03 0.02 0.01 0.00 0.00 0.00 0.00 0.00 0.00 0.00 0.00 0.00 0.00 0.00 0.00 0.02 0.06 0.20 0.21 0.18 0.09 0.07 0.02 0.03 0.01 0.00 0.00 0.03 0.03 0.02 0.03 0.03
0.05 0.01 0.00 0.00 0.00 0.00 0.00 0.00 0.10 0.20 0.10 0.04 0.01 0.01 0.00 0.00 0.00 0.00 0.00 0.00 0.00 0.00 0.01 0.01 0.00 0.00 0.00 0.00 0.05 0.15 0.27 0.30 0.20 0.09 0.05 0.05 0.10 0.03 0.04 0.04 0.02 0.06 0.13 0.23 0.31
0.00 0.00 0.00 0.00 0.00 0.00 0.00 0.03 0.09 0.04 0.01 0.00 0.01 0.01 0.00 0.00 0.00 0.00 0.00 0.00 0.00 0.00 0.01 0.01 0.00 0.00 0.00 0.00 0.07 0.17 0.21 0.17 0.16 0.06 0.09 0.08 0.10 0.09 0.16 0.12 0.07 0.12 0.30 0.65 0.75
0.00 0.00 0.00 0.00 0.00 0.00 0.00 0.03 0.01 0.00 0.00 0.00 0.00 0.00 0.00 0.00 0.00 0.00 0.00 0.00 0.00 0.00 0.00 0.00 0.01 0.00 0.00 0.00 0.00 0.06 0.10 0.15 0.21 0.19 0.11 0.10 0.16 0.36 0.34 0.31 0.34 0.42 0.57 0.67 0.71
0.00 0.00 0.00 0.00 0.00 0.00 0.02 0.06 0.04 0.01 0.00 0.00 0.00 0.00 0.00 0.00 0.00 0.00 0.00 0.00 0.00 0.00 0.00 0.00 0.01 0.00 0.00 0.00 0.00 0.02 0.04 0.03 0.05 0.08 0.13 0.04 0.07 0.29 0.39 0.33 0.36 0.44 0.53 0.65 0.71
0.00 0.00 0.00 0.00 0.00 0.00 0.05 0.10 0.05 0.00 0.00 0.00 0.00 0.00 0.00 0.00 0.00 0.00 0.00 0.00 0.00 0.00 0.00 0.00 0.00 0.00 0.00 0.00 0.00 0.00 0.00 0.00 0.00 0.00 0.00 0.01 0.01 0.05 0.11 0.12 0.18 0.24 0.27 0.30 0.39
0.00 0.00 0.00 0.00 0.00 0.00 0.00 0.00 0.00 0.00 0.00 0.00 0.00 0.00 0.00 0.00 0.00 0.00 0.00 0.00 0.00 0.00 0.00 0.00 0.00 0.00 0.00 0.00 0.00 0.00 0.00 0.00 0.00 0.00 0.00 0.00 0.00 0.01 0.01 0.02 0.04 0.05 0.05 0.03 0.01
0.00 0.00 0.00 0.00 0.00 0.00 0.00 0.00 0.00 0.00 0.00 0.00 0.00 0.00 0.00 0.00 0.00 0.00 0.00 0.00 0.00 0.00 0.00 0.00 0.00 0.00 0.00 0.00 0.00 0.00 0.00 0.00 0.00 0.00 0.00 0.00 0.00 0.00 0.00 0.00 0.00 0.00 0.00 0.00 0.00
0.00 0.00 0.00 0.00 0.00 0.00 0.00 0.00 0.00 0.00 0.00 0.00 0.00 0.00 0.00 0.00 0.00 0.00 0.00 0.00 0.00 0.00 0.00 0.00 0.00 0.00 0.00 0.00 0.00 0.00 0.00 0.00 0.00 0.00 0.00 0.00 0.00 0.00 0.00 0.00 0.00 0.00 0.00 0.00 0.00
0.00 0.00 0.00 0.00 0.00 0.00 0.00 0.00 0.00 0.00 0.00 0.00 0.00 0.00 0.00 0.00 0.00 0.00 0.00 0.00 0.00 0.00 0.00 0.00 0.00 0.00 0.00 0.00 0.00 0.00 0.00 0.00 0.00 0.00 0.00 0.00 0.00 0.00 0.00 0.00 0.00 0.00 0.00 0.00 0.00
0.00 0.00 0.00 0.00 0.00 0.00 0.00 0.00 0.00 0.00 0.00 0.00 0.00 0.00 0.00 0.00 0.00 0.00 0.00 0.00 0.00 0.00 0.00 0.00 0.00 0.00 0.00 0.00 0.00 0.00 0.00 0.00 0.00 0.00 0.00 0.00 0.00 0.00 0.00 0.00 0.00 0.00 0.00 0.00 0.00

GFSSW_prec_precacc24_114.txt.gz
Total_Precipitation_Accumulation
0.33 0.37 0.42 0.39 0.45 0.46 0.34 0.14 0.08 0.03 0.04 0.10 0.16 0.31 0.40 0.38 0.03 0.00 0.00 0.00 0.00 0.00 0.00 0.00 0.00 0.00 0.00 0.00 0.00 0.00 0.00 0.00 0.00 0.00 0.00 0.00 0.00 0.00 0.00 0.00 0.00 0.00 0.00 0.00 0.00
0.16 0.14 0.29 0.40 0.40 0.42 0.27 0.20 0.15 0.05 0.02 0.04 0.09 0.23 0.41 0.29 0.14 0.00 0.00 0.00 0.00 0.00 0.00 0.00 0.00 0.00 0.00 0.00 0.00 0.00 0.00 0.00 0.00 0.00 0.00 0.00 0.00 0.00 0.00 0.00 0.00 0.00 0.00 0.00 0.00
0.14 0.13 0.11 0.14 0.18 0.30 0.29 0.19 0.18 0.09 0.02 0.03 0.10 0.24 0.30 0.24 0.29 0.05 0.00 0.00 0.00 0.00 0.00 0.00 0.00 0.00 0.00 0.00 0.00 0.00 0.00 0.00 0.00 0.00 0.00 0.00 0.00 0.00 0.00 0.00 0.00 0.00 0.00 0.00 0.00
0.25 0.16 0.08 0.10 0.16 0.21 0.24 0.16 0.19 0.13 0.05 0.07 0.17 0.34 0.24 0.17 0.32 0.06 0.00 0.00 0.00 0.00 0.00 0.00 0.00 0.00 0.00 0.00 0.00 0.00 0.00 0.00 0.00 0.00 0.00 0.00 0.00 0.00 0.00 0.00 0.00 0.00 0.00 0.00 0.00
0.23 0.19 0.16 0.17 0.16 0.15 0.15 0.20 0.31 0.26 0.09 0.11 0.34 0.50 0.16 0.18 0.13 0.06 0.04 0.01 0.00 0.00 0.00 0.00 0.00 0.00 0.00 0.00 0.00 0.00 0.00 0.00 0.00 0.00 0.00 0.00 0.00 0.00 0.00 0.00 0.00 0.00 0.00 0.00 0.00
0.38 0.21 0.14 0.10 0.12 0.18 0.16 0.22 0.45 0.39 0.15 0.09 0.37 0.62 0.27 0.20 0.08 0.13 0.07 0.00 0.00 0.00 0.00 0.00 0.00 0.00 0.00 0.00 0.00 0.00 0.00 0.00 0.00 0.00 0.00 0.00 0.00 0.00 0.00 0.00 0.00 0.00 0.00 0.00 0.00
0.39 0.34 0.18 0.10 0.08 0.15 0.15 0.14 0.27 0.30 0.12 0.17 0.48 0.43 0.56 0.34 0.11 0.22 0.14 0.00 0.00 0.00 0.00 0.00 0.00 0.00 0.00 0.00 0.00 0.00 0.00 0.00 0.00 0.00 0.00 0.00 0.00 0.00 0.00 0.00 0.00 0.00 0.00 0.00 0.00
0.61 0.28 0.08 0.12 0.09 0.09 0.09 0.07 0.03 0.06 0.08 0.20 0.63 0.60 0.89 0.68 0.15 0.19 0.14 0.00 0.00 0.00 0.00 0.00 0.00 0.00 0.00 0.00 0.00 0.00 0.00 0.00 0.00 0.00 0.00 0.00 0.00 0.00 0.00 0.00 0.00 0.00 0.00 0.00 0.00
0.86 0.31 0.08 0.13 0.09 0.07 0.03 0.12 0.13 0.12 0.27 0.51 0.73 1.10 0.86 1.10 0.41 0.12 0.11 0.00 0.00 0.00 0.00 0.00 0.00 0.00 0.00 0.00 0.00 0.00 0.00 0.00 0.00 0.00 0.00 0.00 0.00 0.00 0.00 0.00 0.00 0.00 0.00 0.00 0.00
0.52 0.24 0.13 0.11 0.04 0.01 0.14 0.69 0.87 0.50 0.55 0.67 1.05 1.31 1.09 1.25 0.52 0.05 0.08 0.00 0.00 0.00 0.00 0.00 0.00 0.00 0.00 0.00 0.00 0.00 0.00 0.00 0.00 0.00 0.00 0.00 0.00 0.00 0.00 0.00 0.00 0.00 0.00 0.00 0.00
0.08 0.07 0.08 0.02 0.02 0.01 0.26 0.93 0.83 0.34 0.46 0.94 1.28 1.05 0.76 0.59 0.17 0.03 0.02 0.00 0.00 0.00 0.00 0.00 0.00 0.00 0.00 0.00 0.00 0.00 0.00 0.00 0.00 0.00 0.00 0.00 0.00 0.00 0.00 0.00 0.00 0.00 0.00 0.00 0.00
0.08 0.04 0.03 0.00 0.01 0.01 0.19 0.93 0.85 0.56 1.17 1.45 0.81 0.77 0.55 0.29 0.17 0.02 0.00 0.00 0.00 0.00 0.00 0.00 0.00 0.00 0.00 0.00 0.00 0.00 0.00 0.00 0.00 0.00 0.00 0.00 0.00 0.00 0.00 0.00 0.00 0.00 0.00 0.00 0.01
0.07 0.08 0.03 0.01 0.01 0.01 0.14 0.58 0.65 0.50 1.13 1.76 1.27 1.01 0.58 0.25 0.09 0.01 0.00 0.00 0.00 0.00 0.00 0.00 0.00 0.00 0.00 0.00 0.00 0.00 0.00 0.00 0.01 0.01 0.00 0.00 0.00 0.00 0.00 0.00 0.00 0.03 0.04 0.07 0.10
0.03 0.03 0.04 0.03 0.02 0.04 0.21 0.49 0.45 0.30 0.62 1.74 1.00 0.72 0.28 0.12 0.09 0.00 0.00 0.00 0.00 0.00 0.00 0.00 0.00 0.00 0.00 0.00 0.00 0.00 0.00 0.00 0.03 0.08 0.02 0.01 0.02 0.00 0.00 0.00 0.00 0.02 0.08 0.09 0.09
0.01 0.00 0.00 0.00 0.03 0.14 0.28 0.30 0.34 0.10 0.43 1.19 0.67 0.38 0.18 0.07 0.07 0.02 0.00 0.00 0.00 0.00 0.00 0.00 0.00 0.00 0.00 0.00 0.00 0.00 0.00 0.01 0.02 0.04 0.08 0.01 0.04 0.00 0.00 0.00 0.00 0.00 0.00 0.02 0.07
0.00 0.00 0.00 0.00 0.02 0.06 0.06 0.06 0.10 0.03 0.57 0.72 0.41 0.26 0.04 0.02 0.01 0.00 0.00 0.00 0.00 0.00 0.00 0.00 0.00 0.00 0.00 0.00 0.00 0.00 0.01 0.01 0.05 0.12 0.10 0.00 0.02 0.00 0.00 0.00 0.00 0.01 0.00 0.01 0.03
0.00 0.00 0.00 0.00 0.00 0.00 0.00 0.01 0.02 0.14 0.33 0.27 0.18 0.04 0.02 0.01 0.00 0.00 0.00 0.00 0.00 0.00 0.00 0.00 0.00 0.00 0.00 0.00 0.00 0.01 0.07 0.06 0.06 0.07 0.02 0.02 0.02 0.00 0.00 0.00 0.03 0.03 0.01 0.02 0.02
0.00 0.00 0.00 0.00 0.00 0.00 0.00 0.00 0.10 0.20 0.11 0.05 0.01 0.01 0.00 0.00 0.00 0.00 0.00 0.00 0.00 0.00 0.00 0.00 0.00 0.00 0.00 0.00 0.01 0.08 0.11 0.11 0.09 0.05 0.03 0.04 0.09 0.03 0.03 0.03 0.02 0.02 0.03 0.03 0.04
0.00 0.00 0.00 0.00 0.00 0.00 0.00 0.01 0.07 0.03 0.01 0.00 0.00 0.00 0.00 0.00 0.00 0.00 0.00 0.00 0.00 0.00 0.00 0.00 0.00 0.00 0.00 0.00 0.03 0.10 0.13 0.11 0.14 0.06 0.08 0.04 0.05 0.06 0.14 0.09 0.05 0.07 0.18 0.28 0.32
0.00 0.00 0.00 0.00 0.00 0.00 0.00 0.01 0.00 0.00 0.00 0.00 0.00 0.00 0.00 0.00 0.00 0.00 0.00 0.00 0.00 0.00 0.00 0.00 0.01 0.00 0.00 0.00 0.00 0.05 0.10 0.12 0.17 0.15 0.07 0.03 0.09 0.24 0.25 0.18 0.20 0.30 0.44 0.50 0.50
0.00 0.00 0.00 0.00 0.00 0.00 0.00 0.00 0.00 0.00 0.00 0.00 0.00 0.00 0.00 0.00 0.00 0.00 0.00 0.00 0.00 0.00 0.00 0.00 0.00 0.00 0.00 0.00 0.00 0.02 0.04 0.03 0.05 0.07 0.10 0.03 0.04 0.16 0.26 0.21 0.19 0.29 0.40 0.48 0.50
0.00 0.00 0.00 0.00 0.00 0.00 0.00 0.00 0.00 0.00 0.00 0.00 0.00 0.00 0.00 0.00 0.00 0.00 0.00 0.00 0.00 0.00 0.00 0.00 0.00 0.00 0.00 0.00 0.00 0.00 0.00 0.00 0.00 0.00 0.00 0.01 0.01 0.01 0.05 0.08 0.12 0.20 0.24 0.27 0.33
0.00 0.00 0.00 0.00 0.00 0.00 0.00 0.00 0.00 0.00 0.00 0.00 0.00 0.00 0.00 0.00 0.00 0.00 0.00 0.00 0.00 0.00 0.00 0.00 0.00 0.00 0.00 0.00 0.00 0.00 0.00 0.00 0.00 0.00 0.00 0.00 0.00 0.01 0.01 0.01 0.02 0.04 0.04 0.03 0.01
0.00 0.00 0.00 0.00 0.00 0.00 0.00 0.00 0.00 0.00 0.00 0.00 0.00 0.00 0.00 0.00 0.00 0.00 0.00 0.00 0.00 0.00 0.00 0.00 0.00 0.00 0.00 0.00 0.00 0.00 0.00 0.00 0.00 0.00 0.00 0.00 0.00 0.00 0.00 0.00 0.00 0.00 0.00 0.00 0.00
0.00 0.00 0.00 0.00 0.00 0.00 0.00 0.00 0.00 0.00 0.00 0.00 0.00 0.00 0.00 0.00 0.00 0.00 0.00 0.00 0.00 0.00 0.00 0.00 0.00 0.00 0.00 0.00 0.00 0.00 0.00 0.00 0.00 0.00 0.00 0.00 0.00 0.00 0.00 0.00 0.00 0.00 0.00 0.00 0.00
0.00 0.00 0.00 0.00 0.00 0.00 0.00 0.00 0.00 0.00 0.00 0.00 0.00 0.00 0.00 0.00 0.00 0.00 0.00 0.00 0.00 0.00 0.00 0.00 0.00 0.00 0.00 0.00 0.00 0.00 0.00 0.00 0.00 0.00 0.00 0.00 0.00 0.00 0.00 0.00 0.00 0.00 0.00 0.00 0.00
0.00 0.00 0.00 0.00 0.00 0.00 0.00 0.00 0.00 0.00 0.00 0.00 0.00 0.00 0.00 0.00 0.00 0.00 0.00 0.00 0.00 0.00 0.00 0.00 0.00 0.00 0.00 0.00 0.00 0.00 0.00 0.00 0.00 0.00 0.00 0.00 0.00 0.00 0.00 0.00 0.00 0.00 0.00 0.00 0.00

GFSSW_prec_precacc24_117.txt.gz
Total_Precipitation_Accumulation
0.39 0.44 0.44 0.51 0.49 0.68 0.85 0.43 0.18 0.04 0.01 0.01 0.10 0.42 0.56 0.53 0.04 0.00 0.00 0.00 0.00 0.00 0.00 0.00 0.00 0.00 0.00 0.00 0.00 0.00 0.00 0.00 0.00 0.00 0.00 0.00 0.00 0.00 0.00 0.00 0.00 0.00 0.00 0.00 0.00
0.16 0.13 0.35 0.48 0.48 0.47 0.47 0.46 0.30 0.12 0.00 0.01 0.01 0.26 0.56 0.54 0.18 0.00 0.00 0.00 0.00 0.00 0.00 0.00 0.00 0.00 0.00 0.00 0.00 0.00 0.00 0.00 0.00 0.00 0.00 0.00 0.00 0.00 0.00 0.00 0.00 0.00 0.00 0.00 0.00
0.16 0.16 0.15 0.16 0.19 0.28 0.31 0.35 0.36 0.22 0.03 0.01 0.03 0.16 0.41 0.46 0.47 0.09 0.00 0.00 0.00 0.00 0.00 0.00 0.00 0.00 0.00 0.00 0.00 0.00 0.00 0.00 0.00 0.00 0.00 0.00 0.00 0.00 0.00 0.00 0.00 0.00 0.00 0.00 0.00
0.26 0.16 0.07 0.09 0.16 0.24 0.32 0.23 0.28 0.27 0.09 0.01 0.11 0.31 0.36 0.26 0.48 0.17 0.00 0.01 0.00 0.00 0.00 0.00 0.00 0.00 0.00 0.00 0.00 0.00 0.00 0.00 0.00 0.00 0.00 0.00 0.00 0.00 0.00 0.00 0.00 0.00 0.00 0.00 0.00
0.22 0.19 0.12 0.11 0.12 0.15 0.18 0.22 0.36 0.37 0.11 0.03 0.17 0.51 0.20 0.22 0.19 0.17 0.05 0.01 0.00 0.00 0.00 0.00 0.00 0.00 0.00 0.00 0.00 0.00 0.00 0.00 0.00 0.00 0.00 0.00 0.00 0.00 0.00 0.00 0.00 0.00 0.00 0.00 0.00
0.36 0.18 0.06 0.05 0.11 0.18 0.21 0.25 0.49 0.44 0.15 0.04 0.15 0.62 0.29 0.21 0.11 0.32 0.08 0.00 0.00 0.00 0.00 0.00 0.00 0.00 0.00 0.00 0.00 0.00 0.00 0.00 0.00 0.00 0.00 0.00 0.00 0.00 0.00 0.00 0.00 0.00 0.00 0.00 0.00
0.39 0.31 0.13 0.07 0.08 0.15 0.18 0.22 0.32 0.33 0.12 0.09 0.37 0.35 0.54 0.35 0.14 0.46 0.15 0.00 0.00 0.00 0.00 0.00 0.00 0.00 0.00 0.00 0.00 0.00 0.00 0.00 0.00 0.00 0.00 0.00 0.00 0.00 0.00 0.00 0.00 0.00 0.00 0.00 0.00
0.60 0.26 0.07 0.11 0.09 0.09 0.09 0.12 0.04 0.06 0.05 0.03 0.52 0.57 0.82 0.67 0.18 0.27 0.16 0.00 0.00 0.00 0.00 0.00 0.00 0.00 0.00 0.00 0.00 0.00 0.00 0.00 0.00 0.00 0.00 0.00 0.00 0.00 0.00 0.00 0.00 0.00 0.00 0.00 0.00
0.78 0.23 0.03 0.10 0.08 0.07 0.02 0.04 0.07 0.07 0.07 0.17 0.65 1.09 0.86 1.13 0.45 0.16 0.16 0.00 0.00 0.00 0.00 0.00 0.00 0.00 0.00 0.00 0.00 0.00 0.00 0.00 0.00 0.00 0.00 0.00 0.00 0.00 0.00 0.00 0.00 0.00 0.00 0.00 0.00
0.49 0.14 0.04 0.06 0.04 0.01 0.04 0.17 0.57 0.38 0.29 0.31 0.87 1.23 1.09 1.29 0.56 0.08 0.16 0.00 0.00 0.00 0.00 0.00 0.00 0.00 0.00 0.00 0.00 0.00 0.00 0.00 0.00 0.00 0.00 0.00 0.00 0.00 0.00 0.00 0.00 0.00 0.00 0.00 0.00
0.07 0.03 0.02 0.00 0.01 0.01 0.09 0.64 0.61 0.23 0.25 0.67 1.14 0.92 0.80 0.62 0.20 0.07 0.15 0.01 0.00 0.00 0.00 0.00 0.00 0.00 0.00 0.00 0.00 0.00 0.00 0.00 0.00 0.00 0.00 0.00 0.00 0.00 0.00 0.00 0.00 0.00 0.00 0.00 0.00
0.06 0.03 0.02 0.00 0.00 0.00 0.05 0.57 0.53 0.38 0.96 1.34 0.78 0.75 0.57 0.29 0.19 0.05 0.09 0.01 0.00 0.00 0.00 0.00 0.00 0.00 0.00 0.00 0.00 0.00 0.00 0.00 0.00 0.00 0.00 0.00 0.00 0.00 0.00 0.00 0.00 0.00 0.00 0.00 0.01
0.05 0.07 0.03 0.01 0.01 0.00 0.08 0.39 0.46 0.31 0.99 1.66 1.29 1.05 0.61 0.26 0.12 0.02 0.03 0.00 0.00 0.00 0.00 0.00 0.00 0.00 0.00 0.00 0.00 0.00 0.00 0.00 0.00 0.00 0.00 0.00 0.00 0.00 0.00 0.00 0.00 0.00 0.01 0.04 0.07
0.02 0.03 0.04 0.03 0.02 0.04 0.18 0.44 0.36 0.18 0.51 1.65 1.01 0.81 0.37 0.14 0.09 0.00 0.00 0.00 0.00 0.00 0.00 0.00 0.00 0.00 0.00 0.00 0.00 0.00 0.00 0.00 0.00 0.05 0.02 0.00 0.02 0.00 0.00 0.00 0.00 0.00 0.03 0.04 0.04
0.00 0.00 0.00 0.00 0.03 0.14 0.26 0.28 0.20 0.04 0.37 1.12 0.72 0.48 0.29 0.11 0.09 0.02 0.00 0.00 0.00 0.00 0.00 0.00 0.00 0.00 0.00 0.00 0.00 0.00 0.00 0.00 0.01 0.04 0.08 0.01 0.04 0.00 0.00 0.00 0.00 0.00 0.00 0.01 0.05
0.00 0.00 0.00 0.00 0.02 0.06 0.06 0.06 0.03 0.01 0.55 0.74 0.45 0.34 0.08 0.03 0.01 0.00 0.00 0.00 0.00 0.00 0.00 0.00 0.00 0.00 0.00 0.00 0.00 0.00 0.00 0.00 0.02 0.08 0.09 0.00 0.01 0.00 0.00 0.00 0.00 0.01 0.00 0.00 0.01
0.00 0.00 0.00 0.00 0.00 0.00 0.00 0.00 0.00 0.12 0.28 0.25 0.19 0.06 0.03 0.02 0.00 0.00 0.00 0.00 0.00 0.00 0.00 0.00 0.00 0.00 0.00 0.00 0.00 0.01 0.05 0.02 0.01 0.03 0.01 0.00 0.02 0.00 0.00 0.00 0.03 0.02 0.01 0.01 0.01
0.00 0.00 0.00 0.00 0.00 0.00 0.00 0.00 0.09 0.17 0.09 0.05 0.01 0.01 0.00 0.00 0.00 0.00 0.00 0.00 0.00 0.00 0.00 0.00 0.00 0.00 0.00 0.00 0.01 0.06 0.06 0.05 0.02 0.03 0.01 0.02 0.05 0.03 0.02 0.03 0.01 0.01 0.01 0.01 0.02
0.00 0.00 0.00 0.00 0.00 0.00 0.00 0.01 0.07 0.02 0.00 0.00 0.00 0.00 0.00 0.00 0.00 0.00 0.00 0.00 0.00 0.00 0.00 0.00 0.00 0.00 0.00 0.00 0.02 0.06 0.09 0.05 0.09 0.05 0.07 0.02 0.04 0.04 0.13 0.09 0.04 0.04 0.06 0.11 0.13
0.00 0.00 0.00 0.00 0.00 0.00 0.00 0.01 0.00 0.00 0.00 0.00 0.00 0.00 0.00 0.00 0.00 0.00 0.00 0.00 0.00 0.00 0.00 0.00 0.01 0.00 0.00 0.00 0.00 0.03 0.05 0.09 0.14 0.09 0.04 0.02 0.06 0.18 0.19 0.13 0.14 0.17 0.26 0.29 0.31
0.00 0.00 0.00 0.00 0.00 0.00 0.00 0.00 0.00 0.00 0.00 0.00 0.00 0.00 0.00 0.00 0.00 0.00 0.00 0.00 0.00 0.00 0.00 0.00 0.00 0.00 0.00 0.00 0.00 0.00 0.01 0.01 0.04 0.05 0.07 0.02 0.03 0.12 0.16 0.10 0.08 0.16 0.22 0.26 0.29
0.00 0.00 0.00 0.00 0.00 0.00 0.00 0.00 0.00 0.00 0.00 0.00 0.00 0.00 0.00 0.00 0.00 0.00 0.00 0.00 0.00 0.00 0.00 0.00 0.00 0.00 0.00 0.00 0.00 0.00 0.00 0.00 0.00 0.00 0.00 0.01 0.01 0.00 0.03 0.03 0.05 0.10 0.10 0.15 0.20
0.00 0.00 0.00 0.00 0.00 0.00 0.00 0.00 0.00 0.00 0.00 0.00 0.00 0.00 0.00 0.00 0.00 0.00 0.00 0.00 0.00 0.00 0.00 0.00 0.00 0.00 0.00 0.00 0.00 0.00 0.00 0.00 0.00 0.00 0.00 0.00 0.00 0.01 0.00 0.00 0.01 0.03 0.02 0.02 0.01
0.00 0.00 0.00 0.00 0.00 0.00 0.00 0.00 0.00 0.00 0.00 0.00 0.00 0.00 0.00 0.00 0.00 0.00 0.00 0.00 0.00 0.00 0.00 0.00 0.00 0.00 0.00 0.00 0.00 0.00 0.00 0.00 0.00 0.00 0.00 0.00 0.00 0.00 0.00 0.00 0.00 0.00 0.00 0.00 0.00
0.00 0.00 0.00 0.00 0.00 0.00 0.00 0.00 0.00 0.00 0.00 0.00 0.00 0.00 0.00 0.00 0.00 0.00 0.00 0.00 0.00 0.00 0.00 0.00 0.00 0.00 0.00 0.00 0.00 0.00 0.00 0.00 0.00 0.00 0.00 0.00 0.00 0.00 0.00 0.00 0.00 0.00 0.00 0.00 0.00
0.00 0.00 0.00 0.00 0.00 0.00 0.00 0.00 0.00 0.00 0.00 0.00 0.00 0.00 0.00 0.00 0.00 0.00 0.00 0.00 0.00 0.00 0.00 0.00 0.00 0.00 0.00 0.00 0.00 0.00 0.00 0.00 0.00 0.00 0.00 0.00 0.00 0.00 0.00 0.00 0.00 0.00 0.00 0.00 0.00
0.00 0.00 0.00 0.00 0.00 0.00 0.00 0.00 0.00 0.00 0.00 0.00 0.00 0.00 0.00 0.00 0.00 0.00 0.00 0.00 0.00 0.00 0.00 0.00 0.00 0.00 0.00 0.00 0.00 0.00 0.00 0.00 0.00 0.00 0.00 0.00 0.00 0.00 0.00 0.00 0.00 0.00 0.00 0.00 0.00

GFSSW_prec_precacc24_120.txt.gz
Total_Precipitation_Accumulation
0.40 0.45 0.43 0.48 0.58 0.76 0.92 0.72 0.33 0.20 0.00 0.00 0.02 0.27 0.72 1.05 0.17 0.00 0.00 0.00 0.00 0.00 0.00 0.00 0.00 0.00 0.00 0.00 0.00 0.00 0.00 0.00 0.00 0.00 0.00 0.00 0.00 0.00 0.00 0.00 0.00 0.00 0.00 0.00 0.00
0.16 0.13 0.36 0.53 0.59 0.54 0.49 0.61 0.53 0.39 0.02 0.00 0.00 0.13 0.65 1.09 0.47 0.00 0.00 0.00 0.00 0.00 0.00 0.00 0.00 0.00 0.00 0.00 0.00 0.00 0.00 0.00 0.00 0.00 0.00 0.00 0.00 0.00 0.00 0.00 0.00 0.00 0.00 0.00 0.00
0.15 0.16 0.17 0.19 0.21 0.28 0.29 0.39 0.48 0.52 0.09 0.00 0.00 0.05 0.47 0.97 0.88 0.11 0.01 0.01 0.00 0.00 0.00 0.00 0.00 0.00 0.00 0.00 0.00 0.00 0.00 0.00 0.00 0.00 0.00 0.00 0.00 0.00 0.00 0.00 0.00 0.00 0.00 0.00 0.00
0.25 0.16 0.07 0.07 0.13 0.25 0.35 0.27 0.40 0.56 0.19 0.00 0.03 0.16 0.51 0.77 0.89 0.25 0.00 0.01 0.00 0.00 0.00 0.00 0.00 0.00 0.00 0.00 0.00 0.00 0.00 0.00 0.00 0.00 0.00 0.00 0.00 0.00 0.00 0.00 0.00 0.00 0.00 0.00 0.00
0.21 0.19 0.11 0.08 0.07 0.11 0.19 0.26 0.46 0.49 0.18 0.01 0.05 0.36 0.48 0.48 0.44 0.30 0.05 0.01 0.00 0.00 0.00 0.00 0.00 0.00 0.00 0.00 0.00 0.00 0.00 0.00 0.00 0.00 0.00 0.00 0.00 0.00 0.00 0.00 0.00 0.00 0.00 0.00 0.00
0.36 0.18 0.04 0.01 0.03 0.12 0.18 0.28 0.54 0.50 0.16 0.03 0.04 0.48 0.45 0.42 0.27 0.54 0.09 0.00 0.00 0.00 0.00 0.00 0.00 0.00 0.00 0.00 0.00 0.00 0.00 0.00 0.00 0.00 0.00 0.00 0.00 0.00 0.00 0.00 0.00 0.00 0.00 0.00 0.00
0.38 0.31 0.12 0.05 0.08 0.17 0.19 0.26 0.39 0.35 0.12 0.08 0.08 0.31 0.44 0.49 0.28 0.67 0.16 0.00 0.00 0.00 0.00 0.00 0.00 0.00 0.00 0.00 0.00 0.00 0.00 0.00 0.00 0.00 0.00 0.00 0.00 0.00 0.00 0.00 0.00 0.00 0.00 0.00 0.00
0.59 0.25 0.06 0.10 0.10 0.14 0.13 0.17 0.07 0.06 0.05 0.02 0.22 0.48 0.63 0.71 0.27 0.45 0.16 0.00 0.00 0.00 0.00 0.00 0.00 0.00 0.00 0.00 0.00 0.00 0.00 0.00 0.00 0.00 0.00 0.00 0.00 0.00 0.00 0.00 0.00 0.00 0.00 0.00 0.00
0.78 0.23 0.01 0.05 0.07 0.12 0.10 0.05 0.04 0.05 0.06 0.05 0.40 1.01 0.80 1.02 0.50 0.33 0.17 0.00 0.00 0.00 0.00 0.00 0.00 0.00 0.00 0.00 0.00 0.00 0.00 0.00 0.00 0.00 0.00 0.00 0.00 0.00 0.00 0.00 0.00 0.00 0.00 0.00 0.00
0.49 0.14 0.01 0.03 0.03 0.02 0.05 0.05 0.30 0.33 0.21 0.10 0.67 1.16 1.05 1.19 0.57 0.20 0.19 0.00 0.00 0.00 0.00 0.00 0.00 0.00 0.00 0.00 0.00 0.00 0.00 0.00 0.00 0.00 0.00 0.00 0.00 0.00 0.00 0.00 0.00 0.00 0.00 0.00 0.00
0.05 0.02 0.02 0.00 0.02 0.01 0.07 0.19 0.30 0.20 0.16 0.42 0.89 0.85 0.85 0.64 0.25 0.15 0.19 0.01 0.00 0.00 0.00 0.00 0.00 0.00 0.00 0.00 0.00 0.00 0.00 0.00 0.00 0.00 0.00 0.00 0.00 0.00 0.00 0.00 0.00 0.00 0.00 0.00 0.00
0.04 0.02 0.01 0.00 0.00 0.00 0.01 0.17 0.20 0.15 0.59 1.00 0.69 0.71 0.57 0.34 0.23 0.11 0.12 0.01 0.00 0.00 0.00 0.00 0.00 0.00 0.00 0.00 0.00 0.00 0.00 0.00 0.00 0.00 0.00 0.00 0.00 0.00 0.00 0.00 0.00 0.00 0.00 0.00 0.00
0.05 0.07 0.02 0.01 0.00 0.00 0.03 0.23 0.16 0.11 0.78 1.36 1.17 0.98 0.58 0.23 0.14 0.08 0.07 0.00 0.00 0.00 0.00 0.00 0.00 0.00 0.00 0.00 0.00 0.00 0.00 0.00 0.00 0.00 0.00 0.00 0.00 0.00 0.00 0.00 0.00 0.00 0.00 0.00 0.02
0.02 0.03 0.04 0.03 0.01 0.03 0.13 0.26 0.13 0.09 0.43 1.52 0.94 0.81 0.38 0.17 0.15 0.04 0.02 0.00 0.00 0.00 0.00 0.00 0.00 0.00 0.00 0.00 0.00 0.00 0.00 0.00 0.00 0.01 0.01 0.00 0.01 0.00 0.00 0.00 0.00 0.00 0.00 0.01 0.01
0.00 0.00 0.00 0.00 0.03 0.13 0.21 0.17 0.10 0.02 0.30 0.98 0.70 0.51 0.31 0.11 0.12 0.04 0.00 0.00 0.00 0.00 0.00 0.00 0.00 0.00 0.00 0.00 0.00 0.00 0.00 0.00 0.00 0.01 0.04 0.01 0.03 0.00 0.00 0.00 0.00 0.00 0.00 0.00 0.01
0.00 0.00 0.00 0.00 0.02 0.06 0.05 0.04 0.01 0.01 0.51 0.74 0.49 0.37 0.08 0.03 0.01 0.00 0.00 0.00 0.00 0.00 0.00 0.00 0.00 0.00 0.00 0.00 0.00 0.00 0.00 0.00 0.00 0.04 0.05 0.00 0.01 0.00 0.00 0.00 0.00 0.01 0.00 0.00 0.00
0.00 0.00 0.00 0.00 0.00 0.00 0.00 0.00 0.00 0.12 0.29 0.26 0.26 0.09 0.03 0.02 0.00 0.00 0.00 0.00 0.00 0.00 0.00 0.00 0.00 0.00 0.00 0.00 0.00 0.00 0.03 0.01 0.00 0.01 0.00 0.00 0.01 0.00 0.00 0.00 0.01 0.02 0.01 0.01 0.01
0.00 0.00 0.00 0.00 0.00 0.00 0.00 0.00 0.08 0.16 0.10 0.06 0.03 0.01 0.00 0.00 0.00 0.00 0.00 0.00 0.00 0.00 0.00 0.00 0.00 0.00 0.00 0.00 0.01 0.04 0.04 0.02 0.01 0.00 0.01 0.01 0.02 0.02 0.02 0.03 0.01 0.01 0.01 0.01 0.02
0.00 0.00 0.00 0.00 0.00 0.00 0.00 0.01 0.06 0.01 0.00 0.00 0.00 0.00 0.00 0.00 0.00 0.00 0.00 0.00 0.00 0.00 0.00 0.00 0.00 0.00 0.00 0.00 0.01 0.04 0.05 0.03 0.05 0.01 0.04 0.01 0.03 0.04 0.12 0.08 0.04 0.03 0.04 0.07 0.08
0.00 0.00 0.00 0.00 0.00 0.00 0.00 0.00 0.00 0.00 0.00 0.00 0.00 0.00 0.00 0.00 0.00 0.00 0.00 0.00 0.00 0.00 0.00 0.00 0.00 0.00 0.00 0.00 0.00 0.01 0.01 0.04 0.07 0.04 0.02 0.00 0.03 0.11 0.14 0.09 0.07 0.09 0.13 0.17 0.21
0.00 0.00 0.00 0.00 0.00 0.00 0.00 0.00 0.00 0.00 0.00 0.00 0.00 0.00 0.00 0.00 0.00 0.00 0.00 0.00 0.00 0.00 0.00 0.00 0.00 0.00 0.00 0.00 0.00 0.00 0.01 0.00 0.01 0.02 0.03 0.01 0.01 0.07 0.13 0.07 0.04 0.06 0.10 0.14 0.17
0.00 0.00 0.00 0.00 0.00 0.00 0.00 0.00 0.00 0.00 0.00 0.00 0.00 0.00 0.00 0.00 0.00 0.00 0.00 0.00 0.00 0.00 0.00 0.00 0.00 0.00 0.00 0.00 0.00 0.00 0.00 0.00 0.00 0.00 0.00 0.00 0.00 0.00 0.02 0.02 0.01 0.02 0.04 0.06 0.08
0.00 0.00 0.00 0.00 0.00 0.00 0.00 0.00 0.00 0.00 0.00 0.00 0.00 0.00 0.00 0.00 0.00 0.00 0.00 0.00 0.00 0.00 0.00 0.00 0.00 0.00 0.00 0.00 0.00 0.00 0.00 0.00 0.00 0.00 0.00 0.00 0.00 0.00 0.00 0.00 0.00 0.00 0.00 0.00 0.00
0.00 0.00 0.00 0.00 0.00 0.00 0.00 0.00 0.00 0.00 0.00 0.00 0.00 0.00 0.00 0.00 0.00 0.00 0.00 0.00 0.00 0.00 0.00 0.00 0.00 0.00 0.00 0.00 0.00 0.00 0.00 0.00 0.00 0.00 0.00 0.00 0.00 0.00 0.00 0.00 0.00 0.00 0.00 0.00 0.00
0.00 0.00 0.00 0.00 0.00 0.00 0.00 0.00 0.00 0.00 0.00 0.00 0.00 0.00 0.00 0.00 0.00 0.00 0.00 0.00 0.00 0.00 0.00 0.00 0.00 0.00 0.00 0.00 0.00 0.00 0.00 0.00 0.00 0.00 0.00 0.00 0.00 0.00 0.00 0.00 0.00 0.00 0.00 0.00 0.00
0.00 0.00 0.00 0.00 0.00 0.00 0.00 0.00 0.00 0.00 0.00 0.00 0.00 0.00 0.00 0.00 0.00 0.00 0.00 0.00 0.00 0.00 0.00 0.00 0.00 0.00 0.00 0.00 0.00 0.00 0.00 0.00 0.00 0.00 0.00 0.00 0.00 0.00 0.00 0.00 0.00 0.00 0.00 0.00 0.00
0.00 0.00 0.00 0.00 0.00 0.00 0.00 0.00 0.00 0.00 0.00 0.00 0.00 0.00 0.00 0.00 0.00 0.00 0.00 0.00 0.00 0.00 0.00 0.00 0.00 0.00 0.00 0.00 0.00 0.00 0.00 0.00 0.00 0.00 0.00 0.00 0.00 0.00 0.00 0.00 0.00 0.00 0.00 0.00 0.00

GFSSW_prec_precacc24_123.txt.gz
Total_Precipitation_Accumulation
0.39 0.45 0.42 0.48 0.59 0.79 0.92 0.75 0.37 0.26 0.06 0.00 0.02 0.18 0.45 1.08 0.46 0.11 0.00 0.00 0.00 0.00 0.00 0.00 0.00 0.00 0.00 0.00 0.00 0.00 0.00 0.00 0.00 0.00 0.00 0.00 0.00 0.00 0.00 0.00 0.00 0.00 0.00 0.00 0.00
0.15 0.11 0.35 0.55 0.65 0.56 0.47 0.60 0.55 0.47 0.11 0.00 0.00 0.12 0.41 1.24 0.84 0.15 0.03 0.00 0.00 0.00 0.00 0.00 0.00 0.00 0.00 0.00 0.00 0.00 0.00 0.00 0.00 0.00 0.00 0.00 0.00 0.00 0.00 0.00 0.00 0.00 0.00 0.00 0.00
0.15 0.16 0.17 0.20 0.25 0.33 0.30 0.39 0.47 0.63 0.31 0.02 0.00 0.05 0.49 1.13 1.50 0.40 0.10 0.05 0.00 0.00 0.00 0.00 0.00 0.00 0.00 0.00 0.00 0.00 0.00 0.00 0.00 0.00 0.00 0.00 0.00 0.00 0.00 0.00 0.00 0.00 0.00 0.00 0.00
0.25 0.15 0.05 0.06 0.13 0.26 0.33 0.29 0.42 0.76 0.48 0.05 0.04 0.12 0.67 1.08 1.45 0.61 0.14 0.03 0.00 0.00 0.00 0.00 0.00 0.00 0.00 0.00 0.00 0.00 0.00 0.00 0.00 0.00 0.00 0.00 0.00 0.00 0.00 0.00 0.00 0.00 0.00 0.00 0.00
0.21 0.19 0.11 0.07 0.07 0.10 0.17 0.27 0.60 0.72 0.37 0.06 0.09 0.30 0.65 0.89 0.80 0.65 0.10 0.01 0.00 0.00 0.00 0.00 0.00 0.00 0.00 0.00 0.00 0.00 0.00 0.00 0.00 0.00 0.00 0.00 0.00 0.00 0.00 0.00 0.00 0.00 0.00 0.00 0.00
0.35 0.17 0.04 0.01 0.04 0.12 0.20 0.26 0.57 0.62 0.24 0.07 0.07 0.29 0.38 0.62 0.63 0.83 0.12 0.00 0.00 0.00 0.00 0.00 0.00 0.00 0.00 0.00 0.00 0.00 0.00 0.00 0.00 0.00 0.00 0.00 0.00 0.00 0.00 0.00 0.00 0.00 0.00 0.00 0.00
0.36 0.29 0.11 0.03 0.05 0.12 0.19 0.28 0.43 0.45 0.17 0.14 0.06 0.24 0.37 0.68 0.47 0.93 0.17 0.00 0.00 0.00 0.00 0.00 0.00 0.00 0.00 0.00 0.00 0.00 0.00 0.00 0.00 0.00 0.00 0.00 0.00 0.00 0.00 0.00 0.00 0.00 0.00 0.00 0.00
0.54 0.23 0.04 0.04 0.07 0.11 0.16 0.24 0.11 0.06 0.05 0.04 0.10 0.31 0.54 0.79 0.40 0.64 0.17 0.00 0.00 0.00 0.00 0.00 0.00 0.00 0.00 0.00 0.00 0.00 0.00 0.00 0.00 0.00 0.00 0.00 0.00 0.00 0.00 0.00 0.00 0.00 0.00 0.00 0.00
0.66 0.21 0.00 0.01 0.04 0.12 0.13 0.06 0.03 0.03 0.06 0.07 0.20 0.64 0.78 0.95 0.53 0.46 0.18 0.00 0.00 0.00 0.00 0.00 0.00 0.00 0.00 0.00 0.00 0.00 0.00 0.00 0.00 0.00 0.00 0.00 0.00 0.00 0.00 0.00 0.00 0.00 0.00 0.00 0.00
0.24 0.13 0.01 0.01 0.03 0.02 0.05 0.05 0.19 0.21 0.18 0.06 0.46 0.78 1.02 1.02 0.54 0.33 0.20 0.00 0.00 0.00 0.00 0.00 0.00 0.00 0.00 0.00 0.00 0.00 0.00 0.00 0.00 0.00 0.00 0.00 0.00 0.00 0.00 0.00 0.00 0.00 0.00 0.00 0.00
0.03 0.02 0.02 0.00 0.02 0.01 0.07 0.09 0.11 0.14 0.10 0.28 0.70 0.68 0.90 0.60 0.25 0.23 0.21 0.01 0.00 0.00 0.00 0.00 0.00 0.00 0.00 0.00 0.00 0.00 0.00 0.00 0.00 0.00 0.00 0.00 0.00 0.00 0.00 0.00 0.00 0.00 0.00 0.00 0.00
0.03 0.02 0.01 0.00 0.00 0.00 0.00 0.02 0.03 0.07 0.28 0.75 0.55 0.60 0.63 0.35 0.26 0.16 0.13 0.01 0.00 0.00 0.00 0.00 0.00 0.00 0.00 0.00 0.00 0.00 0.00 0.00 0.00 0.00 0.00 0.00 0.00 0.00 0.00 0.00 0.00 0.00 0.00 0.00 0.00
0.05 0.07 0.02 0.01 0.00 0.00 0.00 0.03 0.05 0.04 0.56 0.90 0.85 0.85 0.57 0.26 0.17 0.11 0.07 0.00 0.00 0.00 0.00 0.00 0.00 0.00 0.00 0.00 0.00 0.00 0.00 0.00 0.00 0.00 0.00 0.00 0.00 0.00 0.00 0.00 0.00 0.00 0.00 0.00 0.00
0.02 0.03 0.04 0.03 0.01 0.01 0.04 0.08 0.05 0.05 0.34 1.22 0.78 0.75 0.39 0.20 0.17 0.05 0.02 0.00 0.00 0.00 0.00 0.00 0.00 0.00 0.00 0.00 0.00 0.00 0.00 0.00 0.00 0.00 0.00 0.00 0.00 0.00 0.00 0.00 0.00 0.00 0.00 0.00 0.00
0.00 0.00 0.00 0.00 0.02 0.04 0.06 0.05 0.04 0.01 0.25 0.85 0.64 0.51 0.32 0.12 0.16 0.05 0.00 0.00 0.00 0.00 0.00 0.00 0.00 0.00 0.00 0.00 0.00 0.00 0.00 0.00 0.00 0.00 0.01 0.00 0.02 0.00 0.00 0.00 0.00 0.00 0.00 0.00 0.00
0.00 0.00 0.00 0.00 0.01 0.02 0.02 0.01 0.00 0.01 0.47 0.69 0.47 0.35 0.08 0.03 0.02 0.01 0.00 0.00 0.00 0.00 0.00 0.00 0.00 0.00 0.00 0.00 0.00 0.00 0.00 0.00 0.00 0.01 0.02 0.00 0.00 0.00 0.00 0.00 0.00 0.01 0.00 0.00 0.00
0.00 0.00 0.00 0.00 0.00 0.00 0.00 0.00 0.00 0.12 0.27 0.25 0.27 0.09 0.03 0.02 0.00 0.00 0.00 0.00 0.00 0.00 0.00 0.00 0.00 0.00 0.00 0.00 0.00 0.00 0.00 0.01 0.00 0.01 0.00 0.00 0.00 0.00 0.00 0.00 0.01 0.01 0.00 0.01 0.00
0.00 0.00 0.00 0.00 0.00 0.00 0.00 0.00 0.08 0.16 0.11 0.08 0.04 0.01 0.00 0.00 0.00 0.00 0.00 0.00 0.00 0.00 0.00 0.00 0.00 0.00 0.00 0.00 0.00 0.02 0.02 0.01 0.01 0.00 0.00 0.00 0.00 0.01 0.01 0.02 0.00 0.00 0.01 0.01 0.01
0.00 0.00 0.00 0.00 0.00 0.00 0.00 0.01 0.05 0.01 0.00 0.00 0.00 0.00 0.00 0.00 0.00 0.00 0.00 0.00 0.00 0.00 0.00 0.00 0.00 0.00 0.00 0.00 0.01 0.02 0.03 0.01 0.03 0.01 0.01 0.00 0.00 0.01 0.04 0.03 0.01 0.01 0.02 0.02 0.03
0.00 0.00 0.00 0.00 0.00 0.00 0.00 0.00 0.00 0.00 0.00 0.00 0.00 0.00 0.00 0.00 0.00 0.00 0.00 0.00 0.00 0.00 0.00 0.00 0.00 0.00 0.00 0.00 0.00 0.00 0.01 0.01 0.03 0.01 0.01 0.00 0.00 0.03 0.05 0.03 0.02 0.01 0.03 0.06 0.08
0.00 0.00 0.00 0.00 0.00 0.00 0.00 0.00 0.00 0.00 0.00 0.00 0.00 0.00 0.00 0.00 0.00 0.00 0.00 0.00 0.00 0.00 0.00 0.00 0.00 0.00 0.00 0.00 0.00 0.00 0.00 0.00 0.00 0.00 0.01 0.00 0.00 0.02 0.03 0.02 0.02 0.02 0.03 0.05 0.06
0.00 0.00 0.00 0.00 0.00 0.00 0.00 0.00 0.00 0.00 0.00 0.00 0.00 0.00 0.00 0.00 0.00 0.00 0.00 0.00 0.00 0.00 0.00 0.00 0.00 0.00 0.00 0.00 0.00 0.00 0.00 0.00 0.00 0.00 0.00 0.00 0.00 0.00 0.00 0.00 0.00 0.01 0.01 0.01 0.01
0.00 0.00 0.00 0.00 0.00 0.00 0.00 0.00 0.00 0.00 0.00 0.00 0.00 0.00 0.00 0.00 0.00 0.00 0.00 0.00 0.00 0.00 0.00 0.00 0.00 0.00 0.00 0.00 0.00 0.00 0.00 0.00 0.00 0.00 0.00 0.00 0.00 0.00 0.00 0.00 0.00 0.00 0.00 0.00 0.00
0.00 0.00 0.00 0.00 0.00 0.00 0.00 0.00 0.00 0.00 0.00 0.00 0.00 0.00 0.00 0.00 0.00 0.00 0.00 0.00 0.00 0.00 0.00 0.00 0.00 0.00 0.00 0.00 0.00 0.00 0.00 0.00 0.00 0.00 0.00 0.00 0.00 0.00 0.00 0.00 0.00 0.00 0.00 0.00 0.00
0.00 0.00 0.00 0.00 0.00 0.00 0.00 0.00 0.00 0.00 0.00 0.00 0.00 0.00 0.00 0.00 0.00 0.00 0.00 0.00 0.00 0.00 0.00 0.00 0.00 0.00 0.00 0.00 0.00 0.00 0.00 0.00 0.00 0.00 0.00 0.00 0.00 0.00 0.00 0.00 0.00 0.00 0.00 0.00 0.00
0.00 0.00 0.00 0.00 0.00 0.00 0.00 0.00 0.00 0.00 0.00 0.00 0.00 0.00 0.00 0.00 0.00 0.00 0.00 0.00 0.00 0.00 0.00 0.00 0.00 0.00 0.00 0.00 0.00 0.00 0.00 0.00 0.00 0.00 0.00 0.00 0.00 0.00 0.00 0.00 0.00 0.00 0.00 0.00 0.00
0.00 0.00 0.00 0.00 0.00 0.00 0.00 0.00 0.00 0.00 0.00 0.00 0.00 0.00 0.00 0.00 0.00 0.00 0.00 0.00 0.00 0.00 0.00 0.00 0.00 0.00 0.00 0.00 0.00 0.00 0.00 0.00 0.00 0.00 0.00 0.00 0.00 0.00 0.00 0.00 0.00 0.00 0.00 0.00 0.00

GFSSW_prec_precacc24_126.txt.gz
Total_Precipitation_Accumulation
0.38 0.44 0.41 0.48 0.59 0.81 0.93 0.75 0.37 0.26 0.08 0.02 0.02 0.18 0.41 1.01 0.66 0.26 0.01 0.00 0.00 0.00 0.00 0.00 0.00 0.00 0.00 0.00 0.00 0.00 0.00 0.00 0.00 0.00 0.00 0.00 0.00 0.00 0.00 0.00 0.00 0.00 0.00 0.00 0.00
0.14 0.10 0.30 0.48 0.62 0.56 0.46 0.55 0.53 0.52 0.18 0.02 0.00 0.12 0.41 1.29 1.05 0.36 0.11 0.02 0.00 0.00 0.00 0.00 0.00 0.00 0.00 0.00 0.00 0.00 0.00 0.00 0.00 0.00 0.00 0.00 0.00 0.00 0.00 0.00 0.00 0.00 0.00 0.00 0.00
0.13 0.13 0.15 0.19 0.26 0.38 0.34 0.40 0.46 0.65 0.35 0.02 0.00 0.04 0.50 1.19 1.71 0.73 0.27 0.13 0.01 0.00 0.00 0.00 0.00 0.00 0.00 0.00 0.00 0.00 0.00 0.00 0.00 0.00 0.00 0.00 0.00 0.00 0.00 0.00 0.00 0.00 0.00 0.00 0.00
0.22 0.15 0.06 0.06 0.13 0.30 0.37 0.33 0.45 0.78 0.47 0.07 0.04 0.11 0.69 1.12 1.55 0.91 0.43 0.10 0.01 0.00 0.00 0.00 0.00 0.00 0.00 0.00 0.00 0.00 0.00 0.00 0.00 0.00 0.00 0.00 0.00 0.00 0.00 0.00 0.00 0.00 0.00 0.00 0.00
0.19 0.16 0.09 0.07 0.09 0.11 0.20 0.33 0.60 0.73 0.43 0.13 0.12 0.31 0.66 0.93 0.87 0.81 0.23 0.01 0.00 0.00 0.00 0.00 0.00 0.00 0.00 0.00 0.00 0.00 0.00 0.00 0.00 0.00 0.00 0.00 0.00 0.00 0.00 0.00 0.00 0.00 0.00 0.00 0.00
0.34 0.17 0.03 0.01 0.05 0.16 0.30 0.59 0.78 0.70 0.34 0.21 0.15 0.27 0.38 0.66 0.73 0.99 0.29 0.00 0.00 0.00 0.00 0.00 0.00 0.00 0.00 0.00 0.00 0.00 0.00 0.00 0.00 0.00 0.00 0.00 0.00 0.00 0.00 0.00 0.00 0.00 0.00 0.00 0.00
0.31 0.25 0.09 0.03 0.04 0.14 0.25 0.40 0.53 0.50 0.27 0.21 0.08 0.16 0.31 0.63 0.58 1.11 0.27 0.00 0.00 0.00 0.00 0.00 0.00 0.00 0.00 0.00 0.00 0.00 0.00 0.00 0.00 0.00 0.00 0.00 0.00 0.00 0.00 0.00 0.00 0.00 0.00 0.00 0.00
0.31 0.14 0.04 0.02 0.06 0.12 0.15 0.25 0.15 0.10 0.07 0.06 0.09 0.17 0.46 0.65 0.50 0.74 0.25 0.00 0.00 0.00 0.00 0.00 0.00 0.00 0.00 0.00 0.00 0.00 0.00 0.00 0.00 0.00 0.00 0.00 0.00 0.00 0.00 0.00 0.00 0.00 0.00 0.00 0.00
0.34 0.08 0.00 0.01 0.04 0.11 0.12 0.06 0.03 0.02 0.06 0.06 0.07 0.43 0.59 0.77 0.58 0.54 0.22 0.00 0.00 0.00 0.00 0.00 0.00 0.00 0.00 0.00 0.00 0.00 0.00 0.00 0.00 0.00 0.00 0.00 0.00 0.00 0.00 0.00 0.00 0.00 0.00 0.00 0.00
0.04 0.03 0.01 0.01 0.02 0.02 0.05 0.04 0.08 0.11 0.12 0.03 0.16 0.52 0.76 0.90 0.55 0.39 0.21 0.00 0.00 0.00 0.00 0.00 0.00 0.00 0.00 0.00 0.00 0.00 0.00 0.00 0.00 0.00 0.00 0.00 0.00 0.00 0.00 0.00 0.00 0.00 0.00 0.00 0.00
0.02 0.01 0.01 0.00 0.02 0.01 0.07 0.08 0.06 0.09 0.07 0.22 0.52 0.56 0.79 0.62 0.26 0.28 0.21 0.01 0.00 0.00 0.00 0.00 0.00 0.00 0.00 0.00 0.00 0.00 0.00 0.00 0.00 0.00 0.00 0.00 0.00 0.00 0.00 0.00 0.00 0.00 0.00 0.00 0.00
0.02 0.02 0.00 0.00 0.00 0.00 0.00 0.01 0.01 0.03 0.21 0.50 0.43 0.40 0.58 0.36 0.29 0.18 0.13 0.01 0.00 0.00 0.00 0.00 0.00 0.00 0.00 0.00 0.00 0.00 0.00 0.00 0.00 0.00 0.00 0.00 0.00 0.00 0.00 0.00 0.00 0.00 0.00 0.00 0.00
0.04 0.07 0.01 0.01 0.00 0.00 0.00 0.01 0.00 0.01 0.38 0.62 0.61 0.69 0.50 0.25 0.17 0.13 0.07 0.00 0.00 0.00 0.00 0.00 0.00 0.00 0.00 0.00 0.00 0.00 0.00 0.00 0.00 0.00 0.00 0.00 0.00 0.00 0.00 0.00 0.00 0.00 0.00 0.00 0.00
0.02 0.03 0.02 0.01 0.01 0.01 0.03 0.04 0.02 0.02 0.22 0.95 0.60 0.62 0.36 0.20 0.18 0.05 0.02 0.00 0.00 0.00 0.00 0.00 0.00 0.00 0.00 0.00 0.00 0.00 0.00 0.00 0.00 0.00 0.00 0.00 0.00 0.00 0.00 0.00 0.00 0.00 0.00 0.00 0.00
0.00 0.00 0.00 0.00 0.00 0.01 0.01 0.02 0.02 0.01 0.23 0.75 0.62 0.51 0.30 0.12 0.16 0.05 0.00 0.00 0.00 0.00 0.00 0.00 0.00 0.00 0.00 0.00 0.00 0.00 0.00 0.00 0.00 0.00 0.00 0.00 0.00 0.00 0.00 0.00 0.00 0.00 0.00 0.00 0.00
0.00 0.00 0.00 0.00 0.00 0.00 0.00 0.01 0.00 0.01 0.44 0.64 0.43 0.35 0.08 0.03 0.02 0.01 0.00 0.00 0.00 0.00 0.00 0.00 0.00 0.00 0.00 0.00 0.00 0.00 0.00 0.00 0.00 0.00 0.00 0.00 0.00 0.00 0.00 0.00 0.00 0.00 0.00 0.00 0.00
0.00 0.00 0.00 0.00 0.00 0.00 0.00 0.00 0.00 0.10 0.24 0.24 0.29 0.10 0.03 0.02 0.00 0.00 0.00 0.00 0.00 0.00 0.00 0.00 0.00 0.00 0.00 0.00 0.00 0.00 0.00 0.00 0.00 0.00 0.00 0.00 0.00 0.00 0.00 0.00 0.00 0.00 0.00 0.00 0.00
0.00 0.00 0.00 0.00 0.00 0.00 0.00 0.00 0.08 0.16 0.11 0.08 0.04 0.01 0.00 0.00 0.00 0.00 0.00 0.00 0.00 0.00 0.00 0.00 0.00 0.00 0.00 0.00 0.00 0.00 0.00 0.00 0.00 0.00 0.00 0.00 0.00 0.00 0.00 0.00 0.00 0.00 0.00 0.00 0.00
0.00 0.00 0.00 0.00 0.00 0.00 0.00 0.01 0.05 0.01 0.01 0.00 0.00 0.00 0.00 0.00 0.00 0.00 0.00 0.00 0.00 0.00 0.00 0.00 0.00 0.00 0.00 0.00 0.00 0.01 0.01 0.00 0.01 0.00 0.01 0.00 0.00 0.00 0.00 0.00 0.00 0.00 0.00 0.00 0.00
0.00 0.00 0.00 0.00 0.00 0.00 0.00 0.00 0.00 0.00 0.00 0.00 0.00 0.00 0.00 0.00 0.00 0.00 0.00 0.00 0.00 0.00 0.00 0.00 0.00 0.00 0.00 0.00 0.00 0.00 0.00 0.01 0.02 0.01 0.00 0.00 0.00 0.00 0.00 0.00 0.00 0.00 0.00 0.00 0.01
0.00 0.00 0.00 0.00 0.00 0.00 0.00 0.00 0.00 0.00 0.00 0.00 0.00 0.00 0.00 0.00 0.00 0.00 0.00 0.00 0.00 0.00 0.00 0.00 0.00 0.00 0.00 0.00 0.00 0.00 0.00 0.00 0.00 0.00 0.00 0.00 0.00 0.00 0.00 0.00 0.00 0.00 0.00 0.00 0.00
0.00 0.00 0.00 0.00 0.00 0.00 0.00 0.00 0.00 0.00 0.00 0.00 0.00 0.00 0.00 0.00 0.00 0.00 0.00 0.00 0.00 0.00 0.00 0.00 0.00 0.00 0.00 0.00 0.00 0.00 0.00 0.00 0.00 0.00 0.00 0.00 0.00 0.00 0.00 0.00 0.00 0.00 0.00 0.00 0.00
0.00 0.00 0.00 0.00 0.00 0.00 0.00 0.00 0.00 0.00 0.00 0.00 0.00 0.00 0.00 0.00 0.00 0.00 0.00 0.00 0.00 0.00 0.00 0.00 0.00 0.00 0.00 0.00 0.00 0.00 0.00 0.00 0.00 0.00 0.00 0.00 0.00 0.00 0.00 0.00 0.00 0.00 0.00 0.00 0.00
0.00 0.00 0.00 0.00 0.00 0.00 0.00 0.00 0.00 0.00 0.00 0.00 0.00 0.00 0.00 0.00 0.00 0.00 0.00 0.00 0.00 0.00 0.00 0.00 0.00 0.00 0.00 0.00 0.00 0.00 0.00 0.00 0.00 0.00 0.00 0.00 0.00 0.00 0.00 0.00 0.00 0.00 0.00 0.00 0.00
0.00 0.00 0.00 0.00 0.00 0.00 0.00 0.00 0.00 0.00 0.00 0.00 0.00 0.00 0.00 0.00 0.00 0.00 0.00 0.00 0.00 0.00 0.00 0.00 0.00 0.00 0.00 0.00 0.00 0.00 0.00 0.00 0.00 0.00 0.00 0.00 0.00 0.00 0.00 0.00 0.00 0.00 0.00 0.00 0.00
0.00 0.00 0.00 0.00 0.00 0.00 0.00 0.00 0.00 0.00 0.00 0.00 0.00 0.00 0.00 0.00 0.00 0.00 0.00 0.00 0.00 0.00 0.00 0.00 0.00 0.00 0.00 0.00 0.00 0.00 0.00 0.00 0.00 0.00 0.00 0.00 0.00 0.00 0.00 0.00 0.00 0.00 0.00 0.00 0.00
0.00 0.00 0.00 0.00 0.00 0.00 0.00 0.00 0.00 0.00 0.00 0.00 0.00 0.00 0.00 0.00 0.00 0.00 0.00 0.00 0.00 0.00 0.00 0.00 0.00 0.00 0.00 0.00 0.00 0.00 0.00 0.00 0.00 0.00 0.00 0.00 0.00 0.00 0.00 0.00 0.00 0.00 0.00 0.00 0.00

GFSSW_prec_precacc24_129.txt.gz
Total_Precipitation_Accumulation
0.34 0.43 0.41 0.46 0.56 0.80 0.95 0.80 0.39 0.30 0.10 0.04 0.05 0.18 0.40 1.00 0.69 0.33 0.13 0.01 0.00 0.00 0.00 0.00 0.00 0.00 0.00 0.00 0.00 0.00 0.00 0.00 0.00 0.00 0.00 0.00 0.00 0.00 0.00 0.00 0.00 0.00 0.00 0.00 0.00
0.14 0.10 0.29 0.44 0.57 0.51 0.46 0.55 0.51 0.51 0.26 0.08 0.02 0.12 0.40 1.31 1.08 0.37 0.29 0.09 0.00 0.00 0.00 0.00 0.00 0.00 0.00 0.00 0.00 0.00 0.00 0.00 0.00 0.00 0.00 0.00 0.00 0.00 0.00 0.00 0.00 0.00 0.00 0.00 0.00
0.13 0.13 0.15 0.18 0.24 0.38 0.38 0.40 0.46 0.65 0.45 0.08 0.01 0.03 0.47 1.24 1.77 0.77 0.46 0.29 0.04 0.00 0.00 0.00 0.00 0.00 0.00 0.00 0.00 0.00 0.00 0.00 0.00 0.00 0.00 0.00 0.00 0.00 0.00 0.00 0.00 0.00 0.00 0.00 0.00
0.20 0.13 0.05 0.06 0.13 0.31 0.38 0.37 0.47 0.81 0.52 0.09 0.04 0.09 0.68 1.16 1.66 1.06 0.56 0.15 0.01 0.00 0.00 0.00 0.00 0.00 0.00 0.00 0.00 0.00 0.00 0.00 0.00 0.00 0.00 0.00 0.00 0.00 0.00 0.00 0.00 0.00 0.00 0.00 0.00
0.16 0.14 0.06 0.04 0.10 0.16 0.28 0.40 0.65 0.71 0.42 0.13 0.12 0.32 0.67 0.94 0.92 0.90 0.34 0.04 0.00 0.00 0.00 0.00 0.00 0.00 0.00 0.00 0.00 0.00 0.00 0.00 0.00 0.00 0.00 0.00 0.00 0.00 0.00 0.00 0.00 0.00 0.00 0.00 0.00
0.27 0.12 0.02 0.02 0.07 0.23 0.46 0.73 0.83 0.73 0.39 0.25 0.18 0.27 0.40 0.65 0.72 1.01 0.36 0.08 0.00 0.00 0.00 0.00 0.00 0.00 0.00 0.00 0.00 0.00 0.00 0.00 0.00 0.00 0.00 0.00 0.00 0.00 0.00 0.00 0.00 0.00 0.00 0.00 0.00
0.16 0.14 0.03 0.02 0.08 0.18 0.31 0.46 0.66 0.75 0.45 0.36 0.17 0.15 0.30 0.59 0.57 1.09 0.32 0.09 0.00 0.00 0.00 0.00 0.00 0.00 0.00 0.00 0.00 0.00 0.00 0.00 0.00 0.00 0.00 0.00 0.00 0.00 0.00 0.00 0.00 0.00 0.00 0.00 0.00
0.14 0.06 0.02 0.02 0.06 0.12 0.15 0.25 0.17 0.17 0.19 0.19 0.11 0.13 0.42 0.50 0.47 0.71 0.29 0.04 0.01 0.00 0.00 0.00 0.00 0.00 0.00 0.00 0.00 0.00 0.00 0.00 0.00 0.00 0.00 0.00 0.00 0.00 0.00 0.00 0.00 0.00 0.00 0.00 0.00
0.20 0.04 0.00 0.01 0.04 0.11 0.12 0.06 0.03 0.03 0.04 0.04 0.04 0.24 0.52 0.44 0.53 0.54 0.26 0.02 0.01 0.00 0.00 0.00 0.00 0.00 0.00 0.00 0.00 0.00 0.00 0.00 0.00 0.00 0.00 0.00 0.00 0.00 0.00 0.00 0.00 0.00 0.00 0.00 0.00
0.03 0.01 0.00 0.00 0.02 0.02 0.04 0.01 0.01 0.04 0.05 0.02 0.11 0.29 0.54 0.61 0.52 0.39 0.24 0.01 0.00 0.00 0.00 0.00 0.00 0.00 0.00 0.00 0.00 0.00 0.00 0.00 0.00 0.00 0.00 0.00 0.00 0.00 0.00 0.00 0.00 0.00 0.00 0.00 0.00
0.00 0.00 0.01 0.00 0.02 0.01 0.06 0.05 0.04 0.06 0.07 0.31 0.47 0.42 0.62 0.42 0.25 0.30 0.25 0.02 0.00 0.00 0.00 0.00 0.00 0.00 0.00 0.00 0.00 0.00 0.00 0.00 0.00 0.00 0.00 0.00 0.00 0.00 0.00 0.00 0.00 0.00 0.00 0.00 0.00
0.01 0.00 0.00 0.00 0.00 0.00 0.00 0.01 0.01 0.02 0.20 0.41 0.37 0.31 0.44 0.29 0.28 0.23 0.15 0.02 0.00 0.00 0.00 0.00 0.00 0.00 0.00 0.00 0.00 0.00 0.00 0.00 0.00 0.00 0.00 0.00 0.00 0.00 0.00 0.00 0.00 0.00 0.00 0.00 0.00
0.02 0.01 0.00 0.00 0.00 0.00 0.00 0.00 0.00 0.00 0.23 0.45 0.56 0.63 0.44 0.23 0.19 0.17 0.08 0.00 0.00 0.00 0.00 0.00 0.00 0.00 0.00 0.00 0.00 0.00 0.00 0.00 0.00 0.00 0.00 0.00 0.00 0.00 0.00 0.00 0.00 0.00 0.00 0.00 0.00
0.01 0.01 0.00 0.00 0.00 0.00 0.00 0.00 0.01 0.01 0.14 0.70 0.48 0.59 0.35 0.21 0.19 0.05 0.02 0.00 0.00 0.00 0.00 0.00 0.00 0.00 0.00 0.00 0.00 0.00 0.00 0.00 0.00 0.00 0.00 0.00 0.00 0.00 0.00 0.00 0.00 0.00 0.00 0.00 0.00
0.00 0.00 0.00 0.00 0.00 0.00 0.00 0.01 0.01 0.00 0.20 0.66 0.57 0.47 0.29 0.13 0.16 0.05 0.00 0.00 0.00 0.00 0.00 0.00 0.00 0.00 0.00 0.00 0.00 0.00 0.00 0.00 0.00 0.00 0.00 0.00 0.00 0.00 0.00 0.00 0.00 0.00 0.00 0.00 0.00
0.00 0.00 0.00 0.00 0.00 0.00 0.00 0.00 0.00 0.01 0.40 0.58 0.42 0.35 0.08 0.03 0.02 0.01 0.00 0.00 0.00 0.00 0.00 0.00 0.00 0.00 0.00 0.00 0.00 0.00 0.00 0.00 0.00 0.00 0.00 0.00 0.00 0.00 0.00 0.00 0.00 0.00 0.00 0.00 0.00
0.00 0.00 0.00 0.00 0.00 0.00 0.00 0.00 0.00 0.09 0.23 0.24 0.29 0.10 0.03 0.02 0.00 0.00 0.00 0.00 0.00 0.00 0.00 0.00 0.00 0.00 0.00 0.00 0.00 0.00 0.00 0.00 0.00 0.00 0.00 0.00 0.00 0.00 0.00 0.00 0.00 0.00 0.00 0.00 0.00
0.00 0.00 0.00 0.00 0.00 0.00 0.00 0.00 0.07 0.16 0.11 0.08 0.04 0.01 0.00 0.00 0.00 0.00 0.00 0.00 0.00 0.00 0.00 0.00 0.00 0.00 0.00 0.00 0.00 0.00 0.00 0.00 0.00 0.00 0.00 0.00 0.00 0.00 0.00 0.00 0.00 0.00 0.00 0.00 0.00
0.00 0.00 0.00 0.00 0.00 0.00 0.00 0.01 0.04 0.01 0.00 0.00 0.00 0.00 0.00 0.00 0.00 0.00 0.00 0.00 0.00 0.00 0.00 0.00 0.00 0.00 0.00 0.00 0.00 0.00 0.00 0.00 0.00 0.00 0.00 0.00 0.00 0.00 0.00 0.00 0.00 0.00 0.00 0.00 0.00
0.00 0.00 0.00 0.00 0.00 0.00 0.00 0.00 0.00 0.00 0.00 0.00 0.00 0.00 0.00 0.00 0.00 0.00 0.00 0.00 0.00 0.00 0.00 0.00 0.00 0.00 0.00 0.00 0.00 0.00 0.00 0.00 0.00 0.00 0.00 0.00 0.00 0.00 0.00 0.00 0.00 0.00 0.00 0.00 0.00
0.00 0.00 0.00 0.00 0.00 0.00 0.00 0.00 0.00 0.00 0.00 0.00 0.00 0.00 0.00 0.00 0.00 0.00 0.00 0.00 0.00 0.00 0.00 0.00 0.00 0.00 0.00 0.00 0.00 0.00 0.00 0.00 0.00 0.00 0.00 0.00 0.00 0.00 0.00 0.00 0.00 0.00 0.00 0.00 0.00
0.00 0.00 0.00 0.00 0.00 0.00 0.00 0.00 0.00 0.00 0.00 0.00 0.00 0.00 0.00 0.00 0.00 0.00 0.00 0.00 0.00 0.00 0.00 0.00 0.00 0.00 0.00 0.00 0.00 0.00 0.00 0.00 0.00 0.00 0.00 0.00 0.00 0.00 0.00 0.00 0.00 0.00 0.00 0.00 0.00
0.00 0.00 0.00 0.00 0.00 0.00 0.00 0.00 0.00 0.00 0.00 0.00 0.00 0.00 0.00 0.00 0.00 0.00 0.00 0.00 0.00 0.00 0.00 0.00 0.00 0.00 0.00 0.00 0.00 0.00 0.00 0.00 0.00 0.00 0.00 0.00 0.00 0.00 0.00 0.00 0.00 0.00 0.00 0.00 0.00
0.00 0.00 0.00 0.00 0.00 0.00 0.00 0.00 0.00 0.00 0.00 0.00 0.00 0.00 0.00 0.00 0.00 0.00 0.00 0.00 0.00 0.00 0.00 0.00 0.00 0.00 0.00 0.00 0.00 0.00 0.00 0.00 0.00 0.00 0.00 0.00 0.00 0.00 0.00 0.00 0.00 0.00 0.00 0.00 0.00
0.00 0.00 0.00 0.00 0.00 0.00 0.00 0.00 0.00 0.00 0.00 0.00 0.00 0.00 0.00 0.00 0.00 0.00 0.00 0.00 0.00 0.00 0.00 0.00 0.00 0.00 0.00 0.00 0.00 0.00 0.00 0.00 0.00 0.00 0.00 0.00 0.00 0.00 0.00 0.00 0.00 0.00 0.00 0.00 0.00
0.00 0.00 0.00 0.00 0.00 0.00 0.00 0.00 0.00 0.00 0.00 0.00 0.00 0.00 0.00 0.00 0.00 0.00 0.00 0.00 0.00 0.00 0.00 0.00 0.00 0.00 0.00 0.00 0.00 0.00 0.00 0.00 0.00 0.00 0.00 0.00 0.00 0.00 0.00 0.00 0.00 0.00 0.00 0.00 0.00
0.00 0.00 0.00 0.00 0.00 0.00 0.00 0.00 0.00 0.00 0.00 0.00 0.00 0.00 0.00 0.00 0.00 0.00 0.00 0.00 0.00 0.00 0.00 0.00 0.00 0.00 0.00 0.00 0.00 0.00 0.00 0.00 0.00 0.00 0.00 0.00 0.00 0.00 0.00 0.00 0.00 0.00 0.00 0.00 0.00

GFSSW_prec_precacc24_132.txt.gz
Total_Precipitation_Accumulation
0.24 0.27 0.24 0.41 0.54 0.79 0.95 0.80 0.39 0.31 0.14 0.15 0.17 0.25 0.40 0.97 0.70 0.35 0.20 0.10 0.02 0.00 0.00 0.00 0.00 0.00 0.00 0.00 0.00 0.00 0.00 0.00 0.00 0.00 0.00 0.00 0.00 0.00 0.00 0.00 0.00 0.00 0.00 0.00 0.00
0.13 0.10 0.28 0.42 0.57 0.50 0.45 0.55 0.51 0.50 0.26 0.15 0.14 0.18 0.40 1.28 1.10 0.40 0.38 0.20 0.03 0.00 0.00 0.00 0.00 0.00 0.00 0.00 0.00 0.00 0.00 0.00 0.00 0.00 0.00 0.00 0.00 0.00 0.00 0.00 0.00 0.00 0.00 0.00 0.00
0.13 0.13 0.15 0.18 0.23 0.36 0.36 0.40 0.45 0.64 0.48 0.17 0.12 0.09 0.48 1.25 1.77 0.80 0.50 0.34 0.05 0.00 0.00 0.00 0.00 0.00 0.00 0.00 0.00 0.00 0.00 0.00 0.00 0.00 0.00 0.00 0.00 0.00 0.00 0.00 0.00 0.00 0.00 0.00 0.00
0.16 0.12 0.04 0.06 0.11 0.31 0.38 0.38 0.49 0.81 0.58 0.20 0.11 0.11 0.69 1.21 1.65 1.05 0.57 0.17 0.02 0.00 0.00 0.00 0.00 0.00 0.00 0.00 0.00 0.00 0.00 0.00 0.00 0.00 0.00 0.00 0.00 0.00 0.00 0.00 0.00 0.00 0.00 0.00 0.00
0.12 0.13 0.06 0.07 0.13 0.19 0.31 0.42 0.69 0.74 0.43 0.16 0.13 0.34 0.72 1.01 0.94 0.90 0.34 0.04 0.00 0.00 0.00 0.00 0.00 0.00 0.00 0.00 0.00 0.00 0.00 0.00 0.00 0.00 0.00 0.00 0.00 0.00 0.00 0.00 0.00 0.00 0.00 0.00 0.00
0.15 0.08 0.02 0.05 0.11 0.29 0.56 0.80 0.84 0.74 0.40 0.25 0.19 0.31 0.49 0.67 0.72 1.01 0.36 0.08 0.01 0.00 0.00 0.00 0.00 0.00 0.00 0.00 0.00 0.00 0.00 0.00 0.00 0.00 0.00 0.00 0.00 0.00 0.00 0.00 0.00 0.00 0.00 0.00 0.00
0.09 0.12 0.03 0.02 0.08 0.18 0.33 0.60 0.93 0.85 0.53 0.40 0.27 0.24 0.42 0.60 0.54 1.09 0.32 0.11 0.01 0.00 0.00 0.00 0.00 0.00 0.00 0.00 0.00 0.00 0.00 0.00 0.00 0.00 0.00 0.00 0.00 0.00 0.00 0.00 0.00 0.00 0.00 0.00 0.00
0.10 0.04 0.01 0.02 0.06 0.12 0.14 0.26 0.28 0.40 0.50 0.42 0.22 0.12 0.37 0.48 0.41 0.69 0.28 0.07 0.03 0.00 0.00 0.00 0.00 0.00 0.00 0.00 0.00 0.00 0.00 0.00 0.00 0.00 0.00 0.00 0.00 0.00 0.00 0.00 0.00 0.00 0.00 0.00 0.00
0.14 0.03 0.00 0.00 0.03 0.10 0.12 0.07 0.03 0.05 0.11 0.12 0.09 0.17 0.42 0.41 0.35 0.51 0.28 0.08 0.05 0.00 0.00 0.00 0.00 0.00 0.00 0.00 0.00 0.00 0.00 0.00 0.00 0.00 0.00 0.00 0.00 0.00 0.00 0.00 0.00 0.00 0.00 0.00 0.00
0.00 0.00 0.00 0.00 0.02 0.02 0.02 0.00 0.00 0.00 0.01 0.02 0.10 0.26 0.54 0.55 0.35 0.39 0.25 0.04 0.05 0.00 0.00 0.00 0.00 0.00 0.00 0.00 0.00 0.00 0.00 0.00 0.00 0.00 0.00 0.00 0.00 0.00 0.00 0.00 0.00 0.00 0.00 0.00 0.00
0.00 0.00 0.01 0.00 0.02 0.00 0.02 0.00 0.03 0.07 0.11 0.42 0.37 0.35 0.60 0.38 0.25 0.30 0.26 0.04 0.03 0.00 0.00 0.00 0.00 0.00 0.00 0.00 0.00 0.00 0.00 0.00 0.00 0.00 0.00 0.00 0.00 0.00 0.00 0.00 0.00 0.00 0.00 0.00 0.00
0.00 0.00 0.00 0.00 0.00 0.00 0.00 0.00 0.01 0.09 0.40 0.52 0.35 0.24 0.43 0.26 0.27 0.24 0.15 0.04 0.02 0.00 0.00 0.00 0.00 0.00 0.00 0.00 0.00 0.00 0.00 0.00 0.00 0.00 0.00 0.00 0.00 0.00 0.00 0.00 0.00 0.00 0.00 0.00 0.00
0.00 0.00 0.00 0.00 0.00 0.00 0.00 0.00 0.00 0.01 0.25 0.52 0.54 0.51 0.41 0.20 0.21 0.19 0.08 0.01 0.00 0.00 0.00 0.00 0.00 0.00 0.00 0.00 0.00 0.00 0.00 0.00 0.00 0.00 0.00 0.00 0.00 0.00 0.00 0.00 0.00 0.00 0.00 0.00 0.00
0.00 0.00 0.00 0.00 0.00 0.00 0.00 0.00 0.00 0.00 0.10 0.61 0.45 0.56 0.34 0.22 0.22 0.06 0.02 0.00 0.00 0.00 0.00 0.00 0.00 0.00 0.00 0.00 0.00 0.00 0.00 0.00 0.00 0.00 0.00 0.00 0.00 0.00 0.00 0.00 0.00 0.00 0.00 0.00 0.00
0.00 0.00 0.00 0.00 0.00 0.00 0.00 0.00 0.00 0.00 0.19 0.64 0.57 0.43 0.26 0.12 0.17 0.07 0.00 0.00 0.00 0.00 0.00 0.00 0.00 0.00 0.00 0.00 0.00 0.00 0.00 0.00 0.00 0.00 0.00 0.00 0.00 0.00 0.00 0.00 0.00 0.00 0.00 0.00 0.00
0.00 0.00 0.00 0.00 0.00 0.00 0.00 0.00 0.00 0.01 0.36 0.54 0.39 0.31 0.08 0.03 0.02 0.01 0.00 0.00 0.00 0.00 0.00 0.00 0.00 0.00 0.00 0.00 0.00 0.00 0.00 0.00 0.00 0.00 0.00 0.00 0.00 0.00 0.00 0.00 0.00 0.00 0.00 0.00 0.00
0.00 0.00 0.00 0.00 0.00 0.00 0.00 0.00 0.00 0.08 0.19 0.22 0.28 0.09 0.02 0.02 0.00 0.00 0.00 0.00 0.00 0.00 0.00 0.00 0.00 0.00 0.00 0.00 0.00 0.00 0.00 0.00 0.00 0.00 0.00 0.00 0.00 0.00 0.00 0.00 0.00 0.00 0.00 0.00 0.00
0.00 0.00 0.00 0.00 0.00 0.00 0.00 0.00 0.06 0.15 0.10 0.07 0.03 0.02 0.00 0.00 0.00 0.00 0.00 0.00 0.00 0.00 0.00 0.00 0.00 0.00 0.00 0.00 0.00 0.00 0.00 0.00 0.00 0.00 0.00 0.00 0.00 0.00 0.00 0.00 0.00 0.00 0.00 0.00 0.00
0.00 0.00 0.00 0.00 0.00 0.00 0.00 0.00 0.03 0.01 0.01 0.00 0.01 0.00 0.00 0.00 0.00 0.00 0.00 0.00 0.00 0.00 0.00 0.00 0.00 0.00 0.00 0.00 0.00 0.00 0.00 0.00 0.00 0.00 0.00 0.00 0.00 0.00 0.00 0.00 0.00 0.00 0.00 0.00 0.00
0.00 0.00 0.00 0.00 0.00 0.00 0.00 0.00 0.00 0.00 0.00 0.00 0.00 0.00 0.00 0.00 0.00 0.00 0.00 0.00 0.00 0.00 0.00 0.00 0.00 0.00 0.00 0.00 0.00 0.00 0.00 0.00 0.00 0.00 0.00 0.00 0.00 0.00 0.00 0.00 0.00 0.00 0.00 0.00 0.00
0.00 0.00 0.00 0.00 0.00 0.00 0.00 0.00 0.00 0.00 0.00 0.00 0.00 0.00 0.00 0.00 0.00 0.00 0.00 0.00 0.00 0.00 0.00 0.00 0.00 0.00 0.00 0.00 0.00 0.00 0.00 0.00 0.00 0.00 0.00 0.00 0.00 0.00 0.00 0.00 0.00 0.00 0.00 0.00 0.00
0.00 0.00 0.00 0.00 0.00 0.00 0.00 0.00 0.00 0.00 0.00 0.00 0.00 0.00 0.00 0.00 0.00 0.00 0.00 0.00 0.00 0.00 0.00 0.00 0.00 0.00 0.00 0.00 0.00 0.00 0.00 0.00 0.00 0.00 0.00 0.00 0.00 0.00 0.00 0.00 0.00 0.00 0.00 0.00 0.00
0.00 0.00 0.00 0.00 0.00 0.00 0.00 0.00 0.00 0.00 0.00 0.00 0.00 0.00 0.00 0.00 0.00 0.00 0.00 0.00 0.00 0.00 0.00 0.00 0.00 0.00 0.00 0.00 0.00 0.00 0.00 0.00 0.00 0.00 0.00 0.00 0.00 0.00 0.00 0.00 0.00 0.00 0.00 0.00 0.00
0.00 0.00 0.00 0.00 0.00 0.00 0.00 0.00 0.00 0.00 0.00 0.00 0.00 0.00 0.00 0.00 0.00 0.00 0.00 0.00 0.00 0.00 0.00 0.00 0.00 0.00 0.00 0.00 0.00 0.00 0.00 0.00 0.00 0.00 0.00 0.00 0.00 0.00 0.00 0.00 0.00 0.00 0.00 0.00 0.00
0.00 0.00 0.00 0.00 0.00 0.00 0.00 0.00 0.00 0.00 0.00 0.00 0.00 0.00 0.00 0.00 0.00 0.00 0.00 0.00 0.00 0.00 0.00 0.00 0.00 0.00 0.00 0.00 0.00 0.00 0.00 0.00 0.00 0.00 0.00 0.00 0.00 0.00 0.00 0.00 0.00 0.00 0.00 0.00 0.00
0.00 0.00 0.00 0.00 0.00 0.00 0.00 0.00 0.00 0.00 0.00 0.00 0.00 0.00 0.00 0.00 0.00 0.00 0.00 0.00 0.00 0.00 0.00 0.00 0.00 0.00 0.00 0.00 0.00 0.00 0.00 0.00 0.00 0.00 0.00 0.00 0.00 0.00 0.00 0.00 0.00 0.00 0.00 0.00 0.00
0.00 0.00 0.00 0.00 0.00 0.00 0.00 0.00 0.00 0.00 0.00 0.00 0.00 0.00 0.00 0.00 0.00 0.00 0.00 0.00 0.00 0.00 0.00 0.00 0.00 0.00 0.00 0.00 0.00 0.00 0.00 0.00 0.00 0.00 0.00 0.00 0.00 0.00 0.00 0.00 0.00 0.00 0.00 0.00 0.00

GFSSW_prec_precacc24_135.txt.gz
Total_Precipitation_Accumulation
0.21 0.21 0.15 0.21 0.33 0.65 0.90 0.79 0.38 0.31 0.14 0.16 0.22 0.35 0.47 0.93 0.71 0.37 0.25 0.18 0.08 0.00 0.00 0.00 0.00 0.00 0.00 0.00 0.00 0.00 0.00 0.00 0.00 0.00 0.00 0.00 0.00 0.00 0.00 0.00 0.00 0.00 0.00 0.00 0.00
0.09 0.08 0.22 0.31 0.39 0.38 0.41 0.54 0.51 0.50 0.26 0.19 0.27 0.26 0.49 1.32 1.13 0.41 0.44 0.23 0.06 0.00 0.00 0.00 0.00 0.00 0.00 0.00 0.00 0.00 0.00 0.00 0.00 0.00 0.00 0.00 0.00 0.00 0.00 0.00 0.00 0.00 0.00 0.00 0.00
0.08 0.12 0.15 0.17 0.20 0.32 0.33 0.37 0.42 0.64 0.48 0.17 0.18 0.23 0.60 1.39 1.83 0.79 0.54 0.35 0.06 0.00 0.00 0.00 0.00 0.00 0.00 0.00 0.00 0.00 0.00 0.00 0.00 0.00 0.00 0.00 0.00 0.00 0.00 0.00 0.00 0.00 0.00 0.00 0.00
0.05 0.09 0.04 0.07 0.11 0.32 0.37 0.39 0.52 0.80 0.58 0.22 0.17 0.23 0.79 1.37 1.66 1.04 0.57 0.17 0.03 0.01 0.00 0.00 0.00 0.00 0.00 0.00 0.00 0.00 0.00 0.00 0.00 0.00 0.00 0.00 0.00 0.00 0.00 0.00 0.00 0.00 0.00 0.00 0.00
0.05 0.07 0.07 0.08 0.13 0.20 0.35 0.46 0.70 0.74 0.44 0.19 0.22 0.41 0.79 1.11 0.97 0.88 0.33 0.04 0.02 0.01 0.00 0.00 0.00 0.00 0.00 0.00 0.00 0.00 0.00 0.00 0.00 0.00 0.00 0.00 0.00 0.00 0.00 0.00 0.00 0.00 0.00 0.00 0.00
0.06 0.03 0.02 0.05 0.11 0.29 0.60 0.86 0.79 0.66 0.38 0.26 0.26 0.38 0.56 0.75 0.75 0.96 0.32 0.08 0.02 0.03 0.00 0.00 0.00 0.00 0.00 0.00 0.00 0.00 0.00 0.00 0.00 0.00 0.00 0.00 0.00 0.00 0.00 0.00 0.00 0.00 0.00 0.00 0.00
0.03 0.07 0.02 0.01 0.08 0.18 0.33 0.63 0.92 0.78 0.53 0.40 0.28 0.30 0.50 0.64 0.54 1.03 0.30 0.11 0.02 0.04 0.00 0.00 0.00 0.00 0.00 0.00 0.00 0.00 0.00 0.00 0.00 0.00 0.00 0.00 0.00 0.00 0.00 0.00 0.00 0.00 0.00 0.00 0.00
0.04 0.02 0.01 0.02 0.06 0.11 0.14 0.24 0.30 0.47 0.54 0.47 0.28 0.17 0.46 0.50 0.41 0.66 0.25 0.07 0.03 0.00 0.00 0.00 0.00 0.00 0.00 0.00 0.00 0.00 0.00 0.00 0.00 0.00 0.00 0.00 0.00 0.00 0.00 0.00 0.00 0.00 0.00 0.00 0.00
0.04 0.02 0.00 0.00 0.03 0.10 0.12 0.06 0.03 0.09 0.21 0.15 0.11 0.11 0.41 0.38 0.31 0.47 0.27 0.08 0.05 0.00 0.00 0.00 0.00 0.00 0.00 0.00 0.00 0.00 0.00 0.00 0.00 0.00 0.00 0.00 0.00 0.00 0.00 0.00 0.00 0.00 0.00 0.00 0.00
0.00 0.00 0.00 0.00 0.02 0.02 0.00 0.00 0.00 0.00 0.01 0.10 0.19 0.17 0.47 0.38 0.20 0.37 0.25 0.04 0.06 0.00 0.00 0.00 0.00 0.00 0.00 0.00 0.00 0.00 0.00 0.00 0.00 0.00 0.00 0.00 0.00 0.00 0.00 0.00 0.00 0.00 0.00 0.00 0.00
0.00 0.00 0.01 0.00 0.02 0.00 0.00 0.00 0.01 0.05 0.12 0.45 0.41 0.40 0.60 0.30 0.15 0.29 0.26 0.05 0.04 0.01 0.00 0.00 0.00 0.00 0.00 0.00 0.00 0.00 0.00 0.00 0.00 0.00 0.00 0.00 0.00 0.00 0.00 0.00 0.00 0.00 0.00 0.00 0.00
0.00 0.00 0.00 0.00 0.00 0.00 0.00 0.00 0.01 0.10 0.45 0.51 0.35 0.23 0.42 0.21 0.23 0.23 0.16 0.07 0.04 0.02 0.00 0.00 0.00 0.00 0.00 0.00 0.00 0.00 0.00 0.00 0.00 0.00 0.00 0.00 0.00 0.00 0.00 0.00 0.00 0.00 0.00 0.00 0.00
0.00 0.00 0.00 0.00 0.00 0.00 0.00 0.00 0.00 0.01 0.27 0.61 0.54 0.54 0.47 0.22 0.21 0.19 0.10 0.03 0.03 0.05 0.00 0.00 0.00 0.00 0.00 0.00 0.00 0.00 0.00 0.00 0.00 0.00 0.00 0.00 0.00 0.00 0.00 0.00 0.00 0.00 0.00 0.00 0.00
0.00 0.00 0.00 0.00 0.00 0.00 0.00 0.00 0.00 0.00 0.09 0.58 0.49 0.64 0.43 0.27 0.25 0.05 0.02 0.02 0.04 0.03 0.00 0.00 0.00 0.00 0.00 0.00 0.00 0.00 0.00 0.00 0.00 0.00 0.00 0.00 0.00 0.00 0.00 0.00 0.00 0.00 0.00 0.00 0.00
0.00 0.00 0.00 0.00 0.00 0.00 0.00 0.00 0.00 0.00 0.20 0.64 0.57 0.44 0.26 0.15 0.19 0.07 0.00 0.00 0.01 0.00 0.00 0.00 0.00 0.00 0.00 0.00 0.00 0.00 0.00 0.00 0.00 0.00 0.00 0.00 0.00 0.00 0.00 0.00 0.00 0.00 0.00 0.00 0.00
0.00 0.00 0.00 0.00 0.00 0.00 0.00 0.00 0.00 0.01 0.35 0.53 0.41 0.28 0.09 0.03 0.02 0.01 0.00 0.00 0.00 0.00 0.00 0.00 0.00 0.00 0.00 0.00 0.00 0.00 0.00 0.00 0.00 0.00 0.00 0.00 0.00 0.00 0.00 0.00 0.00 0.00 0.00 0.00 0.00
0.00 0.00 0.00 0.00 0.00 0.00 0.00 0.00 0.00 0.08 0.17 0.20 0.28 0.11 0.02 0.03 0.01 0.00 0.00 0.00 0.00 0.00 0.00 0.00 0.00 0.00 0.00 0.00 0.00 0.00 0.00 0.00 0.00 0.00 0.00 0.00 0.00 0.00 0.00 0.00 0.00 0.00 0.00 0.00 0.00
0.00 0.00 0.00 0.00 0.00 0.00 0.00 0.00 0.06 0.16 0.11 0.07 0.03 0.02 0.01 0.01 0.00 0.00 0.00 0.00 0.00 0.00 0.00 0.00 0.00 0.00 0.00 0.00 0.00 0.00 0.00 0.00 0.00 0.00 0.00 0.00 0.00 0.00 0.00 0.00 0.00 0.00 0.00 0.00 0.00
0.00 0.00 0.00 0.00 0.00 0.00 0.00 0.00 0.03 0.01 0.01 0.01 0.01 0.00 0.00 0.00 0.00 0.00 0.00 0.00 0.00 0.00 0.00 0.00 0.00 0.00 0.00 0.00 0.00 0.00 0.00 0.00 0.00 0.00 0.00 0.00 0.00 0.00 0.00 0.00 0.00 0.00 0.00 0.00 0.00
0.00 0.00 0.00 0.00 0.00 0.00 0.00 0.00 0.00 0.00 0.00 0.00 0.00 0.00 0.00 0.00 0.00 0.00 0.00 0.00 0.00 0.00 0.00 0.00 0.00 0.00 0.00 0.00 0.00 0.00 0.00 0.00 0.00 0.00 0.00 0.00 0.00 0.00 0.00 0.00 0.00 0.00 0.00 0.00 0.00
0.00 0.00 0.00 0.00 0.00 0.00 0.00 0.00 0.00 0.00 0.00 0.00 0.00 0.00 0.00 0.00 0.00 0.00 0.00 0.00 0.00 0.00 0.00 0.00 0.00 0.00 0.00 0.00 0.00 0.00 0.00 0.00 0.00 0.00 0.00 0.00 0.00 0.00 0.00 0.00 0.00 0.00 0.00 0.00 0.00
0.00 0.00 0.00 0.00 0.00 0.00 0.00 0.00 0.00 0.00 0.00 0.00 0.00 0.00 0.00 0.00 0.00 0.00 0.00 0.00 0.00 0.00 0.00 0.00 0.00 0.00 0.00 0.00 0.00 0.00 0.00 0.00 0.00 0.00 0.00 0.00 0.00 0.00 0.00 0.00 0.00 0.00 0.00 0.00 0.00
0.00 0.00 0.00 0.00 0.00 0.00 0.00 0.00 0.00 0.00 0.00 0.00 0.00 0.00 0.00 0.00 0.00 0.00 0.00 0.00 0.00 0.00 0.00 0.00 0.00 0.00 0.00 0.00 0.00 0.00 0.00 0.00 0.00 0.00 0.00 0.00 0.00 0.00 0.00 0.00 0.00 0.00 0.00 0.00 0.00
0.00 0.00 0.00 0.00 0.00 0.00 0.00 0.00 0.00 0.00 0.00 0.00 0.00 0.00 0.00 0.00 0.00 0.00 0.00 0.00 0.00 0.00 0.00 0.00 0.00 0.00 0.00 0.00 0.00 0.00 0.00 0.00 0.00 0.00 0.00 0.00 0.00 0.00 0.00 0.00 0.00 0.00 0.00 0.00 0.00
0.00 0.00 0.00 0.00 0.00 0.00 0.00 0.00 0.00 0.00 0.00 0.00 0.00 0.00 0.00 0.00 0.00 0.00 0.00 0.00 0.00 0.00 0.00 0.00 0.00 0.00 0.00 0.00 0.00 0.00 0.00 0.00 0.00 0.00 0.00 0.00 0.00 0.00 0.00 0.00 0.00 0.00 0.00 0.00 0.00
0.00 0.00 0.00 0.00 0.00 0.00 0.00 0.00 0.00 0.00 0.00 0.00 0.00 0.00 0.00 0.00 0.00 0.00 0.00 0.00 0.00 0.00 0.00 0.00 0.00 0.00 0.00 0.00 0.00 0.00 0.00 0.00 0.00 0.00 0.00 0.00 0.00 0.00 0.00 0.00 0.00 0.00 0.00 0.00 0.00
0.00 0.00 0.00 0.00 0.00 0.00 0.00 0.00 0.00 0.00 0.00 0.00 0.00 0.00 0.00 0.00 0.00 0.00 0.00 0.00 0.00 0.00 0.00 0.00 0.00 0.00 0.00 0.00 0.00 0.00 0.00 0.00 0.00 0.00 0.00 0.00 0.00 0.00 0.00 0.00 0.00 0.00 0.00 0.00 0.00

GFSSW_prec_precacc24_138.txt.gz
Total_Precipitation_Accumulation
0.09 0.11 0.06 0.17 0.20 0.39 0.65 0.68 0.36 0.31 0.14 0.16 0.23 0.33 0.47 0.94 0.77 0.42 0.28 0.29 0.14 0.01 0.00 0.00 0.00 0.00 0.00 0.00 0.00 0.00 0.00 0.00 0.00 0.00 0.00 0.00 0.00 0.00 0.00 0.00 0.00 0.00 0.00 0.00 0.00
0.02 0.02 0.14 0.23 0.33 0.21 0.26 0.43 0.42 0.50 0.26 0.19 0.28 0.29 0.53 1.33 1.13 0.44 0.47 0.37 0.23 0.07 0.00 0.00 0.00 0.00 0.00 0.00 0.00 0.00 0.00 0.00 0.00 0.00 0.00 0.00 0.00 0.00 0.00 0.00 0.00 0.00 0.00 0.00 0.00
0.05 0.07 0.12 0.14 0.19 0.27 0.22 0.27 0.35 0.63 0.48 0.17 0.20 0.33 0.62 1.47 1.89 0.79 0.58 0.41 0.23 0.08 0.00 0.00 0.00 0.00 0.00 0.00 0.00 0.00 0.00 0.00 0.00 0.00 0.00 0.00 0.00 0.00 0.00 0.00 0.00 0.00 0.00 0.00 0.00
0.03 0.04 0.04 0.07 0.10 0.28 0.32 0.35 0.47 0.76 0.58 0.24 0.27 0.31 0.80 1.54 2.00 1.08 0.58 0.18 0.13 0.08 0.00 0.00 0.00 0.00 0.00 0.00 0.00 0.00 0.00 0.00 0.00 0.00 0.00 0.00 0.00 0.00 0.00 0.00 0.00 0.00 0.00 0.00 0.00
0.02 0.04 0.03 0.05 0.12 0.19 0.34 0.47 0.62 0.68 0.45 0.24 0.30 0.47 0.80 1.28 1.29 0.89 0.33 0.04 0.06 0.09 0.01 0.00 0.00 0.00 0.00 0.00 0.00 0.00 0.00 0.00 0.00 0.00 0.00 0.00 0.00 0.00 0.00 0.00 0.00 0.00 0.00 0.00 0.00
0.01 0.02 0.01 0.05 0.11 0.29 0.58 0.87 0.72 0.58 0.40 0.29 0.33 0.46 0.62 0.94 1.00 0.90 0.30 0.08 0.07 0.06 0.01 0.00 0.00 0.00 0.00 0.00 0.00 0.00 0.00 0.00 0.00 0.00 0.00 0.00 0.00 0.00 0.00 0.00 0.00 0.00 0.00 0.00 0.00
0.01 0.02 0.01 0.01 0.08 0.17 0.31 0.62 0.91 0.73 0.53 0.44 0.34 0.40 0.59 0.80 0.64 0.93 0.20 0.11 0.05 0.08 0.01 0.00 0.00 0.00 0.00 0.00 0.00 0.00 0.00 0.00 0.00 0.00 0.00 0.00 0.00 0.00 0.00 0.00 0.00 0.00 0.00 0.00 0.00
0.02 0.01 0.01 0.01 0.06 0.08 0.11 0.24 0.29 0.44 0.54 0.50 0.32 0.19 0.47 0.54 0.41 0.57 0.16 0.07 0.04 0.09 0.00 0.00 0.00 0.00 0.00 0.00 0.00 0.00 0.00 0.00 0.00 0.00 0.00 0.00 0.00 0.00 0.00 0.00 0.00 0.00 0.00 0.00 0.00
0.01 0.01 0.00 0.00 0.03 0.09 0.11 0.06 0.04 0.09 0.20 0.15 0.11 0.11 0.40 0.37 0.29 0.43 0.17 0.08 0.06 0.10 0.01 0.00 0.00 0.00 0.00 0.00 0.00 0.00 0.00 0.00 0.00 0.00 0.00 0.00 0.00 0.00 0.00 0.00 0.00 0.00 0.00 0.00 0.00
0.00 0.00 0.00 0.00 0.02 0.02 0.00 0.00 0.00 0.00 0.02 0.11 0.18 0.17 0.42 0.30 0.19 0.34 0.17 0.04 0.07 0.10 0.03 0.00 0.00 0.00 0.00 0.00 0.00 0.00 0.00 0.00 0.00 0.00 0.00 0.00 0.00 0.00 0.00 0.00 0.00 0.00 0.00 0.00 0.00
0.00 0.00 0.01 0.00 0.02 0.00 0.00 0.00 0.00 0.05 0.11 0.46 0.34 0.45 0.51 0.23 0.14 0.27 0.24 0.05 0.05 0.05 0.04 0.00 0.00 0.00 0.00 0.00 0.00 0.00 0.00 0.00 0.00 0.00 0.00 0.00 0.00 0.00 0.00 0.00 0.00 0.00 0.00 0.00 0.00
0.00 0.00 0.00 0.00 0.00 0.00 0.00 0.00 0.01 0.10 0.43 0.48 0.29 0.24 0.35 0.16 0.17 0.23 0.16 0.07 0.04 0.03 0.02 0.00 0.00 0.00 0.00 0.00 0.00 0.00 0.00 0.00 0.00 0.00 0.00 0.00 0.00 0.00 0.00 0.00 0.00 0.00 0.00 0.00 0.00
0.00 0.00 0.00 0.00 0.00 0.00 0.00 0.00 0.00 0.01 0.25 0.59 0.54 0.51 0.37 0.14 0.17 0.19 0.10 0.03 0.03 0.06 0.01 0.00 0.00 0.00 0.00 0.00 0.00 0.00 0.00 0.00 0.00 0.00 0.00 0.00 0.00 0.00 0.00 0.00 0.00 0.00 0.00 0.00 0.00
0.00 0.00 0.00 0.00 0.00 0.00 0.00 0.00 0.00 0.00 0.09 0.54 0.49 0.65 0.44 0.23 0.19 0.06 0.03 0.03 0.05 0.03 0.00 0.00 0.00 0.00 0.00 0.00 0.00 0.00 0.00 0.00 0.00 0.00 0.00 0.00 0.00 0.00 0.00 0.00 0.00 0.00 0.00 0.00 0.00
0.00 0.00 0.00 0.00 0.00 0.00 0.00 0.00 0.00 0.00 0.19 0.61 0.57 0.45 0.29 0.16 0.20 0.09 0.03 0.02 0.02 0.01 0.00 0.00 0.00 0.00 0.00 0.00 0.00 0.00 0.00 0.00 0.00 0.00 0.00 0.00 0.00 0.00 0.00 0.00 0.00 0.00 0.00 0.00 0.00
0.00 0.00 0.00 0.00 0.00 0.00 0.00 0.00 0.00 0.01 0.34 0.52 0.43 0.26 0.11 0.07 0.06 0.05 0.04 0.02 0.01 0.00 0.00 0.00 0.00 0.00 0.00 0.00 0.00 0.00 0.00 0.00 0.00 0.00 0.00 0.00 0.00 0.00 0.00 0.00 0.00 0.00 0.00 0.00 0.00
0.00 0.00 0.00 0.00 0.00 0.00 0.00 0.00 0.00 0.08 0.17 0.20 0.29 0.11 0.03 0.06 0.05 0.01 0.02 0.01 0.02 0.00 0.00 0.00 0.00 0.00 0.00 0.00 0.00 0.00 0.00 0.00 0.00 0.00 0.00 0.00 0.00 0.00 0.00 0.00 0.00 0.00 0.00 0.00 0.00
0.00 0.00 0.00 0.00 0.00 0.00 0.00 0.00 0.06 0.16 0.11 0.07 0.04 0.03 0.01 0.01 0.00 0.00 0.01 0.00 0.00 0.00 0.00 0.00 0.00 0.00 0.00 0.00 0.00 0.00 0.00 0.00 0.00 0.00 0.00 0.00 0.00 0.00 0.00 0.00 0.00 0.00 0.00 0.00 0.00
0.00 0.00 0.00 0.00 0.00 0.00 0.00 0.00 0.03 0.01 0.01 0.01 0.01 0.00 0.00 0.00 0.00 0.00 0.00 0.00 0.00 0.00 0.00 0.00 0.00 0.00 0.00 0.00 0.00 0.00 0.00 0.00 0.00 0.00 0.00 0.00 0.00 0.00 0.00 0.00 0.00 0.00 0.00 0.00 0.00
0.00 0.00 0.00 0.00 0.00 0.00 0.00 0.00 0.00 0.00 0.00 0.00 0.00 0.00 0.00 0.00 0.00 0.00 0.00 0.00 0.00 0.00 0.00 0.00 0.00 0.00 0.00 0.00 0.00 0.00 0.00 0.00 0.00 0.00 0.00 0.00 0.00 0.00 0.00 0.00 0.00 0.00 0.00 0.00 0.00
0.00 0.00 0.00 0.00 0.00 0.00 0.00 0.00 0.00 0.00 0.00 0.00 0.00 0.00 0.00 0.00 0.00 0.00 0.00 0.00 0.00 0.00 0.00 0.00 0.00 0.00 0.00 0.00 0.00 0.00 0.00 0.00 0.00 0.00 0.00 0.00 0.00 0.00 0.00 0.00 0.00 0.00 0.00 0.00 0.00
0.00 0.00 0.00 0.00 0.00 0.00 0.00 0.00 0.00 0.00 0.00 0.00 0.00 0.00 0.00 0.00 0.00 0.00 0.00 0.00 0.00 0.00 0.00 0.00 0.00 0.00 0.00 0.00 0.00 0.00 0.00 0.00 0.00 0.00 0.00 0.00 0.00 0.00 0.00 0.00 0.00 0.00 0.00 0.00 0.00
0.00 0.00 0.00 0.00 0.00 0.00 0.00 0.00 0.00 0.00 0.00 0.00 0.00 0.00 0.00 0.00 0.00 0.00 0.00 0.00 0.00 0.00 0.00 0.00 0.00 0.00 0.00 0.00 0.00 0.00 0.00 0.00 0.00 0.00 0.00 0.00 0.00 0.00 0.00 0.00 0.00 0.00 0.00 0.00 0.00
0.00 0.00 0.00 0.00 0.00 0.00 0.00 0.00 0.00 0.00 0.00 0.00 0.00 0.00 0.00 0.00 0.00 0.00 0.00 0.00 0.00 0.00 0.00 0.00 0.00 0.00 0.00 0.00 0.00 0.00 0.00 0.00 0.00 0.00 0.00 0.00 0.00 0.00 0.00 0.00 0.00 0.00 0.00 0.00 0.00
0.00 0.00 0.00 0.00 0.00 0.00 0.00 0.00 0.00 0.00 0.00 0.00 0.00 0.00 0.00 0.00 0.00 0.00 0.00 0.00 0.00 0.00 0.00 0.00 0.00 0.00 0.00 0.00 0.00 0.00 0.00 0.00 0.00 0.00 0.00 0.00 0.00 0.00 0.00 0.00 0.00 0.00 0.00 0.00 0.00
0.00 0.00 0.00 0.00 0.00 0.00 0.00 0.00 0.00 0.00 0.00 0.00 0.00 0.00 0.00 0.00 0.00 0.00 0.00 0.00 0.00 0.00 0.00 0.00 0.00 0.00 0.00 0.00 0.00 0.00 0.00 0.00 0.00 0.00 0.00 0.00 0.00 0.00 0.00 0.00 0.00 0.00 0.00 0.00 0.00
0.00 0.00 0.00 0.00 0.00 0.00 0.00 0.00 0.00 0.00 0.00 0.00 0.00 0.00 0.00 0.00 0.00 0.00 0.00 0.00 0.00 0.00 0.00 0.00 0.00 0.00 0.00 0.00 0.00 0.00 0.00 0.00 0.00 0.00 0.00 0.00 0.00 0.00 0.00 0.00 0.00 0.00 0.00 0.00 0.00